<?xml version='1.0' encoding='UTF-8'?><gpx version="1.1" creator="JPX - https://github.com/jenetics/jpx" xmlns="http://www.topografix.com/GPX/1/1"><trk><trkseg><trkpt lat="44.68829" lon="8.8073421"><ele>236.99999999999997</ele><time>2026-04-11T09:37:07.292Z</time></trkpt><trkpt lat="44.6883055" lon="8.8072465"><ele>237.0</ele><time>2026-04-11T09:38:15.291Z</time></trkpt><trkpt lat="44.6883044" lon="8.8071571"><ele>236.99999999999997</ele><time>2026-04-11T09:40:46.291Z</time></trkpt><trkpt lat="44.6883237" lon="8.8070719"><ele>236.99999999999997</ele><time>2026-04-11T09:40:56.291Z</time></trkpt><trkpt lat="44.6883352" lon="8.8069554"><ele>237.0</ele><time>2026-04-11T09:41:23.291Z</time></trkpt><trkpt lat="44.6883414" lon="8.8068497"><ele>236.99999999999997</ele><time>2026-04-11T09:41:26.291Z</time></trkpt><trkpt lat="44.6883665" lon="8.8067589"><ele>236.99999999999997</ele><time>2026-04-11T09:41:28.291Z</time></trkpt><trkpt lat="44.6883806" lon="8.8066354"><ele>236.0</ele><time>2026-04-11T09:41:30.291Z</time></trkpt><trkpt lat="44.6884033" lon="8.8064669"><ele>235.0</ele><time>2026-04-11T09:41:32.291Z</time></trkpt><trkpt lat="44.6884111" lon="8.8063635"><ele>234.0</ele><time>2026-04-11T09:41:33.291Z</time></trkpt><trkpt lat="44.6884309" lon="8.8062785"><ele>233.0</ele><time>2026-04-11T09:41:34.291Z</time></trkpt><trkpt lat="44.6884626" lon="8.8061229"><ele>232.0</ele><time>2026-04-11T09:41:36.291Z</time></trkpt><trkpt lat="44.6884828" lon="8.8059704"><ele>231.49999999999997</ele><time>2026-04-11T09:41:38.292Z</time></trkpt><trkpt lat="44.6884897" lon="8.8058359"><ele>231.0</ele><time>2026-04-11T09:41:40.291Z</time></trkpt><trkpt lat="44.688504" lon="8.8057404"><ele>230.5</ele><time>2026-04-11T09:41:42.291Z</time></trkpt><trkpt lat="44.6884851" lon="8.805623"><ele>230.0</ele><time>2026-04-11T09:41:45.291Z</time></trkpt><trkpt lat="44.6885158" lon="8.805541"><ele>229.49999999999997</ele><time>2026-04-11T09:41:48.291Z</time></trkpt><trkpt lat="44.6885583" lon="8.8054686"><ele>229.0</ele><time>2026-04-11T09:41:50.291Z</time></trkpt><trkpt lat="44.6885842" lon="8.8053219"><ele>229.0</ele><time>2026-04-11T09:41:52.291Z</time></trkpt><trkpt lat="44.6885867" lon="8.8051737"><ele>228.99999999999997</ele><time>2026-04-11T09:41:54.292Z</time></trkpt><trkpt lat="44.6886092" lon="8.8050881"><ele>228.99999999999997</ele><time>2026-04-11T09:41:55.292Z</time></trkpt><trkpt lat="44.6886529" lon="8.8049151"><ele>229.0</ele><time>2026-04-11T09:41:57.291Z</time></trkpt><trkpt lat="44.6887001" lon="8.8047385"><ele>229.0</ele><time>2026-04-11T09:41:59.291Z</time></trkpt><trkpt lat="44.6887303" lon="8.8046254"><ele>230.16666666666666</ele><time>2026-04-11T09:42:00.292Z</time></trkpt><trkpt lat="44.688751" lon="8.8045176"><ele>231.33333333333331</ele><time>2026-04-11T09:42:01.291Z</time></trkpt><trkpt lat="44.6887721" lon="8.8044013"><ele>232.5</ele><time>2026-04-11T09:42:02.292Z</time></trkpt><trkpt lat="44.6888034" lon="8.8043096"><ele>233.66666666666669</ele><time>2026-04-11T09:42:03.291Z</time></trkpt><trkpt lat="44.6888352" lon="8.8041632"><ele>234.83333333333334</ele><time>2026-04-11T09:42:05.291Z</time></trkpt><trkpt lat="44.688858" lon="8.8040752"><ele>236.0</ele><time>2026-04-11T09:42:06.292Z</time></trkpt><trkpt lat="44.6888841" lon="8.8039743"><ele>236.0</ele><time>2026-04-11T09:42:07.291Z</time></trkpt><trkpt lat="44.6889394" lon="8.8038524"><ele>236.00000000000003</ele><time>2026-04-11T09:42:08.292Z</time></trkpt><trkpt lat="44.6889668" lon="8.8037239"><ele>236.00000000000003</ele><time>2026-04-11T09:42:09.291Z</time></trkpt><trkpt lat="44.6890091" lon="8.8036281"><ele>236.0</ele><time>2026-04-11T09:42:10.291Z</time></trkpt><trkpt lat="44.6890422" lon="8.803523"><ele>236.0</ele><time>2026-04-11T09:42:11.291Z</time></trkpt><trkpt lat="44.6890818" lon="8.8034098"><ele>235.50000000000003</ele><time>2026-04-11T09:42:12.292Z</time></trkpt><trkpt lat="44.6891142" lon="8.8033164"><ele>235.0</ele><time>2026-04-11T09:42:13.291Z</time></trkpt><trkpt lat="44.6891489" lon="8.8032244"><ele>234.5</ele><time>2026-04-11T09:42:14.291Z</time></trkpt><trkpt lat="44.6891888" lon="8.8031236"><ele>234.0</ele><time>2026-04-11T09:42:15.292Z</time></trkpt><trkpt lat="44.6892263" lon="8.8030299"><ele>233.50000000000003</ele><time>2026-04-11T09:42:16.292Z</time></trkpt><trkpt lat="44.6892701" lon="8.8029296"><ele>233.0</ele><time>2026-04-11T09:42:17.291Z</time></trkpt><trkpt lat="44.6893163" lon="8.8028269"><ele>233.00000000000003</ele><time>2026-04-11T09:42:18.291Z</time></trkpt><trkpt lat="44.6893623" lon="8.8027185"><ele>233.0</ele><time>2026-04-11T09:42:19.292Z</time></trkpt><trkpt lat="44.6894212" lon="8.8026144"><ele>233.0</ele><time>2026-04-11T09:42:20.291Z</time></trkpt><trkpt lat="44.6894728" lon="8.8025317"><ele>233.0</ele><time>2026-04-11T09:42:21.291Z</time></trkpt><trkpt lat="44.6895141" lon="8.8024404"><ele>233.00000000000003</ele><time>2026-04-11T09:42:22.291Z</time></trkpt><trkpt lat="44.6895439" lon="8.8023488"><ele>233.0</ele><time>2026-04-11T09:42:23.291Z</time></trkpt><trkpt lat="44.6896274" lon="8.8022442"><ele>232.8</ele><time>2026-04-11T09:42:25.291Z</time></trkpt><trkpt lat="44.689647" lon="8.8021413"><ele>232.60000000000002</ele><time>2026-04-11T09:42:27.291Z</time></trkpt><trkpt lat="44.6896434" lon="8.8020383"><ele>232.39999999999998</ele><time>2026-04-11T09:42:29.291Z</time></trkpt><trkpt lat="44.6895249" lon="8.802056"><ele>232.2</ele><time>2026-04-11T09:42:40.292Z</time></trkpt><trkpt lat="44.6894383" lon="8.8021113"><ele>232.0</ele><time>2026-04-11T09:42:42.292Z</time></trkpt><trkpt lat="44.6893483" lon="8.8021453"><ele>232.0</ele><time>2026-04-11T09:42:44.291Z</time></trkpt><trkpt lat="44.6892615" lon="8.8020126"><ele>232.0</ele><time>2026-04-11T09:42:47.291Z</time></trkpt><trkpt lat="44.6892151" lon="8.8019436"><ele>232.0</ele><time>2026-04-11T09:42:48.291Z</time></trkpt><trkpt lat="44.6891551" lon="8.8018375"><ele>232.0</ele><time>2026-04-11T09:42:50.291Z</time></trkpt><trkpt lat="44.6890999" lon="8.8017414"><ele>232.0</ele><time>2026-04-11T09:42:57.292Z</time></trkpt><trkpt lat="44.6890386" lon="8.801638"><ele>231.2</ele><time>2026-04-11T09:42:59.291Z</time></trkpt><trkpt lat="44.6889829" lon="8.8015432"><ele>230.39999999999998</ele><time>2026-04-11T09:43:01.291Z</time></trkpt><trkpt lat="44.6888501" lon="8.8015001"><ele>229.60000000000002</ele><time>2026-04-11T09:43:09.292Z</time></trkpt><trkpt lat="44.6887406" lon="8.8014814"><ele>228.8</ele><time>2026-04-11T09:43:11.291Z</time></trkpt><trkpt lat="44.6886741" lon="8.8014693"><ele>228.0</ele><time>2026-04-11T09:43:12.291Z</time></trkpt><trkpt lat="44.6885615" lon="8.8014647"><ele>227.0</ele><time>2026-04-11T09:43:14.291Z</time></trkpt><trkpt lat="44.6884952" lon="8.8014887"><ele>226.0</ele><time>2026-04-11T09:43:15.292Z</time></trkpt><trkpt lat="44.6883889" lon="8.8015228"><ele>225.0</ele><time>2026-04-11T09:43:17.291Z</time></trkpt><trkpt lat="44.6882862" lon="8.8015282"><ele>224.0</ele><time>2026-04-11T09:43:19.291Z</time></trkpt><trkpt lat="44.6882272" lon="8.8014952"><ele>223.0</ele><time>2026-04-11T09:43:20.292Z</time></trkpt><trkpt lat="44.6881704" lon="8.8014441"><ele>222.0</ele><time>2026-04-11T09:43:21.291Z</time></trkpt><trkpt lat="44.6881234" lon="8.8013842"><ele>222.0</ele><time>2026-04-11T09:43:22.292Z</time></trkpt><trkpt lat="44.6880452" lon="8.8012571"><ele>222.0</ele><time>2026-04-11T09:43:24.291Z</time></trkpt><trkpt lat="44.6879699" lon="8.8011399"><ele>222.0</ele><time>2026-04-11T09:43:26.291Z</time></trkpt><trkpt lat="44.6878701" lon="8.8010442"><ele>222.0</ele><time>2026-04-11T09:43:28.291Z</time></trkpt><trkpt lat="44.6878062" lon="8.8010065"><ele>222.0</ele><time>2026-04-11T09:43:29.291Z</time></trkpt><trkpt lat="44.6877401" lon="8.8009832"><ele>221.83333333333334</ele><time>2026-04-11T09:43:30.291Z</time></trkpt><trkpt lat="44.6876275" lon="8.8009387"><ele>221.66666666666669</ele><time>2026-04-11T09:43:32.292Z</time></trkpt><trkpt lat="44.6875205" lon="8.8009673"><ele>221.5</ele><time>2026-04-11T09:43:34.291Z</time></trkpt><trkpt lat="44.6874553" lon="8.8009981"><ele>221.33333333333334</ele><time>2026-04-11T09:43:35.291Z</time></trkpt><trkpt lat="44.687389" lon="8.801032"><ele>221.16666666666669</ele><time>2026-04-11T09:43:36.291Z</time></trkpt><trkpt lat="44.6873205" lon="8.8010706"><ele>221.0</ele><time>2026-04-11T09:43:37.291Z</time></trkpt><trkpt lat="44.6872567" lon="8.8011073"><ele>221.00000000000003</ele><time>2026-04-11T09:43:38.291Z</time></trkpt><trkpt lat="44.6871946" lon="8.8011397"><ele>221.0</ele><time>2026-04-11T09:43:39.292Z</time></trkpt><trkpt lat="44.6870994" lon="8.8012407"><ele>221.0</ele><time>2026-04-11T09:43:41.291Z</time></trkpt><trkpt lat="44.6870394" lon="8.8012891"><ele>221.0</ele><time>2026-04-11T09:43:42.291Z</time></trkpt><trkpt lat="44.6869745" lon="8.8013214"><ele>221.00000000000003</ele><time>2026-04-11T09:43:43.291Z</time></trkpt><trkpt lat="44.6869196" lon="8.8013712"><ele>221.0</ele><time>2026-04-11T09:43:44.292Z</time></trkpt><trkpt lat="44.6868344" lon="8.8014457"><ele>220.00000000000003</ele><time>2026-04-11T09:43:46.291Z</time></trkpt><trkpt lat="44.6867666" lon="8.801431"><ele>219.0</ele><time>2026-04-11T09:43:50.291Z</time></trkpt><trkpt lat="44.6867081" lon="8.8013844"><ele>218.0</ele><time>2026-04-11T09:43:53.291Z</time></trkpt><trkpt lat="44.6866361" lon="8.80142"><ele>217.0</ele><time>2026-04-11T09:43:56.292Z</time></trkpt><trkpt lat="44.6865657" lon="8.8015361"><ele>216.00000000000003</ele><time>2026-04-11T09:43:58.291Z</time></trkpt><trkpt lat="44.6865166" lon="8.801609"><ele>215.0</ele><time>2026-04-11T09:43:59.291Z</time></trkpt><trkpt lat="44.6864677" lon="8.8016808"><ele>215.00000000000003</ele><time>2026-04-11T09:44:00.291Z</time></trkpt><trkpt lat="44.6864129" lon="8.8017526"><ele>215.0</ele><time>2026-04-11T09:44:01.292Z</time></trkpt><trkpt lat="44.6863537" lon="8.8018353"><ele>215.0</ele><time>2026-04-11T09:44:02.291Z</time></trkpt><trkpt lat="44.6862963" lon="8.8019177"><ele>215.0</ele><time>2026-04-11T09:44:03.292Z</time></trkpt><trkpt lat="44.6862424" lon="8.8019862"><ele>215.00000000000003</ele><time>2026-04-11T09:44:04.292Z</time></trkpt><trkpt lat="44.6861769" lon="8.8020909"><ele>215.0</ele><time>2026-04-11T09:44:06.291Z</time></trkpt><trkpt lat="44.6861173" lon="8.8021924"><ele>214.66666666666669</ele><time>2026-04-11T09:44:08.291Z</time></trkpt><trkpt lat="44.6860634" lon="8.8023326"><ele>214.33333333333334</ele><time>2026-04-11T09:44:10.291Z</time></trkpt><trkpt lat="44.6860373" lon="8.8024224"><ele>214.0</ele><time>2026-04-11T09:44:11.291Z</time></trkpt><trkpt lat="44.6860049" lon="8.8025147"><ele>213.66666666666669</ele><time>2026-04-11T09:44:12.291Z</time></trkpt><trkpt lat="44.6859708" lon="8.802612"><ele>213.33333333333334</ele><time>2026-04-11T09:44:13.292Z</time></trkpt><trkpt lat="44.685928" lon="8.8027129"><ele>213.0</ele><time>2026-04-11T09:44:14.291Z</time></trkpt><trkpt lat="44.6858841" lon="8.8028168"><ele>213.0</ele><time>2026-04-11T09:44:15.291Z</time></trkpt><trkpt lat="44.6858377" lon="8.8029143"><ele>213.0</ele><time>2026-04-11T09:44:16.292Z</time></trkpt><trkpt lat="44.6858026" lon="8.8030075"><ele>213.0</ele><time>2026-04-11T09:44:17.292Z</time></trkpt><trkpt lat="44.68577" lon="8.8030837"><ele>213.0</ele><time>2026-04-11T09:44:18.291Z</time></trkpt><trkpt lat="44.6857085" lon="8.8032413"><ele>213.0</ele><time>2026-04-11T09:44:20.291Z</time></trkpt><trkpt lat="44.6856674" lon="8.8033469"><ele>213.0</ele><time>2026-04-11T09:44:21.292Z</time></trkpt><trkpt lat="44.6856224" lon="8.8034497"><ele>213.16666666666666</ele><time>2026-04-11T09:44:22.292Z</time></trkpt><trkpt lat="44.6855716" lon="8.803569"><ele>213.33333333333331</ele><time>2026-04-11T09:44:23.292Z</time></trkpt><trkpt lat="44.6855254" lon="8.8036895"><ele>213.5</ele><time>2026-04-11T09:44:24.291Z</time></trkpt><trkpt lat="44.6854755" lon="8.8038012"><ele>213.66666666666666</ele><time>2026-04-11T09:44:25.292Z</time></trkpt><trkpt lat="44.6854343" lon="8.8039013"><ele>213.83333333333331</ele><time>2026-04-11T09:44:26.291Z</time></trkpt><trkpt lat="44.6853992" lon="8.803987"><ele>214.0</ele><time>2026-04-11T09:44:27.291Z</time></trkpt><trkpt lat="44.6853589" lon="8.8040793"><ele>213.99999999999997</ele><time>2026-04-11T09:44:28.291Z</time></trkpt><trkpt lat="44.6853193" lon="8.8041743"><ele>214.0</ele><time>2026-04-11T09:44:29.291Z</time></trkpt><trkpt lat="44.6852721" lon="8.8042667"><ele>214.0</ele><time>2026-04-11T09:44:30.291Z</time></trkpt><trkpt lat="44.6852087" lon="8.8043384"><ele>214.0</ele><time>2026-04-11T09:44:31.291Z</time></trkpt><trkpt lat="44.6851408" lon="8.8043912"><ele>213.99999999999997</ele><time>2026-04-11T09:44:32.291Z</time></trkpt><trkpt lat="44.6850556" lon="8.8044217"><ele>214.0</ele><time>2026-04-11T09:44:33.292Z</time></trkpt><trkpt lat="44.6849707" lon="8.8044295"><ele>214.39999999999998</ele><time>2026-04-11T09:44:34.291Z</time></trkpt><trkpt lat="44.6848824" lon="8.8044185"><ele>214.79999999999998</ele><time>2026-04-11T09:44:35.291Z</time></trkpt><trkpt lat="44.6847904" lon="8.8043748"><ele>215.20000000000002</ele><time>2026-04-11T09:44:36.291Z</time></trkpt><trkpt lat="44.6847045" lon="8.804325"><ele>215.60000000000002</ele><time>2026-04-11T09:44:37.291Z</time></trkpt><trkpt lat="44.684612" lon="8.8042687"><ele>216.0</ele><time>2026-04-11T09:44:38.291Z</time></trkpt><trkpt lat="44.6845098" lon="8.80423"><ele>217.20000000000002</ele><time>2026-04-11T09:44:39.291Z</time></trkpt><trkpt lat="44.6844071" lon="8.8042182"><ele>218.40000000000003</ele><time>2026-04-11T09:44:40.292Z</time></trkpt><trkpt lat="44.6843005" lon="8.8042309"><ele>219.6</ele><time>2026-04-11T09:44:41.291Z</time></trkpt><trkpt lat="44.6841927" lon="8.8042471"><ele>220.8</ele><time>2026-04-11T09:44:42.291Z</time></trkpt><trkpt lat="44.6840733" lon="8.8042671"><ele>222.0</ele><time>2026-04-11T09:44:43.291Z</time></trkpt><trkpt lat="44.6839431" lon="8.8042685"><ele>222.0</ele><time>2026-04-11T09:44:44.291Z</time></trkpt><trkpt lat="44.6838174" lon="8.8042751"><ele>222.0</ele><time>2026-04-11T09:44:45.291Z</time></trkpt><trkpt lat="44.6836963" lon="8.804297"><ele>222.0</ele><time>2026-04-11T09:44:46.291Z</time></trkpt><trkpt lat="44.6835677" lon="8.8043437"><ele>222.0</ele><time>2026-04-11T09:44:47.291Z</time></trkpt><trkpt lat="44.6834454" lon="8.804408"><ele>223.0</ele><time>2026-04-11T09:44:48.291Z</time></trkpt><trkpt lat="44.6833152" lon="8.8044857"><ele>224.0</ele><time>2026-04-11T09:44:49.291Z</time></trkpt><trkpt lat="44.6831854" lon="8.8045588"><ele>225.0</ele><time>2026-04-11T09:44:50.291Z</time></trkpt><trkpt lat="44.6830579" lon="8.804627"><ele>226.0</ele><time>2026-04-11T09:44:51.291Z</time></trkpt><trkpt lat="44.6829283" lon="8.804699"><ele>226.0</ele><time>2026-04-11T09:44:52.292Z</time></trkpt><trkpt lat="44.6827994" lon="8.8047794"><ele>226.0</ele><time>2026-04-11T09:44:53.291Z</time></trkpt><trkpt lat="44.6826623" lon="8.8048496"><ele>226.0</ele><time>2026-04-11T09:44:54.291Z</time></trkpt><trkpt lat="44.6825285" lon="8.8049356"><ele>226.0</ele><time>2026-04-11T09:44:55.291Z</time></trkpt><trkpt lat="44.6824086" lon="8.8050015"><ele>227.75</ele><time>2026-04-11T09:44:56.291Z</time></trkpt><trkpt lat="44.6822938" lon="8.805044"><ele>229.5</ele><time>2026-04-11T09:44:57.291Z</time></trkpt><trkpt lat="44.6821745" lon="8.8050465"><ele>231.25</ele><time>2026-04-11T09:44:58.292Z</time></trkpt><trkpt lat="44.6820423" lon="8.8050048"><ele>233.0</ele><time>2026-04-11T09:44:59.291Z</time></trkpt><trkpt lat="44.6819105" lon="8.8049413"><ele>233.66666666666669</ele><time>2026-04-11T09:45:00.291Z</time></trkpt><trkpt lat="44.6817776" lon="8.8048599"><ele>234.33333333333331</ele><time>2026-04-11T09:45:01.291Z</time></trkpt><trkpt lat="44.6816405" lon="8.8047797"><ele>235.0</ele><time>2026-04-11T09:45:02.291Z</time></trkpt><trkpt lat="44.6814843" lon="8.8047326"><ele>235.0</ele><time>2026-04-11T09:45:03.292Z</time></trkpt><trkpt lat="44.6813259" lon="8.804713"><ele>235.0</ele><time>2026-04-11T09:45:04.291Z</time></trkpt><trkpt lat="44.6811785" lon="8.8046908"><ele>235.0</ele><time>2026-04-11T09:45:05.291Z</time></trkpt><trkpt lat="44.6810331" lon="8.8046719"><ele>235.5</ele><time>2026-04-11T09:45:06.291Z</time></trkpt><trkpt lat="44.6808878" lon="8.8046776"><ele>236.0</ele><time>2026-04-11T09:45:07.291Z</time></trkpt><trkpt lat="44.6807423" lon="8.80472"><ele>236.5</ele><time>2026-04-11T09:45:08.292Z</time></trkpt><trkpt lat="44.6805986" lon="8.8047789"><ele>237.0</ele><time>2026-04-11T09:45:09.291Z</time></trkpt><trkpt lat="44.6804571" lon="8.8048882"><ele>237.0</ele><time>2026-04-11T09:45:10.291Z</time></trkpt><trkpt lat="44.6803189" lon="8.8050098"><ele>237.0</ele><time>2026-04-11T09:45:11.291Z</time></trkpt><trkpt lat="44.6801744" lon="8.8051376"><ele>237.0</ele><time>2026-04-11T09:45:12.292Z</time></trkpt><trkpt lat="44.6800361" lon="8.8052682"><ele>238.0</ele><time>2026-04-11T09:45:13.291Z</time></trkpt><trkpt lat="44.6798906" lon="8.8053972"><ele>239.0</ele><time>2026-04-11T09:45:14.291Z</time></trkpt><trkpt lat="44.6797513" lon="8.8055313"><ele>240.0</ele><time>2026-04-11T09:45:15.291Z</time></trkpt><trkpt lat="44.6796139" lon="8.8056731"><ele>240.0</ele><time>2026-04-11T09:45:16.292Z</time></trkpt><trkpt lat="44.6794763" lon="8.8058206"><ele>240.0</ele><time>2026-04-11T09:45:17.291Z</time></trkpt><trkpt lat="44.6793421" lon="8.8059768"><ele>240.0</ele><time>2026-04-11T09:45:18.292Z</time></trkpt><trkpt lat="44.6792131" lon="8.806138"><ele>240.66666666666669</ele><time>2026-04-11T09:45:19.291Z</time></trkpt><trkpt lat="44.6790775" lon="8.8063023"><ele>241.33333333333334</ele><time>2026-04-11T09:45:20.291Z</time></trkpt><trkpt lat="44.6789364" lon="8.8064655"><ele>242.0</ele><time>2026-04-11T09:45:21.291Z</time></trkpt><trkpt lat="44.6787919" lon="8.8066133"><ele>242.0</ele><time>2026-04-11T09:45:22.291Z</time></trkpt><trkpt lat="44.6786406" lon="8.8067478"><ele>242.0</ele><time>2026-04-11T09:45:23.29Z</time></trkpt><trkpt lat="44.6784949" lon="8.8068782"><ele>242.0</ele><time>2026-04-11T09:45:24.29Z</time></trkpt><trkpt lat="44.6783412" lon="8.8070014"><ele>242.33333333333334</ele><time>2026-04-11T09:45:25.29Z</time></trkpt><trkpt lat="44.6781833" lon="8.8071291"><ele>242.66666666666669</ele><time>2026-04-11T09:45:26.29Z</time></trkpt><trkpt lat="44.6780264" lon="8.807261"><ele>243.0</ele><time>2026-04-11T09:45:27.29Z</time></trkpt><trkpt lat="44.6778734" lon="8.8073997"><ele>243.33333333333331</ele><time>2026-04-11T09:45:28.29Z</time></trkpt><trkpt lat="44.6777229" lon="8.8075456"><ele>243.66666666666666</ele><time>2026-04-11T09:45:29.291Z</time></trkpt><trkpt lat="44.6775709" lon="8.8076769"><ele>244.0</ele><time>2026-04-11T09:45:30.29Z</time></trkpt><trkpt lat="44.6774241" lon="8.8078078"><ele>244.0</ele><time>2026-04-11T09:45:31.291Z</time></trkpt><trkpt lat="44.6772754" lon="8.8079358"><ele>244.0</ele><time>2026-04-11T09:45:32.29Z</time></trkpt><trkpt lat="44.677132" lon="8.8080531"><ele>244.0</ele><time>2026-04-11T09:45:33.291Z</time></trkpt><trkpt lat="44.6769801" lon="8.8081644"><ele>246.0</ele><time>2026-04-11T09:45:34.29Z</time></trkpt><trkpt lat="44.6768195" lon="8.8082564"><ele>248.0</ele><time>2026-04-11T09:45:35.29Z</time></trkpt><trkpt lat="44.6766575" lon="8.8083258"><ele>250.0</ele><time>2026-04-11T09:45:36.29Z</time></trkpt><trkpt lat="44.6764978" lon="8.8083953"><ele>250.0</ele><time>2026-04-11T09:45:37.29Z</time></trkpt><trkpt lat="44.6763399" lon="8.8084598"><ele>250.0</ele><time>2026-04-11T09:45:38.29Z</time></trkpt><trkpt lat="44.6761793" lon="8.8085176"><ele>250.0</ele><time>2026-04-11T09:45:39.29Z</time></trkpt><trkpt lat="44.6760144" lon="8.8085705"><ele>249.66666666666666</ele><time>2026-04-11T09:45:40.29Z</time></trkpt><trkpt lat="44.6758491" lon="8.8086245"><ele>249.33333333333331</ele><time>2026-04-11T09:45:41.29Z</time></trkpt><trkpt lat="44.6756932" lon="8.8086805"><ele>249.0</ele><time>2026-04-11T09:45:42.29Z</time></trkpt><trkpt lat="44.675535" lon="8.8087308"><ele>249.0</ele><time>2026-04-11T09:45:43.291Z</time></trkpt><trkpt lat="44.6753682" lon="8.808757"><ele>249.0</ele><time>2026-04-11T09:45:44.29Z</time></trkpt><trkpt lat="44.6751919" lon="8.8087596"><ele>249.0</ele><time>2026-04-11T09:45:45.29Z</time></trkpt><trkpt lat="44.6750197" lon="8.8087468"><ele>251.33333333333331</ele><time>2026-04-11T09:45:46.29Z</time></trkpt><trkpt lat="44.674849" lon="8.80873"><ele>253.66666666666666</ele><time>2026-04-11T09:45:47.29Z</time></trkpt><trkpt lat="44.6746734" lon="8.808709"><ele>256.0</ele><time>2026-04-11T09:45:48.291Z</time></trkpt><trkpt lat="44.6744982" lon="8.8086896"><ele>257.3333333333333</ele><time>2026-04-11T09:45:49.29Z</time></trkpt><trkpt lat="44.6743186" lon="8.8086563"><ele>258.6666666666667</ele><time>2026-04-11T09:45:50.29Z</time></trkpt><trkpt lat="44.674142" lon="8.8085973"><ele>260.0</ele><time>2026-04-11T09:45:51.29Z</time></trkpt><trkpt lat="44.6739746" lon="8.8085094"><ele>261.33333333333337</ele><time>2026-04-11T09:45:52.29Z</time></trkpt><trkpt lat="44.6738098" lon="8.808405"><ele>262.6666666666667</ele><time>2026-04-11T09:45:53.29Z</time></trkpt><trkpt lat="44.6736446" lon="8.8082916"><ele>264.0</ele><time>2026-04-11T09:45:54.29Z</time></trkpt><trkpt lat="44.6734766" lon="8.8081836"><ele>266.0</ele><time>2026-04-11T09:45:55.29Z</time></trkpt><trkpt lat="44.6733161" lon="8.8080728"><ele>268.0</ele><time>2026-04-11T09:45:56.29Z</time></trkpt><trkpt lat="44.673157" lon="8.8079594"><ele>270.0</ele><time>2026-04-11T09:45:57.29Z</time></trkpt><trkpt lat="44.6729997" lon="8.8078416"><ele>270.0</ele><time>2026-04-11T09:45:58.291Z</time></trkpt><trkpt lat="44.6728428" lon="8.8077153"><ele>270.0</ele><time>2026-04-11T09:45:59.291Z</time></trkpt><trkpt lat="44.6726936" lon="8.8075968"><ele>270.0</ele><time>2026-04-11T09:46:00.29Z</time></trkpt><trkpt lat="44.6725487" lon="8.807484"><ele>272.0</ele><time>2026-04-11T09:46:01.29Z</time></trkpt><trkpt lat="44.6724092" lon="8.8073776"><ele>274.0</ele><time>2026-04-11T09:46:02.29Z</time></trkpt><trkpt lat="44.672276" lon="8.8072606"><ele>276.0</ele><time>2026-04-11T09:46:03.29Z</time></trkpt><trkpt lat="44.6721504" lon="8.8071247"><ele>276.0</ele><time>2026-04-11T09:46:04.29Z</time></trkpt><trkpt lat="44.6720284" lon="8.8069768"><ele>276.0</ele><time>2026-04-11T09:46:05.29Z</time></trkpt><trkpt lat="44.6719052" lon="8.806826"><ele>276.0</ele><time>2026-04-11T09:46:06.29Z</time></trkpt><trkpt lat="44.671777" lon="8.8066966"><ele>276.0</ele><time>2026-04-11T09:46:07.29Z</time></trkpt><trkpt lat="44.6716471" lon="8.8066"><ele>276.0</ele><time>2026-04-11T09:46:08.29Z</time></trkpt><trkpt lat="44.6715096" lon="8.8065102"><ele>276.0</ele><time>2026-04-11T09:46:09.29Z</time></trkpt><trkpt lat="44.6713641" lon="8.806445"><ele>276.0</ele><time>2026-04-11T09:46:10.29Z</time></trkpt><trkpt lat="44.6712121" lon="8.806415"><ele>276.0</ele><time>2026-04-11T09:46:11.29Z</time></trkpt><trkpt lat="44.6710714" lon="8.8064034"><ele>276.0</ele><time>2026-04-11T09:46:12.291Z</time></trkpt><trkpt lat="44.6709304" lon="8.8064166"><ele>276.0</ele><time>2026-04-11T09:46:13.29Z</time></trkpt><trkpt lat="44.6707978" lon="8.806472"><ele>276.25</ele><time>2026-04-11T09:46:14.29Z</time></trkpt><trkpt lat="44.6706784" lon="8.8065687"><ele>276.5</ele><time>2026-04-11T09:46:15.29Z</time></trkpt><trkpt lat="44.6705601" lon="8.8066782"><ele>276.75</ele><time>2026-04-11T09:46:16.29Z</time></trkpt><trkpt lat="44.6704431" lon="8.8067746"><ele>277.0</ele><time>2026-04-11T09:46:17.29Z</time></trkpt><trkpt lat="44.670318" lon="8.8068346"><ele>275.5</ele><time>2026-04-11T09:46:18.29Z</time></trkpt><trkpt lat="44.6701806" lon="8.8068634"><ele>274.0</ele><time>2026-04-11T09:46:19.291Z</time></trkpt><trkpt lat="44.6700384" lon="8.8068678"><ele>272.5</ele><time>2026-04-11T09:46:20.29Z</time></trkpt><trkpt lat="44.6698895" lon="8.8068574"><ele>271.0</ele><time>2026-04-11T09:46:21.29Z</time></trkpt><trkpt lat="44.6697368" lon="8.8068301"><ele>271.66666666666663</ele><time>2026-04-11T09:46:22.29Z</time></trkpt><trkpt lat="44.669577" lon="8.8067972"><ele>272.3333333333333</ele><time>2026-04-11T09:46:23.29Z</time></trkpt><trkpt lat="44.669412" lon="8.8067662"><ele>273.0</ele><time>2026-04-11T09:46:24.29Z</time></trkpt><trkpt lat="44.669232" lon="8.8067298"><ele>273.0</ele><time>2026-04-11T09:46:25.29Z</time></trkpt><trkpt lat="44.6690326" lon="8.8066836"><ele>273.0</ele><time>2026-04-11T09:46:26.291Z</time></trkpt><trkpt lat="44.6688243" lon="8.8066252"><ele>273.0</ele><time>2026-04-11T09:46:27.29Z</time></trkpt><trkpt lat="44.6686231" lon="8.8065556"><ele>273.0</ele><time>2026-04-11T09:46:28.29Z</time></trkpt><trkpt lat="44.6684257" lon="8.8064944"><ele>273.0</ele><time>2026-04-11T09:46:29.29Z</time></trkpt><trkpt lat="44.6682324" lon="8.8064564"><ele>273.0</ele><time>2026-04-11T09:46:30.29Z</time></trkpt><trkpt lat="44.6680375" lon="8.8064255"><ele>273.0</ele><time>2026-04-11T09:46:31.291Z</time></trkpt><trkpt lat="44.6678449" lon="8.8064011"><ele>273.0</ele><time>2026-04-11T09:46:32.29Z</time></trkpt><trkpt lat="44.6676531" lon="8.8063777"><ele>273.0</ele><time>2026-04-11T09:46:33.29Z</time></trkpt><trkpt lat="44.66747" lon="8.8063619"><ele>273.0</ele><time>2026-04-11T09:46:34.29Z</time></trkpt><trkpt lat="44.6672925" lon="8.8063425"><ele>273.0</ele><time>2026-04-11T09:46:35.291Z</time></trkpt><trkpt lat="44.6671311" lon="8.8063155"><ele>273.0</ele><time>2026-04-11T09:46:36.29Z</time></trkpt><trkpt lat="44.6669869" lon="8.8062796"><ele>273.0</ele><time>2026-04-11T09:46:37.29Z</time></trkpt><trkpt lat="44.6668542" lon="8.8062289"><ele>273.0</ele><time>2026-04-11T09:46:38.29Z</time></trkpt><trkpt lat="44.6667264" lon="8.8061574"><ele>273.0</ele><time>2026-04-11T09:46:39.291Z</time></trkpt><trkpt lat="44.6666013" lon="8.8060629"><ele>273.0</ele><time>2026-04-11T09:46:40.291Z</time></trkpt><trkpt lat="44.6664736" lon="8.8059447"><ele>273.0</ele><time>2026-04-11T09:46:41.29Z</time></trkpt><trkpt lat="44.6663438" lon="8.8058287"><ele>273.0</ele><time>2026-04-11T09:46:42.29Z</time></trkpt><trkpt lat="44.6662109" lon="8.8057202"><ele>273.0</ele><time>2026-04-11T09:46:43.29Z</time></trkpt><trkpt lat="44.6660869" lon="8.8056344"><ele>273.0</ele><time>2026-04-11T09:46:44.29Z</time></trkpt><trkpt lat="44.6659605" lon="8.805565"><ele>270.75</ele><time>2026-04-11T09:46:45.291Z</time></trkpt><trkpt lat="44.6658372" lon="8.8055027"><ele>268.5</ele><time>2026-04-11T09:46:46.29Z</time></trkpt><trkpt lat="44.665721" lon="8.8054172"><ele>266.25</ele><time>2026-04-11T09:46:47.29Z</time></trkpt><trkpt lat="44.6656176" lon="8.8053117"><ele>264.0</ele><time>2026-04-11T09:46:48.29Z</time></trkpt><trkpt lat="44.6655257" lon="8.8051898"><ele>264.0</ele><time>2026-04-11T09:46:49.29Z</time></trkpt><trkpt lat="44.66544" lon="8.8050531"><ele>264.0</ele><time>2026-04-11T09:46:50.29Z</time></trkpt><trkpt lat="44.6653337" lon="8.8049149"><ele>264.0</ele><time>2026-04-11T09:46:51.29Z</time></trkpt><trkpt lat="44.6652072" lon="8.8047963"><ele>264.0</ele><time>2026-04-11T09:46:52.291Z</time></trkpt><trkpt lat="44.6650595" lon="8.8047167"><ele>264.0</ele><time>2026-04-11T09:46:53.29Z</time></trkpt><trkpt lat="44.6649103" lon="8.8046655"><ele>264.0</ele><time>2026-04-11T09:46:54.29Z</time></trkpt><trkpt lat="44.6647692" lon="8.8046554"><ele>264.0</ele><time>2026-04-11T09:46:55.291Z</time></trkpt><trkpt lat="44.6646273" lon="8.8046507"><ele>264.0</ele><time>2026-04-11T09:46:56.29Z</time></trkpt><trkpt lat="44.6644859" lon="8.8046428"><ele>263.25</ele><time>2026-04-11T09:46:57.29Z</time></trkpt><trkpt lat="44.6643463" lon="8.8046488"><ele>262.5</ele><time>2026-04-11T09:46:58.291Z</time></trkpt><trkpt lat="44.664209" lon="8.8046447"><ele>261.75</ele><time>2026-04-11T09:46:59.29Z</time></trkpt><trkpt lat="44.6640802" lon="8.804636"><ele>261.0</ele><time>2026-04-11T09:47:00.29Z</time></trkpt><trkpt lat="44.6639625" lon="8.8046345"><ele>261.0</ele><time>2026-04-11T09:47:01.29Z</time></trkpt><trkpt lat="44.663851" lon="8.8046345"><ele>261.0</ele><time>2026-04-11T09:47:02.291Z</time></trkpt><trkpt lat="44.6637406" lon="8.8046206"><ele>261.0</ele><time>2026-04-11T09:47:03.291Z</time></trkpt><trkpt lat="44.6636353" lon="8.8045913"><ele>261.0</ele><time>2026-04-11T09:47:04.29Z</time></trkpt><trkpt lat="44.6635189" lon="8.8045374"><ele>260.75</ele><time>2026-04-11T09:47:05.29Z</time></trkpt><trkpt lat="44.6634018" lon="8.804478"><ele>260.5</ele><time>2026-04-11T09:47:06.29Z</time></trkpt><trkpt lat="44.6632896" lon="8.8044208"><ele>260.25</ele><time>2026-04-11T09:47:07.29Z</time></trkpt><trkpt lat="44.6631884" lon="8.8043684"><ele>260.0</ele><time>2026-04-11T09:47:08.29Z</time></trkpt><trkpt lat="44.6630897" lon="8.804313"><ele>260.0</ele><time>2026-04-11T09:47:09.291Z</time></trkpt><trkpt lat="44.6630035" lon="8.8042684"><ele>260.0</ele><time>2026-04-11T09:47:10.29Z</time></trkpt><trkpt lat="44.6629377" lon="8.8042623"><ele>260.0</ele><time>2026-04-11T09:47:11.29Z</time></trkpt><trkpt lat="44.6628678" lon="8.8042817"><ele>260.0</ele><time>2026-04-11T09:47:12.29Z</time></trkpt><trkpt lat="44.6628062" lon="8.8043342"><ele>260.0</ele><time>2026-04-11T09:47:13.291Z</time></trkpt><trkpt lat="44.6626907" lon="8.8044657"><ele>260.2</ele><time>2026-04-11T09:47:15.291Z</time></trkpt><trkpt lat="44.6626101" lon="8.8045374"><ele>260.4</ele><time>2026-04-11T09:47:16.29Z</time></trkpt><trkpt lat="44.6625206" lon="8.8046092"><ele>260.6</ele><time>2026-04-11T09:47:17.29Z</time></trkpt><trkpt lat="44.662424" lon="8.8046595"><ele>260.8</ele><time>2026-04-11T09:47:18.291Z</time></trkpt><trkpt lat="44.6623167" lon="8.8046905"><ele>261.0</ele><time>2026-04-11T09:47:19.29Z</time></trkpt><trkpt lat="44.6622137" lon="8.8046894"><ele>261.0</ele><time>2026-04-11T09:47:20.29Z</time></trkpt><trkpt lat="44.6621154" lon="8.8046595"><ele>261.0</ele><time>2026-04-11T09:47:21.29Z</time></trkpt><trkpt lat="44.662003" lon="8.8045866"><ele>261.0</ele><time>2026-04-11T09:47:22.29Z</time></trkpt><trkpt lat="44.6618768" lon="8.8045111"><ele>261.0</ele><time>2026-04-11T09:47:23.29Z</time></trkpt><trkpt lat="44.6617396" lon="8.8044313"><ele>260.6666666666667</ele><time>2026-04-11T09:47:24.291Z</time></trkpt><trkpt lat="44.6615997" lon="8.8043521"><ele>260.33333333333337</ele><time>2026-04-11T09:47:25.291Z</time></trkpt><trkpt lat="44.6614541" lon="8.8042772"><ele>260.0</ele><time>2026-04-11T09:47:26.291Z</time></trkpt><trkpt lat="44.661306" lon="8.8042127"><ele>261.75</ele><time>2026-04-11T09:47:27.29Z</time></trkpt><trkpt lat="44.6611646" lon="8.8041584"><ele>263.5</ele><time>2026-04-11T09:47:28.29Z</time></trkpt><trkpt lat="44.6610203" lon="8.8041155"><ele>265.25</ele><time>2026-04-11T09:47:29.29Z</time></trkpt><trkpt lat="44.6608733" lon="8.8040901"><ele>267.0</ele><time>2026-04-11T09:47:30.291Z</time></trkpt><trkpt lat="44.6607228" lon="8.8040556"><ele>267.0</ele><time>2026-04-11T09:47:31.291Z</time></trkpt><trkpt lat="44.6605712" lon="8.8040344"><ele>267.0</ele><time>2026-04-11T09:47:32.29Z</time></trkpt><trkpt lat="44.6604221" lon="8.8039975"><ele>267.0</ele><time>2026-04-11T09:47:33.29Z</time></trkpt><trkpt lat="44.6602708" lon="8.8039672"><ele>266.3333333333333</ele><time>2026-04-11T09:47:34.29Z</time></trkpt><trkpt lat="44.6601243" lon="8.8039267"><ele>265.66666666666663</ele><time>2026-04-11T09:47:35.29Z</time></trkpt><trkpt lat="44.659974" lon="8.8038991"><ele>265.0</ele><time>2026-04-11T09:47:36.29Z</time></trkpt><trkpt lat="44.6598225" lon="8.8038617"><ele>265.0</ele><time>2026-04-11T09:47:37.29Z</time></trkpt><trkpt lat="44.6596633" lon="8.8038293"><ele>265.0</ele><time>2026-04-11T09:47:38.29Z</time></trkpt><trkpt lat="44.6595022" lon="8.8037918"><ele>265.0</ele><time>2026-04-11T09:47:39.29Z</time></trkpt><trkpt lat="44.6593514" lon="8.8037669"><ele>264.75</ele><time>2026-04-11T09:47:40.291Z</time></trkpt><trkpt lat="44.6592019" lon="8.8037308"><ele>264.5</ele><time>2026-04-11T09:47:41.29Z</time></trkpt><trkpt lat="44.6590653" lon="8.8036864"><ele>264.25</ele><time>2026-04-11T09:47:42.291Z</time></trkpt><trkpt lat="44.6589319" lon="8.8036196"><ele>264.0</ele><time>2026-04-11T09:47:43.29Z</time></trkpt><trkpt lat="44.6587888" lon="8.8035425"><ele>267.0</ele><time>2026-04-11T09:47:44.29Z</time></trkpt><trkpt lat="44.658636" lon="8.803458"><ele>270.0</ele><time>2026-04-11T09:47:45.29Z</time></trkpt><trkpt lat="44.6584829" lon="8.8033852"><ele>273.0</ele><time>2026-04-11T09:47:46.29Z</time></trkpt><trkpt lat="44.6583342" lon="8.8033071"><ele>273.0</ele><time>2026-04-11T09:47:47.291Z</time></trkpt><trkpt lat="44.6581906" lon="8.8032283"><ele>273.0</ele><time>2026-04-11T09:47:48.29Z</time></trkpt><trkpt lat="44.6580361" lon="8.8031735"><ele>273.0</ele><time>2026-04-11T09:47:49.291Z</time></trkpt><trkpt lat="44.6578753" lon="8.8031526"><ele>272.0</ele><time>2026-04-11T09:47:50.29Z</time></trkpt><trkpt lat="44.657698" lon="8.8031612"><ele>271.0</ele><time>2026-04-11T09:47:51.29Z</time></trkpt><trkpt lat="44.6575169" lon="8.8031881"><ele>270.0</ele><time>2026-04-11T09:47:52.29Z</time></trkpt><trkpt lat="44.6573394" lon="8.8032235"><ele>270.0</ele><time>2026-04-11T09:47:53.29Z</time></trkpt><trkpt lat="44.6571605" lon="8.8032406"><ele>270.0</ele><time>2026-04-11T09:47:54.29Z</time></trkpt><trkpt lat="44.6569849" lon="8.803266"><ele>270.0</ele><time>2026-04-11T09:47:55.29Z</time></trkpt><trkpt lat="44.6568191" lon="8.8032993"><ele>271.6666666666667</ele><time>2026-04-11T09:47:56.29Z</time></trkpt><trkpt lat="44.6566602" lon="8.8033197"><ele>273.33333333333337</ele><time>2026-04-11T09:47:57.291Z</time></trkpt><trkpt lat="44.6565011" lon="8.8033347"><ele>275.0</ele><time>2026-04-11T09:47:58.29Z</time></trkpt><trkpt lat="44.6563367" lon="8.8033356"><ele>275.0</ele><time>2026-04-11T09:47:59.29Z</time></trkpt><trkpt lat="44.6561695" lon="8.8033298"><ele>275.0</ele><time>2026-04-11T09:48:00.29Z</time></trkpt><trkpt lat="44.6559958" lon="8.8033201"><ele>275.0</ele><time>2026-04-11T09:48:01.29Z</time></trkpt><trkpt lat="44.6558251" lon="8.8033079"><ele>274.33333333333337</ele><time>2026-04-11T09:48:02.291Z</time></trkpt><trkpt lat="44.6556582" lon="8.8032867"><ele>273.6666666666667</ele><time>2026-04-11T09:48:03.291Z</time></trkpt><trkpt lat="44.6554932" lon="8.8032651"><ele>273.0</ele><time>2026-04-11T09:48:04.29Z</time></trkpt><trkpt lat="44.6553244" lon="8.8032474"><ele>272.6666666666667</ele><time>2026-04-11T09:48:05.29Z</time></trkpt><trkpt lat="44.6551585" lon="8.8032307"><ele>272.33333333333337</ele><time>2026-04-11T09:48:06.29Z</time></trkpt><trkpt lat="44.6549877" lon="8.8032189"><ele>272.0</ele><time>2026-04-11T09:48:07.29Z</time></trkpt><trkpt lat="44.654815" lon="8.8031968"><ele>272.0</ele><time>2026-04-11T09:48:08.29Z</time></trkpt><trkpt lat="44.6546331" lon="8.803177"><ele>272.0</ele><time>2026-04-11T09:48:09.29Z</time></trkpt><trkpt lat="44.65445" lon="8.8031542"><ele>272.0</ele><time>2026-04-11T09:48:10.29Z</time></trkpt><trkpt lat="44.6542637" lon="8.8031318"><ele>273.0</ele><time>2026-04-11T09:48:11.291Z</time></trkpt><trkpt lat="44.6540774" lon="8.8031079"><ele>274.0</ele><time>2026-04-11T09:48:12.29Z</time></trkpt><trkpt lat="44.6538852" lon="8.8030836"><ele>275.0</ele><time>2026-04-11T09:48:13.291Z</time></trkpt><trkpt lat="44.6536971" lon="8.8030601"><ele>277.33333333333337</ele><time>2026-04-11T09:48:14.29Z</time></trkpt><trkpt lat="44.6535096" lon="8.8030409"><ele>279.6666666666667</ele><time>2026-04-11T09:48:15.29Z</time></trkpt><trkpt lat="44.6533291" lon="8.8030206"><ele>282.0</ele><time>2026-04-11T09:48:16.291Z</time></trkpt><trkpt lat="44.6531504" lon="8.8030026"><ele>282.0</ele><time>2026-04-11T09:48:17.29Z</time></trkpt><trkpt lat="44.6529707" lon="8.8029876"><ele>282.0</ele><time>2026-04-11T09:48:18.29Z</time></trkpt><trkpt lat="44.6527947" lon="8.8029729"><ele>282.0</ele><time>2026-04-11T09:48:19.29Z</time></trkpt><trkpt lat="44.6526266" lon="8.8029584"><ele>282.6666666666667</ele><time>2026-04-11T09:48:20.29Z</time></trkpt><trkpt lat="44.6524591" lon="8.8029413"><ele>283.33333333333337</ele><time>2026-04-11T09:48:21.29Z</time></trkpt><trkpt lat="44.6522889" lon="8.8029255"><ele>284.0</ele><time>2026-04-11T09:48:22.29Z</time></trkpt><trkpt lat="44.6521288" lon="8.8029087"><ele>284.0</ele><time>2026-04-11T09:48:23.29Z</time></trkpt><trkpt lat="44.6519847" lon="8.8028841"><ele>284.0</ele><time>2026-04-11T09:48:24.29Z</time></trkpt><trkpt lat="44.6518496" lon="8.8028502"><ele>284.0</ele><time>2026-04-11T09:48:25.29Z</time></trkpt><trkpt lat="44.6517078" lon="8.8027833"><ele>284.0</ele><time>2026-04-11T09:48:26.29Z</time></trkpt><trkpt lat="44.6515767" lon="8.8026833"><ele>287.0</ele><time>2026-04-11T09:48:27.29Z</time></trkpt><trkpt lat="44.6514437" lon="8.8025476"><ele>290.0</ele><time>2026-04-11T09:48:28.291Z</time></trkpt><trkpt lat="44.6513083" lon="8.8024031"><ele>293.0</ele><time>2026-04-11T09:48:29.29Z</time></trkpt><trkpt lat="44.6511781" lon="8.802279"><ele>295.25</ele><time>2026-04-11T09:48:30.291Z</time></trkpt><trkpt lat="44.6510569" lon="8.8021853"><ele>297.5</ele><time>2026-04-11T09:48:31.29Z</time></trkpt><trkpt lat="44.6509237" lon="8.8021239"><ele>299.75</ele><time>2026-04-11T09:48:32.29Z</time></trkpt><trkpt lat="44.6507827" lon="8.8020912"><ele>302.0</ele><time>2026-04-11T09:48:33.29Z</time></trkpt><trkpt lat="44.650643" lon="8.8020698"><ele>302.0</ele><time>2026-04-11T09:48:34.291Z</time></trkpt><trkpt lat="44.6505261" lon="8.8020313"><ele>302.0</ele><time>2026-04-11T09:48:35.29Z</time></trkpt><trkpt lat="44.6504163" lon="8.8019592"><ele>302.0</ele><time>2026-04-11T09:48:36.291Z</time></trkpt><trkpt lat="44.6503132" lon="8.8018465"><ele>302.0</ele><time>2026-04-11T09:48:37.29Z</time></trkpt><trkpt lat="44.6502054" lon="8.8017056"><ele>302.33333333333337</ele><time>2026-04-11T09:48:38.29Z</time></trkpt><trkpt lat="44.6500889" lon="8.8015455"><ele>302.6666666666667</ele><time>2026-04-11T09:48:39.29Z</time></trkpt><trkpt lat="44.6499713" lon="8.8013735"><ele>303.0</ele><time>2026-04-11T09:48:40.29Z</time></trkpt><trkpt lat="44.6498494" lon="8.8011974"><ele>303.0</ele><time>2026-04-11T09:48:41.29Z</time></trkpt><trkpt lat="44.649732" lon="8.8010263"><ele>303.0</ele><time>2026-04-11T09:48:42.29Z</time></trkpt><trkpt lat="44.6496199" lon="8.8008561"><ele>303.0</ele><time>2026-04-11T09:48:43.29Z</time></trkpt><trkpt lat="44.6495089" lon="8.80068"><ele>304.3333333333333</ele><time>2026-04-11T09:48:44.29Z</time></trkpt><trkpt lat="44.6494174" lon="8.8004867"><ele>305.66666666666663</ele><time>2026-04-11T09:48:45.29Z</time></trkpt><trkpt lat="44.6493302" lon="8.8002868"><ele>307.0</ele><time>2026-04-11T09:48:46.291Z</time></trkpt><trkpt lat="44.6492487" lon="8.8000941"><ele>307.0</ele><time>2026-04-11T09:48:47.291Z</time></trkpt><trkpt lat="44.6491789" lon="8.7999213"><ele>307.0</ele><time>2026-04-11T09:48:48.291Z</time></trkpt><trkpt lat="44.6491299" lon="8.7997563"><ele>307.0</ele><time>2026-04-11T09:48:49.29Z</time></trkpt><trkpt lat="44.6490966" lon="8.7995671"><ele>307.0</ele><time>2026-04-11T09:48:50.29Z</time></trkpt><trkpt lat="44.6490831" lon="8.7993791"><ele>307.75</ele><time>2026-04-11T09:48:51.29Z</time></trkpt><trkpt lat="44.6491096" lon="8.7992064"><ele>308.5</ele><time>2026-04-11T09:48:52.29Z</time></trkpt><trkpt lat="44.6491705" lon="8.7990443"><ele>309.25</ele><time>2026-04-11T09:48:53.29Z</time></trkpt><trkpt lat="44.649237" lon="8.7988609"><ele>310.0</ele><time>2026-04-11T09:48:54.29Z</time></trkpt><trkpt lat="44.6492762" lon="8.7986704"><ele>310.5</ele><time>2026-04-11T09:48:55.29Z</time></trkpt><trkpt lat="44.6492768" lon="8.7984814"><ele>311.0</ele><time>2026-04-11T09:48:56.29Z</time></trkpt><trkpt lat="44.6492521" lon="8.7982736"><ele>311.5</ele><time>2026-04-11T09:48:57.291Z</time></trkpt><trkpt lat="44.6492086" lon="8.7980607"><ele>312.0</ele><time>2026-04-11T09:48:58.29Z</time></trkpt><trkpt lat="44.6491428" lon="8.7978574"><ele>316.0</ele><time>2026-04-11T09:48:59.291Z</time></trkpt><trkpt lat="44.6490565" lon="8.7976545"><ele>320.0</ele><time>2026-04-11T09:49:00.29Z</time></trkpt><trkpt lat="44.6489719" lon="8.7974575"><ele>324.0</ele><time>2026-04-11T09:49:01.29Z</time></trkpt><trkpt lat="44.6488863" lon="8.7972548"><ele>324.0</ele><time>2026-04-11T09:49:02.29Z</time></trkpt><trkpt lat="44.6488011" lon="8.7970391"><ele>324.0</ele><time>2026-04-11T09:49:03.29Z</time></trkpt><trkpt lat="44.6487272" lon="8.7968226"><ele>324.0</ele><time>2026-04-11T09:49:04.29Z</time></trkpt><trkpt lat="44.6486627" lon="8.7966179"><ele>324.6666666666667</ele><time>2026-04-11T09:49:05.29Z</time></trkpt><trkpt lat="44.6485978" lon="8.7964142"><ele>325.33333333333337</ele><time>2026-04-11T09:49:06.291Z</time></trkpt><trkpt lat="44.6485386" lon="8.7961926"><ele>326.0</ele><time>2026-04-11T09:49:07.29Z</time></trkpt><trkpt lat="44.6484884" lon="8.7959614"><ele>326.0</ele><time>2026-04-11T09:49:08.29Z</time></trkpt><trkpt lat="44.648449" lon="8.7957334"><ele>326.0</ele><time>2026-04-11T09:49:09.29Z</time></trkpt><trkpt lat="44.648416" lon="8.7955211"><ele>326.0</ele><time>2026-04-11T09:49:10.29Z</time></trkpt><trkpt lat="44.6483883" lon="8.7953339"><ele>327.4</ele><time>2026-04-11T09:49:11.291Z</time></trkpt><trkpt lat="44.6483676" lon="8.7951587"><ele>328.8</ele><time>2026-04-11T09:49:12.291Z</time></trkpt><trkpt lat="44.6483409" lon="8.7950078"><ele>330.2</ele><time>2026-04-11T09:49:13.29Z</time></trkpt><trkpt lat="44.6483074" lon="8.794886"><ele>331.59999999999997</ele><time>2026-04-11T09:49:14.291Z</time></trkpt><trkpt lat="44.6482681" lon="8.7948002"><ele>333.0</ele><time>2026-04-11T09:49:15.291Z</time></trkpt><trkpt lat="44.6482259" lon="8.7947075"><ele>333.0</ele><time>2026-04-11T09:49:16.29Z</time></trkpt><trkpt lat="44.6481749" lon="8.7945941"><ele>333.0</ele><time>2026-04-11T09:49:17.29Z</time></trkpt><trkpt lat="44.648114" lon="8.7944526"><ele>333.0</ele><time>2026-04-11T09:49:18.291Z</time></trkpt><trkpt lat="44.6480512" lon="8.7943012"><ele>333.0</ele><time>2026-04-11T09:49:19.29Z</time></trkpt><trkpt lat="44.6479849" lon="8.7941328"><ele>333.25</ele><time>2026-04-11T09:49:20.291Z</time></trkpt><trkpt lat="44.6479111" lon="8.7939548"><ele>333.5</ele><time>2026-04-11T09:49:21.291Z</time></trkpt><trkpt lat="44.6478353" lon="8.7937727"><ele>333.75</ele><time>2026-04-11T09:49:22.291Z</time></trkpt><trkpt lat="44.6477651" lon="8.793594"><ele>334.0</ele><time>2026-04-11T09:49:23.29Z</time></trkpt><trkpt lat="44.6476977" lon="8.7934151"><ele>335.5</ele><time>2026-04-11T09:49:24.291Z</time></trkpt><trkpt lat="44.6476245" lon="8.7932338"><ele>337.0</ele><time>2026-04-11T09:49:25.29Z</time></trkpt><trkpt lat="44.6475527" lon="8.7930507"><ele>338.5</ele><time>2026-04-11T09:49:26.29Z</time></trkpt><trkpt lat="44.6474759" lon="8.7928732"><ele>340.0</ele><time>2026-04-11T09:49:27.29Z</time></trkpt><trkpt lat="44.6473985" lon="8.7927007"><ele>340.75</ele><time>2026-04-11T09:49:28.291Z</time></trkpt><trkpt lat="44.6473282" lon="8.7925274"><ele>341.5</ele><time>2026-04-11T09:49:29.291Z</time></trkpt><trkpt lat="44.6472598" lon="8.7923568"><ele>342.25</ele><time>2026-04-11T09:49:30.29Z</time></trkpt><trkpt lat="44.6471938" lon="8.7921855"><ele>343.0</ele><time>2026-04-11T09:49:31.29Z</time></trkpt><trkpt lat="44.6471238" lon="8.7920302"><ele>343.0</ele><time>2026-04-11T09:49:32.29Z</time></trkpt><trkpt lat="44.6470595" lon="8.791881"><ele>343.0</ele><time>2026-04-11T09:49:33.29Z</time></trkpt><trkpt lat="44.6470036" lon="8.7917383"><ele>343.0</ele><time>2026-04-11T09:49:34.29Z</time></trkpt><trkpt lat="44.6469569" lon="8.7916083"><ele>343.0</ele><time>2026-04-11T09:49:35.29Z</time></trkpt><trkpt lat="44.6469178" lon="8.7914903"><ele>343.0</ele><time>2026-04-11T09:49:36.291Z</time></trkpt><trkpt lat="44.6468944" lon="8.7913563"><ele>345.4</ele><time>2026-04-11T09:49:37.29Z</time></trkpt><trkpt lat="44.6468918" lon="8.7912218"><ele>347.79999999999995</ele><time>2026-04-11T09:49:38.29Z</time></trkpt><trkpt lat="44.646891" lon="8.7910676"><ele>350.2</ele><time>2026-04-11T09:49:39.291Z</time></trkpt><trkpt lat="44.6468919" lon="8.7909223"><ele>352.6</ele><time>2026-04-11T09:49:40.29Z</time></trkpt><trkpt lat="44.6468639" lon="8.7907907"><ele>355.0</ele><time>2026-04-11T09:49:41.29Z</time></trkpt><trkpt lat="44.6468207" lon="8.790659"><ele>355.0</ele><time>2026-04-11T09:49:42.29Z</time></trkpt><trkpt lat="44.646765" lon="8.7905329"><ele>355.0</ele><time>2026-04-11T09:49:43.291Z</time></trkpt><trkpt lat="44.6466964" lon="8.7904112"><ele>355.0</ele><time>2026-04-11T09:49:44.29Z</time></trkpt><trkpt lat="44.6466217" lon="8.7903045"><ele>355.0</ele><time>2026-04-11T09:49:45.29Z</time></trkpt><trkpt lat="44.646538" lon="8.7902096"><ele>355.0</ele><time>2026-04-11T09:49:46.29Z</time></trkpt><trkpt lat="44.6464454" lon="8.7901314"><ele>355.6</ele><time>2026-04-11T09:49:47.29Z</time></trkpt><trkpt lat="44.6463552" lon="8.790069"><ele>356.2</ele><time>2026-04-11T09:49:48.29Z</time></trkpt><trkpt lat="44.6462511" lon="8.7900206"><ele>356.79999999999995</ele><time>2026-04-11T09:49:49.29Z</time></trkpt><trkpt lat="44.6461476" lon="8.7899841"><ele>357.4</ele><time>2026-04-11T09:49:50.291Z</time></trkpt><trkpt lat="44.6460473" lon="8.7899324"><ele>358.0</ele><time>2026-04-11T09:49:51.29Z</time></trkpt><trkpt lat="44.6459566" lon="8.7898616"><ele>358.0</ele><time>2026-04-11T09:49:52.291Z</time></trkpt><trkpt lat="44.6458788" lon="8.7897975"><ele>358.0</ele><time>2026-04-11T09:49:53.29Z</time></trkpt><trkpt lat="44.6458114" lon="8.7897197"><ele>358.0</ele><time>2026-04-11T09:49:54.29Z</time></trkpt><trkpt lat="44.6457561" lon="8.7896149"><ele>358.0</ele><time>2026-04-11T09:49:55.29Z</time></trkpt><trkpt lat="44.6457107" lon="8.7894906"><ele>358.0</ele><time>2026-04-11T09:49:56.29Z</time></trkpt><trkpt lat="44.6456676" lon="8.7893534"><ele>357.0</ele><time>2026-04-11T09:49:57.29Z</time></trkpt><trkpt lat="44.6456206" lon="8.789215"><ele>356.0</ele><time>2026-04-11T09:49:58.29Z</time></trkpt><trkpt lat="44.6455834" lon="8.7890835"><ele>355.0</ele><time>2026-04-11T09:49:59.29Z</time></trkpt><trkpt lat="44.6455439" lon="8.788972"><ele>354.0</ele><time>2026-04-11T09:50:00.29Z</time></trkpt><trkpt lat="44.6455067" lon="8.7888787"><ele>353.0</ele><time>2026-04-11T09:50:01.29Z</time></trkpt><trkpt lat="44.6454759" lon="8.7888015"><ele>352.0</ele><time>2026-04-11T09:50:02.29Z</time></trkpt><trkpt lat="44.6453911" lon="8.7887334"><ele>352.0</ele><time>2026-04-11T09:50:04.291Z</time></trkpt><trkpt lat="44.6453139" lon="8.7887692"><ele>352.0</ele><time>2026-04-11T09:50:06.291Z</time></trkpt><trkpt lat="44.6452133" lon="8.788903"><ele>352.0</ele><time>2026-04-11T09:50:08.291Z</time></trkpt><trkpt lat="44.6451483" lon="8.7889929"><ele>352.0</ele><time>2026-04-11T09:50:09.291Z</time></trkpt><trkpt lat="44.6450625" lon="8.7890685"><ele>352.0</ele><time>2026-04-11T09:50:10.29Z</time></trkpt><trkpt lat="44.6449793" lon="8.7891196"><ele>354.0</ele><time>2026-04-11T09:50:11.291Z</time></trkpt><trkpt lat="44.6449" lon="8.7891338"><ele>356.0</ele><time>2026-04-11T09:50:12.291Z</time></trkpt><trkpt lat="44.6448232" lon="8.7891079"><ele>358.0</ele><time>2026-04-11T09:50:13.291Z</time></trkpt><trkpt lat="44.6447476" lon="8.7890619"><ele>360.0</ele><time>2026-04-11T09:50:14.29Z</time></trkpt><trkpt lat="44.6446849" lon="8.7889824"><ele>362.0</ele><time>2026-04-11T09:50:15.29Z</time></trkpt><trkpt lat="44.6446262" lon="8.7888737"><ele>364.0</ele><time>2026-04-11T09:50:16.29Z</time></trkpt><trkpt lat="44.6445782" lon="8.7887327"><ele>364.0</ele><time>2026-04-11T09:50:17.29Z</time></trkpt><trkpt lat="44.6445328" lon="8.7885825"><ele>364.0</ele><time>2026-04-11T09:50:18.29Z</time></trkpt><trkpt lat="44.6444878" lon="8.7884318"><ele>364.0</ele><time>2026-04-11T09:50:19.29Z</time></trkpt><trkpt lat="44.6444442" lon="8.7882799"><ele>364.0</ele><time>2026-04-11T09:50:20.29Z</time></trkpt><trkpt lat="44.6443922" lon="8.7881245"><ele>364.4</ele><time>2026-04-11T09:50:21.29Z</time></trkpt><trkpt lat="44.6443429" lon="8.7879853"><ele>364.79999999999995</ele><time>2026-04-11T09:50:22.29Z</time></trkpt><trkpt lat="44.6442805" lon="8.7878579"><ele>365.20000000000005</ele><time>2026-04-11T09:50:23.29Z</time></trkpt><trkpt lat="44.6442093" lon="8.7877829"><ele>365.6</ele><time>2026-04-11T09:50:24.291Z</time></trkpt><trkpt lat="44.6441242" lon="8.7877777"><ele>366.0</ele><time>2026-04-11T09:50:25.291Z</time></trkpt><trkpt lat="44.6440476" lon="8.7878224"><ele>366.0</ele><time>2026-04-11T09:50:26.29Z</time></trkpt><trkpt lat="44.6439706" lon="8.787933"><ele>366.0</ele><time>2026-04-11T09:50:27.29Z</time></trkpt><trkpt lat="44.6438927" lon="8.7880452"><ele>366.0</ele><time>2026-04-11T09:50:28.291Z</time></trkpt><trkpt lat="44.6438119" lon="8.7881706"><ele>366.0</ele><time>2026-04-11T09:50:29.291Z</time></trkpt><trkpt lat="44.6437047" lon="8.7882989"><ele>365.25</ele><time>2026-04-11T09:50:30.29Z</time></trkpt><trkpt lat="44.6436032" lon="8.7884427"><ele>364.5</ele><time>2026-04-11T09:50:31.29Z</time></trkpt><trkpt lat="44.6435034" lon="8.7885796"><ele>363.75</ele><time>2026-04-11T09:50:32.29Z</time></trkpt><trkpt lat="44.64341" lon="8.7887097"><ele>363.0</ele><time>2026-04-11T09:50:33.29Z</time></trkpt><trkpt lat="44.6433153" lon="8.7888368"><ele>365.79999999999995</ele><time>2026-04-11T09:50:34.29Z</time></trkpt><trkpt lat="44.643226" lon="8.788942"><ele>368.6</ele><time>2026-04-11T09:50:35.29Z</time></trkpt><trkpt lat="44.6431323" lon="8.7890358"><ele>371.4</ele><time>2026-04-11T09:50:36.29Z</time></trkpt><trkpt lat="44.6430418" lon="8.7890564"><ele>374.20000000000005</ele><time>2026-04-11T09:50:37.29Z</time></trkpt><trkpt lat="44.6429601" lon="8.7890525"><ele>377.0</ele><time>2026-04-11T09:50:38.29Z</time></trkpt><trkpt lat="44.6428681" lon="8.7890113"><ele>378.0</ele><time>2026-04-11T09:50:39.291Z</time></trkpt><trkpt lat="44.6427752" lon="8.7889452"><ele>379.0</ele><time>2026-04-11T09:50:40.29Z</time></trkpt><trkpt lat="44.6426682" lon="8.7888571"><ele>380.0</ele><time>2026-04-11T09:50:41.29Z</time></trkpt><trkpt lat="44.6425558" lon="8.7887547"><ele>381.0</ele><time>2026-04-11T09:50:42.29Z</time></trkpt><trkpt lat="44.6424395" lon="8.7886415"><ele>381.0</ele><time>2026-04-11T09:50:43.29Z</time></trkpt><trkpt lat="44.6423233" lon="8.7885236"><ele>381.0</ele><time>2026-04-11T09:50:44.29Z</time></trkpt><trkpt lat="44.6422113" lon="8.7884039"><ele>381.0</ele><time>2026-04-11T09:50:45.29Z</time></trkpt><trkpt lat="44.6421094" lon="8.7882912"><ele>381.0</ele><time>2026-04-11T09:50:46.29Z</time></trkpt><trkpt lat="44.642013" lon="8.7881788"><ele>380.5</ele><time>2026-04-11T09:50:47.29Z</time></trkpt><trkpt lat="44.6419199" lon="8.788063"><ele>380.0</ele><time>2026-04-11T09:50:48.291Z</time></trkpt><trkpt lat="44.6418352" lon="8.7879323"><ele>379.5</ele><time>2026-04-11T09:50:49.291Z</time></trkpt><trkpt lat="44.6417673" lon="8.7877992"><ele>379.0</ele><time>2026-04-11T09:50:50.291Z</time></trkpt><trkpt lat="44.6417095" lon="8.7876476"><ele>378.6</ele><time>2026-04-11T09:50:51.29Z</time></trkpt><trkpt lat="44.6416622" lon="8.787487"><ele>378.2</ele><time>2026-04-11T09:50:52.291Z</time></trkpt><trkpt lat="44.6416239" lon="8.7873326"><ele>377.8</ele><time>2026-04-11T09:50:53.291Z</time></trkpt><trkpt lat="44.6415664" lon="8.7872192"><ele>377.40000000000003</ele><time>2026-04-11T09:50:54.29Z</time></trkpt><trkpt lat="44.6414826" lon="8.7871414"><ele>377.0</ele><time>2026-04-11T09:50:55.29Z</time></trkpt><trkpt lat="44.6413709" lon="8.7870711"><ele>377.0</ele><time>2026-04-11T09:50:56.29Z</time></trkpt><trkpt lat="44.6412418" lon="8.7870128"><ele>377.0</ele><time>2026-04-11T09:50:57.29Z</time></trkpt><trkpt lat="44.6411139" lon="8.7869332"><ele>377.0</ele><time>2026-04-11T09:50:58.29Z</time></trkpt><trkpt lat="44.6409893" lon="8.7868343"><ele>377.0</ele><time>2026-04-11T09:50:59.29Z</time></trkpt><trkpt lat="44.6408762" lon="8.786726"><ele>379.5</ele><time>2026-04-11T09:51:00.29Z</time></trkpt><trkpt lat="44.6407825" lon="8.7866163"><ele>382.0</ele><time>2026-04-11T09:51:01.291Z</time></trkpt><trkpt lat="44.6407068" lon="8.786493"><ele>384.5</ele><time>2026-04-11T09:51:02.29Z</time></trkpt><trkpt lat="44.6406501" lon="8.7863529"><ele>387.0</ele><time>2026-04-11T09:51:03.29Z</time></trkpt><trkpt lat="44.6406129" lon="8.7861964"><ele>387.0</ele><time>2026-04-11T09:51:04.29Z</time></trkpt><trkpt lat="44.6405982" lon="8.78604"><ele>387.0</ele><time>2026-04-11T09:51:05.29Z</time></trkpt><trkpt lat="44.6405858" lon="8.7859112"><ele>387.0</ele><time>2026-04-11T09:51:06.29Z</time></trkpt><trkpt lat="44.6405541" lon="8.7857867"><ele>387.0</ele><time>2026-04-11T09:51:07.29Z</time></trkpt><trkpt lat="44.6405" lon="8.785738"><ele>387.0</ele><time>2026-04-11T09:51:08.29Z</time></trkpt><trkpt lat="44.6404115" lon="8.7857622"><ele>387.20000000000005</ele><time>2026-04-11T09:51:09.291Z</time></trkpt><trkpt lat="44.6403269" lon="8.785836"><ele>387.4</ele><time>2026-04-11T09:51:10.29Z</time></trkpt><trkpt lat="44.6402598" lon="8.7859469"><ele>387.6</ele><time>2026-04-11T09:51:11.29Z</time></trkpt><trkpt lat="44.6401874" lon="8.7860479"><ele>387.79999999999995</ele><time>2026-04-11T09:51:12.291Z</time></trkpt><trkpt lat="44.6400976" lon="8.7861163"><ele>388.0</ele><time>2026-04-11T09:51:13.291Z</time></trkpt><trkpt lat="44.6399994" lon="8.7861427"><ele>388.0</ele><time>2026-04-11T09:51:14.29Z</time></trkpt><trkpt lat="44.6399063" lon="8.7861174"><ele>388.0</ele><time>2026-04-11T09:51:15.29Z</time></trkpt><trkpt lat="44.6398059" lon="8.7860456"><ele>388.0</ele><time>2026-04-11T09:51:16.29Z</time></trkpt><trkpt lat="44.6397059" lon="8.7859184"><ele>388.0</ele><time>2026-04-11T09:51:17.29Z</time></trkpt><trkpt lat="44.6395987" lon="8.7857945"><ele>388.0</ele><time>2026-04-11T09:51:18.29Z</time></trkpt><trkpt lat="44.6394835" lon="8.7856615"><ele>388.0</ele><time>2026-04-11T09:51:19.29Z</time></trkpt><trkpt lat="44.6393511" lon="8.7855303"><ele>388.0</ele><time>2026-04-11T09:51:20.291Z</time></trkpt><trkpt lat="44.6392318" lon="8.7853761"><ele>388.25</ele><time>2026-04-11T09:51:21.29Z</time></trkpt><trkpt lat="44.6391298" lon="8.7852064"><ele>388.5</ele><time>2026-04-11T09:51:22.291Z</time></trkpt><trkpt lat="44.6390211" lon="8.785064"><ele>388.75</ele><time>2026-04-11T09:51:23.29Z</time></trkpt><trkpt lat="44.6389248" lon="8.7849296"><ele>389.0</ele><time>2026-04-11T09:51:24.29Z</time></trkpt><trkpt lat="44.6388369" lon="8.7847944"><ele>389.0</ele><time>2026-04-11T09:51:25.29Z</time></trkpt><trkpt lat="44.6387663" lon="8.7846425"><ele>389.0</ele><time>2026-04-11T09:51:26.29Z</time></trkpt><trkpt lat="44.6387189" lon="8.7844807"><ele>389.0</ele><time>2026-04-11T09:51:27.291Z</time></trkpt><trkpt lat="44.638692" lon="8.7843271"><ele>389.0</ele><time>2026-04-11T09:51:28.29Z</time></trkpt><trkpt lat="44.6386847" lon="8.7841845"><ele>387.5</ele><time>2026-04-11T09:51:29.29Z</time></trkpt><trkpt lat="44.6386968" lon="8.7840412"><ele>386.0</ele><time>2026-04-11T09:51:30.291Z</time></trkpt><trkpt lat="44.6387375" lon="8.7838914"><ele>384.5</ele><time>2026-04-11T09:51:31.29Z</time></trkpt><trkpt lat="44.6387899" lon="8.7837211"><ele>383.0</ele><time>2026-04-11T09:51:32.291Z</time></trkpt><trkpt lat="44.6388553" lon="8.7835278"><ele>387.6666666666667</ele><time>2026-04-11T09:51:33.29Z</time></trkpt><trkpt lat="44.6389333" lon="8.7833289"><ele>392.33333333333337</ele><time>2026-04-11T09:51:34.29Z</time></trkpt><trkpt lat="44.6390299" lon="8.7831715"><ele>397.0</ele><time>2026-04-11T09:51:35.29Z</time></trkpt><trkpt lat="44.6391471" lon="8.7830456"><ele>397.0</ele><time>2026-04-11T09:51:36.29Z</time></trkpt><trkpt lat="44.639263" lon="8.7829394"><ele>397.0</ele><time>2026-04-11T09:51:37.29Z</time></trkpt><trkpt lat="44.6393666" lon="8.7828213"><ele>397.0</ele><time>2026-04-11T09:51:38.29Z</time></trkpt><trkpt lat="44.6394489" lon="8.7827297"><ele>397.0</ele><time>2026-04-11T09:51:39.29Z</time></trkpt><trkpt lat="44.63951" lon="8.7826531"><ele>393.0</ele><time>2026-04-11T09:51:40.29Z</time></trkpt><trkpt lat="44.6395429" lon="8.7825538"><ele>389.0</ele><time>2026-04-11T09:51:41.291Z</time></trkpt><trkpt lat="44.6395495" lon="8.7824245"><ele>385.0</ele><time>2026-04-11T09:51:42.29Z</time></trkpt><trkpt lat="44.6395448" lon="8.782259"><ele>381.0</ele><time>2026-04-11T09:51:43.291Z</time></trkpt><trkpt lat="44.6395566" lon="8.782075"><ele>377.0</ele><time>2026-04-11T09:51:44.29Z</time></trkpt><trkpt lat="44.6395665" lon="8.7818865"><ele>377.6</ele><time>2026-04-11T09:51:45.29Z</time></trkpt><trkpt lat="44.6395503" lon="8.781724"><ele>378.20000000000005</ele><time>2026-04-11T09:51:46.29Z</time></trkpt><trkpt lat="44.6395184" lon="8.7815671"><ele>378.8</ele><time>2026-04-11T09:51:47.29Z</time></trkpt><trkpt lat="44.6394806" lon="8.7814348"><ele>379.4</ele><time>2026-04-11T09:51:48.29Z</time></trkpt><trkpt lat="44.6394414" lon="8.7813221"><ele>380.0</ele><time>2026-04-11T09:51:49.29Z</time></trkpt><trkpt lat="44.6393788" lon="8.7812421"><ele>383.5</ele><time>2026-04-11T09:51:50.29Z</time></trkpt><trkpt lat="44.6393126" lon="8.7811919"><ele>387.0</ele><time>2026-04-11T09:51:51.29Z</time></trkpt><trkpt lat="44.6392436" lon="8.7811912"><ele>390.5</ele><time>2026-04-11T09:51:52.29Z</time></trkpt><trkpt lat="44.6391823" lon="8.7812401"><ele>394.0</ele><time>2026-04-11T09:51:53.29Z</time></trkpt><trkpt lat="44.6391144" lon="8.7813237"><ele>397.49999999999994</ele><time>2026-04-11T09:51:54.29Z</time></trkpt><trkpt lat="44.639044" lon="8.7814456"><ele>401.0</ele><time>2026-04-11T09:51:55.29Z</time></trkpt><trkpt lat="44.6389636" lon="8.7815675"><ele>401.0</ele><time>2026-04-11T09:51:56.29Z</time></trkpt><trkpt lat="44.6388915" lon="8.7816747"><ele>401.0</ele><time>2026-04-11T09:51:57.29Z</time></trkpt><trkpt lat="44.6388243" lon="8.7817684"><ele>401.0</ele><time>2026-04-11T09:51:58.29Z</time></trkpt><trkpt lat="44.6387574" lon="8.7818813"><ele>401.0</ele><time>2026-04-11T09:51:59.29Z</time></trkpt><trkpt lat="44.6386831" lon="8.7819774"><ele>401.0</ele><time>2026-04-11T09:52:00.29Z</time></trkpt><trkpt lat="44.6386079" lon="8.7820439"><ele>403.49999999999994</ele><time>2026-04-11T09:52:01.29Z</time></trkpt><trkpt lat="44.6385356" lon="8.7820783"><ele>406.0</ele><time>2026-04-11T09:52:02.291Z</time></trkpt><trkpt lat="44.6384671" lon="8.7820793"><ele>408.5</ele><time>2026-04-11T09:52:03.29Z</time></trkpt><trkpt lat="44.6383893" lon="8.7820524"><ele>411.0</ele><time>2026-04-11T09:52:04.291Z</time></trkpt><trkpt lat="44.6383003" lon="8.781996"><ele>413.49999999999994</ele><time>2026-04-11T09:52:05.29Z</time></trkpt><trkpt lat="44.6381953" lon="8.7819259"><ele>416.0</ele><time>2026-04-11T09:52:06.29Z</time></trkpt><trkpt lat="44.6380915" lon="8.7818672"><ele>413.75</ele><time>2026-04-11T09:52:07.291Z</time></trkpt><trkpt lat="44.637973" lon="8.7818182"><ele>411.5</ele><time>2026-04-11T09:52:08.29Z</time></trkpt><trkpt lat="44.6378594" lon="8.7817795"><ele>409.25</ele><time>2026-04-11T09:52:09.29Z</time></trkpt><trkpt lat="44.6377471" lon="8.7817586"><ele>407.0</ele><time>2026-04-11T09:52:10.29Z</time></trkpt><trkpt lat="44.6376398" lon="8.7817334"><ele>406.99999999999994</ele><time>2026-04-11T09:52:11.29Z</time></trkpt><trkpt lat="44.6375405" lon="8.7817093"><ele>407.0</ele><time>2026-04-11T09:52:12.29Z</time></trkpt><trkpt lat="44.6374492" lon="8.7816739"><ele>407.0</ele><time>2026-04-11T09:52:13.29Z</time></trkpt><trkpt lat="44.6373726" lon="8.7816364"><ele>407.0</ele><time>2026-04-11T09:52:14.29Z</time></trkpt><trkpt lat="44.6373083" lon="8.7815986"><ele>406.99999999999994</ele><time>2026-04-11T09:52:15.29Z</time></trkpt><trkpt lat="44.6372181" lon="8.7815285"><ele>407.0</ele><time>2026-04-11T09:52:17.291Z</time></trkpt><trkpt lat="44.6371401" lon="8.7815245"><ele>407.0</ele><time>2026-04-11T09:52:19.29Z</time></trkpt><trkpt lat="44.6370689" lon="8.7815692"><ele>407.0</ele><time>2026-04-11T09:52:21.29Z</time></trkpt><trkpt lat="44.6370461" lon="8.7816993"><ele>407.0</ele><time>2026-04-11T09:52:24.29Z</time></trkpt><trkpt lat="44.6370939" lon="8.7818015"><ele>407.0</ele><time>2026-04-11T09:52:26.291Z</time></trkpt><trkpt lat="44.6371962" lon="8.781853"><ele>407.0</ele><time>2026-04-11T09:52:28.291Z</time></trkpt><trkpt lat="44.6372897" lon="8.7819427"><ele>409.49999999999994</ele><time>2026-04-11T09:52:30.291Z</time></trkpt><trkpt lat="44.6373237" lon="8.7820282"><ele>412.0</ele><time>2026-04-11T09:52:31.291Z</time></trkpt><trkpt lat="44.6373417" lon="8.7821256"><ele>414.5</ele><time>2026-04-11T09:52:32.29Z</time></trkpt><trkpt lat="44.6373644" lon="8.7822354"><ele>417.0</ele><time>2026-04-11T09:52:33.29Z</time></trkpt><trkpt lat="44.637401" lon="8.7823603"><ele>419.49999999999994</ele><time>2026-04-11T09:52:34.29Z</time></trkpt><trkpt lat="44.6374444" lon="8.7824731"><ele>422.0</ele><time>2026-04-11T09:52:35.29Z</time></trkpt><trkpt lat="44.6374627" lon="8.7825595"><ele>421.99999999999994</ele><time>2026-04-11T09:52:36.291Z</time></trkpt><trkpt lat="44.6374314" lon="8.7826389"><ele>422.0</ele><time>2026-04-11T09:52:38.29Z</time></trkpt><trkpt lat="44.6373672" lon="8.7826045"><ele>422.0</ele><time>2026-04-11T09:52:40.29Z</time></trkpt><trkpt lat="44.6373259" lon="8.7824265"><ele>422.0</ele><time>2026-04-11T09:52:42.29Z</time></trkpt><trkpt lat="44.6372993" lon="8.7823167"><ele>421.99999999999994</ele><time>2026-04-11T09:52:43.29Z</time></trkpt><trkpt lat="44.6372535" lon="8.7822132"><ele>422.0</ele><time>2026-04-11T09:52:44.29Z</time></trkpt><trkpt lat="44.6371992" lon="8.7821355"><ele>421.99999999999994</ele><time>2026-04-11T09:52:45.291Z</time></trkpt><trkpt lat="44.6371318" lon="8.7820904"><ele>422.0</ele><time>2026-04-11T09:52:46.291Z</time></trkpt><trkpt lat="44.6370629" lon="8.7820811"><ele>422.0</ele><time>2026-04-11T09:52:47.291Z</time></trkpt><trkpt lat="44.6369819" lon="8.7821142"><ele>422.0</ele><time>2026-04-11T09:52:48.291Z</time></trkpt><trkpt lat="44.6369024" lon="8.7821651"><ele>421.99999999999994</ele><time>2026-04-11T09:52:49.291Z</time></trkpt><trkpt lat="44.6368241" lon="8.7822266"><ele>422.0</ele><time>2026-04-11T09:52:50.291Z</time></trkpt><trkpt lat="44.6367421" lon="8.7823128"><ele>423.6</ele><time>2026-04-11T09:52:51.29Z</time></trkpt><trkpt lat="44.6366596" lon="8.7824126"><ele>425.20000000000005</ele><time>2026-04-11T09:52:52.29Z</time></trkpt><trkpt lat="44.6365733" lon="8.7825087"><ele>426.8</ele><time>2026-04-11T09:52:53.29Z</time></trkpt><trkpt lat="44.6364883" lon="8.7826079"><ele>428.4</ele><time>2026-04-11T09:52:54.29Z</time></trkpt><trkpt lat="44.636407" lon="8.7827001"><ele>430.0</ele><time>2026-04-11T09:52:55.29Z</time></trkpt><trkpt lat="44.6363245" lon="8.7827887"><ele>432.6</ele><time>2026-04-11T09:52:56.29Z</time></trkpt><trkpt lat="44.6362393" lon="8.7828765"><ele>435.2</ele><time>2026-04-11T09:52:57.29Z</time></trkpt><trkpt lat="44.6361553" lon="8.7829511"><ele>437.79999999999995</ele><time>2026-04-11T09:52:58.29Z</time></trkpt><trkpt lat="44.6360682" lon="8.7830225"><ele>440.4</ele><time>2026-04-11T09:52:59.29Z</time></trkpt><trkpt lat="44.635969" lon="8.7830863"><ele>443.0</ele><time>2026-04-11T09:53:00.29Z</time></trkpt><trkpt lat="44.6358704" lon="8.7831297"><ele>443.16666666666663</ele><time>2026-04-11T09:53:01.29Z</time></trkpt><trkpt lat="44.6357944" lon="8.7831502"><ele>443.3333333333333</ele><time>2026-04-11T09:53:02.29Z</time></trkpt><trkpt lat="44.635729" lon="8.7832094"><ele>443.5</ele><time>2026-04-11T09:53:04.29Z</time></trkpt><trkpt lat="44.6357395" lon="8.7833309"><ele>443.66666666666663</ele><time>2026-04-11T09:53:07.291Z</time></trkpt><trkpt lat="44.6358395" lon="8.7833667"><ele>443.8333333333333</ele><time>2026-04-11T09:53:09.29Z</time></trkpt><trkpt lat="44.6359162" lon="8.7833367"><ele>444.0</ele><time>2026-04-11T09:53:10.291Z</time></trkpt><trkpt lat="44.6360001" lon="8.7833284"><ele>444.0</ele><time>2026-04-11T09:53:11.29Z</time></trkpt><trkpt lat="44.6360866" lon="8.7833419"><ele>444.0</ele><time>2026-04-11T09:53:12.29Z</time></trkpt><trkpt lat="44.6361752" lon="8.7833613"><ele>444.0</ele><time>2026-04-11T09:53:13.29Z</time></trkpt><trkpt lat="44.6362582" lon="8.7833361"><ele>444.0</ele><time>2026-04-11T09:53:14.29Z</time></trkpt><trkpt lat="44.6363445" lon="8.783267"><ele>444.0</ele><time>2026-04-11T09:53:15.29Z</time></trkpt><trkpt lat="44.6364328" lon="8.7831833"><ele>443.8333333333333</ele><time>2026-04-11T09:53:16.29Z</time></trkpt><trkpt lat="44.6365085" lon="8.7830965"><ele>443.66666666666663</ele><time>2026-04-11T09:53:17.29Z</time></trkpt><trkpt lat="44.6365914" lon="8.7830361"><ele>443.5</ele><time>2026-04-11T09:53:18.291Z</time></trkpt><trkpt lat="44.6366735" lon="8.7830152"><ele>443.3333333333333</ele><time>2026-04-11T09:53:19.29Z</time></trkpt><trkpt lat="44.6367515" lon="8.7830354"><ele>443.16666666666663</ele><time>2026-04-11T09:53:20.29Z</time></trkpt><trkpt lat="44.6368121" lon="8.783089"><ele>443.0</ele><time>2026-04-11T09:53:21.29Z</time></trkpt><trkpt lat="44.6368691" lon="8.7832502"><ele>443.0</ele><time>2026-04-11T09:53:23.29Z</time></trkpt><trkpt lat="44.6368732" lon="8.7833714"><ele>442.99999999999994</ele><time>2026-04-11T09:53:24.289Z</time></trkpt><trkpt lat="44.6368777" lon="8.7835221"><ele>442.99999999999994</ele><time>2026-04-11T09:53:25.289Z</time></trkpt><trkpt lat="44.636883" lon="8.7836775"><ele>443.0</ele><time>2026-04-11T09:53:26.289Z</time></trkpt><trkpt lat="44.6368908" lon="8.7838316"><ele>443.0</ele><time>2026-04-11T09:53:27.29Z</time></trkpt><trkpt lat="44.6369136" lon="8.7840013"><ele>442.75</ele><time>2026-04-11T09:53:28.289Z</time></trkpt><trkpt lat="44.63694" lon="8.7841638"><ele>442.5</ele><time>2026-04-11T09:53:29.29Z</time></trkpt><trkpt lat="44.6369673" lon="8.7843375"><ele>442.25</ele><time>2026-04-11T09:53:30.289Z</time></trkpt><trkpt lat="44.6370046" lon="8.7845043"><ele>442.0</ele><time>2026-04-11T09:53:31.289Z</time></trkpt><trkpt lat="44.6370398" lon="8.7846632"><ele>442.00000000000006</ele><time>2026-04-11T09:53:32.29Z</time></trkpt><trkpt lat="44.6370586" lon="8.7848135"><ele>442.0</ele><time>2026-04-11T09:53:33.289Z</time></trkpt><trkpt lat="44.6370717" lon="8.7849403"><ele>442.0</ele><time>2026-04-11T09:53:34.29Z</time></trkpt><trkpt lat="44.6370825" lon="8.7850603"><ele>442.0</ele><time>2026-04-11T09:53:35.289Z</time></trkpt><trkpt lat="44.637076" lon="8.7851642"><ele>442.00000000000006</ele><time>2026-04-11T09:53:36.289Z</time></trkpt><trkpt lat="44.6370517" lon="8.7852603"><ele>442.0</ele><time>2026-04-11T09:53:37.289Z</time></trkpt><trkpt lat="44.6370058" lon="8.7853215"><ele>442.6</ele><time>2026-04-11T09:53:38.289Z</time></trkpt><trkpt lat="44.6369413" lon="8.785356"><ele>443.20000000000005</ele><time>2026-04-11T09:53:39.29Z</time></trkpt><trkpt lat="44.6368598" lon="8.7853761"><ele>443.8</ele><time>2026-04-11T09:53:40.289Z</time></trkpt><trkpt lat="44.6367678" lon="8.7853786"><ele>444.4</ele><time>2026-04-11T09:53:41.289Z</time></trkpt><trkpt lat="44.6366546" lon="8.7853766"><ele>445.0</ele><time>2026-04-11T09:53:42.289Z</time></trkpt><trkpt lat="44.6365395" lon="8.7853695"><ele>445.0</ele><time>2026-04-11T09:53:43.289Z</time></trkpt><trkpt lat="44.636421" lon="8.785383"><ele>445.0</ele><time>2026-04-11T09:53:44.289Z</time></trkpt><trkpt lat="44.636296" lon="8.7853971"><ele>445.0</ele><time>2026-04-11T09:53:45.289Z</time></trkpt><trkpt lat="44.6361683" lon="8.7853814"><ele>445.0</ele><time>2026-04-11T09:53:46.29Z</time></trkpt><trkpt lat="44.6360365" lon="8.7853523"><ele>447.25</ele><time>2026-04-11T09:53:47.29Z</time></trkpt><trkpt lat="44.635912" lon="8.7853112"><ele>449.5</ele><time>2026-04-11T09:53:48.29Z</time></trkpt><trkpt lat="44.6357915" lon="8.7852636"><ele>451.75</ele><time>2026-04-11T09:53:49.289Z</time></trkpt><trkpt lat="44.6356616" lon="8.78523"><ele>454.0</ele><time>2026-04-11T09:53:50.289Z</time></trkpt><trkpt lat="44.6355492" lon="8.7852126"><ele>454.0</ele><time>2026-04-11T09:53:51.289Z</time></trkpt><trkpt lat="44.6354425" lon="8.7851901"><ele>454.0</ele><time>2026-04-11T09:53:52.289Z</time></trkpt><trkpt lat="44.6353421" lon="8.7851669"><ele>454.0</ele><time>2026-04-11T09:53:53.289Z</time></trkpt><trkpt lat="44.6352417" lon="8.7851095"><ele>454.0</ele><time>2026-04-11T09:53:54.289Z</time></trkpt><trkpt lat="44.635141" lon="8.7850303"><ele>454.0</ele><time>2026-04-11T09:53:55.289Z</time></trkpt><trkpt lat="44.6350458" lon="8.7849259"><ele>459.5</ele><time>2026-04-11T09:53:56.29Z</time></trkpt><trkpt lat="44.6349431" lon="8.7848199"><ele>465.0</ele><time>2026-04-11T09:53:57.289Z</time></trkpt><trkpt lat="44.6348335" lon="8.7847028"><ele>470.5</ele><time>2026-04-11T09:53:58.289Z</time></trkpt><trkpt lat="44.6347266" lon="8.7845764"><ele>476.0</ele><time>2026-04-11T09:53:59.29Z</time></trkpt><trkpt lat="44.6346212" lon="8.7844456"><ele>474.0</ele><time>2026-04-11T09:54:00.289Z</time></trkpt><trkpt lat="44.6345229" lon="8.7843045"><ele>472.0</ele><time>2026-04-11T09:54:01.289Z</time></trkpt><trkpt lat="44.6344231" lon="8.7841696"><ele>470.0</ele><time>2026-04-11T09:54:02.289Z</time></trkpt><trkpt lat="44.6343221" lon="8.7840386"><ele>468.0</ele><time>2026-04-11T09:54:03.289Z</time></trkpt><trkpt lat="44.6342241" lon="8.7839102"><ele>471.4</ele><time>2026-04-11T09:54:04.29Z</time></trkpt><trkpt lat="44.6341277" lon="8.7837885"><ele>474.79999999999995</ele><time>2026-04-11T09:54:05.289Z</time></trkpt><trkpt lat="44.6340491" lon="8.7836744"><ele>478.2</ele><time>2026-04-11T09:54:06.289Z</time></trkpt><trkpt lat="44.6339899" lon="8.783556"><ele>481.6</ele><time>2026-04-11T09:54:07.289Z</time></trkpt><trkpt lat="44.6339461" lon="8.7834309"><ele>485.0</ele><time>2026-04-11T09:54:08.289Z</time></trkpt><trkpt lat="44.6339195" lon="8.7833092"><ele>485.0</ele><time>2026-04-11T09:54:09.289Z</time></trkpt><trkpt lat="44.6338848" lon="8.783201"><ele>485.0</ele><time>2026-04-11T09:54:10.29Z</time></trkpt><trkpt lat="44.6338268" lon="8.7831101"><ele>485.0</ele><time>2026-04-11T09:54:11.289Z</time></trkpt><trkpt lat="44.6337408" lon="8.7830329"><ele>485.0</ele><time>2026-04-11T09:54:12.289Z</time></trkpt><trkpt lat="44.6336369" lon="8.7829665"><ele>485.0</ele><time>2026-04-11T09:54:13.289Z</time></trkpt><trkpt lat="44.6335364" lon="8.7829307"><ele>487.6</ele><time>2026-04-11T09:54:14.289Z</time></trkpt><trkpt lat="44.633435" lon="8.7829114"><ele>490.2</ele><time>2026-04-11T09:54:15.29Z</time></trkpt><trkpt lat="44.633341" lon="8.7828653"><ele>492.79999999999995</ele><time>2026-04-11T09:54:16.29Z</time></trkpt><trkpt lat="44.6332703" lon="8.7827695"><ele>495.4</ele><time>2026-04-11T09:54:17.289Z</time></trkpt><trkpt lat="44.6332272" lon="8.782657"><ele>498.0</ele><time>2026-04-11T09:54:18.289Z</time></trkpt><trkpt lat="44.633186" lon="8.7825429"><ele>498.0</ele><time>2026-04-11T09:54:19.29Z</time></trkpt><trkpt lat="44.6331584" lon="8.7824265"><ele>497.99999999999994</ele><time>2026-04-11T09:54:20.289Z</time></trkpt><trkpt lat="44.6331272" lon="8.7823093"><ele>497.99999999999994</ele><time>2026-04-11T09:54:21.289Z</time></trkpt><trkpt lat="44.6330732" lon="8.7822164"><ele>498.0</ele><time>2026-04-11T09:54:22.29Z</time></trkpt><trkpt lat="44.632997" lon="8.7821433"><ele>498.0</ele><time>2026-04-11T09:54:23.29Z</time></trkpt><trkpt lat="44.632896" lon="8.7820613"><ele>500.79999999999995</ele><time>2026-04-11T09:54:24.289Z</time></trkpt><trkpt lat="44.6327973" lon="8.7819751"><ele>503.59999999999997</ele><time>2026-04-11T09:54:25.289Z</time></trkpt><trkpt lat="44.6327067" lon="8.7818896"><ele>506.40000000000003</ele><time>2026-04-11T09:54:26.289Z</time></trkpt><trkpt lat="44.6326379" lon="8.7817871"><ele>509.20000000000005</ele><time>2026-04-11T09:54:27.289Z</time></trkpt><trkpt lat="44.632577" lon="8.7816615"><ele>512.0</ele><time>2026-04-11T09:54:28.29Z</time></trkpt><trkpt lat="44.6325241" lon="8.7815234"><ele>511.99999999999994</ele><time>2026-04-11T09:54:29.289Z</time></trkpt><trkpt lat="44.6324757" lon="8.7813902"><ele>512.0</ele><time>2026-04-11T09:54:30.289Z</time></trkpt><trkpt lat="44.6324451" lon="8.781276"><ele>512.0</ele><time>2026-04-11T09:54:31.29Z</time></trkpt><trkpt lat="44.6324074" lon="8.7811938"><ele>512.0</ele><time>2026-04-11T09:54:32.289Z</time></trkpt><trkpt lat="44.6323615" lon="8.781132"><ele>511.99999999999994</ele><time>2026-04-11T09:54:33.289Z</time></trkpt><trkpt lat="44.6323016" lon="8.7811041"><ele>512.0</ele><time>2026-04-11T09:54:34.289Z</time></trkpt><trkpt lat="44.632236" lon="8.7811191"><ele>512.0</ele><time>2026-04-11T09:54:35.289Z</time></trkpt><trkpt lat="44.6321575" lon="8.7811495"><ele>512.0</ele><time>2026-04-11T09:54:36.29Z</time></trkpt><trkpt lat="44.6320745" lon="8.7812035"><ele>512.0</ele><time>2026-04-11T09:54:37.29Z</time></trkpt><trkpt lat="44.6319834" lon="8.7812744"><ele>512.0</ele><time>2026-04-11T09:54:38.289Z</time></trkpt><trkpt lat="44.6318845" lon="8.7813639"><ele>512.0</ele><time>2026-04-11T09:54:39.289Z</time></trkpt><trkpt lat="44.631783" lon="8.7814504"><ele>515.2</ele><time>2026-04-11T09:54:40.289Z</time></trkpt><trkpt lat="44.6316693" lon="8.7815122"><ele>518.4000000000001</ele><time>2026-04-11T09:54:41.29Z</time></trkpt><trkpt lat="44.6315605" lon="8.7815472"><ele>521.5999999999999</ele><time>2026-04-11T09:54:42.289Z</time></trkpt><trkpt lat="44.6314594" lon="8.7815423"><ele>524.8</ele><time>2026-04-11T09:54:43.289Z</time></trkpt><trkpt lat="44.6313706" lon="8.7815248"><ele>528.0</ele><time>2026-04-11T09:54:44.289Z</time></trkpt><trkpt lat="44.6312751" lon="8.7814912"><ele>528.0</ele><time>2026-04-11T09:54:45.289Z</time></trkpt><trkpt lat="44.6311738" lon="8.7814227"><ele>528.0</ele><time>2026-04-11T09:54:46.289Z</time></trkpt><trkpt lat="44.6310782" lon="8.7813406"><ele>528.0</ele><time>2026-04-11T09:54:47.29Z</time></trkpt><trkpt lat="44.6309915" lon="8.7812777"><ele>528.0</ele><time>2026-04-11T09:54:48.289Z</time></trkpt><trkpt lat="44.6309251" lon="8.7812355"><ele>528.0</ele><time>2026-04-11T09:54:49.29Z</time></trkpt><trkpt lat="44.6308269" lon="8.781219"><ele>529.8</ele><time>2026-04-11T09:54:51.29Z</time></trkpt><trkpt lat="44.6307113" lon="8.7813375"><ele>531.5999999999999</ele><time>2026-04-11T09:54:53.29Z</time></trkpt><trkpt lat="44.6306386" lon="8.7814154"><ele>533.4000000000001</ele><time>2026-04-11T09:54:54.289Z</time></trkpt><trkpt lat="44.6305822" lon="8.7814955"><ele>535.2</ele><time>2026-04-11T09:54:55.289Z</time></trkpt><trkpt lat="44.6305506" lon="8.7815815"><ele>537.0</ele><time>2026-04-11T09:54:56.289Z</time></trkpt><trkpt lat="44.6305474" lon="8.7816811"><ele>537.0</ele><time>2026-04-11T09:54:57.289Z</time></trkpt><trkpt lat="44.6305751" lon="8.7817824"><ele>537.0</ele><time>2026-04-11T09:54:58.289Z</time></trkpt><trkpt lat="44.6306181" lon="8.781864"><ele>537.0</ele><time>2026-04-11T09:54:59.289Z</time></trkpt><trkpt lat="44.6306885" lon="8.7819236"><ele>537.0</ele><time>2026-04-11T09:55:00.289Z</time></trkpt><trkpt lat="44.63076" lon="8.7819303"><ele>537.0</ele><time>2026-04-11T09:55:01.289Z</time></trkpt><trkpt lat="44.6308319" lon="8.7818967"><ele>537.0</ele><time>2026-04-11T09:55:02.289Z</time></trkpt><trkpt lat="44.6308858" lon="8.7818267"><ele>537.0</ele><time>2026-04-11T09:55:03.29Z</time></trkpt><trkpt lat="44.6309205" lon="8.7817343"><ele>537.0</ele><time>2026-04-11T09:55:04.289Z</time></trkpt><trkpt lat="44.6310231" lon="8.7816702"><ele>537.0</ele><time>2026-04-11T09:55:06.289Z</time></trkpt><trkpt lat="44.6311207" lon="8.781786"><ele>537.0</ele><time>2026-04-11T09:55:08.29Z</time></trkpt><trkpt lat="44.6311906" lon="8.7818882"><ele>537.0</ele><time>2026-04-11T09:55:09.289Z</time></trkpt><trkpt lat="44.6312719" lon="8.7820119"><ele>539.0</ele><time>2026-04-11T09:55:10.29Z</time></trkpt><trkpt lat="44.6313438" lon="8.7821334"><ele>541.0</ele><time>2026-04-11T09:55:11.289Z</time></trkpt><trkpt lat="44.6313955" lon="8.7822525"><ele>543.0</ele><time>2026-04-11T09:55:12.289Z</time></trkpt><trkpt lat="44.6314415" lon="8.7823465"><ele>545.0</ele><time>2026-04-11T09:55:13.29Z</time></trkpt><trkpt lat="44.631504" lon="8.7824252"><ele>547.0</ele><time>2026-04-11T09:55:14.289Z</time></trkpt><trkpt lat="44.6315911" lon="8.7824566"><ele>547.0</ele><time>2026-04-11T09:55:15.289Z</time></trkpt><trkpt lat="44.6316957" lon="8.782465"><ele>547.0</ele><time>2026-04-11T09:55:16.289Z</time></trkpt><trkpt lat="44.6317758" lon="8.7825074"><ele>547.0</ele><time>2026-04-11T09:55:17.289Z</time></trkpt><trkpt lat="44.6318553" lon="8.7825825"><ele>547.0</ele><time>2026-04-11T09:55:18.289Z</time></trkpt><trkpt lat="44.6319079" lon="8.7827099"><ele>547.0</ele><time>2026-04-11T09:55:19.289Z</time></trkpt><trkpt lat="44.6319452" lon="8.7828649"><ele>547.6</ele><time>2026-04-11T09:55:20.289Z</time></trkpt><trkpt lat="44.6319833" lon="8.7830262"><ele>548.2</ele><time>2026-04-11T09:55:21.289Z</time></trkpt><trkpt lat="44.6320229" lon="8.7831645"><ele>548.8</ele><time>2026-04-11T09:55:22.29Z</time></trkpt><trkpt lat="44.6320288" lon="8.7832828"><ele>549.4</ele><time>2026-04-11T09:55:23.29Z</time></trkpt><trkpt lat="44.6319922" lon="8.7833857"><ele>550.0</ele><time>2026-04-11T09:55:24.289Z</time></trkpt><trkpt lat="44.6319312" lon="8.7834548"><ele>550.0</ele><time>2026-04-11T09:55:25.29Z</time></trkpt><trkpt lat="44.6318433" lon="8.7834948"><ele>550.0</ele><time>2026-04-11T09:55:26.289Z</time></trkpt><trkpt lat="44.6317492" lon="8.7834825"><ele>550.0</ele><time>2026-04-11T09:55:27.289Z</time></trkpt><trkpt lat="44.6316385" lon="8.7834453"><ele>550.0</ele><time>2026-04-11T09:55:28.289Z</time></trkpt><trkpt lat="44.6315273" lon="8.7834239"><ele>550.0</ele><time>2026-04-11T09:55:29.289Z</time></trkpt><trkpt lat="44.6314075" lon="8.7834012"><ele>550.0</ele><time>2026-04-11T09:55:30.289Z</time></trkpt><trkpt lat="44.6312927" lon="8.7833637"><ele>550.0</ele><time>2026-04-11T09:55:31.29Z</time></trkpt><trkpt lat="44.6311803" lon="8.7832943"><ele>550.0</ele><time>2026-04-11T09:55:32.29Z</time></trkpt><trkpt lat="44.6310717" lon="8.7832184"><ele>550.0</ele><time>2026-04-11T09:55:33.289Z</time></trkpt><trkpt lat="44.6309483" lon="8.7831788"><ele>551.25</ele><time>2026-04-11T09:55:34.289Z</time></trkpt><trkpt lat="44.6308256" lon="8.7831672"><ele>552.5</ele><time>2026-04-11T09:55:35.29Z</time></trkpt><trkpt lat="44.6307023" lon="8.7831484"><ele>553.75</ele><time>2026-04-11T09:55:36.289Z</time></trkpt><trkpt lat="44.6305796" lon="8.7831198"><ele>555.0</ele><time>2026-04-11T09:55:37.289Z</time></trkpt><trkpt lat="44.6304619" lon="8.7830761"><ele>555.0</ele><time>2026-04-11T09:55:38.289Z</time></trkpt><trkpt lat="44.6303503" lon="8.7830112"><ele>555.0</ele><time>2026-04-11T09:55:39.29Z</time></trkpt><trkpt lat="44.6302445" lon="8.7829185"><ele>555.0</ele><time>2026-04-11T09:55:40.289Z</time></trkpt><trkpt lat="44.6301529" lon="8.7827852"><ele>555.0</ele><time>2026-04-11T09:55:41.289Z</time></trkpt><trkpt lat="44.6300696" lon="8.7826283"><ele>558.75</ele><time>2026-04-11T09:55:42.29Z</time></trkpt><trkpt lat="44.6299791" lon="8.7824802"><ele>562.5</ele><time>2026-04-11T09:55:43.29Z</time></trkpt><trkpt lat="44.6298835" lon="8.7823269"><ele>566.25</ele><time>2026-04-11T09:55:44.289Z</time></trkpt><trkpt lat="44.6297911" lon="8.7821836"><ele>570.0</ele><time>2026-04-11T09:55:45.29Z</time></trkpt><trkpt lat="44.6297075" lon="8.7820376"><ele>570.0</ele><time>2026-04-11T09:55:46.289Z</time></trkpt><trkpt lat="44.6296277" lon="8.7819011"><ele>570.0</ele><time>2026-04-11T09:55:47.289Z</time></trkpt><trkpt lat="44.6295594" lon="8.7817744"><ele>570.0</ele><time>2026-04-11T09:55:48.289Z</time></trkpt><trkpt lat="44.6294806" lon="8.7816666"><ele>570.0</ele><time>2026-04-11T09:55:49.29Z</time></trkpt><trkpt lat="44.6293909" lon="8.7815685"><ele>575.5</ele><time>2026-04-11T09:55:50.289Z</time></trkpt><trkpt lat="44.6292763" lon="8.7814874"><ele>581.0</ele><time>2026-04-11T09:55:51.289Z</time></trkpt><trkpt lat="44.6291582" lon="8.7814085"><ele>586.5</ele><time>2026-04-11T09:55:52.289Z</time></trkpt><trkpt lat="44.6290444" lon="8.7813258"><ele>592.0</ele><time>2026-04-11T09:55:53.289Z</time></trkpt><trkpt lat="44.6289419" lon="8.7812312"><ele>592.0</ele><time>2026-04-11T09:55:54.289Z</time></trkpt><trkpt lat="44.6288381" lon="8.78112"><ele>592.0</ele><time>2026-04-11T09:55:55.289Z</time></trkpt><trkpt lat="44.6287435" lon="8.7810174"><ele>592.0</ele><time>2026-04-11T09:55:56.289Z</time></trkpt><trkpt lat="44.6286763" lon="8.7809077"><ele>592.0</ele><time>2026-04-11T09:55:57.289Z</time></trkpt><trkpt lat="44.6286267" lon="8.7807741"><ele>595.25</ele><time>2026-04-11T09:55:58.289Z</time></trkpt><trkpt lat="44.6285928" lon="8.7806092"><ele>598.5</ele><time>2026-04-11T09:55:59.289Z</time></trkpt><trkpt lat="44.628573" lon="8.78044"><ele>601.75</ele><time>2026-04-11T09:56:00.289Z</time></trkpt><trkpt lat="44.6285805" lon="8.7802847"><ele>605.0</ele><time>2026-04-11T09:56:01.29Z</time></trkpt><trkpt lat="44.6286072" lon="8.7801354"><ele>605.0</ele><time>2026-04-11T09:56:02.289Z</time></trkpt><trkpt lat="44.6286371" lon="8.7799972"><ele>605.0</ele><time>2026-04-11T09:56:03.289Z</time></trkpt><trkpt lat="44.6286381" lon="8.7798658"><ele>605.0</ele><time>2026-04-11T09:56:04.289Z</time></trkpt><trkpt lat="44.6286131" lon="8.7797425"><ele>605.0</ele><time>2026-04-11T09:56:05.289Z</time></trkpt><trkpt lat="44.6285791" lon="8.7796422"><ele>605.0</ele><time>2026-04-11T09:56:06.289Z</time></trkpt><trkpt lat="44.6285249" lon="8.7795727"><ele>605.0</ele><time>2026-04-11T09:56:07.289Z</time></trkpt><trkpt lat="44.6284577" lon="8.7795355"><ele>605.0</ele><time>2026-04-11T09:56:08.289Z</time></trkpt><trkpt lat="44.6283724" lon="8.7795663"><ele>605.0</ele><time>2026-04-11T09:56:09.289Z</time></trkpt><trkpt lat="44.6282843" lon="8.7796303"><ele>605.0</ele><time>2026-04-11T09:56:10.29Z</time></trkpt><trkpt lat="44.6281937" lon="8.7797044"><ele>605.0</ele><time>2026-04-11T09:56:11.29Z</time></trkpt><trkpt lat="44.6280938" lon="8.7797629"><ele>605.0</ele><time>2026-04-11T09:56:12.29Z</time></trkpt><trkpt lat="44.6279771" lon="8.7798039"><ele>605.0</ele><time>2026-04-11T09:56:13.289Z</time></trkpt><trkpt lat="44.6278568" lon="8.7797995"><ele>605.0</ele><time>2026-04-11T09:56:14.289Z</time></trkpt><trkpt lat="44.6277367" lon="8.7797609"><ele>605.0</ele><time>2026-04-11T09:56:15.289Z</time></trkpt><trkpt lat="44.6276199" lon="8.7796808"><ele>605.0</ele><time>2026-04-11T09:56:16.289Z</time></trkpt><trkpt lat="44.6275051" lon="8.7795829"><ele>604.5</ele><time>2026-04-11T09:56:17.289Z</time></trkpt><trkpt lat="44.6273824" lon="8.7794895"><ele>604.0</ele><time>2026-04-11T09:56:18.289Z</time></trkpt><trkpt lat="44.6272768" lon="8.7793988"><ele>603.5</ele><time>2026-04-11T09:56:19.289Z</time></trkpt><trkpt lat="44.6271965" lon="8.7792918"><ele>603.0</ele><time>2026-04-11T09:56:20.289Z</time></trkpt><trkpt lat="44.6271249" lon="8.7791833"><ele>603.0</ele><time>2026-04-11T09:56:21.289Z</time></trkpt><trkpt lat="44.6270692" lon="8.7790453"><ele>603.0</ele><time>2026-04-11T09:56:22.289Z</time></trkpt><trkpt lat="44.6270076" lon="8.778888"><ele>603.0</ele><time>2026-04-11T09:56:23.289Z</time></trkpt><trkpt lat="44.6269494" lon="8.7787142"><ele>603.0</ele><time>2026-04-11T09:56:24.29Z</time></trkpt><trkpt lat="44.6268966" lon="8.7785352"><ele>609.0</ele><time>2026-04-11T09:56:25.29Z</time></trkpt><trkpt lat="44.6268543" lon="8.7783637"><ele>615.0</ele><time>2026-04-11T09:56:26.289Z</time></trkpt><trkpt lat="44.6268181" lon="8.7781855"><ele>621.0</ele><time>2026-04-11T09:56:27.289Z</time></trkpt><trkpt lat="44.6267983" lon="8.7780143"><ele>627.0</ele><time>2026-04-11T09:56:28.289Z</time></trkpt><trkpt lat="44.6267973" lon="8.7778462"><ele>627.0</ele><time>2026-04-11T09:56:29.289Z</time></trkpt><trkpt lat="44.626815" lon="8.7776906"><ele>627.0</ele><time>2026-04-11T09:56:30.289Z</time></trkpt><trkpt lat="44.6268281" lon="8.777543"><ele>627.0</ele><time>2026-04-11T09:56:31.29Z</time></trkpt><trkpt lat="44.6268431" lon="8.7774215"><ele>627.0</ele><time>2026-04-11T09:56:32.289Z</time></trkpt><trkpt lat="44.6268296" lon="8.7772716"><ele>627.0</ele><time>2026-04-11T09:56:34.29Z</time></trkpt><trkpt lat="44.626721" lon="8.7771905"><ele>625.4</ele><time>2026-04-11T09:56:36.289Z</time></trkpt><trkpt lat="44.6266484" lon="8.777219"><ele>623.8000000000001</ele><time>2026-04-11T09:56:37.289Z</time></trkpt><trkpt lat="44.6265885" lon="8.7772863"><ele>622.2</ele><time>2026-04-11T09:56:38.289Z</time></trkpt><trkpt lat="44.6265224" lon="8.7773815"><ele>620.6</ele><time>2026-04-11T09:56:39.29Z</time></trkpt><trkpt lat="44.6264438" lon="8.7774806"><ele>619.0</ele><time>2026-04-11T09:56:40.289Z</time></trkpt><trkpt lat="44.6263555" lon="8.7775798"><ele>619.0</ele><time>2026-04-11T09:56:41.289Z</time></trkpt><trkpt lat="44.6262668" lon="8.7776779"><ele>619.0</ele><time>2026-04-11T09:56:42.289Z</time></trkpt><trkpt lat="44.6261735" lon="8.7777672"><ele>619.0</ele><time>2026-04-11T09:56:43.289Z</time></trkpt><trkpt lat="44.6260657" lon="8.7778485"><ele>619.0</ele><time>2026-04-11T09:56:44.29Z</time></trkpt><trkpt lat="44.6259487" lon="8.7779362"><ele>623.5</ele><time>2026-04-11T09:56:45.289Z</time></trkpt><trkpt lat="44.6258348" lon="8.7780352"><ele>628.0</ele><time>2026-04-11T09:56:46.289Z</time></trkpt><trkpt lat="44.6257243" lon="8.7781193"><ele>632.5</ele><time>2026-04-11T09:56:47.289Z</time></trkpt><trkpt lat="44.6256189" lon="8.7781913"><ele>637.0</ele><time>2026-04-11T09:56:48.289Z</time></trkpt><trkpt lat="44.6255347" lon="8.7782564"><ele>637.0</ele><time>2026-04-11T09:56:49.289Z</time></trkpt><trkpt lat="44.6254708" lon="8.778326"><ele>637.0</ele><time>2026-04-11T09:56:50.289Z</time></trkpt><trkpt lat="44.6254365" lon="8.778422"><ele>637.0</ele><time>2026-04-11T09:56:51.289Z</time></trkpt><trkpt lat="44.6254259" lon="8.7785402"><ele>637.0</ele><time>2026-04-11T09:56:52.289Z</time></trkpt><trkpt lat="44.6254324" lon="8.7786812"><ele>637.0</ele><time>2026-04-11T09:56:53.289Z</time></trkpt><trkpt lat="44.6254487" lon="8.7788278"><ele>637.0</ele><time>2026-04-11T09:56:54.29Z</time></trkpt><trkpt lat="44.6254717" lon="8.7789984"><ele>639.75</ele><time>2026-04-11T09:56:55.29Z</time></trkpt><trkpt lat="44.6254664" lon="8.7791953"><ele>642.5</ele><time>2026-04-11T09:56:56.289Z</time></trkpt><trkpt lat="44.6254416" lon="8.7793681"><ele>645.25</ele><time>2026-04-11T09:56:57.289Z</time></trkpt><trkpt lat="44.6253972" lon="8.7795248"><ele>648.0</ele><time>2026-04-11T09:56:58.29Z</time></trkpt><trkpt lat="44.6253419" lon="8.7796637"><ele>648.0</ele><time>2026-04-11T09:56:59.289Z</time></trkpt><trkpt lat="44.6252928" lon="8.7797916"><ele>648.0</ele><time>2026-04-11T09:57:00.289Z</time></trkpt><trkpt lat="44.6252595" lon="8.7798977"><ele>648.0</ele><time>2026-04-11T09:57:01.289Z</time></trkpt><trkpt lat="44.6252648" lon="8.7799897"><ele>648.0</ele><time>2026-04-11T09:57:02.289Z</time></trkpt><trkpt lat="44.6253004" lon="8.7800831"><ele>648.0</ele><time>2026-04-11T09:57:03.289Z</time></trkpt><trkpt lat="44.6253652" lon="8.7801692"><ele>648.0</ele><time>2026-04-11T09:57:04.289Z</time></trkpt><trkpt lat="44.6254573" lon="8.780256"><ele>648.0</ele><time>2026-04-11T09:57:05.289Z</time></trkpt><trkpt lat="44.6255657" lon="8.7803523"><ele>648.0</ele><time>2026-04-11T09:57:06.29Z</time></trkpt><trkpt lat="44.6256703" lon="8.7804734"><ele>648.0</ele><time>2026-04-11T09:57:07.289Z</time></trkpt><trkpt lat="44.6257481" lon="8.7806172"><ele>648.0</ele><time>2026-04-11T09:57:08.29Z</time></trkpt><trkpt lat="44.6258094" lon="8.7807922"><ele>648.0</ele><time>2026-04-11T09:57:09.29Z</time></trkpt><trkpt lat="44.6258481" lon="8.7809647"><ele>648.0</ele><time>2026-04-11T09:57:10.289Z</time></trkpt><trkpt lat="44.625861" lon="8.7811377"><ele>648.0</ele><time>2026-04-11T09:57:11.29Z</time></trkpt><trkpt lat="44.6258558" lon="8.7813269"><ele>648.0</ele><time>2026-04-11T09:57:12.29Z</time></trkpt><trkpt lat="44.6258533" lon="8.7815214"><ele>648.25</ele><time>2026-04-11T09:57:13.29Z</time></trkpt><trkpt lat="44.6258634" lon="8.781708"><ele>648.5</ele><time>2026-04-11T09:57:14.289Z</time></trkpt><trkpt lat="44.6258622" lon="8.7818931"><ele>648.75</ele><time>2026-04-11T09:57:15.29Z</time></trkpt><trkpt lat="44.6258574" lon="8.7820798"><ele>649.0</ele><time>2026-04-11T09:57:16.289Z</time></trkpt><trkpt lat="44.6258496" lon="8.782274"><ele>649.25</ele><time>2026-04-11T09:57:17.29Z</time></trkpt><trkpt lat="44.6258373" lon="8.7824793"><ele>649.5</ele><time>2026-04-11T09:57:18.289Z</time></trkpt><trkpt lat="44.6258253" lon="8.7826916"><ele>649.75</ele><time>2026-04-11T09:57:19.29Z</time></trkpt><trkpt lat="44.6258153" lon="8.7828964"><ele>650.0</ele><time>2026-04-11T09:57:20.289Z</time></trkpt><trkpt lat="44.6258034" lon="8.783096"><ele>651.0</ele><time>2026-04-11T09:57:21.289Z</time></trkpt><trkpt lat="44.6257903" lon="8.7833122"><ele>652.0</ele><time>2026-04-11T09:57:22.29Z</time></trkpt><trkpt lat="44.6257738" lon="8.7835336"><ele>653.0</ele><time>2026-04-11T09:57:23.289Z</time></trkpt><trkpt lat="44.6257541" lon="8.7837478"><ele>653.3333333333333</ele><time>2026-04-11T09:57:24.29Z</time></trkpt><trkpt lat="44.6257351" lon="8.7839586"><ele>653.6666666666666</ele><time>2026-04-11T09:57:25.29Z</time></trkpt><trkpt lat="44.6257029" lon="8.7841724"><ele>654.0</ele><time>2026-04-11T09:57:26.29Z</time></trkpt><trkpt lat="44.6256556" lon="8.7844022"><ele>654.3333333333334</ele><time>2026-04-11T09:57:27.29Z</time></trkpt><trkpt lat="44.6256031" lon="8.7846233"><ele>654.6666666666667</ele><time>2026-04-11T09:57:28.289Z</time></trkpt><trkpt lat="44.6255584" lon="8.7848325"><ele>655.0</ele><time>2026-04-11T09:57:29.289Z</time></trkpt><trkpt lat="44.6255046" lon="8.785037"><ele>656.3333333333334</ele><time>2026-04-11T09:57:30.289Z</time></trkpt><trkpt lat="44.6254405" lon="8.7852328"><ele>657.6666666666666</ele><time>2026-04-11T09:57:31.29Z</time></trkpt><trkpt lat="44.6253666" lon="8.7854225"><ele>659.0</ele><time>2026-04-11T09:57:32.289Z</time></trkpt><trkpt lat="44.6252892" lon="8.7856105"><ele>661.5</ele><time>2026-04-11T09:57:33.289Z</time></trkpt><trkpt lat="44.625212" lon="8.7857752"><ele>664.0</ele><time>2026-04-11T09:57:34.289Z</time></trkpt><trkpt lat="44.6251352" lon="8.7859207"><ele>666.5</ele><time>2026-04-11T09:57:35.29Z</time></trkpt><trkpt lat="44.6250417" lon="8.7860367"><ele>669.0</ele><time>2026-04-11T09:57:36.289Z</time></trkpt><trkpt lat="44.6249524" lon="8.7861081"><ele>669.1666666666666</ele><time>2026-04-11T09:57:37.289Z</time></trkpt><trkpt lat="44.6248595" lon="8.7861467"><ele>669.3333333333334</ele><time>2026-04-11T09:57:38.29Z</time></trkpt><trkpt lat="44.6247723" lon="8.7861513"><ele>669.5</ele><time>2026-04-11T09:57:39.289Z</time></trkpt><trkpt lat="44.6246871" lon="8.786106"><ele>669.6666666666667</ele><time>2026-04-11T09:57:40.29Z</time></trkpt><trkpt lat="44.6246018" lon="8.7860542"><ele>669.8333333333334</ele><time>2026-04-11T09:57:41.289Z</time></trkpt><trkpt lat="44.6245228" lon="8.7860459"><ele>670.0</ele><time>2026-04-11T09:57:42.289Z</time></trkpt><trkpt lat="44.6244626" lon="8.7860825"><ele>670.0</ele><time>2026-04-11T09:57:43.289Z</time></trkpt><trkpt lat="44.6244278" lon="8.7861637"><ele>670.0</ele><time>2026-04-11T09:57:44.289Z</time></trkpt><trkpt lat="44.6243984" lon="8.7862914"><ele>670.0</ele><time>2026-04-11T09:57:45.289Z</time></trkpt><trkpt lat="44.624384" lon="8.7864432"><ele>670.0</ele><time>2026-04-11T09:57:46.289Z</time></trkpt><trkpt lat="44.6243746" lon="8.7866051"><ele>670.0</ele><time>2026-04-11T09:57:47.289Z</time></trkpt><trkpt lat="44.6243678" lon="8.7867984"><ele>673.3333333333334</ele><time>2026-04-11T09:57:48.289Z</time></trkpt><trkpt lat="44.6243577" lon="8.7870047"><ele>676.6666666666666</ele><time>2026-04-11T09:57:49.289Z</time></trkpt><trkpt lat="44.6243491" lon="8.7872247"><ele>680.0</ele><time>2026-04-11T09:57:50.289Z</time></trkpt><trkpt lat="44.6243205" lon="8.7874458"><ele>680.0</ele><time>2026-04-11T09:57:51.289Z</time></trkpt><trkpt lat="44.6242835" lon="8.7876601"><ele>680.0</ele><time>2026-04-11T09:57:52.289Z</time></trkpt><trkpt lat="44.6242418" lon="8.7878574"><ele>680.0</ele><time>2026-04-11T09:57:53.289Z</time></trkpt><trkpt lat="44.6242011" lon="8.7880226"><ele>680.0</ele><time>2026-04-11T09:57:54.289Z</time></trkpt><trkpt lat="44.6241382" lon="8.7881743"><ele>683.25</ele><time>2026-04-11T09:57:55.289Z</time></trkpt><trkpt lat="44.6240586" lon="8.7882855"><ele>686.5</ele><time>2026-04-11T09:57:56.29Z</time></trkpt><trkpt lat="44.6239899" lon="8.7884027"><ele>689.75</ele><time>2026-04-11T09:57:57.289Z</time></trkpt><trkpt lat="44.623946" lon="8.7885454"><ele>693.0</ele><time>2026-04-11T09:57:58.289Z</time></trkpt><trkpt lat="44.6239284" lon="8.7887226"><ele>696.25</ele><time>2026-04-11T09:57:59.289Z</time></trkpt><trkpt lat="44.6239336" lon="8.7889208"><ele>699.5</ele><time>2026-04-11T09:58:00.289Z</time></trkpt><trkpt lat="44.6239205" lon="8.7891343"><ele>702.75</ele><time>2026-04-11T09:58:01.289Z</time></trkpt><trkpt lat="44.623867" lon="8.7893382"><ele>706.0</ele><time>2026-04-11T09:58:02.289Z</time></trkpt><trkpt lat="44.6237954" lon="8.7895322"><ele>706.75</ele><time>2026-04-11T09:58:03.289Z</time></trkpt><trkpt lat="44.6237054" lon="8.7897138"><ele>707.5</ele><time>2026-04-11T09:58:04.289Z</time></trkpt><trkpt lat="44.6236037" lon="8.7898662"><ele>708.25</ele><time>2026-04-11T09:58:05.289Z</time></trkpt><trkpt lat="44.6234943" lon="8.7899833"><ele>709.0</ele><time>2026-04-11T09:58:06.289Z</time></trkpt><trkpt lat="44.6233707" lon="8.7900833"><ele>705.6666666666667</ele><time>2026-04-11T09:58:07.289Z</time></trkpt><trkpt lat="44.6232293" lon="8.7901771"><ele>702.3333333333334</ele><time>2026-04-11T09:58:08.289Z</time></trkpt><trkpt lat="44.6230822" lon="8.7902801"><ele>699.0</ele><time>2026-04-11T09:58:09.289Z</time></trkpt><trkpt lat="44.6229368" lon="8.7903822"><ele>700.6666666666666</ele><time>2026-04-11T09:58:10.289Z</time></trkpt><trkpt lat="44.622782" lon="8.7904812"><ele>702.3333333333333</ele><time>2026-04-11T09:58:11.289Z</time></trkpt><trkpt lat="44.6226074" lon="8.7905707"><ele>704.0</ele><time>2026-04-11T09:58:12.289Z</time></trkpt><trkpt lat="44.6224434" lon="8.7906256"><ele>704.0</ele><time>2026-04-11T09:58:13.289Z</time></trkpt><trkpt lat="44.622281" lon="8.7906631"><ele>704.0</ele><time>2026-04-11T09:58:14.29Z</time></trkpt><trkpt lat="44.6221394" lon="8.7906963"><ele>704.0</ele><time>2026-04-11T09:58:15.289Z</time></trkpt><trkpt lat="44.6219975" lon="8.7907358"><ele>706.75</ele><time>2026-04-11T09:58:16.289Z</time></trkpt><trkpt lat="44.6218675" lon="8.7907758"><ele>709.5</ele><time>2026-04-11T09:58:17.29Z</time></trkpt><trkpt lat="44.621751" lon="8.7908156"><ele>712.25</ele><time>2026-04-11T09:58:18.29Z</time></trkpt><trkpt lat="44.6216399" lon="8.790855"><ele>715.0</ele><time>2026-04-11T09:58:19.289Z</time></trkpt><trkpt lat="44.62154" lon="8.7908919"><ele>715.0</ele><time>2026-04-11T09:58:20.29Z</time></trkpt><trkpt lat="44.6214379" lon="8.7909333"><ele>715.0</ele><time>2026-04-11T09:58:21.289Z</time></trkpt><trkpt lat="44.6213273" lon="8.7909749"><ele>715.0</ele><time>2026-04-11T09:58:22.289Z</time></trkpt><trkpt lat="44.6212151" lon="8.7910288"><ele>715.0</ele><time>2026-04-11T09:58:23.29Z</time></trkpt><trkpt lat="44.6211014" lon="8.7910888"><ele>719.75</ele><time>2026-04-11T09:58:24.289Z</time></trkpt><trkpt lat="44.6209835" lon="8.7911298"><ele>724.5</ele><time>2026-04-11T09:58:25.289Z</time></trkpt><trkpt lat="44.6208542" lon="8.7911403"><ele>729.25</ele><time>2026-04-11T09:58:26.29Z</time></trkpt><trkpt lat="44.6207373" lon="8.7911325"><ele>734.0</ele><time>2026-04-11T09:58:27.289Z</time></trkpt><trkpt lat="44.6206188" lon="8.7910903"><ele>734.0</ele><time>2026-04-11T09:58:28.289Z</time></trkpt><trkpt lat="44.6204967" lon="8.7910145"><ele>734.0</ele><time>2026-04-11T09:58:29.289Z</time></trkpt><trkpt lat="44.6203581" lon="8.7909261"><ele>734.0</ele><time>2026-04-11T09:58:30.289Z</time></trkpt><trkpt lat="44.6202261" lon="8.7908321"><ele>734.0</ele><time>2026-04-11T09:58:31.289Z</time></trkpt><trkpt lat="44.6200809" lon="8.7907619"><ele>734.25</ele><time>2026-04-11T09:58:32.289Z</time></trkpt><trkpt lat="44.6199374" lon="8.7906952"><ele>734.5</ele><time>2026-04-11T09:58:33.29Z</time></trkpt><trkpt lat="44.6198017" lon="8.7906158"><ele>734.75</ele><time>2026-04-11T09:58:34.29Z</time></trkpt><trkpt lat="44.6196921" lon="8.7905208"><ele>735.0</ele><time>2026-04-11T09:58:35.289Z</time></trkpt><trkpt lat="44.6196012" lon="8.7904221"><ele>735.0</ele><time>2026-04-11T09:58:36.29Z</time></trkpt><trkpt lat="44.6195284" lon="8.7903362"><ele>735.0</ele><time>2026-04-11T09:58:37.289Z</time></trkpt><trkpt lat="44.6194568" lon="8.7902913"><ele>735.0</ele><time>2026-04-11T09:58:38.289Z</time></trkpt><trkpt lat="44.6193766" lon="8.7903007"><ele>735.0</ele><time>2026-04-11T09:58:39.29Z</time></trkpt><trkpt lat="44.6192964" lon="8.7903432"><ele>735.0</ele><time>2026-04-11T09:58:40.289Z</time></trkpt><trkpt lat="44.6192174" lon="8.7904214"><ele>735.0</ele><time>2026-04-11T09:58:41.289Z</time></trkpt><trkpt lat="44.6191242" lon="8.7905168"><ele>735.75</ele><time>2026-04-11T09:58:42.289Z</time></trkpt><trkpt lat="44.6190161" lon="8.7906168"><ele>736.5</ele><time>2026-04-11T09:58:43.289Z</time></trkpt><trkpt lat="44.61891" lon="8.7907194"><ele>737.25</ele><time>2026-04-11T09:58:44.289Z</time></trkpt><trkpt lat="44.6188164" lon="8.7908327"><ele>738.0</ele><time>2026-04-11T09:58:45.29Z</time></trkpt><trkpt lat="44.618728" lon="8.7909526"><ele>734.0</ele><time>2026-04-11T09:58:46.289Z</time></trkpt><trkpt lat="44.6186623" lon="8.7911013"><ele>730.0</ele><time>2026-04-11T09:58:47.289Z</time></trkpt><trkpt lat="44.6186185" lon="8.7912534"><ele>726.0</ele><time>2026-04-11T09:58:48.289Z</time></trkpt><trkpt lat="44.6185855" lon="8.7914178"><ele>722.0</ele><time>2026-04-11T09:58:49.29Z</time></trkpt><trkpt lat="44.6185505" lon="8.7915803"><ele>722.0</ele><time>2026-04-11T09:58:50.29Z</time></trkpt><trkpt lat="44.6184945" lon="8.7917461"><ele>722.0</ele><time>2026-04-11T09:58:51.289Z</time></trkpt><trkpt lat="44.6184348" lon="8.791902"><ele>722.0</ele><time>2026-04-11T09:58:52.29Z</time></trkpt><trkpt lat="44.6183835" lon="8.7920608"><ele>722.0</ele><time>2026-04-11T09:58:53.289Z</time></trkpt><trkpt lat="44.6183496" lon="8.7922086"><ele>725.8</ele><time>2026-04-11T09:58:54.289Z</time></trkpt><trkpt lat="44.618315" lon="8.7923541"><ele>729.6</ele><time>2026-04-11T09:58:55.289Z</time></trkpt><trkpt lat="44.6182577" lon="8.7924796"><ele>733.4</ele><time>2026-04-11T09:58:56.289Z</time></trkpt><trkpt lat="44.6181847" lon="8.792583"><ele>737.1999999999999</ele><time>2026-04-11T09:58:57.289Z</time></trkpt><trkpt lat="44.6180916" lon="8.7926696"><ele>741.0</ele><time>2026-04-11T09:58:58.289Z</time></trkpt><trkpt lat="44.6179823" lon="8.7927543"><ele>740.5999999999999</ele><time>2026-04-11T09:58:59.289Z</time></trkpt><trkpt lat="44.6178756" lon="8.792814"><ele>740.2</ele><time>2026-04-11T09:59:00.29Z</time></trkpt><trkpt lat="44.6177725" lon="8.7928294"><ele>739.8</ele><time>2026-04-11T09:59:01.289Z</time></trkpt><trkpt lat="44.6176726" lon="8.7928345"><ele>739.4000000000001</ele><time>2026-04-11T09:59:02.289Z</time></trkpt><trkpt lat="44.6175725" lon="8.7928534"><ele>739.0</ele><time>2026-04-11T09:59:03.29Z</time></trkpt><trkpt lat="44.6174737" lon="8.7929105"><ele>739.0</ele><time>2026-04-11T09:59:04.289Z</time></trkpt><trkpt lat="44.617382" lon="8.7929911"><ele>739.0</ele><time>2026-04-11T09:59:05.29Z</time></trkpt><trkpt lat="44.6172892" lon="8.7931061"><ele>739.0</ele><time>2026-04-11T09:59:06.289Z</time></trkpt><trkpt lat="44.6171965" lon="8.793269"><ele>739.0</ele><time>2026-04-11T09:59:07.289Z</time></trkpt><trkpt lat="44.6170882" lon="8.793403"><ele>738.5</ele><time>2026-04-11T09:59:08.289Z</time></trkpt><trkpt lat="44.6169575" lon="8.79351"><ele>738.0</ele><time>2026-04-11T09:59:09.289Z</time></trkpt><trkpt lat="44.6168224" lon="8.7935831"><ele>737.5</ele><time>2026-04-11T09:59:10.289Z</time></trkpt><trkpt lat="44.6166876" lon="8.7936694"><ele>737.0</ele><time>2026-04-11T09:59:11.289Z</time></trkpt><trkpt lat="44.6165704" lon="8.7937817"><ele>737.0</ele><time>2026-04-11T09:59:12.289Z</time></trkpt><trkpt lat="44.6164528" lon="8.7938988"><ele>737.0</ele><time>2026-04-11T09:59:13.29Z</time></trkpt><trkpt lat="44.6163274" lon="8.7939798"><ele>737.0</ele><time>2026-04-11T09:59:14.289Z</time></trkpt><trkpt lat="44.6161876" lon="8.7939977"><ele>737.0</ele><time>2026-04-11T09:59:15.289Z</time></trkpt><trkpt lat="44.6160463" lon="8.793992"><ele>733.0</ele><time>2026-04-11T09:59:16.289Z</time></trkpt><trkpt lat="44.6159003" lon="8.7939925"><ele>729.0</ele><time>2026-04-11T09:59:17.289Z</time></trkpt><trkpt lat="44.6157432" lon="8.7939809"><ele>725.0</ele><time>2026-04-11T09:59:18.289Z</time></trkpt><trkpt lat="44.6155879" lon="8.7939652"><ele>725.0</ele><time>2026-04-11T09:59:19.289Z</time></trkpt><trkpt lat="44.6154359" lon="8.7939519"><ele>725.0</ele><time>2026-04-11T09:59:20.29Z</time></trkpt><trkpt lat="44.6152937" lon="8.7939526"><ele>725.0</ele><time>2026-04-11T09:59:21.289Z</time></trkpt><trkpt lat="44.6151619" lon="8.7939619"><ele>725.0</ele><time>2026-04-11T09:59:22.289Z</time></trkpt><trkpt lat="44.6150386" lon="8.7939689"><ele>723.6</ele><time>2026-04-11T09:59:23.29Z</time></trkpt><trkpt lat="44.6149247" lon="8.7940099"><ele>722.2</ele><time>2026-04-11T09:59:24.289Z</time></trkpt><trkpt lat="44.6148324" lon="8.7940793"><ele>720.8</ele><time>2026-04-11T09:59:25.29Z</time></trkpt><trkpt lat="44.6147625" lon="8.7941682"><ele>719.4</ele><time>2026-04-11T09:59:26.29Z</time></trkpt><trkpt lat="44.6147088" lon="8.7942918"><ele>718.0</ele><time>2026-04-11T09:59:27.289Z</time></trkpt><trkpt lat="44.6146801" lon="8.794429"><ele>722.5</ele><time>2026-04-11T09:59:28.289Z</time></trkpt><trkpt lat="44.6146448" lon="8.7946079"><ele>727.0</ele><time>2026-04-11T09:59:29.29Z</time></trkpt><trkpt lat="44.6146095" lon="8.7947982"><ele>731.5</ele><time>2026-04-11T09:59:30.29Z</time></trkpt><trkpt lat="44.6145608" lon="8.7949925"><ele>736.0</ele><time>2026-04-11T09:59:31.29Z</time></trkpt><trkpt lat="44.614506" lon="8.7951772"><ele>729.0</ele><time>2026-04-11T09:59:32.289Z</time></trkpt><trkpt lat="44.6144389" lon="8.7953464"><ele>722.0</ele><time>2026-04-11T09:59:33.289Z</time></trkpt><trkpt lat="44.6143844" lon="8.7955203"><ele>715.0</ele><time>2026-04-11T09:59:34.29Z</time></trkpt><trkpt lat="44.6143275" lon="8.7956859"><ele>708.0</ele><time>2026-04-11T09:59:35.289Z</time></trkpt><trkpt lat="44.6142602" lon="8.7958342"><ele>708.0</ele><time>2026-04-11T09:59:36.289Z</time></trkpt><trkpt lat="44.6142006" lon="8.7959829"><ele>708.0</ele><time>2026-04-11T09:59:37.289Z</time></trkpt><trkpt lat="44.6141575" lon="8.7961419"><ele>708.0</ele><time>2026-04-11T09:59:38.289Z</time></trkpt><trkpt lat="44.6141391" lon="8.7963016"><ele>708.0</ele><time>2026-04-11T09:59:39.29Z</time></trkpt><trkpt lat="44.6141251" lon="8.7964419"><ele>710.1666666666666</ele><time>2026-04-11T09:59:40.289Z</time></trkpt><trkpt lat="44.6140958" lon="8.7965594"><ele>712.3333333333334</ele><time>2026-04-11T09:59:41.29Z</time></trkpt><trkpt lat="44.6140514" lon="8.7966471"><ele>714.5</ele><time>2026-04-11T09:59:42.29Z</time></trkpt><trkpt lat="44.6140007" lon="8.7967248"><ele>716.6666666666667</ele><time>2026-04-11T09:59:43.289Z</time></trkpt><trkpt lat="44.613963" lon="8.7968087"><ele>718.8333333333334</ele><time>2026-04-11T09:59:44.289Z</time></trkpt><trkpt lat="44.6139318" lon="8.7969729"><ele>721.0</ele><time>2026-04-11T09:59:46.289Z</time></trkpt><trkpt lat="44.6139342" lon="8.7970727"><ele>720.5999999999999</ele><time>2026-04-11T09:59:47.29Z</time></trkpt><trkpt lat="44.6139475" lon="8.7971905"><ele>720.2</ele><time>2026-04-11T09:59:48.29Z</time></trkpt><trkpt lat="44.613961" lon="8.7973196"><ele>719.8</ele><time>2026-04-11T09:59:49.289Z</time></trkpt><trkpt lat="44.6139762" lon="8.7974498"><ele>719.4000000000001</ele><time>2026-04-11T09:59:50.289Z</time></trkpt><trkpt lat="44.6139856" lon="8.7975845"><ele>719.0</ele><time>2026-04-11T09:59:51.29Z</time></trkpt><trkpt lat="44.613997" lon="8.7977227"><ele>719.0</ele><time>2026-04-11T09:59:52.289Z</time></trkpt><trkpt lat="44.6139982" lon="8.7978567"><ele>719.0</ele><time>2026-04-11T09:59:53.29Z</time></trkpt><trkpt lat="44.6139896" lon="8.7979998"><ele>719.0</ele><time>2026-04-11T09:59:54.289Z</time></trkpt><trkpt lat="44.6139806" lon="8.7981331"><ele>719.0</ele><time>2026-04-11T09:59:55.289Z</time></trkpt><trkpt lat="44.6139727" lon="8.7982635"><ele>719.0</ele><time>2026-04-11T09:59:56.289Z</time></trkpt><trkpt lat="44.6139749" lon="8.7983922"><ele>717.0</ele><time>2026-04-11T09:59:57.289Z</time></trkpt><trkpt lat="44.6139777" lon="8.7985176"><ele>715.0</ele><time>2026-04-11T09:59:58.289Z</time></trkpt><trkpt lat="44.6139813" lon="8.7986525"><ele>713.0</ele><time>2026-04-11T09:59:59.289Z</time></trkpt><trkpt lat="44.6139721" lon="8.7987862"><ele>711.0</ele><time>2026-04-11T10:00:00.289Z</time></trkpt><trkpt lat="44.6139474" lon="8.7989115"><ele>709.0</ele><time>2026-04-11T10:00:01.289Z</time></trkpt><trkpt lat="44.6139126" lon="8.7990146"><ele>709.0</ele><time>2026-04-11T10:00:02.289Z</time></trkpt><trkpt lat="44.6138619" lon="8.7991001"><ele>709.0</ele><time>2026-04-11T10:00:03.289Z</time></trkpt><trkpt lat="44.6138097" lon="8.7991763"><ele>709.0</ele><time>2026-04-11T10:00:04.289Z</time></trkpt><trkpt lat="44.6137502" lon="8.7992168"><ele>709.0</ele><time>2026-04-11T10:00:05.29Z</time></trkpt><trkpt lat="44.6136869" lon="8.7992421"><ele>709.0</ele><time>2026-04-11T10:00:06.289Z</time></trkpt><trkpt lat="44.6136236" lon="8.7992497"><ele>709.0</ele><time>2026-04-11T10:00:07.29Z</time></trkpt><trkpt lat="44.6135144" lon="8.7992357"><ele>706.2</ele><time>2026-04-11T10:00:09.289Z</time></trkpt><trkpt lat="44.6134089" lon="8.799222"><ele>703.4000000000001</ele><time>2026-04-11T10:00:11.289Z</time></trkpt><trkpt lat="44.6133018" lon="8.7992025"><ele>700.6</ele><time>2026-04-11T10:00:13.289Z</time></trkpt><trkpt lat="44.6132149" lon="8.7991875"><ele>697.8</ele><time>2026-04-11T10:00:15.289Z</time></trkpt><trkpt lat="44.613148" lon="8.799184"><ele>695.0</ele><time>2026-04-11T10:00:18.29Z</time></trkpt><trkpt lat="44.6130578" lon="8.7991935"><ele>695.0</ele><time>2026-04-11T10:00:54.288Z</time></trkpt><trkpt lat="44.6129896" lon="8.7991803"><ele>695.0</ele><time>2026-04-11T10:00:55.289Z</time></trkpt><trkpt lat="44.6129168" lon="8.7991744"><ele>695.0</ele><time>2026-04-11T10:00:56.288Z</time></trkpt><trkpt lat="44.6128357" lon="8.7991603"><ele>695.0</ele><time>2026-04-11T10:00:57.288Z</time></trkpt><trkpt lat="44.6127413" lon="8.7991668"><ele>695.0</ele><time>2026-04-11T10:00:58.288Z</time></trkpt><trkpt lat="44.6126397" lon="8.7991822"><ele>695.0</ele><time>2026-04-11T10:00:59.288Z</time></trkpt><trkpt lat="44.6125312" lon="8.7992066"><ele>694.5</ele><time>2026-04-11T10:01:00.288Z</time></trkpt><trkpt lat="44.6124187" lon="8.7992293"><ele>694.0</ele><time>2026-04-11T10:01:01.289Z</time></trkpt><trkpt lat="44.6122989" lon="8.7992517"><ele>693.5</ele><time>2026-04-11T10:01:02.288Z</time></trkpt><trkpt lat="44.6121749" lon="8.7992686"><ele>693.0</ele><time>2026-04-11T10:01:03.288Z</time></trkpt><trkpt lat="44.6120538" lon="8.7993239"><ele>689.25</ele><time>2026-04-11T10:01:04.288Z</time></trkpt><trkpt lat="44.6119352" lon="8.7993998"><ele>685.5</ele><time>2026-04-11T10:01:05.288Z</time></trkpt><trkpt lat="44.611817" lon="8.7995059"><ele>681.75</ele><time>2026-04-11T10:01:06.288Z</time></trkpt><trkpt lat="44.6116963" lon="8.7996118"><ele>678.0</ele><time>2026-04-11T10:01:07.288Z</time></trkpt><trkpt lat="44.6115794" lon="8.7997225"><ele>678.0</ele><time>2026-04-11T10:01:08.288Z</time></trkpt><trkpt lat="44.611479" lon="8.7998536"><ele>678.0</ele><time>2026-04-11T10:01:09.288Z</time></trkpt><trkpt lat="44.6114058" lon="8.8000031"><ele>678.0</ele><time>2026-04-11T10:01:10.288Z</time></trkpt><trkpt lat="44.6113326" lon="8.8001508"><ele>678.0</ele><time>2026-04-11T10:01:11.288Z</time></trkpt><trkpt lat="44.611249" lon="8.8002896"><ele>681.75</ele><time>2026-04-11T10:01:12.288Z</time></trkpt><trkpt lat="44.611154" lon="8.8003919"><ele>685.5</ele><time>2026-04-11T10:01:13.289Z</time></trkpt><trkpt lat="44.6110542" lon="8.8004651"><ele>689.25</ele><time>2026-04-11T10:01:14.288Z</time></trkpt><trkpt lat="44.6109405" lon="8.8005095"><ele>693.0</ele><time>2026-04-11T10:01:15.288Z</time></trkpt><trkpt lat="44.6108265" lon="8.8005059"><ele>693.0</ele><time>2026-04-11T10:01:16.288Z</time></trkpt><trkpt lat="44.610706" lon="8.800479"><ele>693.0</ele><time>2026-04-11T10:01:17.288Z</time></trkpt><trkpt lat="44.6105797" lon="8.800452"><ele>693.0</ele><time>2026-04-11T10:01:18.288Z</time></trkpt><trkpt lat="44.610453" lon="8.8004316"><ele>693.0</ele><time>2026-04-11T10:01:19.288Z</time></trkpt><trkpt lat="44.6103193" lon="8.8004486"><ele>693.25</ele><time>2026-04-11T10:01:20.288Z</time></trkpt><trkpt lat="44.6101753" lon="8.800495"><ele>693.5</ele><time>2026-04-11T10:01:21.288Z</time></trkpt><trkpt lat="44.6100351" lon="8.8005477"><ele>693.75</ele><time>2026-04-11T10:01:22.288Z</time></trkpt><trkpt lat="44.6098976" lon="8.800605"><ele>694.0</ele><time>2026-04-11T10:01:23.288Z</time></trkpt><trkpt lat="44.6097584" lon="8.8006774"><ele>694.0</ele><time>2026-04-11T10:01:24.288Z</time></trkpt><trkpt lat="44.6096154" lon="8.8007623"><ele>694.0</ele><time>2026-04-11T10:01:25.288Z</time></trkpt><trkpt lat="44.6094756" lon="8.800859"><ele>694.0</ele><time>2026-04-11T10:01:26.288Z</time></trkpt><trkpt lat="44.6093412" lon="8.8009661"><ele>697.0</ele><time>2026-04-11T10:01:27.288Z</time></trkpt><trkpt lat="44.6092062" lon="8.8010671"><ele>700.0</ele><time>2026-04-11T10:01:28.288Z</time></trkpt><trkpt lat="44.6090732" lon="8.8011547"><ele>703.0</ele><time>2026-04-11T10:01:29.288Z</time></trkpt><trkpt lat="44.6089452" lon="8.8012316"><ele>706.0</ele><time>2026-04-11T10:01:30.289Z</time></trkpt><trkpt lat="44.6088178" lon="8.8013096"><ele>706.0</ele><time>2026-04-11T10:01:31.288Z</time></trkpt><trkpt lat="44.6086877" lon="8.8013785"><ele>706.0</ele><time>2026-04-11T10:01:32.288Z</time></trkpt><trkpt lat="44.6085595" lon="8.8014408"><ele>706.0</ele><time>2026-04-11T10:01:33.288Z</time></trkpt><trkpt lat="44.6084373" lon="8.8014967"><ele>706.0</ele><time>2026-04-11T10:01:34.288Z</time></trkpt><trkpt lat="44.6083174" lon="8.8015563"><ele>703.75</ele><time>2026-04-11T10:01:35.288Z</time></trkpt><trkpt lat="44.6082003" lon="8.8016072"><ele>701.5</ele><time>2026-04-11T10:01:36.288Z</time></trkpt><trkpt lat="44.6080832" lon="8.8016654"><ele>699.25</ele><time>2026-04-11T10:01:37.288Z</time></trkpt><trkpt lat="44.6079786" lon="8.8017388"><ele>697.0</ele><time>2026-04-11T10:01:38.288Z</time></trkpt><trkpt lat="44.6078953" lon="8.8018344"><ele>694.75</ele><time>2026-04-11T10:01:39.289Z</time></trkpt><trkpt lat="44.6078361" lon="8.8019332"><ele>692.5</ele><time>2026-04-11T10:01:40.289Z</time></trkpt><trkpt lat="44.6077864" lon="8.8020678"><ele>690.25</ele><time>2026-04-11T10:01:41.288Z</time></trkpt><trkpt lat="44.6077489" lon="8.8022343"><ele>688.0</ele><time>2026-04-11T10:01:42.289Z</time></trkpt><trkpt lat="44.607716" lon="8.8024111"><ele>688.0</ele><time>2026-04-11T10:01:43.288Z</time></trkpt><trkpt lat="44.6076707" lon="8.8025978"><ele>688.0</ele><time>2026-04-11T10:01:44.288Z</time></trkpt><trkpt lat="44.6076095" lon="8.8027721"><ele>688.0</ele><time>2026-04-11T10:01:45.288Z</time></trkpt><trkpt lat="44.6075338" lon="8.8029503"><ele>688.0</ele><time>2026-04-11T10:01:46.288Z</time></trkpt><trkpt lat="44.607468" lon="8.8031252"><ele>689.75</ele><time>2026-04-11T10:01:47.288Z</time></trkpt><trkpt lat="44.6074032" lon="8.8032882"><ele>691.5</ele><time>2026-04-11T10:01:48.288Z</time></trkpt><trkpt lat="44.6073412" lon="8.8034264"><ele>693.25</ele><time>2026-04-11T10:01:49.288Z</time></trkpt><trkpt lat="44.6072661" lon="8.8035499"><ele>695.0</ele><time>2026-04-11T10:01:50.289Z</time></trkpt><trkpt lat="44.6071705" lon="8.8036395"><ele>696.5</ele><time>2026-04-11T10:01:51.288Z</time></trkpt><trkpt lat="44.6070561" lon="8.8036916"><ele>698.0</ele><time>2026-04-11T10:01:52.288Z</time></trkpt><trkpt lat="44.6069265" lon="8.8037042"><ele>699.5</ele><time>2026-04-11T10:01:53.288Z</time></trkpt><trkpt lat="44.6067955" lon="8.8036744"><ele>701.0</ele><time>2026-04-11T10:01:54.288Z</time></trkpt><trkpt lat="44.6066592" lon="8.8036344"><ele>701.5</ele><time>2026-04-11T10:01:55.289Z</time></trkpt><trkpt lat="44.6065239" lon="8.8035685"><ele>702.0</ele><time>2026-04-11T10:01:56.288Z</time></trkpt><trkpt lat="44.6063968" lon="8.8034761"><ele>702.5</ele><time>2026-04-11T10:01:57.289Z</time></trkpt><trkpt lat="44.6062643" lon="8.8033789"><ele>703.0</ele><time>2026-04-11T10:01:58.288Z</time></trkpt><trkpt lat="44.606143" lon="8.8032848"><ele>701.25</ele><time>2026-04-11T10:01:59.289Z</time></trkpt><trkpt lat="44.6060286" lon="8.8031945"><ele>699.5</ele><time>2026-04-11T10:02:00.289Z</time></trkpt><trkpt lat="44.6059254" lon="8.8030863"><ele>697.75</ele><time>2026-04-11T10:02:01.289Z</time></trkpt><trkpt lat="44.6058455" lon="8.8029612"><ele>696.0</ele><time>2026-04-11T10:02:02.289Z</time></trkpt><trkpt lat="44.6057756" lon="8.8028025"><ele>693.0</ele><time>2026-04-11T10:02:03.288Z</time></trkpt><trkpt lat="44.6057135" lon="8.8026247"><ele>690.0</ele><time>2026-04-11T10:02:04.289Z</time></trkpt><trkpt lat="44.6056581" lon="8.8024433"><ele>687.0</ele><time>2026-04-11T10:02:05.288Z</time></trkpt><trkpt lat="44.6056073" lon="8.8022692"><ele>684.0</ele><time>2026-04-11T10:02:06.288Z</time></trkpt><trkpt lat="44.6055582" lon="8.8021025"><ele>684.0</ele><time>2026-04-11T10:02:07.288Z</time></trkpt><trkpt lat="44.6055117" lon="8.8019492"><ele>684.0</ele><time>2026-04-11T10:02:08.288Z</time></trkpt><trkpt lat="44.6054586" lon="8.8018109"><ele>684.0</ele><time>2026-04-11T10:02:09.288Z</time></trkpt><trkpt lat="44.6053984" lon="8.8016882"><ele>684.0</ele><time>2026-04-11T10:02:10.289Z</time></trkpt><trkpt lat="44.6053246" lon="8.8015877"><ele>684.0</ele><time>2026-04-11T10:02:11.288Z</time></trkpt><trkpt lat="44.6052456" lon="8.8014983"><ele>684.1666666666666</ele><time>2026-04-11T10:02:12.289Z</time></trkpt><trkpt lat="44.6051769" lon="8.8014131"><ele>684.3333333333334</ele><time>2026-04-11T10:02:13.288Z</time></trkpt><trkpt lat="44.6051113" lon="8.8013322"><ele>684.5</ele><time>2026-04-11T10:02:14.288Z</time></trkpt><trkpt lat="44.6050601" lon="8.8012328"><ele>684.6666666666667</ele><time>2026-04-11T10:02:15.288Z</time></trkpt><trkpt lat="44.6050371" lon="8.8011269"><ele>684.8333333333334</ele><time>2026-04-11T10:02:16.288Z</time></trkpt><trkpt lat="44.6050446" lon="8.8009924"><ele>685.0</ele><time>2026-04-11T10:02:17.289Z</time></trkpt><trkpt lat="44.6050529" lon="8.8008599"><ele>685.0</ele><time>2026-04-11T10:02:18.289Z</time></trkpt><trkpt lat="44.6050489" lon="8.8007379"><ele>685.0</ele><time>2026-04-11T10:02:19.289Z</time></trkpt><trkpt lat="44.6050169" lon="8.800608"><ele>685.0</ele><time>2026-04-11T10:02:20.289Z</time></trkpt><trkpt lat="44.6049801" lon="8.8004686"><ele>685.0</ele><time>2026-04-11T10:02:21.289Z</time></trkpt><trkpt lat="44.6049399" lon="8.8002836"><ele>685.0</ele><time>2026-04-11T10:02:22.288Z</time></trkpt><trkpt lat="44.6049058" lon="8.8000964"><ele>682.5</ele><time>2026-04-11T10:02:23.289Z</time></trkpt><trkpt lat="44.6048611" lon="8.7999032"><ele>680.0</ele><time>2026-04-11T10:02:24.288Z</time></trkpt><trkpt lat="44.6048154" lon="8.7997153"><ele>677.5</ele><time>2026-04-11T10:02:25.288Z</time></trkpt><trkpt lat="44.6047761" lon="8.7995206"><ele>675.0</ele><time>2026-04-11T10:02:26.288Z</time></trkpt><trkpt lat="44.6047583" lon="8.7993242"><ele>672.75</ele><time>2026-04-11T10:02:27.288Z</time></trkpt><trkpt lat="44.6047218" lon="8.7991374"><ele>670.5</ele><time>2026-04-11T10:02:28.288Z</time></trkpt><trkpt lat="44.6046677" lon="8.7989701"><ele>668.25</ele><time>2026-04-11T10:02:29.288Z</time></trkpt><trkpt lat="44.6045962" lon="8.7988027"><ele>666.0</ele><time>2026-04-11T10:02:30.288Z</time></trkpt><trkpt lat="44.6045173" lon="8.7986262"><ele>665.75</ele><time>2026-04-11T10:02:31.288Z</time></trkpt><trkpt lat="44.6044386" lon="8.7984382"><ele>665.5</ele><time>2026-04-11T10:02:32.288Z</time></trkpt><trkpt lat="44.6043737" lon="8.7982548"><ele>665.25</ele><time>2026-04-11T10:02:33.289Z</time></trkpt><trkpt lat="44.6043002" lon="8.7980764"><ele>665.0</ele><time>2026-04-11T10:02:34.288Z</time></trkpt><trkpt lat="44.6042406" lon="8.7979031"><ele>665.0</ele><time>2026-04-11T10:02:35.288Z</time></trkpt><trkpt lat="44.6041901" lon="8.7977573"><ele>665.0</ele><time>2026-04-11T10:02:36.289Z</time></trkpt><trkpt lat="44.6041505" lon="8.7976323"><ele>665.0</ele><time>2026-04-11T10:02:37.289Z</time></trkpt><trkpt lat="44.6041186" lon="8.7975415"><ele>665.0</ele><time>2026-04-11T10:02:38.288Z</time></trkpt><trkpt lat="44.6040435" lon="8.7974655"><ele>665.0</ele><time>2026-04-11T10:02:40.288Z</time></trkpt><trkpt lat="44.6039423" lon="8.7975014"><ele>665.0</ele><time>2026-04-11T10:02:42.288Z</time></trkpt><trkpt lat="44.603915" lon="8.7976132"><ele>665.0</ele><time>2026-04-11T10:02:44.288Z</time></trkpt><trkpt lat="44.6039267" lon="8.7977881"><ele>665.0</ele><time>2026-04-11T10:02:46.288Z</time></trkpt><trkpt lat="44.6039368" lon="8.7978987"><ele>665.0</ele><time>2026-04-11T10:02:47.288Z</time></trkpt><trkpt lat="44.6039328" lon="8.798021"><ele>665.0</ele><time>2026-04-11T10:02:48.288Z</time></trkpt><trkpt lat="44.6039202" lon="8.7981546"><ele>665.0</ele><time>2026-04-11T10:02:49.288Z</time></trkpt><trkpt lat="44.6039329" lon="8.7982978"><ele>665.0</ele><time>2026-04-11T10:02:50.288Z</time></trkpt><trkpt lat="44.603963" lon="8.7984402"><ele>665.0</ele><time>2026-04-11T10:02:51.288Z</time></trkpt><trkpt lat="44.6039934" lon="8.7985845"><ele>665.0</ele><time>2026-04-11T10:02:52.288Z</time></trkpt><trkpt lat="44.6040046" lon="8.7987519"><ele>665.0</ele><time>2026-04-11T10:02:53.289Z</time></trkpt><trkpt lat="44.6040009" lon="8.7989243"><ele>665.5</ele><time>2026-04-11T10:02:54.289Z</time></trkpt><trkpt lat="44.6039901" lon="8.7990921"><ele>666.0</ele><time>2026-04-11T10:02:55.288Z</time></trkpt><trkpt lat="44.6039836" lon="8.799257"><ele>666.5</ele><time>2026-04-11T10:02:56.288Z</time></trkpt><trkpt lat="44.6039682" lon="8.7994165"><ele>667.0</ele><time>2026-04-11T10:02:57.288Z</time></trkpt><trkpt lat="44.6039416" lon="8.7995838"><ele>668.5</ele><time>2026-04-11T10:02:58.288Z</time></trkpt><trkpt lat="44.6038984" lon="8.7997481"><ele>670.0</ele><time>2026-04-11T10:02:59.288Z</time></trkpt><trkpt lat="44.6038628" lon="8.79991"><ele>671.5</ele><time>2026-04-11T10:03:00.288Z</time></trkpt><trkpt lat="44.6038348" lon="8.80007"><ele>673.0</ele><time>2026-04-11T10:03:01.288Z</time></trkpt><trkpt lat="44.6038082" lon="8.8002283"><ele>673.4</ele><time>2026-04-11T10:03:02.288Z</time></trkpt><trkpt lat="44.6037664" lon="8.8003729"><ele>673.8</ele><time>2026-04-11T10:03:03.288Z</time></trkpt><trkpt lat="44.6037033" lon="8.8004852"><ele>674.2</ele><time>2026-04-11T10:03:04.288Z</time></trkpt><trkpt lat="44.6036281" lon="8.8005654"><ele>674.6</ele><time>2026-04-11T10:03:05.288Z</time></trkpt><trkpt lat="44.6035793" lon="8.8006508"><ele>675.0</ele><time>2026-04-11T10:03:06.289Z</time></trkpt><trkpt lat="44.6035496" lon="8.8007685"><ele>668.2</ele><time>2026-04-11T10:03:07.289Z</time></trkpt><trkpt lat="44.6035213" lon="8.8009005"><ele>661.4</ele><time>2026-04-11T10:03:08.288Z</time></trkpt><trkpt lat="44.6035101" lon="8.8010515"><ele>654.5999999999999</ele><time>2026-04-11T10:03:09.288Z</time></trkpt><trkpt lat="44.6035048" lon="8.8012165"><ele>647.8</ele><time>2026-04-11T10:03:10.288Z</time></trkpt><trkpt lat="44.6034735" lon="8.801375"><ele>641.0</ele><time>2026-04-11T10:03:11.289Z</time></trkpt><trkpt lat="44.6034575" lon="8.8015069"><ele>640.6666666666666</ele><time>2026-04-11T10:03:12.288Z</time></trkpt><trkpt lat="44.6034771" lon="8.8016335"><ele>640.3333333333333</ele><time>2026-04-11T10:03:13.289Z</time></trkpt><trkpt lat="44.6035088" lon="8.8017468"><ele>640.0</ele><time>2026-04-11T10:03:14.288Z</time></trkpt><trkpt lat="44.6035115" lon="8.8018679"><ele>639.6666666666666</ele><time>2026-04-11T10:03:15.288Z</time></trkpt><trkpt lat="44.6034648" lon="8.8019515"><ele>639.3333333333334</ele><time>2026-04-11T10:03:16.288Z</time></trkpt><trkpt lat="44.6034025" lon="8.802008"><ele>639.0</ele><time>2026-04-11T10:03:17.288Z</time></trkpt><trkpt lat="44.6033331" lon="8.8020447"><ele>639.8</ele><time>2026-04-11T10:03:18.288Z</time></trkpt><trkpt lat="44.6032649" lon="8.8020808"><ele>640.5999999999999</ele><time>2026-04-11T10:03:19.289Z</time></trkpt><trkpt lat="44.6031967" lon="8.8021593"><ele>641.4</ele><time>2026-04-11T10:03:20.288Z</time></trkpt><trkpt lat="44.6031502" lon="8.8022694"><ele>642.1999999999999</ele><time>2026-04-11T10:03:21.288Z</time></trkpt><trkpt lat="44.6031238" lon="8.8024105"><ele>643.0</ele><time>2026-04-11T10:03:22.288Z</time></trkpt><trkpt lat="44.6031023" lon="8.8025669"><ele>642.1999999999999</ele><time>2026-04-11T10:03:23.288Z</time></trkpt><trkpt lat="44.6030761" lon="8.8027198"><ele>641.4</ele><time>2026-04-11T10:03:24.288Z</time></trkpt><trkpt lat="44.6030316" lon="8.8028488"><ele>640.5999999999999</ele><time>2026-04-11T10:03:25.288Z</time></trkpt><trkpt lat="44.6030057" lon="8.802976"><ele>639.8</ele><time>2026-04-11T10:03:26.289Z</time></trkpt><trkpt lat="44.6030193" lon="8.803087"><ele>639.0</ele><time>2026-04-11T10:03:27.288Z</time></trkpt><trkpt lat="44.6030663" lon="8.8032011"><ele>639.0</ele><time>2026-04-11T10:03:28.288Z</time></trkpt><trkpt lat="44.6031121" lon="8.8033089"><ele>639.0</ele><time>2026-04-11T10:03:29.289Z</time></trkpt><trkpt lat="44.6031649" lon="8.8034187"><ele>639.0</ele><time>2026-04-11T10:03:30.288Z</time></trkpt><trkpt lat="44.6031868" lon="8.8035461"><ele>639.0</ele><time>2026-04-11T10:03:31.289Z</time></trkpt><trkpt lat="44.6031769" lon="8.8037097"><ele>639.0</ele><time>2026-04-11T10:03:32.289Z</time></trkpt><trkpt lat="44.6031546" lon="8.8038748"><ele>638.6</ele><time>2026-04-11T10:03:33.288Z</time></trkpt><trkpt lat="44.6031468" lon="8.8040235"><ele>638.2</ele><time>2026-04-11T10:03:34.288Z</time></trkpt><trkpt lat="44.6031483" lon="8.8041552"><ele>637.8000000000001</ele><time>2026-04-11T10:03:35.288Z</time></trkpt><trkpt lat="44.6031666" lon="8.8042845"><ele>637.4</ele><time>2026-04-11T10:03:36.288Z</time></trkpt><trkpt lat="44.6031934" lon="8.8044"><ele>637.0</ele><time>2026-04-11T10:03:37.288Z</time></trkpt><trkpt lat="44.6032078" lon="8.8045088"><ele>637.0</ele><time>2026-04-11T10:03:38.289Z</time></trkpt><trkpt lat="44.6032031" lon="8.8046136"><ele>637.0</ele><time>2026-04-11T10:03:39.288Z</time></trkpt><trkpt lat="44.6031679" lon="8.8047053"><ele>637.0</ele><time>2026-04-11T10:03:40.289Z</time></trkpt><trkpt lat="44.6031071" lon="8.8047826"><ele>637.0</ele><time>2026-04-11T10:03:41.289Z</time></trkpt><trkpt lat="44.603038" lon="8.8048615"><ele>637.0</ele><time>2026-04-11T10:03:42.288Z</time></trkpt><trkpt lat="44.602961" lon="8.8049735"><ele>637.0</ele><time>2026-04-11T10:03:43.288Z</time></trkpt><trkpt lat="44.6028881" lon="8.8050923"><ele>631.2</ele><time>2026-04-11T10:03:44.288Z</time></trkpt><trkpt lat="44.6028041" lon="8.805195"><ele>625.4000000000001</ele><time>2026-04-11T10:03:45.289Z</time></trkpt><trkpt lat="44.6027156" lon="8.8052778"><ele>619.5999999999999</ele><time>2026-04-11T10:03:46.288Z</time></trkpt><trkpt lat="44.6026278" lon="8.8053535"><ele>613.8</ele><time>2026-04-11T10:03:47.289Z</time></trkpt><trkpt lat="44.6025345" lon="8.8054065"><ele>608.0</ele><time>2026-04-11T10:03:48.288Z</time></trkpt><trkpt lat="44.6024666" lon="8.8054404"><ele>608.0</ele><time>2026-04-11T10:03:49.289Z</time></trkpt><trkpt lat="44.6024065" lon="8.8054823"><ele>608.0</ele><time>2026-04-11T10:03:50.288Z</time></trkpt><trkpt lat="44.6023501" lon="8.805551"><ele>608.0</ele><time>2026-04-11T10:03:51.288Z</time></trkpt><trkpt lat="44.6022946" lon="8.8056186"><ele>608.0</ele><time>2026-04-11T10:03:52.289Z</time></trkpt><trkpt lat="44.6022808" lon="8.8057926"><ele>608.0</ele><time>2026-04-11T10:03:54.289Z</time></trkpt><trkpt lat="44.602323" lon="8.8058769"><ele>608.0</ele><time>2026-04-11T10:03:55.288Z</time></trkpt><trkpt lat="44.6023962" lon="8.8059157"><ele>608.0</ele><time>2026-04-11T10:03:56.288Z</time></trkpt><trkpt lat="44.6024841" lon="8.8059295"><ele>608.0</ele><time>2026-04-11T10:03:57.289Z</time></trkpt><trkpt lat="44.6025671" lon="8.8059723"><ele>608.0</ele><time>2026-04-11T10:03:58.289Z</time></trkpt><trkpt lat="44.6026641" lon="8.8060407"><ele>608.0</ele><time>2026-04-11T10:03:59.288Z</time></trkpt><trkpt lat="44.602743" lon="8.806122"><ele>608.0</ele><time>2026-04-11T10:04:00.288Z</time></trkpt><trkpt lat="44.6028187" lon="8.8062148"><ele>608.0</ele><time>2026-04-11T10:04:01.289Z</time></trkpt><trkpt lat="44.6028898" lon="8.8063332"><ele>608.0</ele><time>2026-04-11T10:04:02.288Z</time></trkpt><trkpt lat="44.6029534" lon="8.8064757"><ele>608.0</ele><time>2026-04-11T10:04:03.288Z</time></trkpt><trkpt lat="44.6030179" lon="8.8066222"><ele>608.0</ele><time>2026-04-11T10:04:04.288Z</time></trkpt><trkpt lat="44.6030718" lon="8.8067621"><ele>604.0</ele><time>2026-04-11T10:04:05.288Z</time></trkpt><trkpt lat="44.6031418" lon="8.8068788"><ele>600.0</ele><time>2026-04-11T10:04:06.288Z</time></trkpt><trkpt lat="44.6032087" lon="8.8069656"><ele>596.0</ele><time>2026-04-11T10:04:07.288Z</time></trkpt><trkpt lat="44.6032183" lon="8.8070825"><ele>592.0</ele><time>2026-04-11T10:04:09.289Z</time></trkpt><trkpt lat="44.6031228" lon="8.8070905"><ele>588.0</ele><time>2026-04-11T10:04:11.289Z</time></trkpt><trkpt lat="44.6030691" lon="8.8070343"><ele>584.0</ele><time>2026-04-11T10:04:12.288Z</time></trkpt><trkpt lat="44.6030176" lon="8.8069455"><ele>584.0</ele><time>2026-04-11T10:04:13.288Z</time></trkpt><trkpt lat="44.6029536" lon="8.806846"><ele>584.0</ele><time>2026-04-11T10:04:14.289Z</time></trkpt><trkpt lat="44.6028873" lon="8.8067569"><ele>584.0</ele><time>2026-04-11T10:04:15.289Z</time></trkpt><trkpt lat="44.6028235" lon="8.8066763"><ele>584.0</ele><time>2026-04-11T10:04:16.289Z</time></trkpt><trkpt lat="44.6027582" lon="8.8066164"><ele>584.0</ele><time>2026-04-11T10:04:17.288Z</time></trkpt><trkpt lat="44.6026847" lon="8.806557"><ele>584.0</ele><time>2026-04-11T10:04:18.289Z</time></trkpt><trkpt lat="44.6026024" lon="8.8065096"><ele>584.8</ele><time>2026-04-11T10:04:19.288Z</time></trkpt><trkpt lat="44.6025068" lon="8.8064869"><ele>585.5999999999999</ele><time>2026-04-11T10:04:20.288Z</time></trkpt><trkpt lat="44.6024023" lon="8.8064886"><ele>586.4</ele><time>2026-04-11T10:04:21.288Z</time></trkpt><trkpt lat="44.6023027" lon="8.8065408"><ele>587.1999999999999</ele><time>2026-04-11T10:04:22.289Z</time></trkpt><trkpt lat="44.6022111" lon="8.8066247"><ele>588.0</ele><time>2026-04-11T10:04:23.289Z</time></trkpt><trkpt lat="44.6021104" lon="8.8066819"><ele>588.0</ele><time>2026-04-11T10:04:24.289Z</time></trkpt><trkpt lat="44.6020039" lon="8.8067422"><ele>588.0</ele><time>2026-04-11T10:04:25.288Z</time></trkpt><trkpt lat="44.6019028" lon="8.8067989"><ele>588.0</ele><time>2026-04-11T10:04:26.289Z</time></trkpt><trkpt lat="44.6018146" lon="8.8068621"><ele>588.0</ele><time>2026-04-11T10:04:27.288Z</time></trkpt><trkpt lat="44.6017337" lon="8.8069433"><ele>588.0</ele><time>2026-04-11T10:04:28.288Z</time></trkpt><trkpt lat="44.6016487" lon="8.8070177"><ele>584.0</ele><time>2026-04-11T10:04:29.288Z</time></trkpt><trkpt lat="44.6015616" lon="8.8070771"><ele>580.0</ele><time>2026-04-11T10:04:30.288Z</time></trkpt><trkpt lat="44.6014616" lon="8.8071025"><ele>576.0</ele><time>2026-04-11T10:04:31.288Z</time></trkpt><trkpt lat="44.6013542" lon="8.8071224"><ele>572.0</ele><time>2026-04-11T10:04:32.289Z</time></trkpt><trkpt lat="44.601247" lon="8.8071335"><ele>568.0</ele><time>2026-04-11T10:04:33.288Z</time></trkpt><trkpt lat="44.6011405" lon="8.8071703"><ele>568.0</ele><time>2026-04-11T10:04:34.289Z</time></trkpt><trkpt lat="44.6010507" lon="8.8072386"><ele>568.0</ele><time>2026-04-11T10:04:35.289Z</time></trkpt><trkpt lat="44.6009741" lon="8.8073283"><ele>568.0</ele><time>2026-04-11T10:04:36.288Z</time></trkpt><trkpt lat="44.6009033" lon="8.8074096"><ele>568.0</ele><time>2026-04-11T10:04:37.289Z</time></trkpt><trkpt lat="44.6008258" lon="8.8074624"><ele>568.0</ele><time>2026-04-11T10:04:38.289Z</time></trkpt><trkpt lat="44.6007524" lon="8.8074718"><ele>568.0</ele><time>2026-04-11T10:04:39.288Z</time></trkpt><trkpt lat="44.6006773" lon="8.807435"><ele>568.0</ele><time>2026-04-11T10:04:40.288Z</time></trkpt><trkpt lat="44.6006004" lon="8.8073678"><ele>568.0</ele><time>2026-04-11T10:04:41.288Z</time></trkpt><trkpt lat="44.600512" lon="8.8072945"><ele>568.0</ele><time>2026-04-11T10:04:42.288Z</time></trkpt><trkpt lat="44.600421" lon="8.8072609"><ele>568.0</ele><time>2026-04-11T10:04:43.288Z</time></trkpt><trkpt lat="44.6003435" lon="8.8072683"><ele>568.0</ele><time>2026-04-11T10:04:44.288Z</time></trkpt><trkpt lat="44.6002672" lon="8.8073219"><ele>567.5</ele><time>2026-04-11T10:04:45.288Z</time></trkpt><trkpt lat="44.6001926" lon="8.8073555"><ele>567.0</ele><time>2026-04-11T10:04:46.288Z</time></trkpt><trkpt lat="44.6001255" lon="8.807375"><ele>566.5</ele><time>2026-04-11T10:04:47.289Z</time></trkpt><trkpt lat="44.6000524" lon="8.8073749"><ele>566.0</ele><time>2026-04-11T10:04:48.288Z</time></trkpt><trkpt lat="44.5999869" lon="8.8073536"><ele>565.5</ele><time>2026-04-11T10:04:49.288Z</time></trkpt><trkpt lat="44.5998876" lon="8.807262"><ele>565.0</ele><time>2026-04-11T10:04:51.288Z</time></trkpt><trkpt lat="44.599821" lon="8.8071546"><ele>565.0</ele><time>2026-04-11T10:04:53.288Z</time></trkpt><trkpt lat="44.5997803" lon="8.8070786"><ele>565.0</ele><time>2026-04-11T10:04:55.289Z</time></trkpt><trkpt lat="44.5997451" lon="8.8069802"><ele>565.0</ele><time>2026-04-11T10:04:58.289Z</time></trkpt><trkpt lat="44.5997188" lon="8.806859"><ele>565.0</ele><time>2026-04-11T10:05:01.288Z</time></trkpt><trkpt lat="44.5996848" lon="8.8067366"><ele>565.0</ele><time>2026-04-11T10:05:07.288Z</time></trkpt><trkpt lat="44.5996479" lon="8.8065648"><ele>565.4285714285713</ele><time>2026-04-11T10:05:09.289Z</time></trkpt><trkpt lat="44.5996254" lon="8.8064611"><ele>565.8571428571429</ele><time>2026-04-11T10:05:10.289Z</time></trkpt><trkpt lat="44.5995977" lon="8.8063674"><ele>566.2857142857142</ele><time>2026-04-11T10:05:11.288Z</time></trkpt><trkpt lat="44.5995795" lon="8.8062725"><ele>566.7142857142857</ele><time>2026-04-11T10:05:12.288Z</time></trkpt><trkpt lat="44.5995621" lon="8.8061825"><ele>567.1428571428571</ele><time>2026-04-11T10:05:13.288Z</time></trkpt><trkpt lat="44.5995628" lon="8.8060884"><ele>567.5714285714286</ele><time>2026-04-11T10:05:14.288Z</time></trkpt><trkpt lat="44.599564" lon="8.805997"><ele>568.0</ele><time>2026-04-11T10:05:15.288Z</time></trkpt><trkpt lat="44.5995662" lon="8.8059006"><ele>569.0</ele><time>2026-04-11T10:05:16.288Z</time></trkpt><trkpt lat="44.5995596" lon="8.8058031"><ele>570.0</ele><time>2026-04-11T10:05:17.288Z</time></trkpt><trkpt lat="44.5995551" lon="8.8057096"><ele>571.0</ele><time>2026-04-11T10:05:18.289Z</time></trkpt><trkpt lat="44.5995451" lon="8.8056143"><ele>572.0</ele><time>2026-04-11T10:05:19.289Z</time></trkpt><trkpt lat="44.5995379" lon="8.8055255"><ele>573.0</ele><time>2026-04-11T10:05:20.288Z</time></trkpt><trkpt lat="44.5995203" lon="8.805437"><ele>574.0</ele><time>2026-04-11T10:05:21.288Z</time></trkpt><trkpt lat="44.5995107" lon="8.8053471"><ele>575.0</ele><time>2026-04-11T10:05:22.289Z</time></trkpt><trkpt lat="44.5994974" lon="8.8052483"><ele>574.5714285714286</ele><time>2026-04-11T10:05:23.288Z</time></trkpt><trkpt lat="44.5994768" lon="8.8051441"><ele>574.1428571428571</ele><time>2026-04-11T10:05:24.288Z</time></trkpt><trkpt lat="44.5994559" lon="8.8050405"><ele>573.7142857142857</ele><time>2026-04-11T10:05:25.288Z</time></trkpt><trkpt lat="44.5994408" lon="8.8049432"><ele>573.2857142857142</ele><time>2026-04-11T10:05:26.289Z</time></trkpt><trkpt lat="44.5994212" lon="8.8048471"><ele>572.8571428571429</ele><time>2026-04-11T10:05:27.288Z</time></trkpt><trkpt lat="44.5994021" lon="8.8047512"><ele>572.4285714285713</ele><time>2026-04-11T10:05:28.288Z</time></trkpt><trkpt lat="44.5993803" lon="8.8046553"><ele>572.0</ele><time>2026-04-11T10:05:29.288Z</time></trkpt><trkpt lat="44.5993485" lon="8.804543"><ele>572.0</ele><time>2026-04-11T10:05:30.288Z</time></trkpt><trkpt lat="44.5993207" lon="8.8044171"><ele>572.0</ele><time>2026-04-11T10:05:31.288Z</time></trkpt><trkpt lat="44.5992982" lon="8.8042917"><ele>572.0</ele><time>2026-04-11T10:05:32.288Z</time></trkpt><trkpt lat="44.5992714" lon="8.8041774"><ele>572.0</ele><time>2026-04-11T10:05:33.288Z</time></trkpt><trkpt lat="44.5992453" lon="8.8040514"><ele>572.0</ele><time>2026-04-11T10:05:34.288Z</time></trkpt><trkpt lat="44.5992193" lon="8.803916"><ele>570.2</ele><time>2026-04-11T10:05:35.288Z</time></trkpt><trkpt lat="44.5991944" lon="8.8037787"><ele>568.4000000000001</ele><time>2026-04-11T10:05:36.288Z</time></trkpt><trkpt lat="44.5991674" lon="8.8036379"><ele>566.5999999999999</ele><time>2026-04-11T10:05:37.288Z</time></trkpt><trkpt lat="44.5991491" lon="8.8034924"><ele>564.8</ele><time>2026-04-11T10:05:38.289Z</time></trkpt><trkpt lat="44.5991251" lon="8.8033629"><ele>563.0</ele><time>2026-04-11T10:05:39.288Z</time></trkpt><trkpt lat="44.5991072" lon="8.8032468"><ele>561.5</ele><time>2026-04-11T10:05:40.289Z</time></trkpt><trkpt lat="44.599082" lon="8.8031309"><ele>560.0</ele><time>2026-04-11T10:05:41.289Z</time></trkpt><trkpt lat="44.5990533" lon="8.8030186"><ele>558.5</ele><time>2026-04-11T10:05:42.288Z</time></trkpt><trkpt lat="44.5990187" lon="8.8029098"><ele>557.0</ele><time>2026-04-11T10:05:43.289Z</time></trkpt><trkpt lat="44.5989731" lon="8.8028056"><ele>555.5</ele><time>2026-04-11T10:05:44.289Z</time></trkpt><trkpt lat="44.598923" lon="8.802697"><ele>554.0</ele><time>2026-04-11T10:05:45.289Z</time></trkpt><trkpt lat="44.598864" lon="8.8025976"><ele>552.8</ele><time>2026-04-11T10:05:46.288Z</time></trkpt><trkpt lat="44.598802" lon="8.8024937"><ele>551.5999999999999</ele><time>2026-04-11T10:05:47.288Z</time></trkpt><trkpt lat="44.5987495" lon="8.8023746"><ele>550.4</ele><time>2026-04-11T10:05:48.288Z</time></trkpt><trkpt lat="44.5987027" lon="8.8022411"><ele>549.1999999999999</ele><time>2026-04-11T10:05:49.288Z</time></trkpt><trkpt lat="44.5986623" lon="8.8021066"><ele>548.0</ele><time>2026-04-11T10:05:50.288Z</time></trkpt><trkpt lat="44.5986231" lon="8.8019934"><ele>549.0</ele><time>2026-04-11T10:05:51.288Z</time></trkpt><trkpt lat="44.5985876" lon="8.8018832"><ele>550.0</ele><time>2026-04-11T10:05:52.288Z</time></trkpt><trkpt lat="44.598544" lon="8.8017664"><ele>551.0</ele><time>2026-04-11T10:05:53.288Z</time></trkpt><trkpt lat="44.5985103" lon="8.8016423"><ele>552.0</ele><time>2026-04-11T10:05:54.288Z</time></trkpt><trkpt lat="44.5984811" lon="8.8015116"><ele>553.0</ele><time>2026-04-11T10:05:55.288Z</time></trkpt><trkpt lat="44.5984598" lon="8.8013796"><ele>553.0</ele><time>2026-04-11T10:05:56.289Z</time></trkpt><trkpt lat="44.5984362" lon="8.8012445"><ele>553.0</ele><time>2026-04-11T10:05:57.288Z</time></trkpt><trkpt lat="44.5984074" lon="8.8011132"><ele>553.0</ele><time>2026-04-11T10:05:58.288Z</time></trkpt><trkpt lat="44.5983825" lon="8.8009906"><ele>553.0</ele><time>2026-04-11T10:05:59.288Z</time></trkpt><trkpt lat="44.5983551" lon="8.8008697"><ele>553.0</ele><time>2026-04-11T10:06:00.288Z</time></trkpt><trkpt lat="44.5983242" lon="8.8007547"><ele>553.0</ele><time>2026-04-11T10:06:01.288Z</time></trkpt><trkpt lat="44.5982885" lon="8.8006593"><ele>553.0</ele><time>2026-04-11T10:06:02.288Z</time></trkpt><trkpt lat="44.5982524" lon="8.8005768"><ele>553.0</ele><time>2026-04-11T10:06:03.288Z</time></trkpt><trkpt lat="44.5981832" lon="8.800436"><ele>553.0</ele><time>2026-04-11T10:06:05.288Z</time></trkpt><trkpt lat="44.5981355" lon="8.8003374"><ele>553.0</ele><time>2026-04-11T10:06:06.288Z</time></trkpt><trkpt lat="44.5980965" lon="8.8002191"><ele>553.0</ele><time>2026-04-11T10:06:07.288Z</time></trkpt><trkpt lat="44.5980643" lon="8.8000893"><ele>552.0</ele><time>2026-04-11T10:06:08.289Z</time></trkpt><trkpt lat="44.5980371" lon="8.7999456"><ele>551.0</ele><time>2026-04-11T10:06:09.289Z</time></trkpt><trkpt lat="44.5980012" lon="8.7998106"><ele>550.0</ele><time>2026-04-11T10:06:10.288Z</time></trkpt><trkpt lat="44.5979612" lon="8.7996893"><ele>549.0</ele><time>2026-04-11T10:06:11.289Z</time></trkpt><trkpt lat="44.5979276" lon="8.7995786"><ele>548.0</ele><time>2026-04-11T10:06:12.288Z</time></trkpt><trkpt lat="44.597897" lon="8.7994679"><ele>548.0</ele><time>2026-04-11T10:06:13.289Z</time></trkpt><trkpt lat="44.5978746" lon="8.7993473"><ele>548.0</ele><time>2026-04-11T10:06:14.289Z</time></trkpt><trkpt lat="44.5978593" lon="8.7992266"><ele>548.0</ele><time>2026-04-11T10:06:15.288Z</time></trkpt><trkpt lat="44.5978637" lon="8.7991131"><ele>548.0</ele><time>2026-04-11T10:06:16.288Z</time></trkpt><trkpt lat="44.5978751" lon="8.7990194"><ele>548.0</ele><time>2026-04-11T10:06:17.288Z</time></trkpt><trkpt lat="44.5979018" lon="8.7989391"><ele>548.0</ele><time>2026-04-11T10:06:18.288Z</time></trkpt><trkpt lat="44.5979425" lon="8.7988642"><ele>547.3333333333333</ele><time>2026-04-11T10:06:19.288Z</time></trkpt><trkpt lat="44.5979857" lon="8.7987957"><ele>546.6666666666666</ele><time>2026-04-11T10:06:20.288Z</time></trkpt><trkpt lat="44.5980072" lon="8.7986986"><ele>546.0</ele><time>2026-04-11T10:06:21.289Z</time></trkpt><trkpt lat="44.598006" lon="8.7986053"><ele>545.3333333333334</ele><time>2026-04-11T10:06:22.288Z</time></trkpt><trkpt lat="44.5979914" lon="8.7985056"><ele>544.6666666666667</ele><time>2026-04-11T10:06:23.288Z</time></trkpt><trkpt lat="44.5979523" lon="8.798371"><ele>544.0</ele><time>2026-04-11T10:06:24.288Z</time></trkpt><trkpt lat="44.5979048" lon="8.7982291"><ele>543.8</ele><time>2026-04-11T10:06:25.289Z</time></trkpt><trkpt lat="44.5978495" lon="8.7980834"><ele>543.5999999999999</ele><time>2026-04-11T10:06:26.288Z</time></trkpt><trkpt lat="44.5978007" lon="8.7979405"><ele>543.4</ele><time>2026-04-11T10:06:27.288Z</time></trkpt><trkpt lat="44.5977542" lon="8.7977914"><ele>543.1999999999999</ele><time>2026-04-11T10:06:28.289Z</time></trkpt><trkpt lat="44.5977144" lon="8.7976658"><ele>543.0</ele><time>2026-04-11T10:06:29.288Z</time></trkpt><trkpt lat="44.5976759" lon="8.7975506"><ele>546.6666666666666</ele><time>2026-04-11T10:06:30.288Z</time></trkpt><trkpt lat="44.5976416" lon="8.7974716"><ele>550.3333333333334</ele><time>2026-04-11T10:06:31.288Z</time></trkpt><trkpt lat="44.5975595" lon="8.7973338"><ele>554.0</ele><time>2026-04-11T10:06:33.288Z</time></trkpt><trkpt lat="44.5975161" lon="8.7972534"><ele>557.6666666666667</ele><time>2026-04-11T10:06:34.289Z</time></trkpt><trkpt lat="44.5974941" lon="8.7971593"><ele>561.3333333333334</ele><time>2026-04-11T10:06:35.288Z</time></trkpt><trkpt lat="44.5974993" lon="8.7970452"><ele>565.0</ele><time>2026-04-11T10:06:36.288Z</time></trkpt><trkpt lat="44.5975089" lon="8.7969316"><ele>563.1666666666667</ele><time>2026-04-11T10:06:37.288Z</time></trkpt><trkpt lat="44.5974945" lon="8.7968202"><ele>561.3333333333334</ele><time>2026-04-11T10:06:38.288Z</time></trkpt><trkpt lat="44.5974601" lon="8.7967337"><ele>559.5</ele><time>2026-04-11T10:06:39.289Z</time></trkpt><trkpt lat="44.5974013" lon="8.7966935"><ele>557.6666666666666</ele><time>2026-04-11T10:06:40.288Z</time></trkpt><trkpt lat="44.5973257" lon="8.7966827"><ele>555.8333333333333</ele><time>2026-04-11T10:06:41.288Z</time></trkpt><trkpt lat="44.5972456" lon="8.7966624"><ele>554.0</ele><time>2026-04-11T10:06:42.288Z</time></trkpt><trkpt lat="44.5971741" lon="8.7966075"><ele>554.0</ele><time>2026-04-11T10:06:43.288Z</time></trkpt><trkpt lat="44.5971217" lon="8.7965327"><ele>554.0</ele><time>2026-04-11T10:06:44.288Z</time></trkpt><trkpt lat="44.5970964" lon="8.7964182"><ele>554.0</ele><time>2026-04-11T10:06:45.288Z</time></trkpt><trkpt lat="44.5970658" lon="8.7962812"><ele>554.0</ele><time>2026-04-11T10:06:46.288Z</time></trkpt><trkpt lat="44.5970282" lon="8.7961423"><ele>554.0</ele><time>2026-04-11T10:06:47.289Z</time></trkpt><trkpt lat="44.5969586" lon="8.7960274"><ele>558.4</ele><time>2026-04-11T10:06:48.289Z</time></trkpt><trkpt lat="44.5968884" lon="8.7959069"><ele>562.8</ele><time>2026-04-11T10:06:49.289Z</time></trkpt><trkpt lat="44.596831" lon="8.7957697"><ele>567.2</ele><time>2026-04-11T10:06:50.288Z</time></trkpt><trkpt lat="44.5967943" lon="8.7956265"><ele>571.6</ele><time>2026-04-11T10:06:51.289Z</time></trkpt><trkpt lat="44.5967715" lon="8.7954795"><ele>576.0</ele><time>2026-04-11T10:06:52.288Z</time></trkpt><trkpt lat="44.5967451" lon="8.7953519"><ele>576.0</ele><time>2026-04-11T10:06:53.289Z</time></trkpt><trkpt lat="44.5967008" lon="8.7952609"><ele>576.0</ele><time>2026-04-11T10:06:54.288Z</time></trkpt><trkpt lat="44.5966362" lon="8.7951681"><ele>576.0</ele><time>2026-04-11T10:06:55.288Z</time></trkpt><trkpt lat="44.5965553" lon="8.7950729"><ele>576.0</ele><time>2026-04-11T10:06:56.288Z</time></trkpt><trkpt lat="44.5964735" lon="8.7949742"><ele>576.0</ele><time>2026-04-11T10:06:57.288Z</time></trkpt><trkpt lat="44.5964079" lon="8.7948697"><ele>572.8</ele><time>2026-04-11T10:06:58.288Z</time></trkpt><trkpt lat="44.5963522" lon="8.7947596"><ele>569.6</ele><time>2026-04-11T10:06:59.288Z</time></trkpt><trkpt lat="44.596292" lon="8.7946567"><ele>566.4</ele><time>2026-04-11T10:07:00.289Z</time></trkpt><trkpt lat="44.5962318" lon="8.7945555"><ele>563.2</ele><time>2026-04-11T10:07:01.288Z</time></trkpt><trkpt lat="44.5961654" lon="8.7944696"><ele>560.0</ele><time>2026-04-11T10:07:02.288Z</time></trkpt><trkpt lat="44.596082" lon="8.7943952"><ele>560.0</ele><time>2026-04-11T10:07:03.288Z</time></trkpt><trkpt lat="44.5959978" lon="8.7943434"><ele>560.0</ele><time>2026-04-11T10:07:04.289Z</time></trkpt><trkpt lat="44.5959029" lon="8.7943203"><ele>560.0</ele><time>2026-04-11T10:07:05.288Z</time></trkpt><trkpt lat="44.59581" lon="8.7943066"><ele>560.0</ele><time>2026-04-11T10:07:06.288Z</time></trkpt><trkpt lat="44.5957271" lon="8.7942558"><ele>560.0</ele><time>2026-04-11T10:07:07.288Z</time></trkpt><trkpt lat="44.5956491" lon="8.7941589"><ele>560.0</ele><time>2026-04-11T10:07:08.289Z</time></trkpt><trkpt lat="44.5955851" lon="8.7940445"><ele>560.0</ele><time>2026-04-11T10:07:09.288Z</time></trkpt><trkpt lat="44.5955244" lon="8.7939423"><ele>560.0</ele><time>2026-04-11T10:07:10.288Z</time></trkpt><trkpt lat="44.5954515" lon="8.7938725"><ele>560.0</ele><time>2026-04-11T10:07:11.289Z</time></trkpt><trkpt lat="44.5953671" lon="8.7938046"><ele>560.0</ele><time>2026-04-11T10:07:12.288Z</time></trkpt><trkpt lat="44.5952803" lon="8.7936995"><ele>559.8</ele><time>2026-04-11T10:07:13.288Z</time></trkpt><trkpt lat="44.5952195" lon="8.793586"><ele>559.6</ele><time>2026-04-11T10:07:14.288Z</time></trkpt><trkpt lat="44.5951553" lon="8.7934745"><ele>559.4</ele><time>2026-04-11T10:07:15.288Z</time></trkpt><trkpt lat="44.5950852" lon="8.7933949"><ele>559.2</ele><time>2026-04-11T10:07:16.288Z</time></trkpt><trkpt lat="44.5950148" lon="8.7933458"><ele>559.0</ele><time>2026-04-11T10:07:17.288Z</time></trkpt><trkpt lat="44.5949283" lon="8.7933531"><ele>559.0</ele><time>2026-04-11T10:07:18.288Z</time></trkpt><trkpt lat="44.5948486" lon="8.7933981"><ele>559.0</ele><time>2026-04-11T10:07:19.289Z</time></trkpt><trkpt lat="44.5947803" lon="8.7934839"><ele>559.0</ele><time>2026-04-11T10:07:20.288Z</time></trkpt><trkpt lat="44.5947249" lon="8.7936078"><ele>559.0</ele><time>2026-04-11T10:07:21.289Z</time></trkpt><trkpt lat="44.5946831" lon="8.7937342"><ele>559.0</ele><time>2026-04-11T10:07:22.288Z</time></trkpt><trkpt lat="44.5946401" lon="8.7938274"><ele>561.0</ele><time>2026-04-11T10:07:23.288Z</time></trkpt><trkpt lat="44.5945668" lon="8.7938893"><ele>563.0</ele><time>2026-04-11T10:07:24.289Z</time></trkpt><trkpt lat="44.594476" lon="8.7939305"><ele>565.0</ele><time>2026-04-11T10:07:25.288Z</time></trkpt><trkpt lat="44.5943741" lon="8.7939809"><ele>567.0</ele><time>2026-04-11T10:07:26.288Z</time></trkpt><trkpt lat="44.5942695" lon="8.7940466"><ele>569.0</ele><time>2026-04-11T10:07:27.288Z</time></trkpt><trkpt lat="44.5941607" lon="8.7941236"><ele>569.0</ele><time>2026-04-11T10:07:28.289Z</time></trkpt><trkpt lat="44.5940514" lon="8.7941964"><ele>569.0</ele><time>2026-04-11T10:07:29.287Z</time></trkpt><trkpt lat="44.5939569" lon="8.7942536"><ele>569.0</ele><time>2026-04-11T10:07:30.287Z</time></trkpt><trkpt lat="44.5938631" lon="8.7943069"><ele>569.0</ele><time>2026-04-11T10:07:31.288Z</time></trkpt><trkpt lat="44.5937631" lon="8.7943474"><ele>569.0</ele><time>2026-04-11T10:07:32.287Z</time></trkpt><trkpt lat="44.5936551" lon="8.7943714"><ele>573.0</ele><time>2026-04-11T10:07:33.287Z</time></trkpt><trkpt lat="44.5935521" lon="8.7943796"><ele>577.0</ele><time>2026-04-11T10:07:34.287Z</time></trkpt><trkpt lat="44.5934371" lon="8.7943968"><ele>581.0</ele><time>2026-04-11T10:07:35.288Z</time></trkpt><trkpt lat="44.5933229" lon="8.7944168"><ele>585.0</ele><time>2026-04-11T10:07:36.287Z</time></trkpt><trkpt lat="44.5932018" lon="8.7944535"><ele>585.0</ele><time>2026-04-11T10:07:37.287Z</time></trkpt><trkpt lat="44.5930894" lon="8.7945062"><ele>585.0</ele><time>2026-04-11T10:07:38.287Z</time></trkpt><trkpt lat="44.5929872" lon="8.7945637"><ele>585.0</ele><time>2026-04-11T10:07:39.287Z</time></trkpt><trkpt lat="44.5928891" lon="8.794618"><ele>585.0</ele><time>2026-04-11T10:07:40.287Z</time></trkpt><trkpt lat="44.5927941" lon="8.7946674"><ele>585.0</ele><time>2026-04-11T10:07:41.288Z</time></trkpt><trkpt lat="44.5927255" lon="8.7947265"><ele>581.8333333333334</ele><time>2026-04-11T10:07:42.287Z</time></trkpt><trkpt lat="44.5926709" lon="8.7947816"><ele>578.6666666666666</ele><time>2026-04-11T10:07:43.288Z</time></trkpt><trkpt lat="44.5926137" lon="8.7948393"><ele>575.5</ele><time>2026-04-11T10:07:44.288Z</time></trkpt><trkpt lat="44.5925471" lon="8.794876"><ele>572.3333333333333</ele><time>2026-04-11T10:07:45.287Z</time></trkpt><trkpt lat="44.5924695" lon="8.7948982"><ele>569.1666666666666</ele><time>2026-04-11T10:07:46.288Z</time></trkpt><trkpt lat="44.5923221" lon="8.7948852"><ele>566.0</ele><time>2026-04-11T10:07:48.287Z</time></trkpt><trkpt lat="44.5922395" lon="8.7948843"><ele>566.0</ele><time>2026-04-11T10:07:49.287Z</time></trkpt><trkpt lat="44.5921539" lon="8.7948725"><ele>566.0</ele><time>2026-04-11T10:07:50.287Z</time></trkpt><trkpt lat="44.5920794" lon="8.7948774"><ele>566.0</ele><time>2026-04-11T10:07:51.287Z</time></trkpt><trkpt lat="44.5920125" lon="8.7948498"><ele>566.0</ele><time>2026-04-11T10:07:52.288Z</time></trkpt><trkpt lat="44.5919145" lon="8.7947388"><ele>566.0</ele><time>2026-04-11T10:07:54.288Z</time></trkpt><trkpt lat="44.5918949" lon="8.7946219"><ele>566.0</ele><time>2026-04-11T10:07:55.287Z</time></trkpt><trkpt lat="44.591875" lon="8.7944918"><ele>564.0</ele><time>2026-04-11T10:07:56.288Z</time></trkpt><trkpt lat="44.5918558" lon="8.7943693"><ele>562.0</ele><time>2026-04-11T10:07:57.287Z</time></trkpt><trkpt lat="44.5918238" lon="8.7942506"><ele>560.0</ele><time>2026-04-11T10:07:58.287Z</time></trkpt><trkpt lat="44.5917899" lon="8.7941412"><ele>558.0</ele><time>2026-04-11T10:07:59.287Z</time></trkpt><trkpt lat="44.5917478" lon="8.7940528"><ele>556.0</ele><time>2026-04-11T10:08:00.287Z</time></trkpt><trkpt lat="44.5916785" lon="8.7940014"><ele>554.0</ele><time>2026-04-11T10:08:01.287Z</time></trkpt><trkpt lat="44.5916125" lon="8.7939744"><ele>554.0</ele><time>2026-04-11T10:08:02.287Z</time></trkpt><trkpt lat="44.5915317" lon="8.7939652"><ele>554.0</ele><time>2026-04-11T10:08:03.287Z</time></trkpt><trkpt lat="44.5914467" lon="8.7939288"><ele>554.0</ele><time>2026-04-11T10:08:04.288Z</time></trkpt><trkpt lat="44.5913631" lon="8.7938565"><ele>554.0</ele><time>2026-04-11T10:08:05.287Z</time></trkpt><trkpt lat="44.591293" lon="8.793766"><ele>554.0</ele><time>2026-04-11T10:08:06.287Z</time></trkpt><trkpt lat="44.5912138" lon="8.7936769"><ele>552.8333333333333</ele><time>2026-04-11T10:08:07.287Z</time></trkpt><trkpt lat="44.5911277" lon="8.7936208"><ele>551.6666666666666</ele><time>2026-04-11T10:08:08.287Z</time></trkpt><trkpt lat="44.5910473" lon="8.7935553"><ele>550.5</ele><time>2026-04-11T10:08:09.288Z</time></trkpt><trkpt lat="44.5909899" lon="8.7934712"><ele>549.3333333333334</ele><time>2026-04-11T10:08:10.287Z</time></trkpt><trkpt lat="44.5909555" lon="8.7933778"><ele>548.1666666666667</ele><time>2026-04-11T10:08:11.287Z</time></trkpt><trkpt lat="44.5909412" lon="8.7932833"><ele>547.0</ele><time>2026-04-11T10:08:12.287Z</time></trkpt><trkpt lat="44.5909302" lon="8.7931779"><ele>547.0</ele><time>2026-04-11T10:08:13.287Z</time></trkpt><trkpt lat="44.5909066" lon="8.7930789"><ele>547.0</ele><time>2026-04-11T10:08:14.287Z</time></trkpt><trkpt lat="44.590862" lon="8.7929821"><ele>547.0</ele><time>2026-04-11T10:08:15.287Z</time></trkpt><trkpt lat="44.5908117" lon="8.7928965"><ele>547.0</ele><time>2026-04-11T10:08:16.287Z</time></trkpt><trkpt lat="44.5907626" lon="8.7927976"><ele>547.0</ele><time>2026-04-11T10:08:17.287Z</time></trkpt><trkpt lat="44.5907285" lon="8.7926962"><ele>547.0</ele><time>2026-04-11T10:08:18.288Z</time></trkpt><trkpt lat="44.5907116" lon="8.7925794"><ele>543.4</ele><time>2026-04-11T10:08:19.287Z</time></trkpt><trkpt lat="44.5907105" lon="8.792457"><ele>539.8000000000001</ele><time>2026-04-11T10:08:20.288Z</time></trkpt><trkpt lat="44.5907108" lon="8.7923368"><ele>536.2</ele><time>2026-04-11T10:08:21.288Z</time></trkpt><trkpt lat="44.590697" lon="8.7922231"><ele>532.6</ele><time>2026-04-11T10:08:22.287Z</time></trkpt><trkpt lat="44.5906537" lon="8.7920716"><ele>529.0</ele><time>2026-04-11T10:08:24.287Z</time></trkpt><trkpt lat="44.5905513" lon="8.7919507"><ele>529.0</ele><time>2026-04-11T10:08:26.288Z</time></trkpt><trkpt lat="44.5904911" lon="8.7918743"><ele>529.0</ele><time>2026-04-11T10:08:27.287Z</time></trkpt><trkpt lat="44.5904345" lon="8.7917995"><ele>529.0</ele><time>2026-04-11T10:08:28.287Z</time></trkpt><trkpt lat="44.5903728" lon="8.791742"><ele>529.0</ele><time>2026-04-11T10:08:29.287Z</time></trkpt><trkpt lat="44.5902957" lon="8.7917141"><ele>529.0</ele><time>2026-04-11T10:08:30.287Z</time></trkpt><trkpt lat="44.590218" lon="8.7917212"><ele>529.0</ele><time>2026-04-11T10:08:31.288Z</time></trkpt><trkpt lat="44.5901582" lon="8.7917667"><ele>530.8</ele><time>2026-04-11T10:08:32.287Z</time></trkpt><trkpt lat="44.5901067" lon="8.7918604"><ele>532.5999999999999</ele><time>2026-04-11T10:08:33.287Z</time></trkpt><trkpt lat="44.5900802" lon="8.7919928"><ele>534.4</ele><time>2026-04-11T10:08:34.287Z</time></trkpt><trkpt lat="44.5900218" lon="8.7921099"><ele>536.1999999999999</ele><time>2026-04-11T10:08:35.288Z</time></trkpt><trkpt lat="44.5899552" lon="8.7921855"><ele>538.0</ele><time>2026-04-11T10:08:36.287Z</time></trkpt><trkpt lat="44.5898671" lon="8.7922244"><ele>538.0</ele><time>2026-04-11T10:08:37.287Z</time></trkpt><trkpt lat="44.5897766" lon="8.7922601"><ele>538.0</ele><time>2026-04-11T10:08:38.287Z</time></trkpt><trkpt lat="44.5896899" lon="8.7923233"><ele>538.0</ele><time>2026-04-11T10:08:39.287Z</time></trkpt><trkpt lat="44.5896037" lon="8.7923976"><ele>538.0</ele><time>2026-04-11T10:08:40.288Z</time></trkpt><trkpt lat="44.5895032" lon="8.7924821"><ele>538.0</ele><time>2026-04-11T10:08:41.287Z</time></trkpt><trkpt lat="44.5894138" lon="8.7925631"><ele>539.0</ele><time>2026-04-11T10:08:42.287Z</time></trkpt><trkpt lat="44.5893245" lon="8.7926667"><ele>540.0</ele><time>2026-04-11T10:08:43.288Z</time></trkpt><trkpt lat="44.5892455" lon="8.7927689"><ele>541.0</ele><time>2026-04-11T10:08:44.287Z</time></trkpt><trkpt lat="44.5891743" lon="8.7928892"><ele>542.0</ele><time>2026-04-11T10:08:45.287Z</time></trkpt><trkpt lat="44.5890982" lon="8.7930072"><ele>543.0</ele><time>2026-04-11T10:08:46.287Z</time></trkpt><trkpt lat="44.589051" lon="8.7931187"><ele>543.0</ele><time>2026-04-11T10:08:47.288Z</time></trkpt><trkpt lat="44.5890109" lon="8.7932192"><ele>543.0</ele><time>2026-04-11T10:08:48.287Z</time></trkpt><trkpt lat="44.5889535" lon="8.7932997"><ele>543.0</ele><time>2026-04-11T10:08:49.287Z</time></trkpt><trkpt lat="44.5888961" lon="8.7933421"><ele>543.0</ele><time>2026-04-11T10:08:50.287Z</time></trkpt><trkpt lat="44.5888154" lon="8.7933371"><ele>543.0</ele><time>2026-04-11T10:08:51.287Z</time></trkpt><trkpt lat="44.5887414" lon="8.7932809"><ele>543.0</ele><time>2026-04-11T10:08:52.287Z</time></trkpt><trkpt lat="44.5886838" lon="8.793194"><ele>544.8</ele><time>2026-04-11T10:08:53.287Z</time></trkpt><trkpt lat="44.5886313" lon="8.7930834"><ele>546.5999999999999</ele><time>2026-04-11T10:08:54.288Z</time></trkpt><trkpt lat="44.5885897" lon="8.7929499"><ele>548.4000000000001</ele><time>2026-04-11T10:08:55.288Z</time></trkpt><trkpt lat="44.5885636" lon="8.7928337"><ele>550.2</ele><time>2026-04-11T10:08:56.287Z</time></trkpt><trkpt lat="44.5885365" lon="8.7927131"><ele>552.0</ele><time>2026-04-11T10:08:57.288Z</time></trkpt><trkpt lat="44.5884938" lon="8.7926016"><ele>547.5</ele><time>2026-04-11T10:08:58.287Z</time></trkpt><trkpt lat="44.5884551" lon="8.792489"><ele>543.0</ele><time>2026-04-11T10:08:59.287Z</time></trkpt><trkpt lat="44.5884136" lon="8.7923848"><ele>538.5</ele><time>2026-04-11T10:09:00.287Z</time></trkpt><trkpt lat="44.5883833" lon="8.792294"><ele>534.0</ele><time>2026-04-11T10:09:01.287Z</time></trkpt><trkpt lat="44.5883482" lon="8.7922171"><ele>529.5</ele><time>2026-04-11T10:09:02.288Z</time></trkpt><trkpt lat="44.5882562" lon="8.7921094"><ele>525.0</ele><time>2026-04-11T10:09:04.287Z</time></trkpt><trkpt lat="44.588122" lon="8.7920994"><ele>525.0</ele><time>2026-04-11T10:09:06.288Z</time></trkpt><trkpt lat="44.5880216" lon="8.7921237"><ele>525.0</ele><time>2026-04-11T10:09:07.287Z</time></trkpt><trkpt lat="44.5879038" lon="8.7921601"><ele>525.0</ele><time>2026-04-11T10:09:08.287Z</time></trkpt><trkpt lat="44.5877951" lon="8.7921792"><ele>525.0</ele><time>2026-04-11T10:09:09.287Z</time></trkpt><trkpt lat="44.5876798" lon="8.7921873"><ele>525.0</ele><time>2026-04-11T10:09:10.287Z</time></trkpt><trkpt lat="44.5875725" lon="8.7921904"><ele>529.4</ele><time>2026-04-11T10:09:11.287Z</time></trkpt><trkpt lat="44.5874837" lon="8.7921724"><ele>533.8</ele><time>2026-04-11T10:09:12.287Z</time></trkpt><trkpt lat="44.5873994" lon="8.7921377"><ele>538.2</ele><time>2026-04-11T10:09:13.288Z</time></trkpt><trkpt lat="44.587307" lon="8.792079"><ele>542.6</ele><time>2026-04-11T10:09:14.288Z</time></trkpt><trkpt lat="44.5872172" lon="8.7920198"><ele>547.0</ele><time>2026-04-11T10:09:15.287Z</time></trkpt><trkpt lat="44.5871248" lon="8.7919903"><ele>547.0</ele><time>2026-04-11T10:09:16.287Z</time></trkpt><trkpt lat="44.5870265" lon="8.7919747"><ele>547.0</ele><time>2026-04-11T10:09:17.288Z</time></trkpt><trkpt lat="44.5869298" lon="8.7919409"><ele>547.0</ele><time>2026-04-11T10:09:18.288Z</time></trkpt><trkpt lat="44.5868546" lon="8.7918905"><ele>547.0</ele><time>2026-04-11T10:09:19.287Z</time></trkpt><trkpt lat="44.5867887" lon="8.7918165"><ele>547.0</ele><time>2026-04-11T10:09:20.287Z</time></trkpt><trkpt lat="44.5867319" lon="8.7917425"><ele>547.0</ele><time>2026-04-11T10:09:21.288Z</time></trkpt><trkpt lat="44.586678" lon="8.7916592"><ele>544.8333333333334</ele><time>2026-04-11T10:09:22.287Z</time></trkpt><trkpt lat="44.5866376" lon="8.791578"><ele>542.6666666666667</ele><time>2026-04-11T10:09:23.287Z</time></trkpt><trkpt lat="44.5866138" lon="8.7914961"><ele>540.5</ele><time>2026-04-11T10:09:24.287Z</time></trkpt><trkpt lat="44.5865247" lon="8.7913764"><ele>538.3333333333334</ele><time>2026-04-11T10:09:26.287Z</time></trkpt><trkpt lat="44.5864492" lon="8.7913048"><ele>536.1666666666666</ele><time>2026-04-11T10:09:27.287Z</time></trkpt><trkpt lat="44.5863665" lon="8.7912302"><ele>534.0</ele><time>2026-04-11T10:09:28.287Z</time></trkpt><trkpt lat="44.586303" lon="8.7911717"><ele>534.0</ele><time>2026-04-11T10:09:29.287Z</time></trkpt><trkpt lat="44.5862315" lon="8.7911404"><ele>534.0</ele><time>2026-04-11T10:09:30.287Z</time></trkpt><trkpt lat="44.5861584" lon="8.7911494"><ele>534.0</ele><time>2026-04-11T10:09:31.288Z</time></trkpt><trkpt lat="44.5860708" lon="8.7911986"><ele>534.0</ele><time>2026-04-11T10:09:32.287Z</time></trkpt><trkpt lat="44.5859972" lon="8.7912785"><ele>534.0</ele><time>2026-04-11T10:09:33.287Z</time></trkpt><trkpt lat="44.5859303" lon="8.7913944"><ele>534.0</ele><time>2026-04-11T10:09:34.288Z</time></trkpt><trkpt lat="44.585878" lon="8.7915209"><ele>534.1666666666666</ele><time>2026-04-11T10:09:35.287Z</time></trkpt><trkpt lat="44.5858431" lon="8.7916224"><ele>534.3333333333334</ele><time>2026-04-11T10:09:36.288Z</time></trkpt><trkpt lat="44.5857888" lon="8.7917167"><ele>534.5</ele><time>2026-04-11T10:09:37.288Z</time></trkpt><trkpt lat="44.5857175" lon="8.7917788"><ele>534.6666666666667</ele><time>2026-04-11T10:09:38.287Z</time></trkpt><trkpt lat="44.5856024" lon="8.791774"><ele>534.8333333333334</ele><time>2026-04-11T10:09:40.287Z</time></trkpt><trkpt lat="44.5855333" lon="8.7917205"><ele>535.0</ele><time>2026-04-11T10:09:41.287Z</time></trkpt><trkpt lat="44.5854906" lon="8.7916389"><ele>535.0</ele><time>2026-04-11T10:09:42.287Z</time></trkpt><trkpt lat="44.5854684" lon="8.7915208"><ele>535.0</ele><time>2026-04-11T10:09:43.288Z</time></trkpt><trkpt lat="44.5854575" lon="8.7914131"><ele>535.0</ele><time>2026-04-11T10:09:44.287Z</time></trkpt><trkpt lat="44.5854436" lon="8.7913149"><ele>535.0</ele><time>2026-04-11T10:09:45.288Z</time></trkpt><trkpt lat="44.5854057" lon="8.7912061"><ele>535.0</ele><time>2026-04-11T10:09:46.287Z</time></trkpt><trkpt lat="44.5853525" lon="8.7910799"><ele>535.0</ele><time>2026-04-11T10:09:47.287Z</time></trkpt><trkpt lat="44.5852902" lon="8.7909654"><ele>533.4</ele><time>2026-04-11T10:09:48.287Z</time></trkpt><trkpt lat="44.5852376" lon="8.7908428"><ele>531.8</ele><time>2026-04-11T10:09:49.287Z</time></trkpt><trkpt lat="44.5852084" lon="8.7907075"><ele>530.2</ele><time>2026-04-11T10:09:50.287Z</time></trkpt><trkpt lat="44.5852017" lon="8.7905696"><ele>528.6</ele><time>2026-04-11T10:09:51.287Z</time></trkpt><trkpt lat="44.5851758" lon="8.7904607"><ele>527.0</ele><time>2026-04-11T10:09:52.288Z</time></trkpt><trkpt lat="44.5851521" lon="8.790368"><ele>527.0</ele><time>2026-04-11T10:09:53.287Z</time></trkpt><trkpt lat="44.5850369" lon="8.7902863"><ele>527.0</ele><time>2026-04-11T10:09:55.287Z</time></trkpt><trkpt lat="44.5849556" lon="8.7903028"><ele>527.0</ele><time>2026-04-11T10:09:56.287Z</time></trkpt><trkpt lat="44.5848708" lon="8.79034"><ele>527.0</ele><time>2026-04-11T10:09:57.287Z</time></trkpt><trkpt lat="44.5847834" lon="8.7903988"><ele>527.0</ele><time>2026-04-11T10:09:58.288Z</time></trkpt><trkpt lat="44.5847075" lon="8.7904724"><ele>527.0</ele><time>2026-04-11T10:09:59.287Z</time></trkpt><trkpt lat="44.5846352" lon="8.7905568"><ele>527.0</ele><time>2026-04-11T10:10:00.287Z</time></trkpt><trkpt lat="44.5845627" lon="8.7906287"><ele>527.0</ele><time>2026-04-11T10:10:01.288Z</time></trkpt><trkpt lat="44.5844868" lon="8.7906591"><ele>527.0</ele><time>2026-04-11T10:10:02.287Z</time></trkpt><trkpt lat="44.5844125" lon="8.790651"><ele>527.0</ele><time>2026-04-11T10:10:03.288Z</time></trkpt><trkpt lat="44.5843335" lon="8.7906183"><ele>527.0</ele><time>2026-04-11T10:10:04.287Z</time></trkpt><trkpt lat="44.5842576" lon="8.7906061"><ele>526.4</ele><time>2026-04-11T10:10:05.287Z</time></trkpt><trkpt lat="44.5841427" lon="8.7906779"><ele>525.8000000000001</ele><time>2026-04-11T10:10:07.287Z</time></trkpt><trkpt lat="44.5840704" lon="8.7907317"><ele>525.2</ele><time>2026-04-11T10:10:08.287Z</time></trkpt><trkpt lat="44.583978" lon="8.7907908"><ele>524.6</ele><time>2026-04-11T10:10:09.288Z</time></trkpt><trkpt lat="44.5838769" lon="8.7908541"><ele>524.0</ele><time>2026-04-11T10:10:10.287Z</time></trkpt><trkpt lat="44.5837863" lon="8.7909206"><ele>524.0</ele><time>2026-04-11T10:10:11.288Z</time></trkpt><trkpt lat="44.5836955" lon="8.7910053"><ele>524.0</ele><time>2026-04-11T10:10:12.287Z</time></trkpt><trkpt lat="44.5836132" lon="8.7910783"><ele>524.0</ele><time>2026-04-11T10:10:13.288Z</time></trkpt><trkpt lat="44.5835166" lon="8.7911251"><ele>524.0</ele><time>2026-04-11T10:10:14.287Z</time></trkpt><trkpt lat="44.5834264" lon="8.7911483"><ele>524.0</ele><time>2026-04-11T10:10:15.288Z</time></trkpt><trkpt lat="44.5833251" lon="8.7911682"><ele>529.4</ele><time>2026-04-11T10:10:16.287Z</time></trkpt><trkpt lat="44.5832192" lon="8.7911644"><ele>534.8</ele><time>2026-04-11T10:10:17.287Z</time></trkpt><trkpt lat="44.5831108" lon="8.7911441"><ele>540.2</ele><time>2026-04-11T10:10:18.287Z</time></trkpt><trkpt lat="44.5830097" lon="8.7911281"><ele>545.6</ele><time>2026-04-11T10:10:19.287Z</time></trkpt><trkpt lat="44.5829132" lon="8.7910985"><ele>551.0</ele><time>2026-04-11T10:10:20.287Z</time></trkpt><trkpt lat="44.5828207" lon="8.7910814"><ele>551.0</ele><time>2026-04-11T10:10:21.288Z</time></trkpt><trkpt lat="44.5827406" lon="8.791031"><ele>551.0</ele><time>2026-04-11T10:10:22.287Z</time></trkpt><trkpt lat="44.5826539" lon="8.7910015"><ele>551.0</ele><time>2026-04-11T10:10:23.287Z</time></trkpt><trkpt lat="44.5825587" lon="8.7910138"><ele>551.0</ele><time>2026-04-11T10:10:24.287Z</time></trkpt><trkpt lat="44.582457" lon="8.7910519"><ele>551.0</ele><time>2026-04-11T10:10:25.287Z</time></trkpt><trkpt lat="44.5823534" lon="8.7911065"><ele>551.0</ele><time>2026-04-11T10:10:26.287Z</time></trkpt><trkpt lat="44.5822618" lon="8.7911656"><ele>551.0</ele><time>2026-04-11T10:10:27.287Z</time></trkpt><trkpt lat="44.5821793" lon="8.7911937"><ele>551.0</ele><time>2026-04-11T10:10:28.287Z</time></trkpt><trkpt lat="44.5821014" lon="8.7911487"><ele>551.0</ele><time>2026-04-11T10:10:29.287Z</time></trkpt><trkpt lat="44.5820572" lon="8.791081"><ele>551.0</ele><time>2026-04-11T10:10:30.287Z</time></trkpt><trkpt lat="44.5820259" lon="8.7909838"><ele>551.0</ele><time>2026-04-11T10:10:31.287Z</time></trkpt><trkpt lat="44.5819842" lon="8.7909041"><ele>545.0</ele><time>2026-04-11T10:10:32.287Z</time></trkpt><trkpt lat="44.5819254" lon="8.7908561"><ele>539.0</ele><time>2026-04-11T10:10:33.287Z</time></trkpt><trkpt lat="44.5818471" lon="8.7908154"><ele>533.0</ele><time>2026-04-11T10:10:34.287Z</time></trkpt><trkpt lat="44.5817502" lon="8.7907846"><ele>527.0</ele><time>2026-04-11T10:10:35.287Z</time></trkpt><trkpt lat="44.5816366" lon="8.7907789"><ele>521.0</ele><time>2026-04-11T10:10:36.287Z</time></trkpt><trkpt lat="44.5815323" lon="8.7907876"><ele>521.0</ele><time>2026-04-11T10:10:37.287Z</time></trkpt><trkpt lat="44.5814272" lon="8.7908105"><ele>521.0</ele><time>2026-04-11T10:10:38.287Z</time></trkpt><trkpt lat="44.5813441" lon="8.790823"><ele>521.0</ele><time>2026-04-11T10:10:39.287Z</time></trkpt><trkpt lat="44.5812811" lon="8.7907867"><ele>521.0</ele><time>2026-04-11T10:10:40.288Z</time></trkpt><trkpt lat="44.581216" lon="8.7907208"><ele>521.0</ele><time>2026-04-11T10:10:41.288Z</time></trkpt><trkpt lat="44.5811517" lon="8.7906384"><ele>521.0</ele><time>2026-04-11T10:10:42.287Z</time></trkpt><trkpt lat="44.5811006" lon="8.7905265"><ele>521.5</ele><time>2026-04-11T10:10:43.287Z</time></trkpt><trkpt lat="44.5810449" lon="8.7904155"><ele>522.0</ele><time>2026-04-11T10:10:44.287Z</time></trkpt><trkpt lat="44.5809977" lon="8.7903228"><ele>522.5</ele><time>2026-04-11T10:10:45.288Z</time></trkpt><trkpt lat="44.5809597" lon="8.7902297"><ele>523.0</ele><time>2026-04-11T10:10:46.287Z</time></trkpt><trkpt lat="44.5809409" lon="8.7901238"><ele>523.5</ele><time>2026-04-11T10:10:47.288Z</time></trkpt><trkpt lat="44.5809328" lon="8.7900092"><ele>524.0</ele><time>2026-04-11T10:10:48.287Z</time></trkpt><trkpt lat="44.5809043" lon="8.7898955"><ele>524.0</ele><time>2026-04-11T10:10:49.287Z</time></trkpt><trkpt lat="44.5808871" lon="8.7897889"><ele>524.0</ele><time>2026-04-11T10:10:50.287Z</time></trkpt><trkpt lat="44.5808852" lon="8.7896796"><ele>524.0</ele><time>2026-04-11T10:10:51.287Z</time></trkpt><trkpt lat="44.5808859" lon="8.7895751"><ele>524.0</ele><time>2026-04-11T10:10:52.287Z</time></trkpt><trkpt lat="44.5808745" lon="8.7894627"><ele>524.0</ele><time>2026-04-11T10:10:53.287Z</time></trkpt><trkpt lat="44.580835" lon="8.7893283"><ele>524.0</ele><time>2026-04-11T10:10:54.287Z</time></trkpt><trkpt lat="44.5807849" lon="8.7891921"><ele>521.0</ele><time>2026-04-11T10:10:55.287Z</time></trkpt><trkpt lat="44.5807473" lon="8.7890788"><ele>518.0</ele><time>2026-04-11T10:10:56.288Z</time></trkpt><trkpt lat="44.5807029" lon="8.7889874"><ele>515.0</ele><time>2026-04-11T10:10:57.287Z</time></trkpt><trkpt lat="44.5806375" lon="8.7889241"><ele>512.0</ele><time>2026-04-11T10:10:58.287Z</time></trkpt><trkpt lat="44.5805633" lon="8.7888758"><ele>508.99999999999994</ele><time>2026-04-11T10:10:59.287Z</time></trkpt><trkpt lat="44.5804825" lon="8.7888223"><ele>506.0</ele><time>2026-04-11T10:11:00.287Z</time></trkpt><trkpt lat="44.5804098" lon="8.78875"><ele>506.0</ele><time>2026-04-11T10:11:01.287Z</time></trkpt><trkpt lat="44.5803574" lon="8.7886686"><ele>506.0</ele><time>2026-04-11T10:11:02.287Z</time></trkpt><trkpt lat="44.5803179" lon="8.7885615"><ele>506.0</ele><time>2026-04-11T10:11:03.288Z</time></trkpt><trkpt lat="44.5802815" lon="8.7884399"><ele>506.0</ele><time>2026-04-11T10:11:04.287Z</time></trkpt><trkpt lat="44.5802351" lon="8.7883184"><ele>506.0</ele><time>2026-04-11T10:11:05.287Z</time></trkpt><trkpt lat="44.5801797" lon="8.7881915"><ele>508.4</ele><time>2026-04-11T10:11:06.287Z</time></trkpt><trkpt lat="44.580119" lon="8.7880624"><ele>510.8</ele><time>2026-04-11T10:11:07.287Z</time></trkpt><trkpt lat="44.5800511" lon="8.7879315"><ele>513.1999999999999</ele><time>2026-04-11T10:11:08.287Z</time></trkpt><trkpt lat="44.5799933" lon="8.7878097"><ele>515.6</ele><time>2026-04-11T10:11:09.287Z</time></trkpt><trkpt lat="44.5799431" lon="8.787675"><ele>518.0</ele><time>2026-04-11T10:11:10.287Z</time></trkpt><trkpt lat="44.5798863" lon="8.787543"><ele>518.0</ele><time>2026-04-11T10:11:11.287Z</time></trkpt><trkpt lat="44.5798196" lon="8.7874084"><ele>518.0</ele><time>2026-04-11T10:11:12.288Z</time></trkpt><trkpt lat="44.5797558" lon="8.7872947"><ele>518.0</ele><time>2026-04-11T10:11:13.287Z</time></trkpt><trkpt lat="44.5797077" lon="8.7871839"><ele>518.0</ele><time>2026-04-11T10:11:14.288Z</time></trkpt><trkpt lat="44.579688" lon="8.7870731"><ele>518.0</ele><time>2026-04-11T10:11:15.287Z</time></trkpt><trkpt lat="44.5796942" lon="8.7869797"><ele>518.0</ele><time>2026-04-11T10:11:16.287Z</time></trkpt><trkpt lat="44.5797144" lon="8.7868793"><ele>518.0</ele><time>2026-04-11T10:11:17.287Z</time></trkpt><trkpt lat="44.5797427" lon="8.7867695"><ele>518.0</ele><time>2026-04-11T10:11:18.287Z</time></trkpt><trkpt lat="44.5797575" lon="8.7866598"><ele>518.0</ele><time>2026-04-11T10:11:19.287Z</time></trkpt><trkpt lat="44.5797395" lon="8.7865495"><ele>518.0</ele><time>2026-04-11T10:11:20.288Z</time></trkpt><trkpt lat="44.579709" lon="8.7864481"><ele>518.0</ele><time>2026-04-11T10:11:21.287Z</time></trkpt><trkpt lat="44.5796533" lon="8.786339"><ele>514.6</ele><time>2026-04-11T10:11:22.288Z</time></trkpt><trkpt lat="44.5796186" lon="8.7861991"><ele>511.19999999999993</ele><time>2026-04-11T10:11:23.287Z</time></trkpt><trkpt lat="44.5796101" lon="8.7860595"><ele>507.8</ele><time>2026-04-11T10:11:24.287Z</time></trkpt><trkpt lat="44.5796107" lon="8.7859356"><ele>504.4</ele><time>2026-04-11T10:11:25.287Z</time></trkpt><trkpt lat="44.5796238" lon="8.7858135"><ele>501.0</ele><time>2026-04-11T10:11:26.288Z</time></trkpt><trkpt lat="44.579595" lon="8.7856781"><ele>499.25</ele><time>2026-04-11T10:11:27.287Z</time></trkpt><trkpt lat="44.5795584" lon="8.7855379"><ele>497.5</ele><time>2026-04-11T10:11:28.287Z</time></trkpt><trkpt lat="44.5795191" lon="8.7853828"><ele>495.75</ele><time>2026-04-11T10:11:29.287Z</time></trkpt><trkpt lat="44.5794994" lon="8.7852189"><ele>494.0</ele><time>2026-04-11T10:11:30.287Z</time></trkpt><trkpt lat="44.5794662" lon="8.7850728"><ele>502.0</ele><time>2026-04-11T10:11:31.287Z</time></trkpt><trkpt lat="44.5794337" lon="8.7849182"><ele>510.0</ele><time>2026-04-11T10:11:32.287Z</time></trkpt><trkpt lat="44.5793883" lon="8.7847584"><ele>518.0</ele><time>2026-04-11T10:11:33.287Z</time></trkpt><trkpt lat="44.5793435" lon="8.7845972"><ele>526.0</ele><time>2026-04-11T10:11:34.287Z</time></trkpt><trkpt lat="44.579308" lon="8.7844443"><ele>521.8</ele><time>2026-04-11T10:11:35.287Z</time></trkpt><trkpt lat="44.579273" lon="8.7843193"><ele>517.6</ele><time>2026-04-11T10:11:36.287Z</time></trkpt><trkpt lat="44.5792274" lon="8.7842321"><ele>513.4</ele><time>2026-04-11T10:11:37.288Z</time></trkpt><trkpt lat="44.5791135" lon="8.7841717"><ele>509.2</ele><time>2026-04-11T10:11:39.287Z</time></trkpt><trkpt lat="44.578998" lon="8.7842427"><ele>505.0</ele><time>2026-04-11T10:11:41.288Z</time></trkpt><trkpt lat="44.5789408" lon="8.7843264"><ele>510.25</ele><time>2026-04-11T10:11:42.287Z</time></trkpt><trkpt lat="44.5788808" lon="8.7844488"><ele>515.5</ele><time>2026-04-11T10:11:43.288Z</time></trkpt><trkpt lat="44.5788181" lon="8.7845726"><ele>520.75</ele><time>2026-04-11T10:11:44.288Z</time></trkpt><trkpt lat="44.5787636" lon="8.7847216"><ele>526.0</ele><time>2026-04-11T10:11:45.287Z</time></trkpt><trkpt lat="44.5787076" lon="8.7848701"><ele>526.4</ele><time>2026-04-11T10:11:46.287Z</time></trkpt><trkpt lat="44.578649" lon="8.7850106"><ele>526.8</ele><time>2026-04-11T10:11:47.287Z</time></trkpt><trkpt lat="44.5786009" lon="8.7851456"><ele>527.1999999999999</ele><time>2026-04-11T10:11:48.287Z</time></trkpt><trkpt lat="44.5785603" lon="8.7852523"><ele>527.6</ele><time>2026-04-11T10:11:49.287Z</time></trkpt><trkpt lat="44.5785196" lon="8.7853616"><ele>528.0</ele><time>2026-04-11T10:11:50.287Z</time></trkpt><trkpt lat="44.5784833" lon="8.785471"><ele>528.0</ele><time>2026-04-11T10:11:51.288Z</time></trkpt><trkpt lat="44.5784248" lon="8.7855646"><ele>528.0</ele><time>2026-04-11T10:11:52.288Z</time></trkpt><trkpt lat="44.5783665" lon="8.7856708"><ele>528.0</ele><time>2026-04-11T10:11:53.288Z</time></trkpt><trkpt lat="44.5783058" lon="8.7857719"><ele>528.0</ele><time>2026-04-11T10:11:54.287Z</time></trkpt><trkpt lat="44.578225" lon="8.7858826"><ele>528.0</ele><time>2026-04-11T10:11:55.287Z</time></trkpt><trkpt lat="44.5781518" lon="8.786007"><ele>525.1999999999999</ele><time>2026-04-11T10:11:56.287Z</time></trkpt><trkpt lat="44.5780795" lon="8.7861237"><ele>522.4</ele><time>2026-04-11T10:11:57.287Z</time></trkpt><trkpt lat="44.5780056" lon="8.7862281"><ele>519.5999999999999</ele><time>2026-04-11T10:11:58.287Z</time></trkpt><trkpt lat="44.577918" lon="8.7863214"><ele>516.8</ele><time>2026-04-11T10:11:59.287Z</time></trkpt><trkpt lat="44.5778347" lon="8.786415"><ele>514.0</ele><time>2026-04-11T10:12:00.288Z</time></trkpt><trkpt lat="44.5777512" lon="8.7865224"><ele>514.0</ele><time>2026-04-11T10:12:01.287Z</time></trkpt><trkpt lat="44.5776799" lon="8.786639"><ele>514.0</ele><time>2026-04-11T10:12:02.287Z</time></trkpt><trkpt lat="44.5776079" lon="8.7867627"><ele>514.0</ele><time>2026-04-11T10:12:03.287Z</time></trkpt><trkpt lat="44.577538" lon="8.7868787"><ele>514.0</ele><time>2026-04-11T10:12:04.288Z</time></trkpt><trkpt lat="44.5774657" lon="8.7869882"><ele>514.0</ele><time>2026-04-11T10:12:05.288Z</time></trkpt><trkpt lat="44.5773714" lon="8.7870676"><ele>512.25</ele><time>2026-04-11T10:12:06.287Z</time></trkpt><trkpt lat="44.577281" lon="8.7871702"><ele>510.5</ele><time>2026-04-11T10:12:07.287Z</time></trkpt><trkpt lat="44.5771917" lon="8.787287"><ele>508.75</ele><time>2026-04-11T10:12:08.287Z</time></trkpt><trkpt lat="44.5771075" lon="8.7874292"><ele>507.0</ele><time>2026-04-11T10:12:09.287Z</time></trkpt><trkpt lat="44.5770166" lon="8.7875414"><ele>507.0</ele><time>2026-04-11T10:12:10.287Z</time></trkpt><trkpt lat="44.5769337" lon="8.7876331"><ele>507.00000000000006</ele><time>2026-04-11T10:12:11.288Z</time></trkpt><trkpt lat="44.5768565" lon="8.7877301"><ele>507.00000000000006</ele><time>2026-04-11T10:12:12.287Z</time></trkpt><trkpt lat="44.5767688" lon="8.7878048"><ele>507.0</ele><time>2026-04-11T10:12:13.287Z</time></trkpt><trkpt lat="44.5766959" lon="8.7878752"><ele>507.0</ele><time>2026-04-11T10:12:14.287Z</time></trkpt><trkpt lat="44.5766236" lon="8.7879652"><ele>512.3333333333334</ele><time>2026-04-11T10:12:15.288Z</time></trkpt><trkpt lat="44.5765623" lon="8.7880701"><ele>517.6666666666666</ele><time>2026-04-11T10:12:16.288Z</time></trkpt><trkpt lat="44.5764991" lon="8.7881789"><ele>523.0</ele><time>2026-04-11T10:12:17.288Z</time></trkpt><trkpt lat="44.5764199" lon="8.788266"><ele>528.3333333333333</ele><time>2026-04-11T10:12:18.287Z</time></trkpt><trkpt lat="44.5763505" lon="8.7883295"><ele>533.6666666666666</ele><time>2026-04-11T10:12:19.287Z</time></trkpt><trkpt lat="44.5762834" lon="8.7883532"><ele>539.0</ele><time>2026-04-11T10:12:20.288Z</time></trkpt><trkpt lat="44.5762167" lon="8.788347"><ele>537.8333333333333</ele><time>2026-04-11T10:12:21.287Z</time></trkpt><trkpt lat="44.5761359" lon="8.7883219"><ele>536.6666666666666</ele><time>2026-04-11T10:12:22.287Z</time></trkpt><trkpt lat="44.5760673" lon="8.7883032"><ele>535.5</ele><time>2026-04-11T10:12:23.288Z</time></trkpt><trkpt lat="44.5759644" lon="8.7883779"><ele>534.3333333333334</ele><time>2026-04-11T10:12:25.288Z</time></trkpt><trkpt lat="44.575947" lon="8.7884713"><ele>533.1666666666667</ele><time>2026-04-11T10:12:26.288Z</time></trkpt><trkpt lat="44.5759191" lon="8.7885931"><ele>532.0</ele><time>2026-04-11T10:12:27.287Z</time></trkpt><trkpt lat="44.5758747" lon="8.7887148"><ele>532.0</ele><time>2026-04-11T10:12:28.287Z</time></trkpt><trkpt lat="44.5758177" lon="8.7888109"><ele>532.0</ele><time>2026-04-11T10:12:29.287Z</time></trkpt><trkpt lat="44.5757724" lon="8.7889236"><ele>532.0</ele><time>2026-04-11T10:12:30.287Z</time></trkpt><trkpt lat="44.5757581" lon="8.7890436"><ele>532.0</ele><time>2026-04-11T10:12:31.288Z</time></trkpt><trkpt lat="44.5757231" lon="8.7891572"><ele>532.0</ele><time>2026-04-11T10:12:32.287Z</time></trkpt><trkpt lat="44.5756716" lon="8.7892396"><ele>532.0</ele><time>2026-04-11T10:12:33.287Z</time></trkpt><trkpt lat="44.5756074" lon="8.7892954"><ele>532.0</ele><time>2026-04-11T10:12:34.287Z</time></trkpt><trkpt lat="44.5755266" lon="8.7893387"><ele>532.0</ele><time>2026-04-11T10:12:35.287Z</time></trkpt><trkpt lat="44.5754384" lon="8.7893918"><ele>532.0</ele><time>2026-04-11T10:12:36.287Z</time></trkpt><trkpt lat="44.5753457" lon="8.7894499"><ele>532.0</ele><time>2026-04-11T10:12:37.287Z</time></trkpt><trkpt lat="44.5752515" lon="8.7894939"><ele>532.0</ele><time>2026-04-11T10:12:38.288Z</time></trkpt><trkpt lat="44.5751558" lon="8.7895137"><ele>533.6</ele><time>2026-04-11T10:12:39.287Z</time></trkpt><trkpt lat="44.5750541" lon="8.7895378"><ele>535.2</ele><time>2026-04-11T10:12:40.287Z</time></trkpt><trkpt lat="44.5749495" lon="8.7895651"><ele>536.8</ele><time>2026-04-11T10:12:41.287Z</time></trkpt><trkpt lat="44.5748511" lon="8.7895652"><ele>538.4</ele><time>2026-04-11T10:12:42.287Z</time></trkpt><trkpt lat="44.5747541" lon="8.7895406"><ele>540.0</ele><time>2026-04-11T10:12:43.287Z</time></trkpt><trkpt lat="44.574668" lon="8.7894958"><ele>540.0</ele><time>2026-04-11T10:12:44.287Z</time></trkpt><trkpt lat="44.5745698" lon="8.7894408"><ele>540.0</ele><time>2026-04-11T10:12:45.287Z</time></trkpt><trkpt lat="44.5744705" lon="8.7893976"><ele>540.0</ele><time>2026-04-11T10:12:46.287Z</time></trkpt><trkpt lat="44.5743696" lon="8.7893599"><ele>540.0</ele><time>2026-04-11T10:12:47.287Z</time></trkpt><trkpt lat="44.5742624" lon="8.7893405"><ele>540.0</ele><time>2026-04-11T10:12:48.287Z</time></trkpt><trkpt lat="44.5741604" lon="8.7893143"><ele>532.0</ele><time>2026-04-11T10:12:49.287Z</time></trkpt><trkpt lat="44.5740546" lon="8.7892924"><ele>524.0</ele><time>2026-04-11T10:12:50.287Z</time></trkpt><trkpt lat="44.5739555" lon="8.7892695"><ele>516.0</ele><time>2026-04-11T10:12:51.288Z</time></trkpt><trkpt lat="44.5738599" lon="8.7892573"><ele>508.0</ele><time>2026-04-11T10:12:52.287Z</time></trkpt><trkpt lat="44.5737726" lon="8.7892441"><ele>500.0</ele><time>2026-04-11T10:12:53.287Z</time></trkpt><trkpt lat="44.573685" lon="8.789215"><ele>498.8333333333333</ele><time>2026-04-11T10:12:54.287Z</time></trkpt><trkpt lat="44.5736035" lon="8.7891683"><ele>497.66666666666663</ele><time>2026-04-11T10:12:55.287Z</time></trkpt><trkpt lat="44.5735266" lon="8.7891289"><ele>496.5</ele><time>2026-04-11T10:12:56.287Z</time></trkpt><trkpt lat="44.5734405" lon="8.7890826"><ele>495.33333333333337</ele><time>2026-04-11T10:12:57.287Z</time></trkpt><trkpt lat="44.5733549" lon="8.7890424"><ele>494.1666666666667</ele><time>2026-04-11T10:12:58.287Z</time></trkpt><trkpt lat="44.5732693" lon="8.7890111"><ele>493.0</ele><time>2026-04-11T10:12:59.287Z</time></trkpt><trkpt lat="44.5731761" lon="8.7889832"><ele>493.00000000000006</ele><time>2026-04-11T10:13:00.287Z</time></trkpt><trkpt lat="44.5730808" lon="8.7889541"><ele>493.0</ele><time>2026-04-11T10:13:01.288Z</time></trkpt><trkpt lat="44.5730015" lon="8.7889309"><ele>493.0</ele><time>2026-04-11T10:13:02.287Z</time></trkpt><trkpt lat="44.5729256" lon="8.7889181"><ele>493.0</ele><time>2026-04-11T10:13:03.287Z</time></trkpt><trkpt lat="44.5728599" lon="8.788912"><ele>493.00000000000006</ele><time>2026-04-11T10:13:04.287Z</time></trkpt><trkpt lat="44.5727418" lon="8.788925"><ele>493.0</ele><time>2026-04-11T10:13:06.287Z</time></trkpt><trkpt lat="44.5726429" lon="8.7889654"><ele>493.79999999999995</ele><time>2026-04-11T10:13:08.288Z</time></trkpt><trkpt lat="44.5725958" lon="8.7890836"><ele>494.59999999999997</ele><time>2026-04-11T10:13:10.287Z</time></trkpt><trkpt lat="44.5725744" lon="8.7892583"><ele>495.40000000000003</ele><time>2026-04-11T10:13:12.287Z</time></trkpt><trkpt lat="44.5725668" lon="8.7893768"><ele>496.20000000000005</ele><time>2026-04-11T10:13:13.288Z</time></trkpt><trkpt lat="44.5725483" lon="8.7895007"><ele>497.0</ele><time>2026-04-11T10:13:14.288Z</time></trkpt><trkpt lat="44.5725205" lon="8.7896368"><ele>497.0</ele><time>2026-04-11T10:13:15.288Z</time></trkpt><trkpt lat="44.5724802" lon="8.7897678"><ele>497.00000000000006</ele><time>2026-04-11T10:13:16.287Z</time></trkpt><trkpt lat="44.5724596" lon="8.7898923"><ele>497.00000000000006</ele><time>2026-04-11T10:13:17.287Z</time></trkpt><trkpt lat="44.5724417" lon="8.7900218"><ele>497.0</ele><time>2026-04-11T10:13:18.287Z</time></trkpt><trkpt lat="44.5724348" lon="8.7901522"><ele>497.0</ele><time>2026-04-11T10:13:19.287Z</time></trkpt><trkpt lat="44.5724437" lon="8.7902909"><ele>497.8</ele><time>2026-04-11T10:13:20.287Z</time></trkpt><trkpt lat="44.5724445" lon="8.7904409"><ele>498.6</ele><time>2026-04-11T10:13:21.288Z</time></trkpt><trkpt lat="44.5724431" lon="8.7905975"><ele>499.40000000000003</ele><time>2026-04-11T10:13:22.287Z</time></trkpt><trkpt lat="44.5724325" lon="8.7907534"><ele>500.20000000000005</ele><time>2026-04-11T10:13:23.288Z</time></trkpt><trkpt lat="44.5724147" lon="8.790899"><ele>501.0</ele><time>2026-04-11T10:13:24.287Z</time></trkpt><trkpt lat="44.5723911" lon="8.7910271"><ele>501.8333333333333</ele><time>2026-04-11T10:13:25.287Z</time></trkpt><trkpt lat="44.5723634" lon="8.7911378"><ele>502.66666666666663</ele><time>2026-04-11T10:13:26.287Z</time></trkpt><trkpt lat="44.5723303" lon="8.7912527"><ele>503.5</ele><time>2026-04-11T10:13:27.287Z</time></trkpt><trkpt lat="44.5722942" lon="8.7913703"><ele>504.3333333333333</ele><time>2026-04-11T10:13:28.287Z</time></trkpt><trkpt lat="44.5722728" lon="8.7914915"><ele>505.16666666666663</ele><time>2026-04-11T10:13:29.287Z</time></trkpt><trkpt lat="44.5722613" lon="8.7916152"><ele>506.0</ele><time>2026-04-11T10:13:30.287Z</time></trkpt><trkpt lat="44.5722653" lon="8.7917605"><ele>505.8</ele><time>2026-04-11T10:13:31.288Z</time></trkpt><trkpt lat="44.572268" lon="8.7919185"><ele>505.6</ele><time>2026-04-11T10:13:32.287Z</time></trkpt><trkpt lat="44.5722657" lon="8.7920838"><ele>505.4</ele><time>2026-04-11T10:13:33.287Z</time></trkpt><trkpt lat="44.5722659" lon="8.7922259"><ele>505.2</ele><time>2026-04-11T10:13:34.287Z</time></trkpt><trkpt lat="44.5722697" lon="8.7923589"><ele>505.0</ele><time>2026-04-11T10:13:35.287Z</time></trkpt><trkpt lat="44.5722688" lon="8.7924524"><ele>505.0</ele><time>2026-04-11T10:13:36.287Z</time></trkpt><trkpt lat="44.5722174" lon="8.7925842"><ele>505.0</ele><time>2026-04-11T10:13:38.287Z</time></trkpt><trkpt lat="44.5721518" lon="8.7926039"><ele>505.0</ele><time>2026-04-11T10:13:40.287Z</time></trkpt><trkpt lat="44.5721005" lon="8.7925183"><ele>505.0</ele><time>2026-04-11T10:13:42.287Z</time></trkpt><trkpt lat="44.5720763" lon="8.7923412"><ele>505.0</ele><time>2026-04-11T10:13:44.287Z</time></trkpt><trkpt lat="44.5720567" lon="8.7922325"><ele>505.0</ele><time>2026-04-11T10:13:45.288Z</time></trkpt><trkpt lat="44.5720354" lon="8.792127"><ele>505.0</ele><time>2026-04-11T10:13:46.287Z</time></trkpt><trkpt lat="44.5720089" lon="8.7920012"><ele>505.0</ele><time>2026-04-11T10:13:47.287Z</time></trkpt><trkpt lat="44.5719707" lon="8.7918654"><ele>505.0</ele><time>2026-04-11T10:13:48.287Z</time></trkpt><trkpt lat="44.5719279" lon="8.7917254"><ele>505.0</ele><time>2026-04-11T10:13:49.287Z</time></trkpt><trkpt lat="44.5718875" lon="8.7915807"><ele>510.00000000000006</ele><time>2026-04-11T10:13:50.287Z</time></trkpt><trkpt lat="44.5718573" lon="8.7914448"><ele>515.0</ele><time>2026-04-11T10:13:51.287Z</time></trkpt><trkpt lat="44.5718518" lon="8.7913115"><ele>520.0</ele><time>2026-04-11T10:13:52.287Z</time></trkpt><trkpt lat="44.5718499" lon="8.7911964"><ele>525.0</ele><time>2026-04-11T10:13:53.287Z</time></trkpt><trkpt lat="44.5718549" lon="8.7910945"><ele>530.0</ele><time>2026-04-11T10:13:54.288Z</time></trkpt><trkpt lat="44.5718335" lon="8.7909742"><ele>535.0</ele><time>2026-04-11T10:13:56.287Z</time></trkpt><trkpt lat="44.5717421" lon="8.7909833"><ele>535.1666666666667</ele><time>2026-04-11T10:13:58.287Z</time></trkpt><trkpt lat="44.5717017" lon="8.7910571"><ele>535.3333333333334</ele><time>2026-04-11T10:13:59.287Z</time></trkpt><trkpt lat="44.5716678" lon="8.7911471"><ele>535.5</ele><time>2026-04-11T10:14:00.287Z</time></trkpt><trkpt lat="44.571641" lon="8.7912481"><ele>535.6666666666666</ele><time>2026-04-11T10:14:01.287Z</time></trkpt><trkpt lat="44.5716179" lon="8.7913596"><ele>535.8333333333333</ele><time>2026-04-11T10:14:02.287Z</time></trkpt><trkpt lat="44.5715965" lon="8.791492"><ele>536.0</ele><time>2026-04-11T10:14:03.288Z</time></trkpt><trkpt lat="44.571573" lon="8.7916277"><ele>536.0</ele><time>2026-04-11T10:14:04.288Z</time></trkpt><trkpt lat="44.5715546" lon="8.7917687"><ele>536.0</ele><time>2026-04-11T10:14:05.287Z</time></trkpt><trkpt lat="44.5715465" lon="8.7919063"><ele>536.0</ele><time>2026-04-11T10:14:06.287Z</time></trkpt><trkpt lat="44.5715471" lon="8.7920579"><ele>536.0</ele><time>2026-04-11T10:14:07.287Z</time></trkpt><trkpt lat="44.5715386" lon="8.7922224"><ele>536.0</ele><time>2026-04-11T10:14:08.288Z</time></trkpt><trkpt lat="44.5715195" lon="8.792355"><ele>536.0</ele><time>2026-04-11T10:14:09.287Z</time></trkpt><trkpt lat="44.5714994" lon="8.7924883"><ele>536.0</ele><time>2026-04-11T10:14:10.288Z</time></trkpt><trkpt lat="44.5714796" lon="8.7926039"><ele>536.0</ele><time>2026-04-11T10:14:11.287Z</time></trkpt><trkpt lat="44.5714728" lon="8.7927241"><ele>536.0</ele><time>2026-04-11T10:14:12.288Z</time></trkpt><trkpt lat="44.5714715" lon="8.7928618"><ele>536.0</ele><time>2026-04-11T10:14:13.287Z</time></trkpt><trkpt lat="44.5714743" lon="8.7930037"><ele>534.2</ele><time>2026-04-11T10:14:14.287Z</time></trkpt><trkpt lat="44.5714895" lon="8.7931283"><ele>532.4000000000001</ele><time>2026-04-11T10:14:15.287Z</time></trkpt><trkpt lat="44.571483" lon="8.7932162"><ele>530.6</ele><time>2026-04-11T10:14:16.287Z</time></trkpt><trkpt lat="44.5714626" lon="8.7933315"><ele>528.8000000000001</ele><time>2026-04-11T10:14:18.286Z</time></trkpt><trkpt lat="44.57139" lon="8.7933757"><ele>527.0</ele><time>2026-04-11T10:14:20.286Z</time></trkpt><trkpt lat="44.5712569" lon="8.7933045"><ele>532.0</ele><time>2026-04-11T10:14:22.286Z</time></trkpt><trkpt lat="44.5711799" lon="8.7932278"><ele>537.0</ele><time>2026-04-11T10:14:23.286Z</time></trkpt><trkpt lat="44.5711031" lon="8.7931408"><ele>542.0</ele><time>2026-04-11T10:14:24.286Z</time></trkpt><trkpt lat="44.5710097" lon="8.7930836"><ele>547.0</ele><time>2026-04-11T10:14:25.287Z</time></trkpt><trkpt lat="44.5709204" lon="8.7930804"><ele>552.0</ele><time>2026-04-11T10:14:26.286Z</time></trkpt><trkpt lat="44.5708334" lon="8.7931032"><ele>552.0</ele><time>2026-04-11T10:14:27.286Z</time></trkpt><trkpt lat="44.5707586" lon="8.793154"><ele>552.0</ele><time>2026-04-11T10:14:28.286Z</time></trkpt><trkpt lat="44.5706855" lon="8.7932199"><ele>552.0</ele><time>2026-04-11T10:14:29.287Z</time></trkpt><trkpt lat="44.5706154" lon="8.7932664"><ele>552.0</ele><time>2026-04-11T10:14:30.286Z</time></trkpt><trkpt lat="44.5705285" lon="8.7932771"><ele>552.0</ele><time>2026-04-11T10:14:31.287Z</time></trkpt><trkpt lat="44.5704454" lon="8.7932835"><ele>552.0</ele><time>2026-04-11T10:14:32.286Z</time></trkpt><trkpt lat="44.5703756" lon="8.7933146"><ele>554.3333333333334</ele><time>2026-04-11T10:14:33.286Z</time></trkpt><trkpt lat="44.5703182" lon="8.7933576"><ele>556.6666666666666</ele><time>2026-04-11T10:14:34.286Z</time></trkpt><trkpt lat="44.5702894" lon="8.7935062"><ele>559.0</ele><time>2026-04-11T10:14:36.287Z</time></trkpt><trkpt lat="44.5702884" lon="8.7935947"><ele>561.3333333333333</ele><time>2026-04-11T10:14:37.286Z</time></trkpt><trkpt lat="44.5703099" lon="8.793697"><ele>563.6666666666666</ele><time>2026-04-11T10:14:38.286Z</time></trkpt><trkpt lat="44.5703294" lon="8.7938081"><ele>566.0</ele><time>2026-04-11T10:14:39.287Z</time></trkpt><trkpt lat="44.5703481" lon="8.7939136"><ele>566.0</ele><time>2026-04-11T10:14:40.286Z</time></trkpt><trkpt lat="44.570327" lon="8.7940271"><ele>566.0</ele><time>2026-04-11T10:14:41.286Z</time></trkpt><trkpt lat="44.5702877" lon="8.7941128"><ele>566.0</ele><time>2026-04-11T10:14:42.286Z</time></trkpt><trkpt lat="44.5702192" lon="8.7941804"><ele>566.0</ele><time>2026-04-11T10:14:43.286Z</time></trkpt><trkpt lat="44.5701472" lon="8.7942269"><ele>566.0</ele><time>2026-04-11T10:14:44.286Z</time></trkpt><trkpt lat="44.5700487" lon="8.7942671"><ele>566.0</ele><time>2026-04-11T10:14:45.286Z</time></trkpt><trkpt lat="44.5699622" lon="8.7943159"><ele>563.0</ele><time>2026-04-11T10:14:46.286Z</time></trkpt><trkpt lat="44.5698699" lon="8.7943832"><ele>560.0</ele><time>2026-04-11T10:14:47.286Z</time></trkpt><trkpt lat="44.5697915" lon="8.7944357"><ele>557.0</ele><time>2026-04-11T10:14:48.286Z</time></trkpt><trkpt lat="44.5697092" lon="8.7944897"><ele>554.0</ele><time>2026-04-11T10:14:49.286Z</time></trkpt><trkpt lat="44.56963" lon="8.7945358"><ele>551.0</ele><time>2026-04-11T10:14:50.286Z</time></trkpt><trkpt lat="44.5695408" lon="8.7945476"><ele>554.6</ele><time>2026-04-11T10:14:51.287Z</time></trkpt><trkpt lat="44.5694475" lon="8.7945294"><ele>558.2</ele><time>2026-04-11T10:14:52.286Z</time></trkpt><trkpt lat="44.5693568" lon="8.794509"><ele>561.8</ele><time>2026-04-11T10:14:53.287Z</time></trkpt><trkpt lat="44.5692519" lon="8.7944932"><ele>565.4</ele><time>2026-04-11T10:14:54.286Z</time></trkpt><trkpt lat="44.569149" lon="8.794492"><ele>569.0</ele><time>2026-04-11T10:14:55.286Z</time></trkpt><trkpt lat="44.5690505" lon="8.7944889"><ele>569.0</ele><time>2026-04-11T10:14:56.287Z</time></trkpt><trkpt lat="44.568955" lon="8.7945096"><ele>569.0</ele><time>2026-04-11T10:14:57.286Z</time></trkpt><trkpt lat="44.5688572" lon="8.7945542"><ele>569.0</ele><time>2026-04-11T10:14:58.287Z</time></trkpt><trkpt lat="44.5687582" lon="8.7946304"><ele>569.0</ele><time>2026-04-11T10:14:59.286Z</time></trkpt><trkpt lat="44.5686558" lon="8.7947049"><ele>569.0</ele><time>2026-04-11T10:15:00.286Z</time></trkpt><trkpt lat="44.5685465" lon="8.7947524"><ele>574.25</ele><time>2026-04-11T10:15:01.287Z</time></trkpt><trkpt lat="44.5684316" lon="8.7947896"><ele>579.5</ele><time>2026-04-11T10:15:02.286Z</time></trkpt><trkpt lat="44.5683272" lon="8.7948192"><ele>584.75</ele><time>2026-04-11T10:15:03.287Z</time></trkpt><trkpt lat="44.5682196" lon="8.7948785"><ele>590.0</ele><time>2026-04-11T10:15:04.286Z</time></trkpt><trkpt lat="44.5681193" lon="8.7949687"><ele>590.0</ele><time>2026-04-11T10:15:05.286Z</time></trkpt><trkpt lat="44.5680389" lon="8.7950578"><ele>590.0</ele><time>2026-04-11T10:15:06.286Z</time></trkpt><trkpt lat="44.56797" lon="8.7951545"><ele>590.0</ele><time>2026-04-11T10:15:07.287Z</time></trkpt><trkpt lat="44.5678901" lon="8.795211"><ele>590.0</ele><time>2026-04-11T10:15:08.287Z</time></trkpt><trkpt lat="44.5677946" lon="8.79524"><ele>590.0</ele><time>2026-04-11T10:15:09.286Z</time></trkpt><trkpt lat="44.5677152" lon="8.7952177"><ele>590.8</ele><time>2026-04-11T10:15:10.286Z</time></trkpt><trkpt lat="44.5676397" lon="8.7951745"><ele>591.6</ele><time>2026-04-11T10:15:11.287Z</time></trkpt><trkpt lat="44.5675924" lon="8.7950934"><ele>592.4</ele><time>2026-04-11T10:15:12.286Z</time></trkpt><trkpt lat="44.5675728" lon="8.7949624"><ele>593.2</ele><time>2026-04-11T10:15:13.286Z</time></trkpt><trkpt lat="44.5675725" lon="8.7948219"><ele>594.0</ele><time>2026-04-11T10:15:14.287Z</time></trkpt><trkpt lat="44.5675917" lon="8.7946681"><ele>594.0</ele><time>2026-04-11T10:15:15.286Z</time></trkpt><trkpt lat="44.5676247" lon="8.7945018"><ele>594.0</ele><time>2026-04-11T10:15:16.286Z</time></trkpt><trkpt lat="44.5676524" lon="8.7943391"><ele>594.0</ele><time>2026-04-11T10:15:17.286Z</time></trkpt><trkpt lat="44.5676869" lon="8.7941993"><ele>594.0</ele><time>2026-04-11T10:15:18.286Z</time></trkpt><trkpt lat="44.5677263" lon="8.7940826"><ele>594.0</ele><time>2026-04-11T10:15:19.286Z</time></trkpt><trkpt lat="44.5677911" lon="8.794012"><ele>596.0</ele><time>2026-04-11T10:15:20.287Z</time></trkpt><trkpt lat="44.567871" lon="8.7939739"><ele>598.0</ele><time>2026-04-11T10:15:21.287Z</time></trkpt><trkpt lat="44.5679727" lon="8.7939374"><ele>600.0</ele><time>2026-04-11T10:15:22.286Z</time></trkpt><trkpt lat="44.5680671" lon="8.7938856"><ele>602.0</ele><time>2026-04-11T10:15:23.287Z</time></trkpt><trkpt lat="44.5681608" lon="8.7938142"><ele>604.0</ele><time>2026-04-11T10:15:24.287Z</time></trkpt><trkpt lat="44.568244" lon="8.7937033"><ele>604.0</ele><time>2026-04-11T10:15:25.286Z</time></trkpt><trkpt lat="44.5683325" lon="8.7935808"><ele>604.0</ele><time>2026-04-11T10:15:26.286Z</time></trkpt><trkpt lat="44.5684195" lon="8.7934658"><ele>604.0</ele><time>2026-04-11T10:15:27.286Z</time></trkpt><trkpt lat="44.5685251" lon="8.7933695"><ele>604.0</ele><time>2026-04-11T10:15:28.286Z</time></trkpt><trkpt lat="44.5686122" lon="8.7932801"><ele>603.8333333333334</ele><time>2026-04-11T10:15:29.286Z</time></trkpt><trkpt lat="44.5686921" lon="8.7932296"><ele>603.6666666666667</ele><time>2026-04-11T10:15:30.286Z</time></trkpt><trkpt lat="44.5687664" lon="8.7932066"><ele>603.5</ele><time>2026-04-11T10:15:31.287Z</time></trkpt><trkpt lat="44.5688199" lon="8.7931242"><ele>603.3333333333334</ele><time>2026-04-11T10:15:33.286Z</time></trkpt><trkpt lat="44.568761" lon="8.7930395"><ele>603.1666666666666</ele><time>2026-04-11T10:15:35.286Z</time></trkpt><trkpt lat="44.5686849" lon="8.7930442"><ele>603.0</ele><time>2026-04-11T10:15:36.286Z</time></trkpt><trkpt lat="44.5685971" lon="8.793055"><ele>606.4</ele><time>2026-04-11T10:15:37.286Z</time></trkpt><trkpt lat="44.5685143" lon="8.7930601"><ele>609.8</ele><time>2026-04-11T10:15:38.286Z</time></trkpt><trkpt lat="44.5684255" lon="8.7930794"><ele>613.2</ele><time>2026-04-11T10:15:39.286Z</time></trkpt><trkpt lat="44.5683205" lon="8.7930675"><ele>616.6</ele><time>2026-04-11T10:15:40.286Z</time></trkpt><trkpt lat="44.5682061" lon="8.7930235"><ele>620.0</ele><time>2026-04-11T10:15:41.286Z</time></trkpt><trkpt lat="44.5680899" lon="8.7929685"><ele>620.0</ele><time>2026-04-11T10:15:42.286Z</time></trkpt><trkpt lat="44.567972" lon="8.7929201"><ele>620.0</ele><time>2026-04-11T10:15:43.287Z</time></trkpt><trkpt lat="44.5678498" lon="8.7928769"><ele>620.0</ele><time>2026-04-11T10:15:44.286Z</time></trkpt><trkpt lat="44.5677261" lon="8.7928362"><ele>620.0</ele><time>2026-04-11T10:15:45.286Z</time></trkpt><trkpt lat="44.5675961" lon="8.7927949"><ele>621.5</ele><time>2026-04-11T10:15:46.286Z</time></trkpt><trkpt lat="44.5674609" lon="8.7927697"><ele>623.0</ele><time>2026-04-11T10:15:47.287Z</time></trkpt><trkpt lat="44.567327" lon="8.7927724"><ele>624.5</ele><time>2026-04-11T10:15:48.286Z</time></trkpt><trkpt lat="44.5671983" lon="8.7927814"><ele>626.0</ele><time>2026-04-11T10:15:49.286Z</time></trkpt><trkpt lat="44.5670768" lon="8.7927899"><ele>626.0</ele><time>2026-04-11T10:15:50.286Z</time></trkpt><trkpt lat="44.5669693" lon="8.792797"><ele>626.0</ele><time>2026-04-11T10:15:51.286Z</time></trkpt><trkpt lat="44.5668598" lon="8.7927974"><ele>626.0</ele><time>2026-04-11T10:15:52.286Z</time></trkpt><trkpt lat="44.5667646" lon="8.7927881"><ele>626.0</ele><time>2026-04-11T10:15:53.287Z</time></trkpt><trkpt lat="44.5666621" lon="8.7927476"><ele>626.0</ele><time>2026-04-11T10:15:54.286Z</time></trkpt><trkpt lat="44.5665696" lon="8.7927037"><ele>629.8</ele><time>2026-04-11T10:15:55.286Z</time></trkpt><trkpt lat="44.5664768" lon="8.7926531"><ele>633.6</ele><time>2026-04-11T10:15:56.286Z</time></trkpt><trkpt lat="44.5663746" lon="8.7926097"><ele>637.4</ele><time>2026-04-11T10:15:57.286Z</time></trkpt><trkpt lat="44.5662807" lon="8.79258"><ele>641.2</ele><time>2026-04-11T10:15:58.286Z</time></trkpt><trkpt lat="44.5661703" lon="8.7925607"><ele>645.0</ele><time>2026-04-11T10:15:59.286Z</time></trkpt><trkpt lat="44.5660697" lon="8.7924801"><ele>645.0</ele><time>2026-04-11T10:16:00.287Z</time></trkpt><trkpt lat="44.5659745" lon="8.7923951"><ele>645.0</ele><time>2026-04-11T10:16:01.287Z</time></trkpt><trkpt lat="44.565903" lon="8.7923103"><ele>645.0</ele><time>2026-04-11T10:16:02.286Z</time></trkpt><trkpt lat="44.5658363" lon="8.7922074"><ele>645.0</ele><time>2026-04-11T10:16:03.286Z</time></trkpt><trkpt lat="44.5657905" lon="8.7920916"><ele>645.0</ele><time>2026-04-11T10:16:04.287Z</time></trkpt><trkpt lat="44.5657722" lon="8.7919631"><ele>647.25</ele><time>2026-04-11T10:16:05.286Z</time></trkpt><trkpt lat="44.5657789" lon="8.7918242"><ele>649.5</ele><time>2026-04-11T10:16:06.286Z</time></trkpt><trkpt lat="44.5658032" lon="8.7916617"><ele>651.75</ele><time>2026-04-11T10:16:07.286Z</time></trkpt><trkpt lat="44.5658372" lon="8.7914938"><ele>654.0</ele><time>2026-04-11T10:16:08.286Z</time></trkpt><trkpt lat="44.5658418" lon="8.7913212"><ele>654.0</ele><time>2026-04-11T10:16:09.286Z</time></trkpt><trkpt lat="44.565818" lon="8.7911516"><ele>654.0</ele><time>2026-04-11T10:16:10.286Z</time></trkpt><trkpt lat="44.5657812" lon="8.7909986"><ele>654.0</ele><time>2026-04-11T10:16:11.286Z</time></trkpt><trkpt lat="44.5657515" lon="8.7908613"><ele>654.0</ele><time>2026-04-11T10:16:12.286Z</time></trkpt><trkpt lat="44.565731" lon="8.7907506"><ele>654.0</ele><time>2026-04-11T10:16:13.286Z</time></trkpt><trkpt lat="44.5657274" lon="8.7906431"><ele>654.6</ele><time>2026-04-11T10:16:14.287Z</time></trkpt><trkpt lat="44.5657452" lon="8.7905431"><ele>655.2</ele><time>2026-04-11T10:16:15.286Z</time></trkpt><trkpt lat="44.5657867" lon="8.7904346"><ele>655.8000000000001</ele><time>2026-04-11T10:16:16.287Z</time></trkpt><trkpt lat="44.5658629" lon="8.7903242"><ele>656.4000000000001</ele><time>2026-04-11T10:16:17.286Z</time></trkpt><trkpt lat="44.5659521" lon="8.7902177"><ele>657.0</ele><time>2026-04-11T10:16:18.286Z</time></trkpt><trkpt lat="44.5660423" lon="8.7900815"><ele>657.0</ele><time>2026-04-11T10:16:19.286Z</time></trkpt><trkpt lat="44.5661321" lon="8.7899441"><ele>657.0</ele><time>2026-04-11T10:16:20.286Z</time></trkpt><trkpt lat="44.5662129" lon="8.7897976"><ele>657.0</ele><time>2026-04-11T10:16:21.287Z</time></trkpt><trkpt lat="44.5662936" lon="8.7896512"><ele>657.0</ele><time>2026-04-11T10:16:22.286Z</time></trkpt><trkpt lat="44.5663584" lon="8.7895158"><ele>659.2</ele><time>2026-04-11T10:16:23.286Z</time></trkpt><trkpt lat="44.5664134" lon="8.7893989"><ele>661.4000000000001</ele><time>2026-04-11T10:16:24.287Z</time></trkpt><trkpt lat="44.5664705" lon="8.789287"><ele>663.5999999999999</ele><time>2026-04-11T10:16:25.286Z</time></trkpt><trkpt lat="44.5665272" lon="8.7891812"><ele>665.8</ele><time>2026-04-11T10:16:26.286Z</time></trkpt><trkpt lat="44.5665756" lon="8.7890831"><ele>668.0</ele><time>2026-04-11T10:16:27.286Z</time></trkpt><trkpt lat="44.5666022" lon="8.7889865"><ele>668.0</ele><time>2026-04-11T10:16:28.286Z</time></trkpt><trkpt lat="44.566605" lon="8.7888822"><ele>668.0</ele><time>2026-04-11T10:16:29.286Z</time></trkpt><trkpt lat="44.5666014" lon="8.7887846"><ele>668.0</ele><time>2026-04-11T10:16:30.286Z</time></trkpt><trkpt lat="44.566605" lon="8.7886958"><ele>668.0</ele><time>2026-04-11T10:16:31.287Z</time></trkpt><trkpt lat="44.5666015" lon="8.7885552"><ele>668.0</ele><time>2026-04-11T10:16:33.286Z</time></trkpt><trkpt lat="44.5666125" lon="8.7884522"><ele>668.0</ele><time>2026-04-11T10:16:36.286Z</time></trkpt><trkpt lat="44.5666204" lon="8.7883091"><ele>667.5</ele><time>2026-04-11T10:16:48.287Z</time></trkpt><trkpt lat="44.5666271" lon="8.7882132"><ele>667.0</ele><time>2026-04-11T10:16:50.286Z</time></trkpt><trkpt lat="44.5665582" lon="8.7880473"><ele>666.5</ele><time>2026-04-11T10:17:04.286Z</time></trkpt><trkpt lat="44.5665219" lon="8.787973"><ele>666.0</ele><time>2026-04-11T10:17:05.286Z</time></trkpt><trkpt lat="44.5664766" lon="8.7879084"><ele>665.5</ele><time>2026-04-11T10:17:06.286Z</time></trkpt><trkpt lat="44.5664279" lon="8.7878356"><ele>665.0</ele><time>2026-04-11T10:17:07.286Z</time></trkpt><trkpt lat="44.5663781" lon="8.7877584"><ele>664.5</ele><time>2026-04-11T10:17:08.286Z</time></trkpt><trkpt lat="44.5663319" lon="8.7876735"><ele>664.0</ele><time>2026-04-11T10:17:09.286Z</time></trkpt><trkpt lat="44.566295" lon="8.787583"><ele>663.5</ele><time>2026-04-11T10:17:10.286Z</time></trkpt><trkpt lat="44.5662613" lon="8.7874892"><ele>663.0</ele><time>2026-04-11T10:17:11.286Z</time></trkpt><trkpt lat="44.5662257" lon="8.7873917"><ele>662.5</ele><time>2026-04-11T10:17:12.286Z</time></trkpt><trkpt lat="44.566196" lon="8.7873124"><ele>662.0</ele><time>2026-04-11T10:17:13.286Z</time></trkpt><trkpt lat="44.5661501" lon="8.7871804"><ele>662.0</ele><time>2026-04-11T10:17:15.286Z</time></trkpt><trkpt lat="44.5661364" lon="8.787072"><ele>662.0</ele><time>2026-04-11T10:17:17.286Z</time></trkpt><trkpt lat="44.5661084" lon="8.7869701"><ele>662.0</ele><time>2026-04-11T10:17:20.286Z</time></trkpt><trkpt lat="44.5660567" lon="8.7868628"><ele>662.0</ele><time>2026-04-11T10:17:23.286Z</time></trkpt><trkpt lat="44.5659985" lon="8.7867878"><ele>662.0</ele><time>2026-04-11T10:17:25.287Z</time></trkpt><trkpt lat="44.5659401" lon="8.7867343"><ele>662.0</ele><time>2026-04-11T10:17:27.286Z</time></trkpt><trkpt lat="44.5658683" lon="8.7867282"><ele>662.0</ele><time>2026-04-11T10:17:29.287Z</time></trkpt><trkpt lat="44.5658095" lon="8.7867778"><ele>662.0</ele><time>2026-04-11T10:17:33.286Z</time></trkpt><trkpt lat="44.565856" lon="8.7868724"><ele>662.0</ele><time>2026-04-11T10:18:08.286Z</time></trkpt><trkpt lat="44.5659208" lon="8.7869192"><ele>662.0</ele><time>2026-04-11T10:18:10.286Z</time></trkpt><trkpt lat="44.5660142" lon="8.7869285"><ele>662.0</ele><time>2026-04-11T10:18:12.286Z</time></trkpt><trkpt lat="44.5660971" lon="8.7869408"><ele>662.0</ele><time>2026-04-11T10:18:14.286Z</time></trkpt><trkpt lat="44.5661769" lon="8.7869239"><ele>661.0</ele><time>2026-04-11T10:18:17.286Z</time></trkpt><trkpt lat="44.566234" lon="8.7868476"><ele>660.0</ele><time>2026-04-11T10:18:19.286Z</time></trkpt><trkpt lat="44.5662555" lon="8.7867214"><ele>659.0</ele><time>2026-04-11T10:18:21.286Z</time></trkpt><trkpt lat="44.5662246" lon="8.786597"><ele>658.0</ele><time>2026-04-11T10:18:23.286Z</time></trkpt><trkpt lat="44.5661496" lon="8.7864661"><ele>657.0</ele><time>2026-04-11T10:18:25.286Z</time></trkpt><trkpt lat="44.5661112" lon="8.7863801"><ele>656.8571428571428</ele><time>2026-04-11T10:18:26.286Z</time></trkpt><trkpt lat="44.5660812" lon="8.7862863"><ele>656.7142857142858</ele><time>2026-04-11T10:18:27.286Z</time></trkpt><trkpt lat="44.5660674" lon="8.7861888"><ele>656.5714285714286</ele><time>2026-04-11T10:18:28.286Z</time></trkpt><trkpt lat="44.5660516" lon="8.7860925"><ele>656.4285714285713</ele><time>2026-04-11T10:18:29.286Z</time></trkpt><trkpt lat="44.5660216" lon="8.786005"><ele>656.2857142857142</ele><time>2026-04-11T10:18:30.286Z</time></trkpt><trkpt lat="44.5659846" lon="8.7859231"><ele>656.1428571428571</ele><time>2026-04-11T10:18:31.286Z</time></trkpt><trkpt lat="44.565943" lon="8.785845"><ele>656.0</ele><time>2026-04-11T10:18:32.286Z</time></trkpt><trkpt lat="44.5658877" lon="8.7857729"><ele>655.0</ele><time>2026-04-11T10:18:33.287Z</time></trkpt><trkpt lat="44.5658291" lon="8.7857009"><ele>654.0</ele><time>2026-04-11T10:18:34.286Z</time></trkpt><trkpt lat="44.5657688" lon="8.7856236"><ele>653.0</ele><time>2026-04-11T10:18:35.286Z</time></trkpt><trkpt lat="44.5657077" lon="8.7855389"><ele>652.0</ele><time>2026-04-11T10:18:36.287Z</time></trkpt><trkpt lat="44.5656579" lon="8.7854508"><ele>651.0</ele><time>2026-04-11T10:18:37.286Z</time></trkpt><trkpt lat="44.5656225" lon="8.7853548"><ele>650.0</ele><time>2026-04-11T10:18:38.286Z</time></trkpt><trkpt lat="44.5656024" lon="8.785252"><ele>649.8</ele><time>2026-04-11T10:18:39.286Z</time></trkpt><trkpt lat="44.5655945" lon="8.7851378"><ele>649.6</ele><time>2026-04-11T10:18:40.287Z</time></trkpt><trkpt lat="44.5656042" lon="8.7849895"><ele>649.4000000000001</ele><time>2026-04-11T10:18:41.286Z</time></trkpt><trkpt lat="44.565616" lon="8.7848491"><ele>649.2</ele><time>2026-04-11T10:18:42.286Z</time></trkpt><trkpt lat="44.5656214" lon="8.7847027"><ele>649.0</ele><time>2026-04-11T10:18:43.286Z</time></trkpt><trkpt lat="44.5656167" lon="8.7845572"><ele>649.0</ele><time>2026-04-11T10:18:44.286Z</time></trkpt><trkpt lat="44.5655922" lon="8.7844099"><ele>649.0</ele><time>2026-04-11T10:18:45.287Z</time></trkpt><trkpt lat="44.5655655" lon="8.7842381"><ele>649.0</ele><time>2026-04-11T10:18:46.286Z</time></trkpt><trkpt lat="44.565531" lon="8.7840468"><ele>649.0</ele><time>2026-04-11T10:18:47.286Z</time></trkpt><trkpt lat="44.5655162" lon="8.7838539"><ele>650.1666666666667</ele><time>2026-04-11T10:18:48.287Z</time></trkpt><trkpt lat="44.5655062" lon="8.7836969"><ele>651.3333333333334</ele><time>2026-04-11T10:18:49.286Z</time></trkpt><trkpt lat="44.565493" lon="8.7835861"><ele>652.5</ele><time>2026-04-11T10:18:50.286Z</time></trkpt><trkpt lat="44.5654894" lon="8.7834916"><ele>653.6666666666666</ele><time>2026-04-11T10:18:51.286Z</time></trkpt><trkpt lat="44.565508" lon="8.7834039"><ele>654.8333333333333</ele><time>2026-04-11T10:18:52.286Z</time></trkpt><trkpt lat="44.5655374" lon="8.7833109"><ele>656.0</ele><time>2026-04-11T10:18:53.286Z</time></trkpt><trkpt lat="44.5655806" lon="8.7832088"><ele>657.3333333333333</ele><time>2026-04-11T10:18:54.286Z</time></trkpt><trkpt lat="44.5656385" lon="8.7831114"><ele>658.6666666666666</ele><time>2026-04-11T10:18:55.286Z</time></trkpt><trkpt lat="44.565711" lon="8.7830388"><ele>660.0</ele><time>2026-04-11T10:18:56.286Z</time></trkpt><trkpt lat="44.5657615" lon="8.7829457"><ele>661.3333333333334</ele><time>2026-04-11T10:18:57.286Z</time></trkpt><trkpt lat="44.5657838" lon="8.7828626"><ele>662.6666666666667</ele><time>2026-04-11T10:18:58.286Z</time></trkpt><trkpt lat="44.5657403" lon="8.7827066"><ele>664.0</ele><time>2026-04-11T10:19:00.286Z</time></trkpt><trkpt lat="44.565632" lon="8.782594"><ele>664.2</ele><time>2026-04-11T10:19:02.286Z</time></trkpt><trkpt lat="44.565555" lon="8.7825098"><ele>664.4000000000001</ele><time>2026-04-11T10:19:03.287Z</time></trkpt><trkpt lat="44.5654911" lon="8.7823877"><ele>664.6</ele><time>2026-04-11T10:19:04.286Z</time></trkpt><trkpt lat="44.5654418" lon="8.7822536"><ele>664.8</ele><time>2026-04-11T10:19:05.286Z</time></trkpt><trkpt lat="44.5653984" lon="8.7821351"><ele>665.0</ele><time>2026-04-11T10:19:06.287Z</time></trkpt><trkpt lat="44.5653589" lon="8.7820189"><ele>665.0</ele><time>2026-04-11T10:19:07.287Z</time></trkpt><trkpt lat="44.5653208" lon="8.7818973"><ele>665.0</ele><time>2026-04-11T10:19:08.287Z</time></trkpt><trkpt lat="44.5652871" lon="8.7817687"><ele>665.0</ele><time>2026-04-11T10:19:09.286Z</time></trkpt><trkpt lat="44.5652573" lon="8.7816405"><ele>665.0</ele><time>2026-04-11T10:19:10.286Z</time></trkpt><trkpt lat="44.5652353" lon="8.7815252"><ele>665.0</ele><time>2026-04-11T10:19:11.287Z</time></trkpt><trkpt lat="44.5652211" lon="8.7814157"><ele>665.8333333333333</ele><time>2026-04-11T10:19:12.287Z</time></trkpt><trkpt lat="44.5652215" lon="8.7812973"><ele>666.6666666666666</ele><time>2026-04-11T10:19:13.286Z</time></trkpt><trkpt lat="44.5652397" lon="8.7811865"><ele>667.5</ele><time>2026-04-11T10:19:14.286Z</time></trkpt><trkpt lat="44.5652758" lon="8.7810756"><ele>668.3333333333334</ele><time>2026-04-11T10:19:15.286Z</time></trkpt><trkpt lat="44.5653253" lon="8.7809669"><ele>669.1666666666667</ele><time>2026-04-11T10:19:16.286Z</time></trkpt><trkpt lat="44.5653784" lon="8.7808507"><ele>670.0</ele><time>2026-04-11T10:19:17.286Z</time></trkpt><trkpt lat="44.5654294" lon="8.7807294"><ele>673.75</ele><time>2026-04-11T10:19:18.286Z</time></trkpt><trkpt lat="44.5654816" lon="8.7805997"><ele>677.5</ele><time>2026-04-11T10:19:19.286Z</time></trkpt><trkpt lat="44.5655347" lon="8.7804571"><ele>681.25</ele><time>2026-04-11T10:19:20.286Z</time></trkpt><trkpt lat="44.565581" lon="8.7803089"><ele>685.0</ele><time>2026-04-11T10:19:21.286Z</time></trkpt><trkpt lat="44.5656257" lon="8.7801623"><ele>686.0</ele><time>2026-04-11T10:19:22.287Z</time></trkpt><trkpt lat="44.5656696" lon="8.7800235"><ele>687.0</ele><time>2026-04-11T10:19:23.286Z</time></trkpt><trkpt lat="44.5657039" lon="8.7798938"><ele>688.0</ele><time>2026-04-11T10:19:24.287Z</time></trkpt><trkpt lat="44.5657376" lon="8.7797774"><ele>689.0</ele><time>2026-04-11T10:19:25.286Z</time></trkpt><trkpt lat="44.5657755" lon="8.7796641"><ele>690.0</ele><time>2026-04-11T10:19:26.287Z</time></trkpt><trkpt lat="44.5658084" lon="8.7795514"><ele>690.0</ele><time>2026-04-11T10:19:27.286Z</time></trkpt><trkpt lat="44.5658413" lon="8.7794415"><ele>690.0</ele><time>2026-04-11T10:19:28.286Z</time></trkpt><trkpt lat="44.5658818" lon="8.779366"><ele>690.0</ele><time>2026-04-11T10:19:29.286Z</time></trkpt><trkpt lat="44.5659594" lon="8.7792369"><ele>690.0</ele><time>2026-04-11T10:19:31.286Z</time></trkpt><trkpt lat="44.5660316" lon="8.7791092"><ele>690.0</ele><time>2026-04-11T10:19:33.287Z</time></trkpt><trkpt lat="44.5660961" lon="8.7789549"><ele>689.8333333333334</ele><time>2026-04-11T10:19:35.287Z</time></trkpt><trkpt lat="44.5661279" lon="8.7788559"><ele>689.6666666666666</ele><time>2026-04-11T10:19:36.287Z</time></trkpt><trkpt lat="44.5661655" lon="8.7787585"><ele>689.5</ele><time>2026-04-11T10:19:37.286Z</time></trkpt><trkpt lat="44.5661945" lon="8.7786694"><ele>689.3333333333333</ele><time>2026-04-11T10:19:38.286Z</time></trkpt><trkpt lat="44.5662179" lon="8.778572"><ele>689.1666666666666</ele><time>2026-04-11T10:19:39.286Z</time></trkpt><trkpt lat="44.5662293" lon="8.7784625"><ele>689.0</ele><time>2026-04-11T10:19:40.286Z</time></trkpt><trkpt lat="44.5662327" lon="8.7783429"><ele>689.0</ele><time>2026-04-11T10:19:41.286Z</time></trkpt><trkpt lat="44.566243" lon="8.7782216"><ele>689.0</ele><time>2026-04-11T10:19:42.286Z</time></trkpt><trkpt lat="44.5662464" lon="8.7781046"><ele>689.0</ele><time>2026-04-11T10:19:43.286Z</time></trkpt><trkpt lat="44.5662348" lon="8.7779882"><ele>689.0</ele><time>2026-04-11T10:19:44.286Z</time></trkpt><trkpt lat="44.5662192" lon="8.7778735"><ele>689.0</ele><time>2026-04-11T10:19:45.286Z</time></trkpt><trkpt lat="44.5661948" lon="8.7777782"><ele>689.0</ele><time>2026-04-11T10:19:46.287Z</time></trkpt><trkpt lat="44.5661168" lon="8.7776835"><ele>689.0</ele><time>2026-04-11T10:19:48.286Z</time></trkpt><trkpt lat="44.5660344" lon="8.777708"><ele>689.0</ele><time>2026-04-11T10:19:50.286Z</time></trkpt><trkpt lat="44.5659665" lon="8.7777964"><ele>689.0</ele><time>2026-04-11T10:19:52.286Z</time></trkpt><trkpt lat="44.5659164" lon="8.7778517"><ele>689.0</ele><time>2026-04-11T10:19:53.286Z</time></trkpt><trkpt lat="44.5658608" lon="8.7779344"><ele>689.0</ele><time>2026-04-11T10:19:54.287Z</time></trkpt><trkpt lat="44.5658089" lon="8.7780338"><ele>689.0</ele><time>2026-04-11T10:19:55.286Z</time></trkpt><trkpt lat="44.5657539" lon="8.7781261"><ele>689.0</ele><time>2026-04-11T10:19:56.286Z</time></trkpt><trkpt lat="44.5656949" lon="8.7782144"><ele>689.0</ele><time>2026-04-11T10:19:57.287Z</time></trkpt><trkpt lat="44.5656374" lon="8.7782768"><ele>689.0</ele><time>2026-04-11T10:19:58.286Z</time></trkpt><trkpt lat="44.5655704" lon="8.7783155"><ele>689.0</ele><time>2026-04-11T10:19:59.286Z</time></trkpt><trkpt lat="44.5655065" lon="8.77834"><ele>689.0</ele><time>2026-04-11T10:20:00.287Z</time></trkpt><trkpt lat="44.5654255" lon="8.778332"><ele>689.0</ele><time>2026-04-11T10:20:01.286Z</time></trkpt><trkpt lat="44.5653318" lon="8.7783349"><ele>688.8333333333333</ele><time>2026-04-11T10:20:02.286Z</time></trkpt><trkpt lat="44.5652361" lon="8.778341"><ele>688.6666666666666</ele><time>2026-04-11T10:20:03.286Z</time></trkpt><trkpt lat="44.56515" lon="8.7783328"><ele>688.5</ele><time>2026-04-11T10:20:04.286Z</time></trkpt><trkpt lat="44.5650751" lon="8.7783433"><ele>688.3333333333334</ele><time>2026-04-11T10:20:05.286Z</time></trkpt><trkpt lat="44.565005" lon="8.7783488"><ele>688.1666666666667</ele><time>2026-04-11T10:20:06.286Z</time></trkpt><trkpt lat="44.5649363" lon="8.7783461"><ele>688.0</ele><time>2026-04-11T10:20:07.286Z</time></trkpt><trkpt lat="44.5648664" lon="8.7783301"><ele>688.0</ele><time>2026-04-11T10:20:08.286Z</time></trkpt><trkpt lat="44.5648092" lon="8.778286"><ele>688.0</ele><time>2026-04-11T10:20:09.287Z</time></trkpt><trkpt lat="44.5647433" lon="8.778192"><ele>688.0</ele><time>2026-04-11T10:20:11.287Z</time></trkpt><trkpt lat="44.5647059" lon="8.7780568"><ele>688.0</ele><time>2026-04-11T10:20:13.286Z</time></trkpt><trkpt lat="44.5646666" lon="8.7779394"><ele>688.0</ele><time>2026-04-11T10:20:15.287Z</time></trkpt><trkpt lat="44.5646525" lon="8.7778302"><ele>688.0</ele><time>2026-04-11T10:20:17.286Z</time></trkpt><trkpt lat="44.56468" lon="8.7776867"><ele>689.8333333333334</ele><time>2026-04-11T10:20:19.286Z</time></trkpt><trkpt lat="44.5647165" lon="8.7775235"><ele>691.6666666666667</ele><time>2026-04-11T10:20:21.286Z</time></trkpt><trkpt lat="44.5647346" lon="8.7774294"><ele>693.5</ele><time>2026-04-11T10:20:22.286Z</time></trkpt><trkpt lat="44.5647384" lon="8.7773208"><ele>695.3333333333334</ele><time>2026-04-11T10:20:23.286Z</time></trkpt><trkpt lat="44.5647395" lon="8.7772129"><ele>697.1666666666666</ele><time>2026-04-11T10:20:24.286Z</time></trkpt><trkpt lat="44.564725" lon="8.7770934"><ele>699.0</ele><time>2026-04-11T10:20:25.286Z</time></trkpt><trkpt lat="44.564706" lon="8.7769717"><ele>699.0</ele><time>2026-04-11T10:20:26.286Z</time></trkpt><trkpt lat="44.564689" lon="8.7768557"><ele>699.0</ele><time>2026-04-11T10:20:27.286Z</time></trkpt><trkpt lat="44.5646664" lon="8.776737"><ele>699.0</ele><time>2026-04-11T10:20:28.286Z</time></trkpt><trkpt lat="44.5646304" lon="8.7766201"><ele>699.0</ele><time>2026-04-11T10:20:29.286Z</time></trkpt><trkpt lat="44.5645963" lon="8.7765022"><ele>699.0</ele><time>2026-04-11T10:20:30.287Z</time></trkpt><trkpt lat="44.5645676" lon="8.7763854"><ele>699.0</ele><time>2026-04-11T10:20:31.286Z</time></trkpt><trkpt lat="44.5645455" lon="8.7762701"><ele>699.0</ele><time>2026-04-11T10:20:32.286Z</time></trkpt><trkpt lat="44.5645316" lon="8.7761496"><ele>699.0</ele><time>2026-04-11T10:20:33.286Z</time></trkpt><trkpt lat="44.5645157" lon="8.7760269"><ele>699.0</ele><time>2026-04-11T10:20:34.286Z</time></trkpt><trkpt lat="44.564509" lon="8.7759118"><ele>699.0</ele><time>2026-04-11T10:20:35.286Z</time></trkpt><trkpt lat="44.5644978" lon="8.7758229"><ele>699.0</ele><time>2026-04-11T10:20:36.287Z</time></trkpt><trkpt lat="44.5644118" lon="8.7757013"><ele>699.0</ele><time>2026-04-11T10:20:38.286Z</time></trkpt><trkpt lat="44.5643368" lon="8.7756396"><ele>701.4000000000001</ele><time>2026-04-11T10:20:39.286Z</time></trkpt><trkpt lat="44.5642487" lon="8.7755725"><ele>703.8</ele><time>2026-04-11T10:20:40.286Z</time></trkpt><trkpt lat="44.5641671" lon="8.7754847"><ele>706.2</ele><time>2026-04-11T10:20:41.286Z</time></trkpt><trkpt lat="44.5640897" lon="8.7753863"><ele>708.5999999999999</ele><time>2026-04-11T10:20:42.286Z</time></trkpt><trkpt lat="44.5640213" lon="8.7752819"><ele>711.0</ele><time>2026-04-11T10:20:43.286Z</time></trkpt><trkpt lat="44.5639824" lon="8.7751718"><ele>713.0</ele><time>2026-04-11T10:20:44.287Z</time></trkpt><trkpt lat="44.5639759" lon="8.7750524"><ele>715.0</ele><time>2026-04-11T10:20:45.286Z</time></trkpt><trkpt lat="44.56399" lon="8.7749294"><ele>717.0</ele><time>2026-04-11T10:20:46.286Z</time></trkpt><trkpt lat="44.5640128" lon="8.7747861"><ele>719.0</ele><time>2026-04-11T10:20:47.287Z</time></trkpt><trkpt lat="44.5640317" lon="8.7746434"><ele>721.0</ele><time>2026-04-11T10:20:48.286Z</time></trkpt><trkpt lat="44.564041" lon="8.7745301"><ele>721.0</ele><time>2026-04-11T10:20:49.286Z</time></trkpt><trkpt lat="44.5640518" lon="8.7743677"><ele>721.0</ele><time>2026-04-11T10:20:51.287Z</time></trkpt><trkpt lat="44.5639864" lon="8.7742584"><ele>721.0</ele><time>2026-04-11T10:20:53.286Z</time></trkpt><trkpt lat="44.5638661" lon="8.7742329"><ele>721.0</ele><time>2026-04-11T10:20:55.287Z</time></trkpt><trkpt lat="44.5637802" lon="8.7742634"><ele>721.0</ele><time>2026-04-11T10:20:56.286Z</time></trkpt><trkpt lat="44.563697" lon="8.7743031"><ele>722.1666666666667</ele><time>2026-04-11T10:20:57.286Z</time></trkpt><trkpt lat="44.5636179" lon="8.7743328"><ele>723.3333333333334</ele><time>2026-04-11T10:20:58.285Z</time></trkpt><trkpt lat="44.5635336" lon="8.7743431"><ele>724.5</ele><time>2026-04-11T10:20:59.285Z</time></trkpt><trkpt lat="44.5634521" lon="8.7743186"><ele>725.6666666666666</ele><time>2026-04-11T10:21:00.285Z</time></trkpt><trkpt lat="44.5633792" lon="8.7742715"><ele>726.8333333333333</ele><time>2026-04-11T10:21:01.285Z</time></trkpt><trkpt lat="44.5633108" lon="8.7741823"><ele>728.0</ele><time>2026-04-11T10:21:02.285Z</time></trkpt><trkpt lat="44.5632347" lon="8.7740777"><ele>728.0</ele><time>2026-04-11T10:21:03.285Z</time></trkpt><trkpt lat="44.5631751" lon="8.7739579"><ele>728.0</ele><time>2026-04-11T10:21:04.285Z</time></trkpt><trkpt lat="44.5631307" lon="8.7738304"><ele>728.0</ele><time>2026-04-11T10:21:05.286Z</time></trkpt><trkpt lat="44.563092" lon="8.7736937"><ele>728.0</ele><time>2026-04-11T10:21:06.285Z</time></trkpt><trkpt lat="44.56305" lon="8.7735573"><ele>728.0</ele><time>2026-04-11T10:21:07.285Z</time></trkpt><trkpt lat="44.5629892" lon="8.7734125"><ele>729.75</ele><time>2026-04-11T10:21:08.285Z</time></trkpt><trkpt lat="44.562912" lon="8.773261"><ele>731.5</ele><time>2026-04-11T10:21:09.285Z</time></trkpt><trkpt lat="44.562833" lon="8.7731143"><ele>733.25</ele><time>2026-04-11T10:21:10.285Z</time></trkpt><trkpt lat="44.5627486" lon="8.7729719"><ele>735.0</ele><time>2026-04-11T10:21:11.285Z</time></trkpt><trkpt lat="44.562662" lon="8.7728367"><ele>735.0</ele><time>2026-04-11T10:21:12.286Z</time></trkpt><trkpt lat="44.5625775" lon="8.7727175"><ele>735.0</ele><time>2026-04-11T10:21:13.286Z</time></trkpt><trkpt lat="44.5625015" lon="8.7726104"><ele>735.0</ele><time>2026-04-11T10:21:14.285Z</time></trkpt><trkpt lat="44.5624275" lon="8.7725021"><ele>735.0</ele><time>2026-04-11T10:21:15.285Z</time></trkpt><trkpt lat="44.5623745" lon="8.7723891"><ele>735.0</ele><time>2026-04-11T10:21:16.285Z</time></trkpt><trkpt lat="44.5623402" lon="8.7722582"><ele>736.3333333333334</ele><time>2026-04-11T10:21:17.285Z</time></trkpt><trkpt lat="44.5623153" lon="8.7721259"><ele>737.6666666666666</ele><time>2026-04-11T10:21:18.285Z</time></trkpt><trkpt lat="44.5622924" lon="8.7720125"><ele>739.0</ele><time>2026-04-11T10:21:19.285Z</time></trkpt><trkpt lat="44.5622594" lon="8.7719026"><ele>740.3333333333333</ele><time>2026-04-11T10:21:20.285Z</time></trkpt><trkpt lat="44.5622121" lon="8.7718232"><ele>741.6666666666666</ele><time>2026-04-11T10:21:21.286Z</time></trkpt><trkpt lat="44.5621429" lon="8.7717834"><ele>743.0</ele><time>2026-04-11T10:21:22.285Z</time></trkpt><trkpt lat="44.5620701" lon="8.7717801"><ele>744.1666666666666</ele><time>2026-04-11T10:21:23.286Z</time></trkpt><trkpt lat="44.5620103" lon="8.7718103"><ele>745.3333333333333</ele><time>2026-04-11T10:21:24.286Z</time></trkpt><trkpt lat="44.5619565" lon="8.7718742"><ele>746.5</ele><time>2026-04-11T10:21:25.285Z</time></trkpt><trkpt lat="44.5618892" lon="8.7719471"><ele>747.6666666666666</ele><time>2026-04-11T10:21:26.285Z</time></trkpt><trkpt lat="44.5618099" lon="8.7720235"><ele>748.8333333333334</ele><time>2026-04-11T10:21:27.286Z</time></trkpt><trkpt lat="44.5617159" lon="8.7720918"><ele>750.0</ele><time>2026-04-11T10:21:28.285Z</time></trkpt><trkpt lat="44.5616128" lon="8.7721528"><ele>750.0</ele><time>2026-04-11T10:21:29.285Z</time></trkpt><trkpt lat="44.5615045" lon="8.7722205"><ele>750.0</ele><time>2026-04-11T10:21:30.286Z</time></trkpt><trkpt lat="44.5613984" lon="8.7722829"><ele>750.0</ele><time>2026-04-11T10:21:31.285Z</time></trkpt><trkpt lat="44.5613038" lon="8.7723445"><ele>750.0</ele><time>2026-04-11T10:21:32.285Z</time></trkpt><trkpt lat="44.5612183" lon="8.7723911"><ele>750.0</ele><time>2026-04-11T10:21:33.285Z</time></trkpt><trkpt lat="44.5611441" lon="8.7724075"><ele>751.0</ele><time>2026-04-11T10:21:34.286Z</time></trkpt><trkpt lat="44.5610657" lon="8.7724206"><ele>752.0</ele><time>2026-04-11T10:21:35.285Z</time></trkpt><trkpt lat="44.5609961" lon="8.7724521"><ele>753.0</ele><time>2026-04-11T10:21:36.285Z</time></trkpt><trkpt lat="44.5609339" lon="8.7725088"><ele>754.0</ele><time>2026-04-11T10:21:37.285Z</time></trkpt><trkpt lat="44.5608824" lon="8.7725965"><ele>755.0</ele><time>2026-04-11T10:21:38.285Z</time></trkpt><trkpt lat="44.5608371" lon="8.7726947"><ele>756.0</ele><time>2026-04-11T10:21:39.285Z</time></trkpt><trkpt lat="44.5607862" lon="8.7728137"><ele>756.0</ele><time>2026-04-11T10:21:40.286Z</time></trkpt><trkpt lat="44.5607274" lon="8.7729366"><ele>756.0</ele><time>2026-04-11T10:21:41.285Z</time></trkpt><trkpt lat="44.5606724" lon="8.7730342"><ele>756.0</ele><time>2026-04-11T10:21:42.285Z</time></trkpt><trkpt lat="44.5606027" lon="8.7731149"><ele>756.0</ele><time>2026-04-11T10:21:43.285Z</time></trkpt><trkpt lat="44.5605139" lon="8.7731905"><ele>756.0</ele><time>2026-04-11T10:21:44.286Z</time></trkpt><trkpt lat="44.5604209" lon="8.7732542"><ele>759.5999999999999</ele><time>2026-04-11T10:21:45.285Z</time></trkpt><trkpt lat="44.5603291" lon="8.7733135"><ele>763.2</ele><time>2026-04-11T10:21:46.286Z</time></trkpt><trkpt lat="44.5602453" lon="8.7733616"><ele>766.8</ele><time>2026-04-11T10:21:47.286Z</time></trkpt><trkpt lat="44.5601455" lon="8.773398"><ele>770.4000000000001</ele><time>2026-04-11T10:21:48.285Z</time></trkpt><trkpt lat="44.56005" lon="8.7733935"><ele>774.0</ele><time>2026-04-11T10:21:49.285Z</time></trkpt><trkpt lat="44.5599441" lon="8.7733875"><ele>774.0</ele><time>2026-04-11T10:21:50.285Z</time></trkpt><trkpt lat="44.559836" lon="8.7733846"><ele>774.0</ele><time>2026-04-11T10:21:51.285Z</time></trkpt><trkpt lat="44.5597342" lon="8.7733908"><ele>774.0</ele><time>2026-04-11T10:21:52.285Z</time></trkpt><trkpt lat="44.5596376" lon="8.7733872"><ele>774.0</ele><time>2026-04-11T10:21:53.285Z</time></trkpt><trkpt lat="44.5595506" lon="8.7733862"><ele>774.0</ele><time>2026-04-11T10:21:54.285Z</time></trkpt><trkpt lat="44.5594702" lon="8.7733985"><ele>774.2857142857143</ele><time>2026-04-11T10:21:55.285Z</time></trkpt><trkpt lat="44.5593948" lon="8.7734076"><ele>774.5714285714287</ele><time>2026-04-11T10:21:56.285Z</time></trkpt><trkpt lat="44.5593256" lon="8.7734348"><ele>774.8571428571429</ele><time>2026-04-11T10:21:57.286Z</time></trkpt><trkpt lat="44.5592647" lon="8.7734745"><ele>775.1428571428571</ele><time>2026-04-11T10:21:58.285Z</time></trkpt><trkpt lat="44.5592012" lon="8.7735214"><ele>775.4285714285714</ele><time>2026-04-11T10:21:59.285Z</time></trkpt><trkpt lat="44.5591377" lon="8.7735639"><ele>775.7142857142857</ele><time>2026-04-11T10:22:00.286Z</time></trkpt><trkpt lat="44.5590721" lon="8.7736075"><ele>776.0</ele><time>2026-04-11T10:22:01.285Z</time></trkpt><trkpt lat="44.5590118" lon="8.7736598"><ele>777.3333333333334</ele><time>2026-04-11T10:22:02.286Z</time></trkpt><trkpt lat="44.5589515" lon="8.773716"><ele>778.6666666666667</ele><time>2026-04-11T10:22:03.285Z</time></trkpt><trkpt lat="44.5588853" lon="8.7737747"><ele>780.0</ele><time>2026-04-11T10:22:04.286Z</time></trkpt><trkpt lat="44.5588116" lon="8.7738394"><ele>781.3333333333333</ele><time>2026-04-11T10:22:05.285Z</time></trkpt><trkpt lat="44.5587326" lon="8.7739002"><ele>782.6666666666666</ele><time>2026-04-11T10:22:06.285Z</time></trkpt><trkpt lat="44.5586491" lon="8.7739537"><ele>784.0</ele><time>2026-04-11T10:22:07.286Z</time></trkpt><trkpt lat="44.5585694" lon="8.7739877"><ele>784.0</ele><time>2026-04-11T10:22:08.286Z</time></trkpt><trkpt lat="44.5584826" lon="8.7740021"><ele>784.0</ele><time>2026-04-11T10:22:09.285Z</time></trkpt><trkpt lat="44.5583904" lon="8.7740062"><ele>784.0</ele><time>2026-04-11T10:22:10.285Z</time></trkpt><trkpt lat="44.5582882" lon="8.7739914"><ele>784.0</ele><time>2026-04-11T10:22:11.285Z</time></trkpt><trkpt lat="44.5581877" lon="8.7739661"><ele>784.0</ele><time>2026-04-11T10:22:12.285Z</time></trkpt><trkpt lat="44.5580782" lon="8.7739484"><ele>784.0</ele><time>2026-04-11T10:22:13.285Z</time></trkpt><trkpt lat="44.5579603" lon="8.7739488"><ele>784.0</ele><time>2026-04-11T10:22:14.285Z</time></trkpt><trkpt lat="44.5578597" lon="8.7739511"><ele>784.0</ele><time>2026-04-11T10:22:15.286Z</time></trkpt><trkpt lat="44.5577682" lon="8.7739519"><ele>784.0</ele><time>2026-04-11T10:22:16.285Z</time></trkpt><trkpt lat="44.557678" lon="8.7739529"><ele>784.0</ele><time>2026-04-11T10:22:17.285Z</time></trkpt><trkpt lat="44.5575873" lon="8.7739498"><ele>783.8000000000001</ele><time>2026-04-11T10:22:18.285Z</time></trkpt><trkpt lat="44.5574877" lon="8.7739239"><ele>783.6</ele><time>2026-04-11T10:22:19.285Z</time></trkpt><trkpt lat="44.5573932" lon="8.7738826"><ele>783.4</ele><time>2026-04-11T10:22:20.286Z</time></trkpt><trkpt lat="44.557311" lon="8.7738289"><ele>783.2</ele><time>2026-04-11T10:22:21.285Z</time></trkpt><trkpt lat="44.5572323" lon="8.7737761"><ele>783.0</ele><time>2026-04-11T10:22:22.285Z</time></trkpt><trkpt lat="44.5571378" lon="8.7737483"><ele>783.0</ele><time>2026-04-11T10:22:23.285Z</time></trkpt><trkpt lat="44.5570548" lon="8.7737156"><ele>783.0</ele><time>2026-04-11T10:22:24.285Z</time></trkpt><trkpt lat="44.5569735" lon="8.7736909"><ele>783.0</ele><time>2026-04-11T10:22:25.285Z</time></trkpt><trkpt lat="44.5568815" lon="8.7736671"><ele>783.0</ele><time>2026-04-11T10:22:26.285Z</time></trkpt><trkpt lat="44.5567805" lon="8.7736518"><ele>783.0</ele><time>2026-04-11T10:22:27.286Z</time></trkpt><trkpt lat="44.5566731" lon="8.7736174"><ele>782.8</ele><time>2026-04-11T10:22:28.285Z</time></trkpt><trkpt lat="44.5565833" lon="8.7735673"><ele>782.5999999999999</ele><time>2026-04-11T10:22:29.285Z</time></trkpt><trkpt lat="44.5564969" lon="8.773478"><ele>782.4000000000001</ele><time>2026-04-11T10:22:30.285Z</time></trkpt><trkpt lat="44.5564225" lon="8.7733926"><ele>782.2</ele><time>2026-04-11T10:22:31.285Z</time></trkpt><trkpt lat="44.5563468" lon="8.7732665"><ele>782.0</ele><time>2026-04-11T10:22:32.285Z</time></trkpt><trkpt lat="44.5562597" lon="8.7731363"><ele>781.75</ele><time>2026-04-11T10:22:33.285Z</time></trkpt><trkpt lat="44.5561836" lon="8.7729965"><ele>781.5</ele><time>2026-04-11T10:22:34.286Z</time></trkpt><trkpt lat="44.5561104" lon="8.7728519"><ele>781.25</ele><time>2026-04-11T10:22:35.285Z</time></trkpt><trkpt lat="44.5560353" lon="8.7727013"><ele>781.0</ele><time>2026-04-11T10:22:36.285Z</time></trkpt><trkpt lat="44.5559623" lon="8.7725624"><ele>781.0</ele><time>2026-04-11T10:22:37.285Z</time></trkpt><trkpt lat="44.5558843" lon="8.7724297"><ele>781.0</ele><time>2026-04-11T10:22:38.285Z</time></trkpt><trkpt lat="44.5557993" lon="8.772302"><ele>781.0</ele><time>2026-04-11T10:22:39.285Z</time></trkpt><trkpt lat="44.5557193" lon="8.7721643"><ele>781.0</ele><time>2026-04-11T10:22:40.285Z</time></trkpt><trkpt lat="44.5556564" lon="8.772025"><ele>781.0</ele><time>2026-04-11T10:22:41.285Z</time></trkpt><trkpt lat="44.5556087" lon="8.7718752"><ele>781.0</ele><time>2026-04-11T10:22:42.285Z</time></trkpt><trkpt lat="44.55557" lon="8.7717298"><ele>781.0</ele><time>2026-04-11T10:22:43.286Z</time></trkpt><trkpt lat="44.5555391" lon="8.7715955"><ele>781.0</ele><time>2026-04-11T10:22:44.285Z</time></trkpt><trkpt lat="44.5555157" lon="8.771473"><ele>781.0</ele><time>2026-04-11T10:22:45.285Z</time></trkpt><trkpt lat="44.5554863" lon="8.771367"><ele>780.5999999999999</ele><time>2026-04-11T10:22:46.285Z</time></trkpt><trkpt lat="44.5554352" lon="8.7712722"><ele>780.2</ele><time>2026-04-11T10:22:47.285Z</time></trkpt><trkpt lat="44.5553691" lon="8.7711905"><ele>779.8</ele><time>2026-04-11T10:22:48.286Z</time></trkpt><trkpt lat="44.5552939" lon="8.7711136"><ele>779.4000000000001</ele><time>2026-04-11T10:22:49.285Z</time></trkpt><trkpt lat="44.5552037" lon="8.7710587"><ele>779.0</ele><time>2026-04-11T10:22:50.286Z</time></trkpt><trkpt lat="44.5551092" lon="8.7710148"><ele>779.0</ele><time>2026-04-11T10:22:51.285Z</time></trkpt><trkpt lat="44.5549979" lon="8.7709889"><ele>779.0</ele><time>2026-04-11T10:22:52.285Z</time></trkpt><trkpt lat="44.554896" lon="8.7709676"><ele>779.0</ele><time>2026-04-11T10:22:53.286Z</time></trkpt><trkpt lat="44.5547923" lon="8.7709715"><ele>779.0</ele><time>2026-04-11T10:22:54.285Z</time></trkpt><trkpt lat="44.554709" lon="8.7710121"><ele>779.0</ele><time>2026-04-11T10:22:55.285Z</time></trkpt><trkpt lat="44.5546237" lon="8.7710734"><ele>774.8000000000001</ele><time>2026-04-11T10:22:56.285Z</time></trkpt><trkpt lat="44.5545307" lon="8.771167"><ele>770.6</ele><time>2026-04-11T10:22:57.285Z</time></trkpt><trkpt lat="44.5544554" lon="8.7712619"><ele>766.4</ele><time>2026-04-11T10:22:58.285Z</time></trkpt><trkpt lat="44.5543757" lon="8.7713511"><ele>762.2</ele><time>2026-04-11T10:22:59.285Z</time></trkpt><trkpt lat="44.5542882" lon="8.7714157"><ele>758.0</ele><time>2026-04-11T10:23:00.285Z</time></trkpt><trkpt lat="44.5542016" lon="8.771484"><ele>758.0</ele><time>2026-04-11T10:23:01.285Z</time></trkpt><trkpt lat="44.5541289" lon="8.7715734"><ele>758.0</ele><time>2026-04-11T10:23:02.285Z</time></trkpt><trkpt lat="44.5540654" lon="8.7716819"><ele>758.0</ele><time>2026-04-11T10:23:03.285Z</time></trkpt><trkpt lat="44.5540389" lon="8.7718056"><ele>758.0</ele><time>2026-04-11T10:23:04.285Z</time></trkpt><trkpt lat="44.5540059" lon="8.7719235"><ele>758.0</ele><time>2026-04-11T10:23:05.285Z</time></trkpt><trkpt lat="44.5539759" lon="8.772058"><ele>759.8</ele><time>2026-04-11T10:23:06.285Z</time></trkpt><trkpt lat="44.5539328" lon="8.7721891"><ele>761.5999999999999</ele><time>2026-04-11T10:23:07.285Z</time></trkpt><trkpt lat="44.553877" lon="8.7723081"><ele>763.4000000000001</ele><time>2026-04-11T10:23:08.286Z</time></trkpt><trkpt lat="44.5538138" lon="8.7724091"><ele>765.2</ele><time>2026-04-11T10:23:09.285Z</time></trkpt><trkpt lat="44.5537302" lon="8.7725017"><ele>767.0</ele><time>2026-04-11T10:23:10.285Z</time></trkpt><trkpt lat="44.5536408" lon="8.77259"><ele>765.2</ele><time>2026-04-11T10:23:11.285Z</time></trkpt><trkpt lat="44.553551" lon="8.7726876"><ele>763.4000000000001</ele><time>2026-04-11T10:23:12.285Z</time></trkpt><trkpt lat="44.5534747" lon="8.7728154"><ele>761.5999999999999</ele><time>2026-04-11T10:23:13.285Z</time></trkpt><trkpt lat="44.5534184" lon="8.7729402"><ele>759.8</ele><time>2026-04-11T10:23:14.285Z</time></trkpt><trkpt lat="44.5533664" lon="8.7730556"><ele>758.0</ele><time>2026-04-11T10:23:15.285Z</time></trkpt><trkpt lat="44.5533224" lon="8.7731488"><ele>758.0</ele><time>2026-04-11T10:23:16.285Z</time></trkpt><trkpt lat="44.5532564" lon="8.7732185"><ele>758.0</ele><time>2026-04-11T10:23:17.285Z</time></trkpt><trkpt lat="44.5531814" lon="8.7732474"><ele>758.0</ele><time>2026-04-11T10:23:18.285Z</time></trkpt><trkpt lat="44.5530853" lon="8.7732591"><ele>758.0</ele><time>2026-04-11T10:23:19.285Z</time></trkpt><trkpt lat="44.5529926" lon="8.773241"><ele>758.0</ele><time>2026-04-11T10:23:20.285Z</time></trkpt><trkpt lat="44.552881" lon="8.7732334"><ele>757.25</ele><time>2026-04-11T10:23:21.285Z</time></trkpt><trkpt lat="44.5527659" lon="8.7732241"><ele>756.5</ele><time>2026-04-11T10:23:22.285Z</time></trkpt><trkpt lat="44.5526479" lon="8.7732269"><ele>755.75</ele><time>2026-04-11T10:23:23.286Z</time></trkpt><trkpt lat="44.5525291" lon="8.7732312"><ele>755.0</ele><time>2026-04-11T10:23:24.285Z</time></trkpt><trkpt lat="44.5524181" lon="8.7732531"><ele>755.0</ele><time>2026-04-11T10:23:25.285Z</time></trkpt><trkpt lat="44.5523158" lon="8.7733002"><ele>755.0</ele><time>2026-04-11T10:23:26.285Z</time></trkpt><trkpt lat="44.5522159" lon="8.7733639"><ele>755.0</ele><time>2026-04-11T10:23:27.285Z</time></trkpt><trkpt lat="44.5521081" lon="8.7734236"><ele>755.0</ele><time>2026-04-11T10:23:28.285Z</time></trkpt><trkpt lat="44.5520036" lon="8.7734811"><ele>755.0</ele><time>2026-04-11T10:23:29.286Z</time></trkpt><trkpt lat="44.5519009" lon="8.773543"><ele>757.0</ele><time>2026-04-11T10:23:30.286Z</time></trkpt><trkpt lat="44.551806" lon="8.7736022"><ele>759.0</ele><time>2026-04-11T10:23:31.286Z</time></trkpt><trkpt lat="44.5517098" lon="8.7736714"><ele>761.0</ele><time>2026-04-11T10:23:32.285Z</time></trkpt><trkpt lat="44.5516191" lon="8.7737375"><ele>763.0</ele><time>2026-04-11T10:23:33.285Z</time></trkpt><trkpt lat="44.5515387" lon="8.7737931"><ele>765.0</ele><time>2026-04-11T10:23:34.285Z</time></trkpt><trkpt lat="44.5514632" lon="8.7738385"><ele>765.0</ele><time>2026-04-11T10:23:35.285Z</time></trkpt><trkpt lat="44.5513902" lon="8.7738769"><ele>765.0</ele><time>2026-04-11T10:23:36.286Z</time></trkpt><trkpt lat="44.5513237" lon="8.7738944"><ele>765.0</ele><time>2026-04-11T10:23:37.286Z</time></trkpt><trkpt lat="44.5512461" lon="8.7739014"><ele>765.0</ele><time>2026-04-11T10:23:38.286Z</time></trkpt><trkpt lat="44.5511578" lon="8.7739026"><ele>765.0</ele><time>2026-04-11T10:23:39.285Z</time></trkpt><trkpt lat="44.5510767" lon="8.7738826"><ele>765.0</ele><time>2026-04-11T10:23:40.285Z</time></trkpt><trkpt lat="44.5510039" lon="8.7738408"><ele>764.1666666666666</ele><time>2026-04-11T10:23:41.286Z</time></trkpt><trkpt lat="44.550946" lon="8.7737784"><ele>763.3333333333334</ele><time>2026-04-11T10:23:42.285Z</time></trkpt><trkpt lat="44.5508968" lon="8.7736893"><ele>762.5</ele><time>2026-04-11T10:23:43.285Z</time></trkpt><trkpt lat="44.550855" lon="8.7735825"><ele>761.6666666666667</ele><time>2026-04-11T10:23:44.286Z</time></trkpt><trkpt lat="44.550826" lon="8.7734852"><ele>760.8333333333334</ele><time>2026-04-11T10:23:45.285Z</time></trkpt><trkpt lat="44.5507988" lon="8.7733811"><ele>760.0</ele><time>2026-04-11T10:23:46.285Z</time></trkpt><trkpt lat="44.5507537" lon="8.7732861"><ele>760.0</ele><time>2026-04-11T10:23:47.285Z</time></trkpt><trkpt lat="44.5506873" lon="8.7732167"><ele>760.0</ele><time>2026-04-11T10:23:48.285Z</time></trkpt><trkpt lat="44.5505911" lon="8.7731514"><ele>760.0</ele><time>2026-04-11T10:23:49.285Z</time></trkpt><trkpt lat="44.5504844" lon="8.7730889"><ele>760.0</ele><time>2026-04-11T10:23:50.286Z</time></trkpt><trkpt lat="44.5503813" lon="8.7730582"><ele>760.0</ele><time>2026-04-11T10:23:51.286Z</time></trkpt><trkpt lat="44.5502701" lon="8.7730634"><ele>762.8</ele><time>2026-04-11T10:23:52.285Z</time></trkpt><trkpt lat="44.5501671" lon="8.7730973"><ele>765.6</ele><time>2026-04-11T10:23:53.285Z</time></trkpt><trkpt lat="44.550075" lon="8.77312"><ele>768.4000000000001</ele><time>2026-04-11T10:23:54.285Z</time></trkpt><trkpt lat="44.5499696" lon="8.7731134"><ele>771.2</ele><time>2026-04-11T10:23:55.285Z</time></trkpt><trkpt lat="44.549888" lon="8.7730684"><ele>774.0</ele><time>2026-04-11T10:23:56.285Z</time></trkpt><trkpt lat="44.5498227" lon="8.7730198"><ele>774.0</ele><time>2026-04-11T10:23:57.285Z</time></trkpt><trkpt lat="44.5497736" lon="8.7729492"><ele>774.0</ele><time>2026-04-11T10:23:58.285Z</time></trkpt><trkpt lat="44.5497459" lon="8.7728612"><ele>774.0</ele><time>2026-04-11T10:23:59.285Z</time></trkpt><trkpt lat="44.5497122" lon="8.7727646"><ele>774.0</ele><time>2026-04-11T10:24:00.286Z</time></trkpt><trkpt lat="44.5496692" lon="8.7726922"><ele>774.0</ele><time>2026-04-11T10:24:01.286Z</time></trkpt><trkpt lat="44.5496166" lon="8.7726273"><ele>774.0</ele><time>2026-04-11T10:24:02.285Z</time></trkpt><trkpt lat="44.5495627" lon="8.7725712"><ele>774.0</ele><time>2026-04-11T10:24:03.286Z</time></trkpt><trkpt lat="44.5495068" lon="8.7725283"><ele>773.4000000000001</ele><time>2026-04-11T10:24:04.286Z</time></trkpt><trkpt lat="44.5493965" lon="8.7724904"><ele>772.8</ele><time>2026-04-11T10:24:06.285Z</time></trkpt><trkpt lat="44.549284" lon="8.772488"><ele>772.2</ele><time>2026-04-11T10:24:08.286Z</time></trkpt><trkpt lat="44.5491589" lon="8.7724854"><ele>771.5999999999999</ele><time>2026-04-11T10:24:10.285Z</time></trkpt><trkpt lat="44.5490889" lon="8.772485"><ele>771.0</ele><time>2026-04-11T10:24:11.285Z</time></trkpt><trkpt lat="44.5490191" lon="8.772486"><ele>771.0</ele><time>2026-04-11T10:24:12.286Z</time></trkpt><trkpt lat="44.5489524" lon="8.7724854"><ele>771.0</ele><time>2026-04-11T10:24:13.285Z</time></trkpt><trkpt lat="44.54884" lon="8.7724657"><ele>771.0</ele><time>2026-04-11T10:24:15.285Z</time></trkpt><trkpt lat="44.5487373" lon="8.7724425"><ele>771.0</ele><time>2026-04-11T10:24:17.285Z</time></trkpt><trkpt lat="44.5486707" lon="8.7724295"><ele>771.0</ele><time>2026-04-11T10:24:19.285Z</time></trkpt><trkpt lat="44.5485464" lon="8.7723849"><ele>771.8333333333334</ele><time>2026-04-11T10:24:36.285Z</time></trkpt><trkpt lat="44.5484658" lon="8.7723731"><ele>772.6666666666667</ele><time>2026-04-11T10:24:37.285Z</time></trkpt><trkpt lat="44.5483737" lon="8.7723595"><ele>773.5</ele><time>2026-04-11T10:24:38.285Z</time></trkpt><trkpt lat="44.5482848" lon="8.7723502"><ele>774.3333333333334</ele><time>2026-04-11T10:24:39.285Z</time></trkpt><trkpt lat="44.5482027" lon="8.772322"><ele>775.1666666666667</ele><time>2026-04-11T10:24:40.286Z</time></trkpt><trkpt lat="44.5481197" lon="8.7723108"><ele>776.0</ele><time>2026-04-11T10:24:41.285Z</time></trkpt><trkpt lat="44.5480359" lon="8.7723021"><ele>776.0</ele><time>2026-04-11T10:24:42.285Z</time></trkpt><trkpt lat="44.5479432" lon="8.772307"><ele>776.0</ele><time>2026-04-11T10:24:43.285Z</time></trkpt><trkpt lat="44.5478488" lon="8.7723138"><ele>776.0</ele><time>2026-04-11T10:24:44.285Z</time></trkpt><trkpt lat="44.5477533" lon="8.772326"><ele>776.0</ele><time>2026-04-11T10:24:45.285Z</time></trkpt><trkpt lat="44.5476532" lon="8.7723419"><ele>776.0</ele><time>2026-04-11T10:24:46.286Z</time></trkpt><trkpt lat="44.5475559" lon="8.7723381"><ele>776.5999999999999</ele><time>2026-04-11T10:24:47.286Z</time></trkpt><trkpt lat="44.5474666" lon="8.7723204"><ele>777.2</ele><time>2026-04-11T10:24:48.285Z</time></trkpt><trkpt lat="44.5473811" lon="8.7723039"><ele>777.8</ele><time>2026-04-11T10:24:49.285Z</time></trkpt><trkpt lat="44.547274" lon="8.7723134"><ele>778.4000000000001</ele><time>2026-04-11T10:24:50.285Z</time></trkpt><trkpt lat="44.5471608" lon="8.7723053"><ele>779.0</ele><time>2026-04-11T10:24:51.285Z</time></trkpt><trkpt lat="44.5470692" lon="8.7722511"><ele>780.1666666666667</ele><time>2026-04-11T10:24:52.285Z</time></trkpt><trkpt lat="44.5469911" lon="8.7721931"><ele>781.3333333333334</ele><time>2026-04-11T10:24:53.285Z</time></trkpt><trkpt lat="44.5469103" lon="8.7721598"><ele>782.5</ele><time>2026-04-11T10:24:54.286Z</time></trkpt><trkpt lat="44.5468276" lon="8.7721325"><ele>783.6666666666667</ele><time>2026-04-11T10:24:55.285Z</time></trkpt><trkpt lat="44.546744" lon="8.7721065"><ele>784.8333333333334</ele><time>2026-04-11T10:24:56.285Z</time></trkpt><trkpt lat="44.5466551" lon="8.7720749"><ele>786.0</ele><time>2026-04-11T10:24:57.285Z</time></trkpt><trkpt lat="44.5465514" lon="8.7720448"><ele>786.0</ele><time>2026-04-11T10:24:58.285Z</time></trkpt><trkpt lat="44.5464665" lon="8.7719989"><ele>786.0</ele><time>2026-04-11T10:24:59.285Z</time></trkpt><trkpt lat="44.5463758" lon="8.7719479"><ele>786.0</ele><time>2026-04-11T10:25:00.285Z</time></trkpt><trkpt lat="44.546278" lon="8.7718866"><ele>786.0</ele><time>2026-04-11T10:25:01.286Z</time></trkpt><trkpt lat="44.5461808" lon="8.7718103"><ele>786.0</ele><time>2026-04-11T10:25:02.285Z</time></trkpt><trkpt lat="44.5460914" lon="8.7717352"><ele>780.6666666666667</ele><time>2026-04-11T10:25:03.285Z</time></trkpt><trkpt lat="44.5459969" lon="8.7716851"><ele>775.3333333333334</ele><time>2026-04-11T10:25:04.286Z</time></trkpt><trkpt lat="44.5457952" lon="8.7716493"><ele>770.0</ele><time>2026-04-11T10:25:07.286Z</time></trkpt><trkpt lat="44.5455842" lon="8.7717125"><ele>770.0</ele><time>2026-04-11T10:25:08.285Z</time></trkpt><trkpt lat="44.5455062" lon="8.7716876"><ele>770.0</ele><time>2026-04-11T10:25:09.285Z</time></trkpt><trkpt lat="44.5453932" lon="8.7716865"><ele>770.0</ele><time>2026-04-11T10:25:10.286Z</time></trkpt><trkpt lat="44.5452922" lon="8.7716728"><ele>770.0</ele><time>2026-04-11T10:25:11.285Z</time></trkpt><trkpt lat="44.5451877" lon="8.771637"><ele>770.0</ele><time>2026-04-11T10:25:12.286Z</time></trkpt><trkpt lat="44.5450738" lon="8.7716004"><ele>772.5</ele><time>2026-04-11T10:25:13.285Z</time></trkpt><trkpt lat="44.5449566" lon="8.7715563"><ele>775.0</ele><time>2026-04-11T10:25:14.285Z</time></trkpt><trkpt lat="44.5448506" lon="8.7715229"><ele>777.5</ele><time>2026-04-11T10:25:15.285Z</time></trkpt><trkpt lat="44.5447373" lon="8.7714832"><ele>780.0</ele><time>2026-04-11T10:25:16.285Z</time></trkpt><trkpt lat="44.5446198" lon="8.7714667"><ele>780.8</ele><time>2026-04-11T10:25:17.286Z</time></trkpt><trkpt lat="44.5445053" lon="8.7714569"><ele>781.6</ele><time>2026-04-11T10:25:18.285Z</time></trkpt><trkpt lat="44.5443935" lon="8.7714622"><ele>782.4000000000001</ele><time>2026-04-11T10:25:19.285Z</time></trkpt><trkpt lat="44.5442903" lon="8.7714813"><ele>783.2</ele><time>2026-04-11T10:25:20.285Z</time></trkpt><trkpt lat="44.5442059" lon="8.771504"><ele>784.0</ele><time>2026-04-11T10:25:21.285Z</time></trkpt><trkpt lat="44.5441385" lon="8.7715446"><ele>784.0</ele><time>2026-04-11T10:25:22.285Z</time></trkpt><trkpt lat="44.5440723" lon="8.7716019"><ele>784.0</ele><time>2026-04-11T10:25:23.286Z</time></trkpt><trkpt lat="44.544002" lon="8.7716747"><ele>784.0</ele><time>2026-04-11T10:25:24.286Z</time></trkpt><trkpt lat="44.5439124" lon="8.7717516"><ele>784.0</ele><time>2026-04-11T10:25:25.285Z</time></trkpt><trkpt lat="44.5438196" lon="8.771826"><ele>784.0</ele><time>2026-04-11T10:25:26.285Z</time></trkpt><trkpt lat="44.5437327" lon="8.7719125"><ele>787.0</ele><time>2026-04-11T10:25:27.285Z</time></trkpt><trkpt lat="44.5436518" lon="8.7720042"><ele>790.0</ele><time>2026-04-11T10:25:28.285Z</time></trkpt><trkpt lat="44.5435787" lon="8.7721136"><ele>793.0</ele><time>2026-04-11T10:25:29.285Z</time></trkpt><trkpt lat="44.5435086" lon="8.7722084"><ele>796.0</ele><time>2026-04-11T10:25:30.285Z</time></trkpt><trkpt lat="44.5434384" lon="8.7723073"><ele>799.0</ele><time>2026-04-11T10:25:31.285Z</time></trkpt><trkpt lat="44.5433585" lon="8.7723622"><ele>798.9999999999999</ele><time>2026-04-11T10:25:32.285Z</time></trkpt><trkpt lat="44.5432652" lon="8.7723763"><ele>799.0</ele><time>2026-04-11T10:25:33.285Z</time></trkpt><trkpt lat="44.5431669" lon="8.7723518"><ele>799.0</ele><time>2026-04-11T10:25:34.285Z</time></trkpt><trkpt lat="44.5430758" lon="8.7723361"><ele>799.0</ele><time>2026-04-11T10:25:35.285Z</time></trkpt><trkpt lat="44.5429913" lon="8.77237"><ele>798.9999999999999</ele><time>2026-04-11T10:25:36.285Z</time></trkpt><trkpt lat="44.5429288" lon="8.7724181"><ele>799.0</ele><time>2026-04-11T10:25:37.285Z</time></trkpt><trkpt lat="44.5428725" lon="8.7724705"><ele>799.0</ele><time>2026-04-11T10:25:38.285Z</time></trkpt><trkpt lat="44.5428119" lon="8.7726285"><ele>799.0</ele><time>2026-04-11T10:25:40.285Z</time></trkpt><trkpt lat="44.5427906" lon="8.7727236"><ele>799.0</ele><time>2026-04-11T10:25:41.285Z</time></trkpt><trkpt lat="44.5427672" lon="8.7728155"><ele>799.0</ele><time>2026-04-11T10:25:42.285Z</time></trkpt><trkpt lat="44.5427402" lon="8.7729317"><ele>799.0</ele><time>2026-04-11T10:25:43.285Z</time></trkpt><trkpt lat="44.5427052" lon="8.7730581"><ele>798.9999999999999</ele><time>2026-04-11T10:25:44.285Z</time></trkpt><trkpt lat="44.542671" lon="8.7731852"><ele>799.0</ele><time>2026-04-11T10:25:45.285Z</time></trkpt><trkpt lat="44.5426357" lon="8.773293"><ele>799.0</ele><time>2026-04-11T10:25:46.285Z</time></trkpt><trkpt lat="44.5425959" lon="8.7733924"><ele>799.0</ele><time>2026-04-11T10:25:47.285Z</time></trkpt><trkpt lat="44.5425759" lon="8.7734889"><ele>798.9999999999999</ele><time>2026-04-11T10:25:48.285Z</time></trkpt><trkpt lat="44.5425605" lon="8.7735956"><ele>799.0</ele><time>2026-04-11T10:25:49.285Z</time></trkpt><trkpt lat="44.5425554" lon="8.7736855"><ele>797.8000000000001</ele><time>2026-04-11T10:25:50.285Z</time></trkpt><trkpt lat="44.5425574" lon="8.7737795"><ele>796.6</ele><time>2026-04-11T10:25:51.285Z</time></trkpt><trkpt lat="44.5426008" lon="8.7739381"><ele>795.4</ele><time>2026-04-11T10:25:53.285Z</time></trkpt><trkpt lat="44.5426458" lon="8.7740454"><ele>794.2</ele><time>2026-04-11T10:25:54.285Z</time></trkpt><trkpt lat="44.5427044" lon="8.7741596"><ele>793.0</ele><time>2026-04-11T10:25:55.285Z</time></trkpt><trkpt lat="44.5427638" lon="8.7742712"><ele>793.8333333333333</ele><time>2026-04-11T10:25:56.285Z</time></trkpt><trkpt lat="44.5428137" lon="8.7743773"><ele>794.6666666666666</ele><time>2026-04-11T10:25:57.285Z</time></trkpt><trkpt lat="44.5428528" lon="8.7744857"><ele>795.5</ele><time>2026-04-11T10:25:58.286Z</time></trkpt><trkpt lat="44.5428719" lon="8.7745863"><ele>796.3333333333333</ele><time>2026-04-11T10:25:59.286Z</time></trkpt><trkpt lat="44.54288" lon="8.7746781"><ele>797.1666666666666</ele><time>2026-04-11T10:26:00.285Z</time></trkpt><trkpt lat="44.5428745" lon="8.7747854"><ele>798.0</ele><time>2026-04-11T10:26:01.285Z</time></trkpt><trkpt lat="44.5428592" lon="8.7748952"><ele>798.0</ele><time>2026-04-11T10:26:02.286Z</time></trkpt><trkpt lat="44.5428294" lon="8.7749947"><ele>798.0</ele><time>2026-04-11T10:26:03.285Z</time></trkpt><trkpt lat="44.542811" lon="8.775112"><ele>798.0</ele><time>2026-04-11T10:26:04.286Z</time></trkpt><trkpt lat="44.5428093" lon="8.7752302"><ele>798.0</ele><time>2026-04-11T10:26:05.285Z</time></trkpt><trkpt lat="44.5428171" lon="8.7753465"><ele>798.0</ele><time>2026-04-11T10:26:06.285Z</time></trkpt><trkpt lat="44.5428213" lon="8.7754528"><ele>798.0</ele><time>2026-04-11T10:26:07.285Z</time></trkpt><trkpt lat="44.5428111" lon="8.7755593"><ele>799.8333333333334</ele><time>2026-04-11T10:26:08.286Z</time></trkpt><trkpt lat="44.5427827" lon="8.7756566"><ele>801.6666666666667</ele><time>2026-04-11T10:26:09.285Z</time></trkpt><trkpt lat="44.5427375" lon="8.7757493"><ele>803.5</ele><time>2026-04-11T10:26:10.285Z</time></trkpt><trkpt lat="44.5427159" lon="8.7758558"><ele>805.3333333333334</ele><time>2026-04-11T10:26:11.285Z</time></trkpt><trkpt lat="44.5427109" lon="8.7759599"><ele>807.1666666666667</ele><time>2026-04-11T10:26:12.285Z</time></trkpt><trkpt lat="44.542739" lon="8.7760922"><ele>809.0</ele><time>2026-04-11T10:26:13.285Z</time></trkpt><trkpt lat="44.5427719" lon="8.7762284"><ele>809.0</ele><time>2026-04-11T10:26:14.285Z</time></trkpt><trkpt lat="44.5428044" lon="8.7763596"><ele>809.0</ele><time>2026-04-11T10:26:15.285Z</time></trkpt><trkpt lat="44.5428391" lon="8.7765169"><ele>809.0</ele><time>2026-04-11T10:26:16.285Z</time></trkpt><trkpt lat="44.5428587" lon="8.7766859"><ele>809.0</ele><time>2026-04-11T10:26:17.285Z</time></trkpt><trkpt lat="44.5428679" lon="8.7768442"><ele>808.75</ele><time>2026-04-11T10:26:18.285Z</time></trkpt><trkpt lat="44.5428665" lon="8.7770097"><ele>808.5</ele><time>2026-04-11T10:26:19.285Z</time></trkpt><trkpt lat="44.5428608" lon="8.7771878"><ele>808.25</ele><time>2026-04-11T10:26:20.285Z</time></trkpt><trkpt lat="44.5428567" lon="8.7773662"><ele>808.0</ele><time>2026-04-11T10:26:21.285Z</time></trkpt><trkpt lat="44.542837" lon="8.7775405"><ele>810.25</ele><time>2026-04-11T10:26:22.286Z</time></trkpt><trkpt lat="44.5428231" lon="8.7777"><ele>812.5</ele><time>2026-04-11T10:26:23.285Z</time></trkpt><trkpt lat="44.5427956" lon="8.7778327"><ele>814.75</ele><time>2026-04-11T10:26:24.285Z</time></trkpt><trkpt lat="44.542741" lon="8.7779688"><ele>817.0</ele><time>2026-04-11T10:26:25.286Z</time></trkpt><trkpt lat="44.542665" lon="8.7781094"><ele>817.0</ele><time>2026-04-11T10:26:26.285Z</time></trkpt><trkpt lat="44.5425778" lon="8.7782472"><ele>817.0</ele><time>2026-04-11T10:26:27.285Z</time></trkpt><trkpt lat="44.5424778" lon="8.7783916"><ele>817.0</ele><time>2026-04-11T10:26:28.285Z</time></trkpt><trkpt lat="44.5423972" lon="8.7785374"><ele>817.0</ele><time>2026-04-11T10:26:29.285Z</time></trkpt><trkpt lat="44.5423159" lon="8.7786925"><ele>816.6</ele><time>2026-04-11T10:26:30.285Z</time></trkpt><trkpt lat="44.5422525" lon="8.778831"><ele>816.2</ele><time>2026-04-11T10:26:31.286Z</time></trkpt><trkpt lat="44.5421872" lon="8.7789704"><ele>815.8</ele><time>2026-04-11T10:26:32.285Z</time></trkpt><trkpt lat="44.5421235" lon="8.7790812"><ele>815.4</ele><time>2026-04-11T10:26:33.286Z</time></trkpt><trkpt lat="44.542044" lon="8.7791805"><ele>815.0</ele><time>2026-04-11T10:26:34.285Z</time></trkpt><trkpt lat="44.5419571" lon="8.7792796"><ele>817.2</ele><time>2026-04-11T10:26:35.285Z</time></trkpt><trkpt lat="44.5418689" lon="8.7793952"><ele>819.4</ele><time>2026-04-11T10:26:36.285Z</time></trkpt><trkpt lat="44.5417899" lon="8.779494"><ele>821.5999999999999</ele><time>2026-04-11T10:26:37.286Z</time></trkpt><trkpt lat="44.5417085" lon="8.779569"><ele>823.8</ele><time>2026-04-11T10:26:38.286Z</time></trkpt><trkpt lat="44.5416114" lon="8.7796123"><ele>826.0</ele><time>2026-04-11T10:26:39.285Z</time></trkpt><trkpt lat="44.5415026" lon="8.779656"><ele>826.0</ele><time>2026-04-11T10:26:40.285Z</time></trkpt><trkpt lat="44.5413894" lon="8.7797023"><ele>826.0</ele><time>2026-04-11T10:26:41.285Z</time></trkpt><trkpt lat="44.5412853" lon="8.779763"><ele>826.0</ele><time>2026-04-11T10:26:42.285Z</time></trkpt><trkpt lat="44.5411835" lon="8.7798659"><ele>826.0</ele><time>2026-04-11T10:26:43.285Z</time></trkpt><trkpt lat="44.5410785" lon="8.7799769"><ele>826.5</ele><time>2026-04-11T10:26:44.286Z</time></trkpt><trkpt lat="44.5409745" lon="8.7800856"><ele>827.0</ele><time>2026-04-11T10:26:45.285Z</time></trkpt><trkpt lat="44.5408748" lon="8.7801754"><ele>827.5</ele><time>2026-04-11T10:26:46.285Z</time></trkpt><trkpt lat="44.5407842" lon="8.7802399"><ele>828.0</ele><time>2026-04-11T10:26:47.285Z</time></trkpt><trkpt lat="44.5406887" lon="8.7802829"><ele>828.0</ele><time>2026-04-11T10:26:48.285Z</time></trkpt><trkpt lat="44.5405814" lon="8.7803194"><ele>828.0</ele><time>2026-04-11T10:26:49.285Z</time></trkpt><trkpt lat="44.540475" lon="8.7803597"><ele>828.0</ele><time>2026-04-11T10:26:50.285Z</time></trkpt><trkpt lat="44.5403791" lon="8.7804234"><ele>828.0</ele><time>2026-04-11T10:26:51.286Z</time></trkpt><trkpt lat="44.5402869" lon="8.7805176"><ele>828.0</ele><time>2026-04-11T10:26:52.286Z</time></trkpt><trkpt lat="44.5401859" lon="8.7806231"><ele>826.75</ele><time>2026-04-11T10:26:53.285Z</time></trkpt><trkpt lat="44.5400586" lon="8.7807026"><ele>825.5</ele><time>2026-04-11T10:26:54.286Z</time></trkpt><trkpt lat="44.539922" lon="8.7807575"><ele>824.25</ele><time>2026-04-11T10:26:55.285Z</time></trkpt><trkpt lat="44.5397763" lon="8.7808062"><ele>823.0</ele><time>2026-04-11T10:26:56.285Z</time></trkpt><trkpt lat="44.5396246" lon="8.7808652"><ele>822.3333333333333</ele><time>2026-04-11T10:26:57.285Z</time></trkpt><trkpt lat="44.5394713" lon="8.7809161"><ele>821.6666666666667</ele><time>2026-04-11T10:26:58.285Z</time></trkpt><trkpt lat="44.5393171" lon="8.7809659"><ele>821.0</ele><time>2026-04-11T10:26:59.286Z</time></trkpt><trkpt lat="44.5391649" lon="8.781017"><ele>826.3333333333334</ele><time>2026-04-11T10:27:00.285Z</time></trkpt><trkpt lat="44.5390163" lon="8.7810728"><ele>831.6666666666667</ele><time>2026-04-11T10:27:01.285Z</time></trkpt><trkpt lat="44.5388663" lon="8.7811257"><ele>837.0</ele><time>2026-04-11T10:27:02.285Z</time></trkpt><trkpt lat="44.5387243" lon="8.7811743"><ele>839.0</ele><time>2026-04-11T10:27:03.285Z</time></trkpt><trkpt lat="44.5385862" lon="8.7812248"><ele>841.0</ele><time>2026-04-11T10:27:04.285Z</time></trkpt><trkpt lat="44.5384659" lon="8.7812699"><ele>843.0</ele><time>2026-04-11T10:27:05.285Z</time></trkpt><trkpt lat="44.5383548" lon="8.7812925"><ele>845.0</ele><time>2026-04-11T10:27:06.286Z</time></trkpt><trkpt lat="44.5382586" lon="8.7812895"><ele>845.0</ele><time>2026-04-11T10:27:07.286Z</time></trkpt><trkpt lat="44.5381793" lon="8.7812438"><ele>845.0</ele><time>2026-04-11T10:27:08.285Z</time></trkpt><trkpt lat="44.538091" lon="8.7811792"><ele>845.0</ele><time>2026-04-11T10:27:09.285Z</time></trkpt><trkpt lat="44.5380054" lon="8.7810777"><ele>845.0</ele><time>2026-04-11T10:27:10.285Z</time></trkpt><trkpt lat="44.5379031" lon="8.7809538"><ele>845.0</ele><time>2026-04-11T10:27:11.285Z</time></trkpt><trkpt lat="44.5377924" lon="8.7808259"><ele>846.5</ele><time>2026-04-11T10:27:12.286Z</time></trkpt><trkpt lat="44.537682" lon="8.7807"><ele>848.0</ele><time>2026-04-11T10:27:13.285Z</time></trkpt><trkpt lat="44.5375778" lon="8.7805674"><ele>849.5</ele><time>2026-04-11T10:27:14.285Z</time></trkpt><trkpt lat="44.5374809" lon="8.7804485"><ele>851.0</ele><time>2026-04-11T10:27:15.285Z</time></trkpt><trkpt lat="44.5373934" lon="8.780345"><ele>851.0</ele><time>2026-04-11T10:27:16.285Z</time></trkpt><trkpt lat="44.5373057" lon="8.7802371"><ele>851.0</ele><time>2026-04-11T10:27:17.285Z</time></trkpt><trkpt lat="44.5372103" lon="8.7801248"><ele>851.0</ele><time>2026-04-11T10:27:18.285Z</time></trkpt><trkpt lat="44.537119" lon="8.7800228"><ele>851.0</ele><time>2026-04-11T10:27:19.286Z</time></trkpt><trkpt lat="44.5370241" lon="8.7799416"><ele>853.0</ele><time>2026-04-11T10:27:20.285Z</time></trkpt><trkpt lat="44.5369113" lon="8.7798603"><ele>855.0</ele><time>2026-04-11T10:27:21.285Z</time></trkpt><trkpt lat="44.5367824" lon="8.7797788"><ele>857.0</ele><time>2026-04-11T10:27:22.286Z</time></trkpt><trkpt lat="44.5366531" lon="8.7796816"><ele>859.0</ele><time>2026-04-11T10:27:23.285Z</time></trkpt><trkpt lat="44.5365108" lon="8.7795791"><ele>859.0</ele><time>2026-04-11T10:27:24.285Z</time></trkpt><trkpt lat="44.536368" lon="8.7794723"><ele>859.0</ele><time>2026-04-11T10:27:25.285Z</time></trkpt><trkpt lat="44.5362253" lon="8.7793573"><ele>859.0</ele><time>2026-04-11T10:27:26.285Z</time></trkpt><trkpt lat="44.5360864" lon="8.7792414"><ele>859.0</ele><time>2026-04-11T10:27:27.285Z</time></trkpt><trkpt lat="44.535953" lon="8.7791263"><ele>859.0</ele><time>2026-04-11T10:27:28.286Z</time></trkpt><trkpt lat="44.5358144" lon="8.7790072"><ele>859.0</ele><time>2026-04-11T10:27:29.285Z</time></trkpt><trkpt lat="44.5356729" lon="8.778882"><ele>859.0</ele><time>2026-04-11T10:27:30.285Z</time></trkpt><trkpt lat="44.5355315" lon="8.7787629"><ele>859.0</ele><time>2026-04-11T10:27:31.284Z</time></trkpt><trkpt lat="44.5353923" lon="8.7786361"><ele>859.0</ele><time>2026-04-11T10:27:32.284Z</time></trkpt><trkpt lat="44.5352498" lon="8.7785088"><ele>860.6666666666666</ele><time>2026-04-11T10:27:33.284Z</time></trkpt><trkpt lat="44.5351098" lon="8.7783873"><ele>862.3333333333333</ele><time>2026-04-11T10:27:34.285Z</time></trkpt><trkpt lat="44.5349783" lon="8.7782689"><ele>864.0</ele><time>2026-04-11T10:27:35.285Z</time></trkpt><trkpt lat="44.5348486" lon="8.7781553"><ele>864.0</ele><time>2026-04-11T10:27:36.284Z</time></trkpt><trkpt lat="44.5347143" lon="8.7780439"><ele>864.0</ele><time>2026-04-11T10:27:37.284Z</time></trkpt><trkpt lat="44.5345785" lon="8.7779374"><ele>864.0</ele><time>2026-04-11T10:27:38.284Z</time></trkpt><trkpt lat="44.5344464" lon="8.7778283"><ele>865.6666666666667</ele><time>2026-04-11T10:27:39.284Z</time></trkpt><trkpt lat="44.5343079" lon="8.7777176"><ele>867.3333333333334</ele><time>2026-04-11T10:27:40.285Z</time></trkpt><trkpt lat="44.5341694" lon="8.7776054"><ele>869.0</ele><time>2026-04-11T10:27:41.285Z</time></trkpt><trkpt lat="44.5340347" lon="8.7774951"><ele>869.0</ele><time>2026-04-11T10:27:42.285Z</time></trkpt><trkpt lat="44.5339033" lon="8.7773911"><ele>869.0</ele><time>2026-04-11T10:27:43.285Z</time></trkpt><trkpt lat="44.5337797" lon="8.7772884"><ele>869.0</ele><time>2026-04-11T10:27:44.284Z</time></trkpt><trkpt lat="44.5336631" lon="8.7771921"><ele>869.0</ele><time>2026-04-11T10:27:45.284Z</time></trkpt><trkpt lat="44.5335522" lon="8.7771036"><ele>869.2</ele><time>2026-04-11T10:27:46.284Z</time></trkpt><trkpt lat="44.5334578" lon="8.7770229"><ele>869.4000000000001</ele><time>2026-04-11T10:27:47.284Z</time></trkpt><trkpt lat="44.5333717" lon="8.7769527"><ele>869.6</ele><time>2026-04-11T10:27:48.284Z</time></trkpt><trkpt lat="44.5332964" lon="8.7768886"><ele>869.8</ele><time>2026-04-11T10:27:49.284Z</time></trkpt><trkpt lat="44.5332239" lon="8.7768321"><ele>870.0</ele><time>2026-04-11T10:27:50.285Z</time></trkpt><trkpt lat="44.5331384" lon="8.7767752"><ele>870.0</ele><time>2026-04-11T10:27:51.285Z</time></trkpt><trkpt lat="44.5330339" lon="8.7767287"><ele>870.0</ele><time>2026-04-11T10:27:52.284Z</time></trkpt><trkpt lat="44.5329185" lon="8.7766849"><ele>870.0</ele><time>2026-04-11T10:27:53.285Z</time></trkpt><trkpt lat="44.5327901" lon="8.7766517"><ele>870.0</ele><time>2026-04-11T10:27:54.284Z</time></trkpt><trkpt lat="44.5326571" lon="8.7766334"><ele>872.5</ele><time>2026-04-11T10:27:55.284Z</time></trkpt><trkpt lat="44.5325224" lon="8.7766109"><ele>875.0</ele><time>2026-04-11T10:27:56.284Z</time></trkpt><trkpt lat="44.5323894" lon="8.776573"><ele>877.5</ele><time>2026-04-11T10:27:57.285Z</time></trkpt><trkpt lat="44.5322583" lon="8.776532"><ele>880.0</ele><time>2026-04-11T10:27:58.284Z</time></trkpt><trkpt lat="44.5321183" lon="8.7765042"><ele>881.5</ele><time>2026-04-11T10:27:59.284Z</time></trkpt><trkpt lat="44.5319895" lon="8.776487"><ele>883.0</ele><time>2026-04-11T10:28:00.284Z</time></trkpt><trkpt lat="44.531872" lon="8.7764727"><ele>884.5</ele><time>2026-04-11T10:28:01.285Z</time></trkpt><trkpt lat="44.5317651" lon="8.776451"><ele>886.0</ele><time>2026-04-11T10:28:02.284Z</time></trkpt><trkpt lat="44.5316706" lon="8.7764244"><ele>886.0</ele><time>2026-04-11T10:28:03.284Z</time></trkpt><trkpt lat="44.531582" lon="8.7764002"><ele>885.9999999999999</ele><time>2026-04-11T10:28:04.284Z</time></trkpt><trkpt lat="44.531506" lon="8.776367"><ele>885.9999999999999</ele><time>2026-04-11T10:28:05.284Z</time></trkpt><trkpt lat="44.5314407" lon="8.7763409"><ele>886.0</ele><time>2026-04-11T10:28:06.284Z</time></trkpt><trkpt lat="44.5313512" lon="8.7763229"><ele>886.0</ele><time>2026-04-11T10:28:08.285Z</time></trkpt><trkpt lat="44.531196" lon="8.7763388"><ele>887.4</ele><time>2026-04-11T10:28:39.284Z</time></trkpt><trkpt lat="44.5310783" lon="8.77636"><ele>888.8</ele><time>2026-04-11T10:28:41.285Z</time></trkpt><trkpt lat="44.5309982" lon="8.7763781"><ele>890.1999999999999</ele><time>2026-04-11T10:28:42.284Z</time></trkpt><trkpt lat="44.530914" lon="8.7763829"><ele>891.5999999999999</ele><time>2026-04-11T10:28:43.284Z</time></trkpt><trkpt lat="44.5308224" lon="8.7763776"><ele>893.0</ele><time>2026-04-11T10:28:44.284Z</time></trkpt><trkpt lat="44.530728" lon="8.7763582"><ele>893.0</ele><time>2026-04-11T10:28:45.284Z</time></trkpt><trkpt lat="44.5306234" lon="8.776328"><ele>893.0</ele><time>2026-04-11T10:28:46.284Z</time></trkpt><trkpt lat="44.5305189" lon="8.7763052"><ele>893.0</ele><time>2026-04-11T10:28:47.284Z</time></trkpt><trkpt lat="44.5304141" lon="8.7762898"><ele>893.0</ele><time>2026-04-11T10:28:48.284Z</time></trkpt><trkpt lat="44.5303079" lon="8.7762841"><ele>893.0</ele><time>2026-04-11T10:28:49.284Z</time></trkpt><trkpt lat="44.5301986" lon="8.7762993"><ele>893.25</ele><time>2026-04-11T10:28:50.284Z</time></trkpt><trkpt lat="44.5300879" lon="8.7763268"><ele>893.5</ele><time>2026-04-11T10:28:51.285Z</time></trkpt><trkpt lat="44.5299697" lon="8.776365"><ele>893.75</ele><time>2026-04-11T10:28:52.284Z</time></trkpt><trkpt lat="44.5298477" lon="8.7764113"><ele>894.0</ele><time>2026-04-11T10:28:53.284Z</time></trkpt><trkpt lat="44.5297169" lon="8.7764332"><ele>894.0</ele><time>2026-04-11T10:28:54.285Z</time></trkpt><trkpt lat="44.5295838" lon="8.7764219"><ele>894.0</ele><time>2026-04-11T10:28:55.284Z</time></trkpt><trkpt lat="44.5294571" lon="8.7763826"><ele>894.0</ele><time>2026-04-11T10:28:56.284Z</time></trkpt><trkpt lat="44.529341" lon="8.7763559"><ele>894.0</ele><time>2026-04-11T10:28:57.284Z</time></trkpt><trkpt lat="44.529245" lon="8.7763325"><ele>893.6</ele><time>2026-04-11T10:28:58.285Z</time></trkpt><trkpt lat="44.5291572" lon="8.7763194"><ele>893.2</ele><time>2026-04-11T10:28:59.284Z</time></trkpt><trkpt lat="44.5290815" lon="8.7763249"><ele>892.8000000000001</ele><time>2026-04-11T10:29:00.284Z</time></trkpt><trkpt lat="44.5290139" lon="8.7763554"><ele>892.4000000000001</ele><time>2026-04-11T10:29:01.284Z</time></trkpt><trkpt lat="44.5289338" lon="8.7764913"><ele>892.0</ele><time>2026-04-11T10:29:03.285Z</time></trkpt><trkpt lat="44.5289196" lon="8.7766186"><ele>892.0</ele><time>2026-04-11T10:29:04.284Z</time></trkpt><trkpt lat="44.5289075" lon="8.7767648"><ele>892.0</ele><time>2026-04-11T10:29:05.284Z</time></trkpt><trkpt lat="44.5288885" lon="8.7769319"><ele>892.0</ele><time>2026-04-11T10:29:06.285Z</time></trkpt><trkpt lat="44.5288598" lon="8.7771277"><ele>892.0</ele><time>2026-04-11T10:29:07.284Z</time></trkpt><trkpt lat="44.5288077" lon="8.777306"><ele>892.0</ele><time>2026-04-11T10:29:08.284Z</time></trkpt><trkpt lat="44.5287366" lon="8.7774792"><ele>892.0</ele><time>2026-04-11T10:29:09.285Z</time></trkpt><trkpt lat="44.5286585" lon="8.7776657"><ele>892.0</ele><time>2026-04-11T10:29:10.284Z</time></trkpt><trkpt lat="44.5285827" lon="8.7778542"><ele>892.0</ele><time>2026-04-11T10:29:11.284Z</time></trkpt><trkpt lat="44.5285073" lon="8.7780286"><ele>892.0</ele><time>2026-04-11T10:29:12.284Z</time></trkpt><trkpt lat="44.5284351" lon="8.7782051"><ele>892.0</ele><time>2026-04-11T10:29:13.284Z</time></trkpt><trkpt lat="44.5283444" lon="8.7783667"><ele>892.0</ele><time>2026-04-11T10:29:14.285Z</time></trkpt><trkpt lat="44.5282544" lon="8.7785114"><ele>896.25</ele><time>2026-04-11T10:29:15.284Z</time></trkpt><trkpt lat="44.5281476" lon="8.7786306"><ele>900.5</ele><time>2026-04-11T10:29:16.284Z</time></trkpt><trkpt lat="44.5280545" lon="8.7787331"><ele>904.75</ele><time>2026-04-11T10:29:17.284Z</time></trkpt><trkpt lat="44.5279662" lon="8.7788271"><ele>909.0</ele><time>2026-04-11T10:29:18.285Z</time></trkpt><trkpt lat="44.527888" lon="8.778906"><ele>901.4000000000001</ele><time>2026-04-11T10:29:19.284Z</time></trkpt><trkpt lat="44.527819" lon="8.7789921"><ele>893.8000000000001</ele><time>2026-04-11T10:29:20.284Z</time></trkpt><trkpt lat="44.5277788" lon="8.7790924"><ele>886.1999999999999</ele><time>2026-04-11T10:29:21.284Z</time></trkpt><trkpt lat="44.5277507" lon="8.779232"><ele>878.5999999999999</ele><time>2026-04-11T10:29:22.284Z</time></trkpt><trkpt lat="44.5277264" lon="8.7793985"><ele>871.0</ele><time>2026-04-11T10:29:23.284Z</time></trkpt><trkpt lat="44.5277144" lon="8.7795937"><ele>871.0</ele><time>2026-04-11T10:29:24.284Z</time></trkpt><trkpt lat="44.5277089" lon="8.779798"><ele>871.0</ele><time>2026-04-11T10:29:25.284Z</time></trkpt><trkpt lat="44.5276958" lon="8.7800256"><ele>871.0</ele><time>2026-04-11T10:29:26.285Z</time></trkpt><trkpt lat="44.5276912" lon="8.7802605"><ele>873.25</ele><time>2026-04-11T10:29:27.285Z</time></trkpt><trkpt lat="44.5276929" lon="8.7804803"><ele>875.5</ele><time>2026-04-11T10:29:28.284Z</time></trkpt><trkpt lat="44.5276692" lon="8.7806746"><ele>877.75</ele><time>2026-04-11T10:29:29.284Z</time></trkpt><trkpt lat="44.5276254" lon="8.7808649"><ele>880.0</ele><time>2026-04-11T10:29:30.284Z</time></trkpt><trkpt lat="44.5275621" lon="8.781058"><ele>883.0</ele><time>2026-04-11T10:29:31.284Z</time></trkpt><trkpt lat="44.5274774" lon="8.7812144"><ele>886.0</ele><time>2026-04-11T10:29:32.284Z</time></trkpt><trkpt lat="44.5273975" lon="8.7813608"><ele>889.0</ele><time>2026-04-11T10:29:33.284Z</time></trkpt><trkpt lat="44.527331" lon="8.7815132"><ele>892.0</ele><time>2026-04-11T10:29:34.285Z</time></trkpt><trkpt lat="44.5272765" lon="8.7816595"><ele>892.0</ele><time>2026-04-11T10:29:35.284Z</time></trkpt><trkpt lat="44.5272498" lon="8.7818218"><ele>892.0</ele><time>2026-04-11T10:29:36.284Z</time></trkpt><trkpt lat="44.5272338" lon="8.7819884"><ele>892.0</ele><time>2026-04-11T10:29:37.285Z</time></trkpt><trkpt lat="44.5271975" lon="8.7821205"><ele>892.0</ele><time>2026-04-11T10:29:38.284Z</time></trkpt><trkpt lat="44.52717" lon="8.7822382"><ele>892.0</ele><time>2026-04-11T10:29:39.285Z</time></trkpt><trkpt lat="44.5271388" lon="8.7823426"><ele>893.6</ele><time>2026-04-11T10:29:40.285Z</time></trkpt><trkpt lat="44.5271317" lon="8.7824353"><ele>895.2</ele><time>2026-04-11T10:29:41.285Z</time></trkpt><trkpt lat="44.5271781" lon="8.7825318"><ele>896.8</ele><time>2026-04-11T10:29:42.284Z</time></trkpt><trkpt lat="44.5272538" lon="8.7826545"><ele>898.4</ele><time>2026-04-11T10:29:43.284Z</time></trkpt><trkpt lat="44.5273141" lon="8.7827897"><ele>900.0</ele><time>2026-04-11T10:29:44.284Z</time></trkpt><trkpt lat="44.5273532" lon="8.7829305"><ele>900.0</ele><time>2026-04-11T10:29:45.284Z</time></trkpt><trkpt lat="44.5273508" lon="8.7830791"><ele>900.0</ele><time>2026-04-11T10:29:46.285Z</time></trkpt><trkpt lat="44.5273239" lon="8.783239"><ele>900.0</ele><time>2026-04-11T10:29:47.284Z</time></trkpt><trkpt lat="44.5272836" lon="8.7834047"><ele>900.0</ele><time>2026-04-11T10:29:48.284Z</time></trkpt><trkpt lat="44.5272367" lon="8.783546"><ele>901.0</ele><time>2026-04-11T10:29:49.285Z</time></trkpt><trkpt lat="44.5271781" lon="8.7836737"><ele>902.0</ele><time>2026-04-11T10:29:50.284Z</time></trkpt><trkpt lat="44.527124" lon="8.7837912"><ele>903.0</ele><time>2026-04-11T10:29:51.284Z</time></trkpt><trkpt lat="44.5270898" lon="8.7839175"><ele>904.0</ele><time>2026-04-11T10:29:52.285Z</time></trkpt><trkpt lat="44.5270804" lon="8.7840669"><ele>905.0</ele><time>2026-04-11T10:29:53.285Z</time></trkpt><trkpt lat="44.5270662" lon="8.7842325"><ele>899.2</ele><time>2026-04-11T10:29:54.285Z</time></trkpt><trkpt lat="44.5270514" lon="8.7843918"><ele>893.4</ele><time>2026-04-11T10:29:55.284Z</time></trkpt><trkpt lat="44.5270374" lon="8.7845136"><ele>887.5999999999999</ele><time>2026-04-11T10:29:56.285Z</time></trkpt><trkpt lat="44.5270094" lon="8.7846021"><ele>881.8</ele><time>2026-04-11T10:29:57.284Z</time></trkpt><trkpt lat="44.5269455" lon="8.784691"><ele>876.0</ele><time>2026-04-11T10:29:58.284Z</time></trkpt><trkpt lat="44.5268595" lon="8.7847764"><ele>876.0</ele><time>2026-04-11T10:29:59.284Z</time></trkpt><trkpt lat="44.5267848" lon="8.7848894"><ele>875.9999999999999</ele><time>2026-04-11T10:30:00.284Z</time></trkpt><trkpt lat="44.5267123" lon="8.7850141"><ele>875.9999999999999</ele><time>2026-04-11T10:30:01.285Z</time></trkpt><trkpt lat="44.5266525" lon="8.7851153"><ele>876.0</ele><time>2026-04-11T10:30:02.284Z</time></trkpt><trkpt lat="44.5265936" lon="8.7851974"><ele>876.0</ele><time>2026-04-11T10:30:03.284Z</time></trkpt><trkpt lat="44.5265065" lon="8.7852515"><ele>876.5999999999999</ele><time>2026-04-11T10:30:04.285Z</time></trkpt><trkpt lat="44.5264171" lon="8.7852778"><ele>877.1999999999999</ele><time>2026-04-11T10:30:05.284Z</time></trkpt><trkpt lat="44.5263156" lon="8.7852595"><ele>877.8000000000001</ele><time>2026-04-11T10:30:06.284Z</time></trkpt><trkpt lat="44.52622" lon="8.7852207"><ele>878.4000000000001</ele><time>2026-04-11T10:30:07.285Z</time></trkpt><trkpt lat="44.5261378" lon="8.7851838"><ele>879.0</ele><time>2026-04-11T10:30:08.284Z</time></trkpt><trkpt lat="44.5260632" lon="8.7851935"><ele>876.4000000000001</ele><time>2026-04-11T10:30:09.284Z</time></trkpt><trkpt lat="44.5259921" lon="8.7852372"><ele>873.8000000000001</ele><time>2026-04-11T10:30:10.284Z</time></trkpt><trkpt lat="44.5259316" lon="8.7853223"><ele>871.1999999999999</ele><time>2026-04-11T10:30:11.284Z</time></trkpt><trkpt lat="44.5258726" lon="8.7854419"><ele>868.5999999999999</ele><time>2026-04-11T10:30:12.284Z</time></trkpt><trkpt lat="44.5257896" lon="8.7855553"><ele>866.0</ele><time>2026-04-11T10:30:13.284Z</time></trkpt><trkpt lat="44.5257" lon="8.7856582"><ele>866.0</ele><time>2026-04-11T10:30:14.284Z</time></trkpt><trkpt lat="44.5256117" lon="8.7857779"><ele>865.9999999999999</ele><time>2026-04-11T10:30:15.284Z</time></trkpt><trkpt lat="44.5255293" lon="8.7858995"><ele>865.9999999999999</ele><time>2026-04-11T10:30:16.284Z</time></trkpt><trkpt lat="44.5254508" lon="8.786005"><ele>866.0</ele><time>2026-04-11T10:30:17.284Z</time></trkpt><trkpt lat="44.5253751" lon="8.7860858"><ele>866.0</ele><time>2026-04-11T10:30:18.284Z</time></trkpt><trkpt lat="44.5253176" lon="8.786156"><ele>863.4</ele><time>2026-04-11T10:30:19.285Z</time></trkpt><trkpt lat="44.5252786" lon="8.7862525"><ele>860.8</ele><time>2026-04-11T10:30:20.284Z</time></trkpt><trkpt lat="44.525253" lon="8.7863816"><ele>858.1999999999999</ele><time>2026-04-11T10:30:21.284Z</time></trkpt><trkpt lat="44.5252398" lon="8.7865468"><ele>855.5999999999999</ele><time>2026-04-11T10:30:22.284Z</time></trkpt><trkpt lat="44.5252229" lon="8.7867162"><ele>853.0</ele><time>2026-04-11T10:30:23.285Z</time></trkpt><trkpt lat="44.5252094" lon="8.7868738"><ele>853.0</ele><time>2026-04-11T10:30:24.285Z</time></trkpt><trkpt lat="44.5251832" lon="8.7870295"><ele>853.0</ele><time>2026-04-11T10:30:25.284Z</time></trkpt><trkpt lat="44.5251371" lon="8.7871544"><ele>853.0</ele><time>2026-04-11T10:30:26.285Z</time></trkpt><trkpt lat="44.5250887" lon="8.7872721"><ele>853.0</ele><time>2026-04-11T10:30:27.285Z</time></trkpt><trkpt lat="44.5250419" lon="8.7873754"><ele>853.0</ele><time>2026-04-11T10:30:28.284Z</time></trkpt><trkpt lat="44.525008" lon="8.7874996"><ele>853.0</ele><time>2026-04-11T10:30:29.284Z</time></trkpt><trkpt lat="44.5249955" lon="8.7876592"><ele>853.0</ele><time>2026-04-11T10:30:30.284Z</time></trkpt><trkpt lat="44.5249922" lon="8.7878432"><ele>853.0</ele><time>2026-04-11T10:30:31.284Z</time></trkpt><trkpt lat="44.5249736" lon="8.7880143"><ele>853.0</ele><time>2026-04-11T10:30:32.285Z</time></trkpt><trkpt lat="44.5249184" lon="8.7881842"><ele>853.0</ele><time>2026-04-11T10:30:33.284Z</time></trkpt><trkpt lat="44.5248372" lon="8.7883544"><ele>853.0</ele><time>2026-04-11T10:30:34.284Z</time></trkpt><trkpt lat="44.5247599" lon="8.7885137"><ele>853.0</ele><time>2026-04-11T10:30:35.285Z</time></trkpt><trkpt lat="44.524716" lon="8.7886917"><ele>853.0</ele><time>2026-04-11T10:30:36.284Z</time></trkpt><trkpt lat="44.5247043" lon="8.7888949"><ele>852.75</ele><time>2026-04-11T10:30:37.284Z</time></trkpt><trkpt lat="44.5247033" lon="8.7891055"><ele>852.5</ele><time>2026-04-11T10:30:38.285Z</time></trkpt><trkpt lat="44.5247288" lon="8.7892995"><ele>852.25</ele><time>2026-04-11T10:30:39.285Z</time></trkpt><trkpt lat="44.5247681" lon="8.7894929"><ele>852.0</ele><time>2026-04-11T10:30:40.285Z</time></trkpt><trkpt lat="44.5248258" lon="8.7897101"><ele>853.3333333333333</ele><time>2026-04-11T10:30:41.284Z</time></trkpt><trkpt lat="44.5248793" lon="8.78993"><ele>854.6666666666666</ele><time>2026-04-11T10:30:42.284Z</time></trkpt><trkpt lat="44.5249248" lon="8.7901481"><ele>856.0</ele><time>2026-04-11T10:30:43.284Z</time></trkpt><trkpt lat="44.5249763" lon="8.790385"><ele>858.3333333333333</ele><time>2026-04-11T10:30:44.285Z</time></trkpt><trkpt lat="44.5250142" lon="8.7906277"><ele>860.6666666666667</ele><time>2026-04-11T10:30:45.284Z</time></trkpt><trkpt lat="44.5250664" lon="8.7908268"><ele>863.0</ele><time>2026-04-11T10:30:46.284Z</time></trkpt><trkpt lat="44.5251194" lon="8.7910191"><ele>864.75</ele><time>2026-04-11T10:30:47.284Z</time></trkpt><trkpt lat="44.525172" lon="8.7912009"><ele>866.5</ele><time>2026-04-11T10:30:48.284Z</time></trkpt><trkpt lat="44.5252249" lon="8.7913601"><ele>868.25</ele><time>2026-04-11T10:30:49.285Z</time></trkpt><trkpt lat="44.5252951" lon="8.791505"><ele>870.0</ele><time>2026-04-11T10:30:50.284Z</time></trkpt><trkpt lat="44.5253847" lon="8.7916447"><ele>868.0</ele><time>2026-04-11T10:30:51.285Z</time></trkpt><trkpt lat="44.525457" lon="8.7917694"><ele>866.0</ele><time>2026-04-11T10:30:52.285Z</time></trkpt><trkpt lat="44.5255179" lon="8.7918908"><ele>864.0</ele><time>2026-04-11T10:30:53.284Z</time></trkpt><trkpt lat="44.525573" lon="8.7920435"><ele>862.0</ele><time>2026-04-11T10:30:54.284Z</time></trkpt><trkpt lat="44.5256114" lon="8.7921845"><ele>862.0</ele><time>2026-04-11T10:30:55.284Z</time></trkpt><trkpt lat="44.5256303" lon="8.7923411"><ele>862.0</ele><time>2026-04-11T10:30:56.285Z</time></trkpt><trkpt lat="44.5256347" lon="8.792504"><ele>862.0</ele><time>2026-04-11T10:30:57.284Z</time></trkpt><trkpt lat="44.5256435" lon="8.7926776"><ele>862.0</ele><time>2026-04-11T10:30:58.284Z</time></trkpt><trkpt lat="44.5256524" lon="8.7928566"><ele>862.0</ele><time>2026-04-11T10:30:59.284Z</time></trkpt><trkpt lat="44.525658" lon="8.7930307"><ele>862.0</ele><time>2026-04-11T10:31:00.284Z</time></trkpt><trkpt lat="44.5256733" lon="8.7932022"><ele>862.0</ele><time>2026-04-11T10:31:01.285Z</time></trkpt><trkpt lat="44.5256856" lon="8.7933626"><ele>862.0</ele><time>2026-04-11T10:31:02.284Z</time></trkpt><trkpt lat="44.5256827" lon="8.7935188"><ele>863.75</ele><time>2026-04-11T10:31:03.284Z</time></trkpt><trkpt lat="44.5256468" lon="8.793668"><ele>865.5</ele><time>2026-04-11T10:31:04.284Z</time></trkpt><trkpt lat="44.525586" lon="8.7938244"><ele>867.25</ele><time>2026-04-11T10:31:05.284Z</time></trkpt><trkpt lat="44.5255329" lon="8.7939811"><ele>869.0</ele><time>2026-04-11T10:31:06.284Z</time></trkpt><trkpt lat="44.5254891" lon="8.794159"><ele>869.0</ele><time>2026-04-11T10:31:07.284Z</time></trkpt><trkpt lat="44.5254606" lon="8.7943265"><ele>869.0000000000001</ele><time>2026-04-11T10:31:08.284Z</time></trkpt><trkpt lat="44.5254334" lon="8.7944857"><ele>869.0000000000001</ele><time>2026-04-11T10:31:09.284Z</time></trkpt><trkpt lat="44.5254123" lon="8.7946381"><ele>869.0</ele><time>2026-04-11T10:31:10.284Z</time></trkpt><trkpt lat="44.5254057" lon="8.794765"><ele>869.0</ele><time>2026-04-11T10:31:11.284Z</time></trkpt><trkpt lat="44.5254459" lon="8.7948686"><ele>871.0</ele><time>2026-04-11T10:31:12.284Z</time></trkpt><trkpt lat="44.5255124" lon="8.7949373"><ele>873.0000000000001</ele><time>2026-04-11T10:31:13.284Z</time></trkpt><trkpt lat="44.5256151" lon="8.7949896"><ele>875.0000000000001</ele><time>2026-04-11T10:31:14.285Z</time></trkpt><trkpt lat="44.525731" lon="8.7950199"><ele>877.0</ele><time>2026-04-11T10:31:15.284Z</time></trkpt><trkpt lat="44.5258371" lon="8.7950369"><ele>879.0</ele><time>2026-04-11T10:31:16.284Z</time></trkpt><trkpt lat="44.5259361" lon="8.7950311"><ele>879.0</ele><time>2026-04-11T10:31:17.285Z</time></trkpt><trkpt lat="44.5260102" lon="8.7950313"><ele>879.0</ele><time>2026-04-11T10:31:18.284Z</time></trkpt><trkpt lat="44.5260765" lon="8.7950703"><ele>879.0</ele><time>2026-04-11T10:31:19.285Z</time></trkpt><trkpt lat="44.5261254" lon="8.7951469"><ele>879.0</ele><time>2026-04-11T10:31:20.285Z</time></trkpt><trkpt lat="44.5261625" lon="8.7952546"><ele>879.0</ele><time>2026-04-11T10:31:21.284Z</time></trkpt><trkpt lat="44.5261742" lon="8.7953789"><ele>879.0</ele><time>2026-04-11T10:31:22.284Z</time></trkpt><trkpt lat="44.5261592" lon="8.7955244"><ele>879.75</ele><time>2026-04-11T10:31:23.285Z</time></trkpt><trkpt lat="44.5261182" lon="8.7956859"><ele>880.5</ele><time>2026-04-11T10:31:24.284Z</time></trkpt><trkpt lat="44.5260876" lon="8.7958561"><ele>881.25</ele><time>2026-04-11T10:31:25.285Z</time></trkpt><trkpt lat="44.5260699" lon="8.7960169"><ele>882.0</ele><time>2026-04-11T10:31:26.285Z</time></trkpt><trkpt lat="44.5260586" lon="8.7961508"><ele>882.0</ele><time>2026-04-11T10:31:27.284Z</time></trkpt><trkpt lat="44.5260424" lon="8.7962663"><ele>882.0</ele><time>2026-04-11T10:31:28.284Z</time></trkpt><trkpt lat="44.5260254" lon="8.7963658"><ele>882.0</ele><time>2026-04-11T10:31:29.284Z</time></trkpt><trkpt lat="44.5259602" lon="8.7965145"><ele>882.0</ele><time>2026-04-11T10:31:31.284Z</time></trkpt><trkpt lat="44.5258721" lon="8.7966399"><ele>882.0</ele><time>2026-04-11T10:31:33.284Z</time></trkpt><trkpt lat="44.5257957" lon="8.7967705"><ele>879.6</ele><time>2026-04-11T10:31:35.284Z</time></trkpt><trkpt lat="44.5257527" lon="8.796839"><ele>877.2</ele><time>2026-04-11T10:31:36.284Z</time></trkpt><trkpt lat="44.5257056" lon="8.7969016"><ele>874.8</ele><time>2026-04-11T10:31:37.285Z</time></trkpt><trkpt lat="44.5256251" lon="8.797007"><ele>872.4</ele><time>2026-04-11T10:31:39.284Z</time></trkpt><trkpt lat="44.52554" lon="8.7970943"><ele>870.0</ele><time>2026-04-11T10:31:41.284Z</time></trkpt><trkpt lat="44.5254425" lon="8.797196"><ele>871.1666666666666</ele><time>2026-04-11T10:31:43.285Z</time></trkpt><trkpt lat="44.5253853" lon="8.7972475"><ele>872.3333333333333</ele><time>2026-04-11T10:31:44.284Z</time></trkpt><trkpt lat="44.5253188" lon="8.7972913"><ele>873.5</ele><time>2026-04-11T10:31:45.284Z</time></trkpt><trkpt lat="44.5252443" lon="8.7973261"><ele>874.6666666666666</ele><time>2026-04-11T10:31:46.285Z</time></trkpt><trkpt lat="44.5251566" lon="8.7973565"><ele>875.8333333333333</ele><time>2026-04-11T10:31:47.284Z</time></trkpt><trkpt lat="44.5250638" lon="8.7973789"><ele>877.0</ele><time>2026-04-11T10:31:48.284Z</time></trkpt><trkpt lat="44.5249668" lon="8.7973896"><ele>877.0</ele><time>2026-04-11T10:31:49.284Z</time></trkpt><trkpt lat="44.5248691" lon="8.7973754"><ele>877.0</ele><time>2026-04-11T10:31:50.284Z</time></trkpt><trkpt lat="44.5247696" lon="8.7973541"><ele>877.0</ele><time>2026-04-11T10:31:51.284Z</time></trkpt><trkpt lat="44.5246694" lon="8.7973229"><ele>877.0</ele><time>2026-04-11T10:31:52.284Z</time></trkpt><trkpt lat="44.5245687" lon="8.797288"><ele>877.0</ele><time>2026-04-11T10:31:53.284Z</time></trkpt><trkpt lat="44.5244658" lon="8.7972574"><ele>874.5</ele><time>2026-04-11T10:31:54.284Z</time></trkpt><trkpt lat="44.5243637" lon="8.7972215"><ele>872.0</ele><time>2026-04-11T10:31:55.285Z</time></trkpt><trkpt lat="44.524256" lon="8.7971785"><ele>869.5</ele><time>2026-04-11T10:31:56.284Z</time></trkpt><trkpt lat="44.524142" lon="8.7971176"><ele>867.0</ele><time>2026-04-11T10:31:57.284Z</time></trkpt><trkpt lat="44.5240307" lon="8.7970443"><ele>867.0</ele><time>2026-04-11T10:31:58.285Z</time></trkpt><trkpt lat="44.5239274" lon="8.7969644"><ele>867.0</ele><time>2026-04-11T10:31:59.284Z</time></trkpt><trkpt lat="44.5238259" lon="8.7968552"><ele>867.0</ele><time>2026-04-11T10:32:00.284Z</time></trkpt><trkpt lat="44.5237244" lon="8.7967266"><ele>867.0</ele><time>2026-04-11T10:32:01.284Z</time></trkpt><trkpt lat="44.523624" lon="8.7965971"><ele>868.5</ele><time>2026-04-11T10:32:02.284Z</time></trkpt><trkpt lat="44.5235015" lon="8.7964986"><ele>870.0</ele><time>2026-04-11T10:32:03.284Z</time></trkpt><trkpt lat="44.5233674" lon="8.7964043"><ele>871.5</ele><time>2026-04-11T10:32:04.284Z</time></trkpt><trkpt lat="44.5232461" lon="8.7963232"><ele>873.0</ele><time>2026-04-11T10:32:05.284Z</time></trkpt><trkpt lat="44.5231226" lon="8.796245"><ele>873.0</ele><time>2026-04-11T10:32:06.284Z</time></trkpt><trkpt lat="44.5229902" lon="8.7961927"><ele>873.0</ele><time>2026-04-11T10:32:07.284Z</time></trkpt><trkpt lat="44.5228442" lon="8.7961497"><ele>873.0</ele><time>2026-04-11T10:32:08.284Z</time></trkpt><trkpt lat="44.5226993" lon="8.7961211"><ele>873.0</ele><time>2026-04-11T10:32:09.285Z</time></trkpt><trkpt lat="44.5225614" lon="8.7960922"><ele>872.25</ele><time>2026-04-11T10:32:10.284Z</time></trkpt><trkpt lat="44.5224302" lon="8.7960635"><ele>871.5</ele><time>2026-04-11T10:32:11.285Z</time></trkpt><trkpt lat="44.5223054" lon="8.7960126"><ele>870.75</ele><time>2026-04-11T10:32:12.285Z</time></trkpt><trkpt lat="44.5221719" lon="8.7959208"><ele>870.0</ele><time>2026-04-11T10:32:13.284Z</time></trkpt><trkpt lat="44.5220344" lon="8.7958283"><ele>870.0</ele><time>2026-04-11T10:32:14.284Z</time></trkpt><trkpt lat="44.521898" lon="8.795742"><ele>870.0</ele><time>2026-04-11T10:32:15.284Z</time></trkpt><trkpt lat="44.521767" lon="8.7956785"><ele>870.0</ele><time>2026-04-11T10:32:16.285Z</time></trkpt><trkpt lat="44.5216309" lon="8.795634"><ele>870.0</ele><time>2026-04-11T10:32:17.284Z</time></trkpt><trkpt lat="44.5214969" lon="8.7956013"><ele>870.0</ele><time>2026-04-11T10:32:18.284Z</time></trkpt><trkpt lat="44.5213618" lon="8.7955778"><ele>870.0</ele><time>2026-04-11T10:32:19.284Z</time></trkpt><trkpt lat="44.5212296" lon="8.795546"><ele>870.0</ele><time>2026-04-11T10:32:20.285Z</time></trkpt><trkpt lat="44.5210984" lon="8.7954851"><ele>870.0</ele><time>2026-04-11T10:32:21.284Z</time></trkpt><trkpt lat="44.5209772" lon="8.7953861"><ele>867.3333333333333</ele><time>2026-04-11T10:32:22.284Z</time></trkpt><trkpt lat="44.5208494" lon="8.7952832"><ele>864.6666666666666</ele><time>2026-04-11T10:32:23.284Z</time></trkpt><trkpt lat="44.5207123" lon="8.7951914"><ele>862.0</ele><time>2026-04-11T10:32:24.284Z</time></trkpt><trkpt lat="44.5205678" lon="8.7951309"><ele>865.0</ele><time>2026-04-11T10:32:25.285Z</time></trkpt><trkpt lat="44.5204122" lon="8.7950686"><ele>868.0</ele><time>2026-04-11T10:32:26.284Z</time></trkpt><trkpt lat="44.5202487" lon="8.7950065"><ele>871.0</ele><time>2026-04-11T10:32:27.284Z</time></trkpt><trkpt lat="44.5200876" lon="8.7949389"><ele>871.0</ele><time>2026-04-11T10:32:28.284Z</time></trkpt><trkpt lat="44.5199281" lon="8.7948698"><ele>871.0</ele><time>2026-04-11T10:32:29.284Z</time></trkpt><trkpt lat="44.5197746" lon="8.7948011"><ele>871.0</ele><time>2026-04-11T10:32:30.284Z</time></trkpt><trkpt lat="44.5196312" lon="8.7947397"><ele>869.5</ele><time>2026-04-11T10:32:31.284Z</time></trkpt><trkpt lat="44.5194937" lon="8.7946904"><ele>868.0</ele><time>2026-04-11T10:32:32.284Z</time></trkpt><trkpt lat="44.5193508" lon="8.7946335"><ele>866.5</ele><time>2026-04-11T10:32:33.284Z</time></trkpt><trkpt lat="44.5192043" lon="8.7945711"><ele>865.0</ele><time>2026-04-11T10:32:34.284Z</time></trkpt><trkpt lat="44.5190608" lon="8.7945063"><ele>865.0</ele><time>2026-04-11T10:32:35.284Z</time></trkpt><trkpt lat="44.5189322" lon="8.7944309"><ele>865.0</ele><time>2026-04-11T10:32:36.285Z</time></trkpt><trkpt lat="44.5188137" lon="8.7943574"><ele>865.0</ele><time>2026-04-11T10:32:37.284Z</time></trkpt><trkpt lat="44.5186865" lon="8.7943022"><ele>865.0</ele><time>2026-04-11T10:32:38.284Z</time></trkpt><trkpt lat="44.5185501" lon="8.7942608"><ele>866.5</ele><time>2026-04-11T10:32:39.285Z</time></trkpt><trkpt lat="44.5184078" lon="8.7942313"><ele>868.0</ele><time>2026-04-11T10:32:40.285Z</time></trkpt><trkpt lat="44.5182706" lon="8.7942105"><ele>869.5</ele><time>2026-04-11T10:32:41.284Z</time></trkpt><trkpt lat="44.5181415" lon="8.7941916"><ele>871.0</ele><time>2026-04-11T10:32:42.284Z</time></trkpt><trkpt lat="44.5180293" lon="8.7941761"><ele>871.0</ele><time>2026-04-11T10:32:43.285Z</time></trkpt><trkpt lat="44.5179283" lon="8.7941864"><ele>870.9999999999999</ele><time>2026-04-11T10:32:44.284Z</time></trkpt><trkpt lat="44.517843" lon="8.7942168"><ele>870.9999999999999</ele><time>2026-04-11T10:32:45.284Z</time></trkpt><trkpt lat="44.5177671" lon="8.7942889"><ele>871.0</ele><time>2026-04-11T10:32:46.284Z</time></trkpt><trkpt lat="44.5177091" lon="8.7944001"><ele>871.0</ele><time>2026-04-11T10:32:47.284Z</time></trkpt><trkpt lat="44.5176648" lon="8.7945469"><ele>871.5</ele><time>2026-04-11T10:32:48.285Z</time></trkpt><trkpt lat="44.5176244" lon="8.7947166"><ele>872.0</ele><time>2026-04-11T10:32:49.284Z</time></trkpt><trkpt lat="44.5175964" lon="8.7949081"><ele>872.5</ele><time>2026-04-11T10:32:50.284Z</time></trkpt><trkpt lat="44.5175776" lon="8.795095"><ele>873.0</ele><time>2026-04-11T10:32:51.285Z</time></trkpt><trkpt lat="44.5175632" lon="8.7952484"><ele>873.4</ele><time>2026-04-11T10:32:52.284Z</time></trkpt><trkpt lat="44.5175343" lon="8.7953855"><ele>873.8</ele><time>2026-04-11T10:32:53.285Z</time></trkpt><trkpt lat="44.5174905" lon="8.7955239"><ele>874.2</ele><time>2026-04-11T10:32:54.285Z</time></trkpt><trkpt lat="44.5174239" lon="8.7956413"><ele>874.6</ele><time>2026-04-11T10:32:55.284Z</time></trkpt><trkpt lat="44.5173546" lon="8.795757"><ele>875.0</ele><time>2026-04-11T10:32:56.284Z</time></trkpt><trkpt lat="44.517259" lon="8.7958686"><ele>875.0</ele><time>2026-04-11T10:32:57.285Z</time></trkpt><trkpt lat="44.5171647" lon="8.7959888"><ele>875.0</ele><time>2026-04-11T10:32:58.284Z</time></trkpt><trkpt lat="44.517081" lon="8.7961284"><ele>875.0</ele><time>2026-04-11T10:32:59.284Z</time></trkpt><trkpt lat="44.51701" lon="8.7962524"><ele>875.0</ele><time>2026-04-11T10:33:00.284Z</time></trkpt><trkpt lat="44.5169296" lon="8.7963645"><ele>874.25</ele><time>2026-04-11T10:33:01.284Z</time></trkpt><trkpt lat="44.5168355" lon="8.7964566"><ele>873.5</ele><time>2026-04-11T10:33:02.284Z</time></trkpt><trkpt lat="44.5167258" lon="8.7965342"><ele>872.75</ele><time>2026-04-11T10:33:03.284Z</time></trkpt><trkpt lat="44.5166009" lon="8.7965976"><ele>872.0</ele><time>2026-04-11T10:33:04.284Z</time></trkpt><trkpt lat="44.5164769" lon="8.7966373"><ele>872.0</ele><time>2026-04-11T10:33:05.284Z</time></trkpt><trkpt lat="44.5163577" lon="8.7966868"><ele>872.0</ele><time>2026-04-11T10:33:06.285Z</time></trkpt><trkpt lat="44.5162491" lon="8.7967308"><ele>872.0</ele><time>2026-04-11T10:33:07.285Z</time></trkpt><trkpt lat="44.516139" lon="8.7967685"><ele>872.0</ele><time>2026-04-11T10:33:08.284Z</time></trkpt><trkpt lat="44.5160342" lon="8.7967988"><ele>872.0</ele><time>2026-04-11T10:33:09.284Z</time></trkpt><trkpt lat="44.5159195" lon="8.7968284"><ele>872.0</ele><time>2026-04-11T10:33:10.284Z</time></trkpt><trkpt lat="44.5158045" lon="8.7968415"><ele>872.0</ele><time>2026-04-11T10:33:11.284Z</time></trkpt><trkpt lat="44.5156947" lon="8.7968576"><ele>872.0</ele><time>2026-04-11T10:33:12.284Z</time></trkpt><trkpt lat="44.5155911" lon="8.7968742"><ele>872.0</ele><time>2026-04-11T10:33:13.285Z</time></trkpt><trkpt lat="44.515493" lon="8.7968894"><ele>872.0</ele><time>2026-04-11T10:33:14.284Z</time></trkpt><trkpt lat="44.5154066" lon="8.7969136"><ele>872.0</ele><time>2026-04-11T10:33:15.284Z</time></trkpt><trkpt lat="44.5153321" lon="8.7969635"><ele>872.0</ele><time>2026-04-11T10:33:16.285Z</time></trkpt><trkpt lat="44.5152744" lon="8.7970406"><ele>872.0</ele><time>2026-04-11T10:33:17.284Z</time></trkpt><trkpt lat="44.5152737" lon="8.7972157"><ele>872.0</ele><time>2026-04-11T10:33:19.284Z</time></trkpt><trkpt lat="44.5153196" lon="8.7973318"><ele>869.6</ele><time>2026-04-11T10:33:20.284Z</time></trkpt><trkpt lat="44.5153744" lon="8.797467"><ele>867.2</ele><time>2026-04-11T10:33:21.284Z</time></trkpt><trkpt lat="44.5153998" lon="8.797614"><ele>864.8</ele><time>2026-04-11T10:33:22.285Z</time></trkpt><trkpt lat="44.515391" lon="8.7977412"><ele>862.4</ele><time>2026-04-11T10:33:23.284Z</time></trkpt><trkpt lat="44.5153585" lon="8.7978709"><ele>860.0</ele><time>2026-04-11T10:33:24.285Z</time></trkpt><trkpt lat="44.5153524" lon="8.7979927"><ele>860.8</ele><time>2026-04-11T10:33:25.284Z</time></trkpt><trkpt lat="44.515375" lon="8.798099"><ele>861.6</ele><time>2026-04-11T10:33:26.284Z</time></trkpt><trkpt lat="44.5154286" lon="8.7981774"><ele>862.4000000000001</ele><time>2026-04-11T10:33:27.284Z</time></trkpt><trkpt lat="44.5155195" lon="8.7982032"><ele>863.2</ele><time>2026-04-11T10:33:28.284Z</time></trkpt><trkpt lat="44.515621" lon="8.7982054"><ele>864.0</ele><time>2026-04-11T10:33:29.284Z</time></trkpt><trkpt lat="44.515729" lon="8.798215"><ele>864.0</ele><time>2026-04-11T10:33:30.284Z</time></trkpt><trkpt lat="44.5158403" lon="8.7982346"><ele>864.0</ele><time>2026-04-11T10:33:31.285Z</time></trkpt><trkpt lat="44.5159595" lon="8.798255"><ele>864.0</ele><time>2026-04-11T10:33:32.284Z</time></trkpt><trkpt lat="44.5160841" lon="8.7982726"><ele>864.0</ele><time>2026-04-11T10:33:33.284Z</time></trkpt><trkpt lat="44.5162003" lon="8.7982896"><ele>863.4000000000001</ele><time>2026-04-11T10:33:34.284Z</time></trkpt><trkpt lat="44.5163082" lon="8.7983083"><ele>862.8000000000001</ele><time>2026-04-11T10:33:35.284Z</time></trkpt><trkpt lat="44.5164197" lon="8.7983357"><ele>862.1999999999999</ele><time>2026-04-11T10:33:36.284Z</time></trkpt><trkpt lat="44.516533" lon="8.7983801"><ele>861.5999999999999</ele><time>2026-04-11T10:33:37.284Z</time></trkpt><trkpt lat="44.5166299" lon="8.7984393"><ele>861.0</ele><time>2026-04-11T10:33:38.284Z</time></trkpt><trkpt lat="44.5167205" lon="8.7985058"><ele>861.0</ele><time>2026-04-11T10:33:39.285Z</time></trkpt><trkpt lat="44.5167981" lon="8.7986048"><ele>860.9999999999999</ele><time>2026-04-11T10:33:40.284Z</time></trkpt><trkpt lat="44.5168575" lon="8.7987331"><ele>860.9999999999999</ele><time>2026-04-11T10:33:41.284Z</time></trkpt><trkpt lat="44.5169057" lon="8.7988772"><ele>861.0</ele><time>2026-04-11T10:33:42.284Z</time></trkpt><trkpt lat="44.5169333" lon="8.7990376"><ele>861.0</ele><time>2026-04-11T10:33:43.285Z</time></trkpt><trkpt lat="44.5169562" lon="8.7992068"><ele>859.75</ele><time>2026-04-11T10:33:44.284Z</time></trkpt><trkpt lat="44.5169662" lon="8.7993748"><ele>858.5</ele><time>2026-04-11T10:33:45.285Z</time></trkpt><trkpt lat="44.5169658" lon="8.7995349"><ele>857.25</ele><time>2026-04-11T10:33:46.285Z</time></trkpt><trkpt lat="44.5169445" lon="8.799695"><ele>856.0</ele><time>2026-04-11T10:33:47.284Z</time></trkpt><trkpt lat="44.5169082" lon="8.7998479"><ele>855.9999999999999</ele><time>2026-04-11T10:33:48.283Z</time></trkpt><trkpt lat="44.5168832" lon="8.7999734"><ele>856.0</ele><time>2026-04-11T10:33:49.283Z</time></trkpt><trkpt lat="44.5168846" lon="8.8000804"><ele>856.0</ele><time>2026-04-11T10:33:50.283Z</time></trkpt><trkpt lat="44.5169017" lon="8.8001708"><ele>856.0</ele><time>2026-04-11T10:33:51.283Z</time></trkpt><trkpt lat="44.5169472" lon="8.8002614"><ele>855.9999999999999</ele><time>2026-04-11T10:33:52.283Z</time></trkpt><trkpt lat="44.5170176" lon="8.8003642"><ele>856.0</ele><time>2026-04-11T10:33:53.283Z</time></trkpt><trkpt lat="44.5170868" lon="8.8004751"><ele>858.1999999999999</ele><time>2026-04-11T10:33:54.283Z</time></trkpt><trkpt lat="44.5171507" lon="8.8005815"><ele>860.3999999999999</ele><time>2026-04-11T10:33:55.283Z</time></trkpt><trkpt lat="44.5171984" lon="8.8007066"><ele>862.6</ele><time>2026-04-11T10:33:56.283Z</time></trkpt><trkpt lat="44.5172325" lon="8.8008465"><ele>864.8</ele><time>2026-04-11T10:33:57.284Z</time></trkpt><trkpt lat="44.5172481" lon="8.8010042"><ele>867.0</ele><time>2026-04-11T10:33:58.283Z</time></trkpt><trkpt lat="44.517251" lon="8.8011532"><ele>868.0</ele><time>2026-04-11T10:33:59.283Z</time></trkpt><trkpt lat="44.5172346" lon="8.8012976"><ele>869.0</ele><time>2026-04-11T10:34:00.284Z</time></trkpt><trkpt lat="44.5171953" lon="8.8014636"><ele>870.0</ele><time>2026-04-11T10:34:01.283Z</time></trkpt><trkpt lat="44.5171264" lon="8.8016217"><ele>871.0</ele><time>2026-04-11T10:34:02.283Z</time></trkpt><trkpt lat="44.5170598" lon="8.8017863"><ele>867.25</ele><time>2026-04-11T10:34:03.284Z</time></trkpt><trkpt lat="44.5169748" lon="8.8019327"><ele>863.5</ele><time>2026-04-11T10:34:04.283Z</time></trkpt><trkpt lat="44.5169106" lon="8.8020627"><ele>859.75</ele><time>2026-04-11T10:34:05.283Z</time></trkpt><trkpt lat="44.5168319" lon="8.802189"><ele>856.0</ele><time>2026-04-11T10:34:06.283Z</time></trkpt><trkpt lat="44.5167607" lon="8.8023198"><ele>856.0</ele><time>2026-04-11T10:34:07.284Z</time></trkpt><trkpt lat="44.5166947" lon="8.80246"><ele>856.0</ele><time>2026-04-11T10:34:08.284Z</time></trkpt><trkpt lat="44.5166395" lon="8.8026113"><ele>856.0</ele><time>2026-04-11T10:34:09.283Z</time></trkpt><trkpt lat="44.5165983" lon="8.8027748"><ele>856.0</ele><time>2026-04-11T10:34:10.284Z</time></trkpt><trkpt lat="44.5165704" lon="8.8029563"><ele>856.25</ele><time>2026-04-11T10:34:11.283Z</time></trkpt><trkpt lat="44.5165535" lon="8.8031431"><ele>856.5</ele><time>2026-04-11T10:34:12.283Z</time></trkpt><trkpt lat="44.5165398" lon="8.8033067"><ele>856.75</ele><time>2026-04-11T10:34:13.283Z</time></trkpt><trkpt lat="44.5165289" lon="8.8034738"><ele>857.0</ele><time>2026-04-11T10:34:14.283Z</time></trkpt><trkpt lat="44.5165351" lon="8.8036285"><ele>855.6</ele><time>2026-04-11T10:34:15.283Z</time></trkpt><trkpt lat="44.5165308" lon="8.8037679"><ele>854.2</ele><time>2026-04-11T10:34:16.284Z</time></trkpt><trkpt lat="44.5165496" lon="8.8039076"><ele>852.8</ele><time>2026-04-11T10:34:17.284Z</time></trkpt><trkpt lat="44.5165972" lon="8.8040578"><ele>851.4</ele><time>2026-04-11T10:34:18.283Z</time></trkpt><trkpt lat="44.5166508" lon="8.8042057"><ele>850.0</ele><time>2026-04-11T10:34:19.284Z</time></trkpt><trkpt lat="44.516708" lon="8.8043597"><ele>848.0</ele><time>2026-04-11T10:34:20.283Z</time></trkpt><trkpt lat="44.5167636" lon="8.8045183"><ele>846.0</ele><time>2026-04-11T10:34:21.283Z</time></trkpt><trkpt lat="44.5168239" lon="8.8046637"><ele>844.0</ele><time>2026-04-11T10:34:22.283Z</time></trkpt><trkpt lat="44.5168867" lon="8.8048048"><ele>842.0</ele><time>2026-04-11T10:34:23.283Z</time></trkpt><trkpt lat="44.5169464" lon="8.804947"><ele>842.0</ele><time>2026-04-11T10:34:24.283Z</time></trkpt><trkpt lat="44.5169925" lon="8.8050869"><ele>842.0</ele><time>2026-04-11T10:34:25.283Z</time></trkpt><trkpt lat="44.5170102" lon="8.8052218"><ele>842.0</ele><time>2026-04-11T10:34:26.284Z</time></trkpt><trkpt lat="44.5169992" lon="8.80535"><ele>842.0</ele><time>2026-04-11T10:34:27.284Z</time></trkpt><trkpt lat="44.5169589" lon="8.805478"><ele>842.0</ele><time>2026-04-11T10:34:28.283Z</time></trkpt><trkpt lat="44.5169076" lon="8.8056033"><ele>842.25</ele><time>2026-04-11T10:34:29.284Z</time></trkpt><trkpt lat="44.5168179" lon="8.805693"><ele>842.5</ele><time>2026-04-11T10:34:30.283Z</time></trkpt><trkpt lat="44.5167182" lon="8.8057732"><ele>842.75</ele><time>2026-04-11T10:34:31.283Z</time></trkpt><trkpt lat="44.516606" lon="8.8058485"><ele>843.0</ele><time>2026-04-11T10:34:32.283Z</time></trkpt><trkpt lat="44.5164871" lon="8.8059318"><ele>843.0</ele><time>2026-04-11T10:34:33.283Z</time></trkpt><trkpt lat="44.516368" lon="8.8060369"><ele>843.0</ele><time>2026-04-11T10:34:34.284Z</time></trkpt><trkpt lat="44.5162565" lon="8.806152"><ele>843.0</ele><time>2026-04-11T10:34:35.283Z</time></trkpt><trkpt lat="44.516157" lon="8.8062866"><ele>843.0</ele><time>2026-04-11T10:34:36.283Z</time></trkpt><trkpt lat="44.5160771" lon="8.8064505"><ele>843.0</ele><time>2026-04-11T10:34:37.283Z</time></trkpt><trkpt lat="44.5160051" lon="8.8066305"><ele>843.0</ele><time>2026-04-11T10:34:38.283Z</time></trkpt><trkpt lat="44.5159258" lon="8.806815"><ele>843.0</ele><time>2026-04-11T10:34:39.283Z</time></trkpt><trkpt lat="44.5158386" lon="8.8070163"><ele>845.0</ele><time>2026-04-11T10:34:40.283Z</time></trkpt><trkpt lat="44.5157531" lon="8.8072154"><ele>847.0</ele><time>2026-04-11T10:34:41.283Z</time></trkpt><trkpt lat="44.5156706" lon="8.8074029"><ele>849.0</ele><time>2026-04-11T10:34:42.283Z</time></trkpt><trkpt lat="44.5155911" lon="8.8075832"><ele>848.5</ele><time>2026-04-11T10:34:43.283Z</time></trkpt><trkpt lat="44.5155273" lon="8.8077573"><ele>848.0</ele><time>2026-04-11T10:34:44.284Z</time></trkpt><trkpt lat="44.5154695" lon="8.8079167"><ele>847.5</ele><time>2026-04-11T10:34:45.283Z</time></trkpt><trkpt lat="44.515398" lon="8.8080768"><ele>847.0</ele><time>2026-04-11T10:34:46.283Z</time></trkpt><trkpt lat="44.5153099" lon="8.8082418"><ele>847.0</ele><time>2026-04-11T10:34:47.283Z</time></trkpt><trkpt lat="44.515218" lon="8.8084002"><ele>847.0</ele><time>2026-04-11T10:34:48.283Z</time></trkpt><trkpt lat="44.5151087" lon="8.808558"><ele>847.0</ele><time>2026-04-11T10:34:49.284Z</time></trkpt><trkpt lat="44.5150051" lon="8.8086922"><ele>847.0</ele><time>2026-04-11T10:34:50.283Z</time></trkpt><trkpt lat="44.5149016" lon="8.808819"><ele>847.25</ele><time>2026-04-11T10:34:51.283Z</time></trkpt><trkpt lat="44.5148098" lon="8.8089429"><ele>847.5</ele><time>2026-04-11T10:34:52.283Z</time></trkpt><trkpt lat="44.5147189" lon="8.8090692"><ele>847.75</ele><time>2026-04-11T10:34:53.283Z</time></trkpt><trkpt lat="44.5146351" lon="8.8091988"><ele>848.0</ele><time>2026-04-11T10:34:54.284Z</time></trkpt><trkpt lat="44.5145601" lon="8.809348"><ele>848.0</ele><time>2026-04-11T10:34:55.283Z</time></trkpt><trkpt lat="44.5144876" lon="8.8095239"><ele>848.0</ele><time>2026-04-11T10:34:56.284Z</time></trkpt><trkpt lat="44.5144273" lon="8.8097158"><ele>848.0</ele><time>2026-04-11T10:34:57.284Z</time></trkpt><trkpt lat="44.5143801" lon="8.8099185"><ele>848.0</ele><time>2026-04-11T10:34:58.283Z</time></trkpt><trkpt lat="44.5143285" lon="8.8101199"><ele>849.75</ele><time>2026-04-11T10:34:59.283Z</time></trkpt><trkpt lat="44.5142879" lon="8.8103027"><ele>851.5</ele><time>2026-04-11T10:35:00.284Z</time></trkpt><trkpt lat="44.5142462" lon="8.8104579"><ele>853.25</ele><time>2026-04-11T10:35:01.283Z</time></trkpt><trkpt lat="44.5142311" lon="8.8106014"><ele>855.0</ele><time>2026-04-11T10:35:02.283Z</time></trkpt><trkpt lat="44.5142258" lon="8.8107364"><ele>855.0</ele><time>2026-04-11T10:35:03.283Z</time></trkpt><trkpt lat="44.5142232" lon="8.8108714"><ele>855.0</ele><time>2026-04-11T10:35:04.283Z</time></trkpt><trkpt lat="44.5142387" lon="8.8110311"><ele>855.0</ele><time>2026-04-11T10:35:05.283Z</time></trkpt><trkpt lat="44.5142574" lon="8.811219"><ele>855.0</ele><time>2026-04-11T10:35:06.283Z</time></trkpt><trkpt lat="44.5142835" lon="8.8114109"><ele>857.0</ele><time>2026-04-11T10:35:07.283Z</time></trkpt><trkpt lat="44.5143003" lon="8.8116356"><ele>859.0</ele><time>2026-04-11T10:35:08.283Z</time></trkpt><trkpt lat="44.5143195" lon="8.8118611"><ele>861.0</ele><time>2026-04-11T10:35:09.283Z</time></trkpt><trkpt lat="44.5143468" lon="8.8121027"><ele>861.0</ele><time>2026-04-11T10:35:10.284Z</time></trkpt><trkpt lat="44.5143886" lon="8.8123354"><ele>861.0</ele><time>2026-04-11T10:35:11.283Z</time></trkpt><trkpt lat="44.5144397" lon="8.812568"><ele>861.0</ele><time>2026-04-11T10:35:12.283Z</time></trkpt><trkpt lat="44.5144941" lon="8.8128021"><ele>861.0</ele><time>2026-04-11T10:35:13.283Z</time></trkpt><trkpt lat="44.5145572" lon="8.8130563"><ele>861.0</ele><time>2026-04-11T10:35:14.284Z</time></trkpt><trkpt lat="44.5146134" lon="8.8132984"><ele>861.0</ele><time>2026-04-11T10:35:15.284Z</time></trkpt><trkpt lat="44.5146733" lon="8.8135667"><ele>864.0</ele><time>2026-04-11T10:35:16.283Z</time></trkpt><trkpt lat="44.514734" lon="8.8138159"><ele>867.0</ele><time>2026-04-11T10:35:17.283Z</time></trkpt><trkpt lat="44.514794" lon="8.8140604"><ele>870.0</ele><time>2026-04-11T10:35:18.284Z</time></trkpt><trkpt lat="44.5148453" lon="8.8142886"><ele>869.6666666666667</ele><time>2026-04-11T10:35:19.284Z</time></trkpt><trkpt lat="44.5148979" lon="8.8145034"><ele>869.3333333333334</ele><time>2026-04-11T10:35:20.283Z</time></trkpt><trkpt lat="44.5149434" lon="8.8147229"><ele>869.0</ele><time>2026-04-11T10:35:21.283Z</time></trkpt><trkpt lat="44.5149859" lon="8.8149342"><ele>869.0</ele><time>2026-04-11T10:35:22.283Z</time></trkpt><trkpt lat="44.5150348" lon="8.8151518"><ele>869.0</ele><time>2026-04-11T10:35:23.283Z</time></trkpt><trkpt lat="44.5150803" lon="8.8153512"><ele>869.0</ele><time>2026-04-11T10:35:24.283Z</time></trkpt><trkpt lat="44.5151333" lon="8.8155532"><ele>869.0</ele><time>2026-04-11T10:35:25.284Z</time></trkpt><trkpt lat="44.5152044" lon="8.8157674"><ele>869.0</ele><time>2026-04-11T10:35:26.284Z</time></trkpt><trkpt lat="44.5152789" lon="8.8159653"><ele>869.0</ele><time>2026-04-11T10:35:27.283Z</time></trkpt><trkpt lat="44.5153592" lon="8.8161755"><ele>872.6666666666667</ele><time>2026-04-11T10:35:28.283Z</time></trkpt><trkpt lat="44.5154451" lon="8.8163624"><ele>876.3333333333333</ele><time>2026-04-11T10:35:29.283Z</time></trkpt><trkpt lat="44.5155393" lon="8.8165347"><ele>880.0</ele><time>2026-04-11T10:35:30.283Z</time></trkpt><trkpt lat="44.5156477" lon="8.8166953"><ele>879.0</ele><time>2026-04-11T10:35:31.283Z</time></trkpt><trkpt lat="44.5157615" lon="8.8168591"><ele>878.0</ele><time>2026-04-11T10:35:32.283Z</time></trkpt><trkpt lat="44.5158728" lon="8.8170163"><ele>877.0</ele><time>2026-04-11T10:35:33.283Z</time></trkpt><trkpt lat="44.5159761" lon="8.8171641"><ele>877.0</ele><time>2026-04-11T10:35:34.283Z</time></trkpt><trkpt lat="44.5160737" lon="8.817299"><ele>877.0</ele><time>2026-04-11T10:35:35.283Z</time></trkpt><trkpt lat="44.5161707" lon="8.8174214"><ele>877.0</ele><time>2026-04-11T10:35:36.284Z</time></trkpt><trkpt lat="44.5162698" lon="8.817517"><ele>877.0</ele><time>2026-04-11T10:35:37.283Z</time></trkpt><trkpt lat="44.5163642" lon="8.8176047"><ele>874.8</ele><time>2026-04-11T10:35:38.283Z</time></trkpt><trkpt lat="44.5164595" lon="8.8176761"><ele>872.6</ele><time>2026-04-11T10:35:39.283Z</time></trkpt><trkpt lat="44.5165486" lon="8.8177377"><ele>870.3999999999999</ele><time>2026-04-11T10:35:40.283Z</time></trkpt><trkpt lat="44.5166328" lon="8.8177807"><ele>868.1999999999999</ele><time>2026-04-11T10:35:41.283Z</time></trkpt><trkpt lat="44.5167088" lon="8.8178145"><ele>866.0</ele><time>2026-04-11T10:35:42.283Z</time></trkpt><trkpt lat="44.5167858" lon="8.8178552"><ele>866.0</ele><time>2026-04-11T10:35:43.283Z</time></trkpt><trkpt lat="44.5168549" lon="8.8178992"><ele>865.9999999999999</ele><time>2026-04-11T10:35:44.284Z</time></trkpt><trkpt lat="44.5169186" lon="8.8179452"><ele>865.9999999999999</ele><time>2026-04-11T10:35:45.283Z</time></trkpt><trkpt lat="44.5170232" lon="8.818028"><ele>866.0</ele><time>2026-04-11T10:35:47.284Z</time></trkpt><trkpt lat="44.5171154" lon="8.8180998"><ele>866.0</ele><time>2026-04-11T10:35:49.283Z</time></trkpt><trkpt lat="44.5171938" lon="8.8181505"><ele>868.8</ele><time>2026-04-11T10:35:51.284Z</time></trkpt><trkpt lat="44.5172774" lon="8.8181959"><ele>871.5999999999999</ele><time>2026-04-11T10:35:53.283Z</time></trkpt><trkpt lat="44.5173888" lon="8.8182678"><ele>874.4</ele><time>2026-04-11T10:35:55.283Z</time></trkpt><trkpt lat="44.517447" lon="8.8183116"><ele>877.2</ele><time>2026-04-11T10:35:56.284Z</time></trkpt><trkpt lat="44.5175048" lon="8.8183505"><ele>880.0</ele><time>2026-04-11T10:35:57.284Z</time></trkpt><trkpt lat="44.5175963" lon="8.8184306"><ele>878.3333333333333</ele><time>2026-04-11T10:35:59.283Z</time></trkpt><trkpt lat="44.5176253" lon="8.8185246"><ele>876.6666666666666</ele><time>2026-04-11T10:36:01.283Z</time></trkpt><trkpt lat="44.517644" lon="8.8186304"><ele>875.0</ele><time>2026-04-11T10:36:03.283Z</time></trkpt><trkpt lat="44.5176929" lon="8.8187079"><ele>873.3333333333333</ele><time>2026-04-11T10:36:06.283Z</time></trkpt><trkpt lat="44.5177611" lon="8.8187284"><ele>871.6666666666666</ele><time>2026-04-11T10:48:40.281Z</time></trkpt><trkpt lat="44.5178346" lon="8.8186893"><ele>870.0</ele><time>2026-04-11T10:48:43.281Z</time></trkpt><trkpt lat="44.5179099" lon="8.8186567"><ele>870.0</ele><time>2026-04-11T10:48:50.281Z</time></trkpt><trkpt lat="44.5179728" lon="8.8187021"><ele>870.0</ele><time>2026-04-11T10:48:52.281Z</time></trkpt><trkpt lat="44.5180701" lon="8.8188152"><ele>870.0</ele><time>2026-04-11T10:48:54.281Z</time></trkpt><trkpt lat="44.518123" lon="8.8188801"><ele>870.0</ele><time>2026-04-11T10:48:55.281Z</time></trkpt><trkpt lat="44.5181769" lon="8.8189502"><ele>870.0</ele><time>2026-04-11T10:48:56.281Z</time></trkpt><trkpt lat="44.5182398" lon="8.8190435"><ele>870.0</ele><time>2026-04-11T10:48:57.281Z</time></trkpt><trkpt lat="44.5183105" lon="8.8191367"><ele>870.0</ele><time>2026-04-11T10:48:58.282Z</time></trkpt><trkpt lat="44.518384" lon="8.8192425"><ele>870.0</ele><time>2026-04-11T10:48:59.282Z</time></trkpt><trkpt lat="44.5184612" lon="8.8193513"><ele>870.0</ele><time>2026-04-11T10:49:00.282Z</time></trkpt><trkpt lat="44.5185455" lon="8.8194519"><ele>870.0</ele><time>2026-04-11T10:49:01.281Z</time></trkpt><trkpt lat="44.5186348" lon="8.8195538"><ele>870.0</ele><time>2026-04-11T10:49:02.282Z</time></trkpt><trkpt lat="44.5187274" lon="8.8196273"><ele>867.25</ele><time>2026-04-11T10:49:03.281Z</time></trkpt><trkpt lat="44.5188322" lon="8.8196851"><ele>864.5</ele><time>2026-04-11T10:49:04.281Z</time></trkpt><trkpt lat="44.5189413" lon="8.8197131"><ele>861.75</ele><time>2026-04-11T10:49:05.281Z</time></trkpt><trkpt lat="44.5190637" lon="8.8197345"><ele>859.0</ele><time>2026-04-11T10:49:06.281Z</time></trkpt><trkpt lat="44.5191865" lon="8.8197333"><ele>859.0</ele><time>2026-04-11T10:49:07.281Z</time></trkpt><trkpt lat="44.5193034" lon="8.8197184"><ele>859.0</ele><time>2026-04-11T10:49:08.281Z</time></trkpt><trkpt lat="44.5194319" lon="8.8196983"><ele>859.0</ele><time>2026-04-11T10:49:09.281Z</time></trkpt><trkpt lat="44.5195527" lon="8.8196802"><ele>859.0</ele><time>2026-04-11T10:49:10.281Z</time></trkpt><trkpt lat="44.5196683" lon="8.8196716"><ele>858.75</ele><time>2026-04-11T10:49:11.281Z</time></trkpt><trkpt lat="44.5197812" lon="8.8196851"><ele>858.5</ele><time>2026-04-11T10:49:12.281Z</time></trkpt><trkpt lat="44.5199041" lon="8.8197136"><ele>858.25</ele><time>2026-04-11T10:49:13.281Z</time></trkpt><trkpt lat="44.5200202" lon="8.8197663"><ele>858.0</ele><time>2026-04-11T10:49:14.281Z</time></trkpt><trkpt lat="44.5201471" lon="8.8198375"><ele>858.0</ele><time>2026-04-11T10:49:15.281Z</time></trkpt><trkpt lat="44.5202755" lon="8.8199222"><ele>858.0</ele><time>2026-04-11T10:49:16.282Z</time></trkpt><trkpt lat="44.5204009" lon="8.8200087"><ele>858.0</ele><time>2026-04-11T10:49:17.281Z</time></trkpt><trkpt lat="44.5205212" lon="8.8200919"><ele>858.0</ele><time>2026-04-11T10:49:18.281Z</time></trkpt><trkpt lat="44.5206533" lon="8.8201837"><ele>856.0</ele><time>2026-04-11T10:49:19.281Z</time></trkpt><trkpt lat="44.5207887" lon="8.8202736"><ele>854.0</ele><time>2026-04-11T10:49:20.281Z</time></trkpt><trkpt lat="44.5209294" lon="8.8203654"><ele>852.0</ele><time>2026-04-11T10:49:21.281Z</time></trkpt><trkpt lat="44.5210705" lon="8.8204512"><ele>852.0</ele><time>2026-04-11T10:49:22.281Z</time></trkpt><trkpt lat="44.5212107" lon="8.8205456"><ele>852.0</ele><time>2026-04-11T10:49:23.281Z</time></trkpt><trkpt lat="44.5213439" lon="8.8206325"><ele>852.0</ele><time>2026-04-11T10:49:24.281Z</time></trkpt><trkpt lat="44.521472" lon="8.8207243"><ele>852.0</ele><time>2026-04-11T10:49:25.282Z</time></trkpt><trkpt lat="44.5215944" lon="8.8208107"><ele>849.4000000000001</ele><time>2026-04-11T10:49:26.281Z</time></trkpt><trkpt lat="44.5217037" lon="8.8208863"><ele>846.8000000000001</ele><time>2026-04-11T10:49:27.282Z</time></trkpt><trkpt lat="44.5217959" lon="8.8209696"><ele>844.2</ele><time>2026-04-11T10:49:28.282Z</time></trkpt><trkpt lat="44.5218676" lon="8.8210751"><ele>841.6</ele><time>2026-04-11T10:49:29.281Z</time></trkpt><trkpt lat="44.521909" lon="8.8211953"><ele>839.0</ele><time>2026-04-11T10:49:30.281Z</time></trkpt><trkpt lat="44.5219151" lon="8.8213428"><ele>839.0</ele><time>2026-04-11T10:49:31.281Z</time></trkpt><trkpt lat="44.521908" lon="8.8215003"><ele>839.0</ele><time>2026-04-11T10:49:32.281Z</time></trkpt><trkpt lat="44.521869" lon="8.8216772"><ele>839.0</ele><time>2026-04-11T10:49:33.281Z</time></trkpt><trkpt lat="44.5218158" lon="8.8218758"><ele>839.0</ele><time>2026-04-11T10:49:34.281Z</time></trkpt><trkpt lat="44.5217416" lon="8.8220812"><ele>835.6666666666667</ele><time>2026-04-11T10:49:35.281Z</time></trkpt><trkpt lat="44.5216691" lon="8.8223059"><ele>832.3333333333333</ele><time>2026-04-11T10:49:36.281Z</time></trkpt><trkpt lat="44.5215953" lon="8.8225276"><ele>829.0</ele><time>2026-04-11T10:49:37.281Z</time></trkpt><trkpt lat="44.5215253" lon="8.8227477"><ele>826.6666666666666</ele><time>2026-04-11T10:49:38.282Z</time></trkpt><trkpt lat="44.5214688" lon="8.8229633"><ele>824.3333333333333</ele><time>2026-04-11T10:49:39.282Z</time></trkpt><trkpt lat="44.5214029" lon="8.8231679"><ele>822.0</ele><time>2026-04-11T10:49:40.281Z</time></trkpt><trkpt lat="44.5213401" lon="8.8233617"><ele>822.75</ele><time>2026-04-11T10:49:41.281Z</time></trkpt><trkpt lat="44.521272" lon="8.8235767"><ele>823.5</ele><time>2026-04-11T10:49:42.281Z</time></trkpt><trkpt lat="44.5212124" lon="8.823752"><ele>824.25</ele><time>2026-04-11T10:49:43.281Z</time></trkpt><trkpt lat="44.5211643" lon="8.8239197"><ele>825.0</ele><time>2026-04-11T10:49:44.281Z</time></trkpt><trkpt lat="44.5211447" lon="8.8240873"><ele>824.5</ele><time>2026-04-11T10:49:45.281Z</time></trkpt><trkpt lat="44.5211599" lon="8.8242534"><ele>824.0</ele><time>2026-04-11T10:49:46.281Z</time></trkpt><trkpt lat="44.5212019" lon="8.8244066"><ele>823.5</ele><time>2026-04-11T10:49:47.282Z</time></trkpt><trkpt lat="44.5212626" lon="8.824545"><ele>823.0</ele><time>2026-04-11T10:49:48.281Z</time></trkpt><trkpt lat="44.5213471" lon="8.8246999"><ele>823.0</ele><time>2026-04-11T10:49:49.281Z</time></trkpt><trkpt lat="44.5214559" lon="8.8248579"><ele>823.0</ele><time>2026-04-11T10:49:50.281Z</time></trkpt><trkpt lat="44.5215591" lon="8.8250396"><ele>823.0</ele><time>2026-04-11T10:49:51.281Z</time></trkpt><trkpt lat="44.5216561" lon="8.8252169"><ele>819.5</ele><time>2026-04-11T10:49:52.281Z</time></trkpt><trkpt lat="44.5217461" lon="8.8253865"><ele>816.0</ele><time>2026-04-11T10:49:53.282Z</time></trkpt><trkpt lat="44.5218408" lon="8.825543"><ele>812.5</ele><time>2026-04-11T10:49:54.281Z</time></trkpt><trkpt lat="44.5219338" lon="8.8256993"><ele>809.0</ele><time>2026-04-11T10:49:55.281Z</time></trkpt><trkpt lat="44.5220222" lon="8.8258666"><ele>814.3333333333334</ele><time>2026-04-11T10:49:56.281Z</time></trkpt><trkpt lat="44.5220935" lon="8.8260454"><ele>819.6666666666667</ele><time>2026-04-11T10:49:57.281Z</time></trkpt><trkpt lat="44.52216" lon="8.826234"><ele>825.0</ele><time>2026-04-11T10:49:58.281Z</time></trkpt><trkpt lat="44.5222187" lon="8.8264378"><ele>825.0</ele><time>2026-04-11T10:49:59.281Z</time></trkpt><trkpt lat="44.5222482" lon="8.8266516"><ele>825.0</ele><time>2026-04-11T10:50:00.281Z</time></trkpt><trkpt lat="44.5222513" lon="8.826904"><ele>825.0</ele><time>2026-04-11T10:50:01.281Z</time></trkpt><trkpt lat="44.5222493" lon="8.8271285"><ele>823.0</ele><time>2026-04-11T10:50:02.281Z</time></trkpt><trkpt lat="44.522242" lon="8.8273397"><ele>821.0</ele><time>2026-04-11T10:50:03.281Z</time></trkpt><trkpt lat="44.5222429" lon="8.8275471"><ele>819.0</ele><time>2026-04-11T10:50:04.281Z</time></trkpt><trkpt lat="44.5222616" lon="8.8277343"><ele>817.0</ele><time>2026-04-11T10:50:05.281Z</time></trkpt><trkpt lat="44.5222983" lon="8.8279291"><ele>814.25</ele><time>2026-04-11T10:50:06.281Z</time></trkpt><trkpt lat="44.522347" lon="8.8281241"><ele>811.5</ele><time>2026-04-11T10:50:07.281Z</time></trkpt><trkpt lat="44.5224099" lon="8.8283042"><ele>808.75</ele><time>2026-04-11T10:50:08.281Z</time></trkpt><trkpt lat="44.5225057" lon="8.8284698"><ele>806.0</ele><time>2026-04-11T10:50:09.281Z</time></trkpt><trkpt lat="44.5226323" lon="8.8286219"><ele>803.0</ele><time>2026-04-11T10:50:10.282Z</time></trkpt><trkpt lat="44.5227627" lon="8.8287469"><ele>800.0</ele><time>2026-04-11T10:50:11.281Z</time></trkpt><trkpt lat="44.5229024" lon="8.8288206"><ele>797.0</ele><time>2026-04-11T10:50:12.282Z</time></trkpt><trkpt lat="44.5230647" lon="8.8288795"><ele>797.0</ele><time>2026-04-11T10:50:13.281Z</time></trkpt><trkpt lat="44.5232296" lon="8.8289295"><ele>797.0</ele><time>2026-04-11T10:50:14.282Z</time></trkpt><trkpt lat="44.5233921" lon="8.8289541"><ele>797.0</ele><time>2026-04-11T10:50:15.281Z</time></trkpt><trkpt lat="44.523566" lon="8.8289726"><ele>796.3333333333334</ele><time>2026-04-11T10:50:16.281Z</time></trkpt><trkpt lat="44.5237349" lon="8.8289764"><ele>795.6666666666667</ele><time>2026-04-11T10:50:17.281Z</time></trkpt><trkpt lat="44.5239075" lon="8.8289763"><ele>795.0</ele><time>2026-04-11T10:50:18.281Z</time></trkpt><trkpt lat="44.5240703" lon="8.8289937"><ele>795.0</ele><time>2026-04-11T10:50:19.281Z</time></trkpt><trkpt lat="44.5242271" lon="8.829003"><ele>795.0</ele><time>2026-04-11T10:50:20.282Z</time></trkpt><trkpt lat="44.5243716" lon="8.8290145"><ele>795.0</ele><time>2026-04-11T10:50:21.282Z</time></trkpt><trkpt lat="44.5245173" lon="8.8290196"><ele>795.0</ele><time>2026-04-11T10:50:22.281Z</time></trkpt><trkpt lat="44.5246598" lon="8.8290313"><ele>795.0</ele><time>2026-04-11T10:50:23.281Z</time></trkpt><trkpt lat="44.5247944" lon="8.8290656"><ele>795.0</ele><time>2026-04-11T10:50:24.281Z</time></trkpt><trkpt lat="44.5249253" lon="8.8291018"><ele>795.0</ele><time>2026-04-11T10:50:25.281Z</time></trkpt><trkpt lat="44.5250497" lon="8.8291686"><ele>795.0</ele><time>2026-04-11T10:50:26.281Z</time></trkpt><trkpt lat="44.5251611" lon="8.829266"><ele>795.75</ele><time>2026-04-11T10:50:27.281Z</time></trkpt><trkpt lat="44.5252502" lon="8.829408"><ele>796.5</ele><time>2026-04-11T10:50:28.281Z</time></trkpt><trkpt lat="44.5253378" lon="8.829549"><ele>797.25</ele><time>2026-04-11T10:50:29.281Z</time></trkpt><trkpt lat="44.5254109" lon="8.8296975"><ele>798.0</ele><time>2026-04-11T10:50:30.281Z</time></trkpt><trkpt lat="44.5254715" lon="8.8298275"><ele>798.0</ele><time>2026-04-11T10:50:31.281Z</time></trkpt><trkpt lat="44.525512" lon="8.8299643"><ele>798.0</ele><time>2026-04-11T10:50:32.282Z</time></trkpt><trkpt lat="44.5255124" lon="8.8301119"><ele>798.0</ele><time>2026-04-11T10:50:33.281Z</time></trkpt><trkpt lat="44.5254705" lon="8.830241"><ele>798.0</ele><time>2026-04-11T10:50:34.281Z</time></trkpt><trkpt lat="44.5253995" lon="8.8303286"><ele>798.0</ele><time>2026-04-11T10:50:35.281Z</time></trkpt><trkpt lat="44.5252976" lon="8.8303835"><ele>793.0</ele><time>2026-04-11T10:50:36.282Z</time></trkpt><trkpt lat="44.5251717" lon="8.8304208"><ele>788.0</ele><time>2026-04-11T10:50:37.281Z</time></trkpt><trkpt lat="44.5250493" lon="8.8304528"><ele>783.0</ele><time>2026-04-11T10:50:38.281Z</time></trkpt><trkpt lat="44.5249402" lon="8.8305014"><ele>778.0</ele><time>2026-04-11T10:50:39.281Z</time></trkpt><trkpt lat="44.5248409" lon="8.8306012"><ele>778.0</ele><time>2026-04-11T10:50:40.281Z</time></trkpt><trkpt lat="44.5247491" lon="8.8307496"><ele>778.0</ele><time>2026-04-11T10:50:41.281Z</time></trkpt><trkpt lat="44.52465" lon="8.8309254"><ele>778.0</ele><time>2026-04-11T10:50:42.281Z</time></trkpt><trkpt lat="44.5245452" lon="8.8310782"><ele>772.5</ele><time>2026-04-11T10:50:43.281Z</time></trkpt><trkpt lat="44.5244601" lon="8.8312399"><ele>767.0</ele><time>2026-04-11T10:50:44.282Z</time></trkpt><trkpt lat="44.5244034" lon="8.8314251"><ele>761.5</ele><time>2026-04-11T10:50:45.281Z</time></trkpt><trkpt lat="44.5243762" lon="8.8316263"><ele>756.0</ele><time>2026-04-11T10:50:46.282Z</time></trkpt><trkpt lat="44.5243631" lon="8.8318492"><ele>755.0</ele><time>2026-04-11T10:50:47.281Z</time></trkpt><trkpt lat="44.5243545" lon="8.8320781"><ele>754.0</ele><time>2026-04-11T10:50:48.281Z</time></trkpt><trkpt lat="44.5243457" lon="8.8322909"><ele>753.0</ele><time>2026-04-11T10:50:49.281Z</time></trkpt><trkpt lat="44.5243306" lon="8.8324942"><ele>754.0</ele><time>2026-04-11T10:50:50.281Z</time></trkpt><trkpt lat="44.5243107" lon="8.8327072"><ele>755.0</ele><time>2026-04-11T10:50:51.281Z</time></trkpt><trkpt lat="44.5242681" lon="8.8328941"><ele>756.0</ele><time>2026-04-11T10:50:52.281Z</time></trkpt><trkpt lat="44.524202" lon="8.8330405"><ele>757.0</ele><time>2026-04-11T10:50:53.281Z</time></trkpt><trkpt lat="44.5240945" lon="8.833144"><ele>757.0</ele><time>2026-04-11T10:50:54.281Z</time></trkpt><trkpt lat="44.5239859" lon="8.833219"><ele>757.0</ele><time>2026-04-11T10:50:55.282Z</time></trkpt><trkpt lat="44.5238649" lon="8.8332559"><ele>757.0</ele><time>2026-04-11T10:50:56.281Z</time></trkpt><trkpt lat="44.5237634" lon="8.8333192"><ele>757.0</ele><time>2026-04-11T10:50:57.281Z</time></trkpt><trkpt lat="44.5237012" lon="8.8334238"><ele>757.0</ele><time>2026-04-11T10:50:58.281Z</time></trkpt><trkpt lat="44.523667" lon="8.8335529"><ele>757.0</ele><time>2026-04-11T10:50:59.282Z</time></trkpt><trkpt lat="44.5236679" lon="8.833711"><ele>757.0</ele><time>2026-04-11T10:51:00.281Z</time></trkpt><trkpt lat="44.5237042" lon="8.8338872"><ele>757.0</ele><time>2026-04-11T10:51:01.281Z</time></trkpt><trkpt lat="44.5237551" lon="8.8340794"><ele>757.0</ele><time>2026-04-11T10:51:02.282Z</time></trkpt><trkpt lat="44.5238188" lon="8.8342823"><ele>757.0</ele><time>2026-04-11T10:51:03.282Z</time></trkpt><trkpt lat="44.5238878" lon="8.834485"><ele>757.0</ele><time>2026-04-11T10:51:04.281Z</time></trkpt><trkpt lat="44.5239452" lon="8.834682"><ele>752.5</ele><time>2026-04-11T10:51:05.281Z</time></trkpt><trkpt lat="44.524018" lon="8.8348619"><ele>748.0</ele><time>2026-04-11T10:51:06.282Z</time></trkpt><trkpt lat="44.5241094" lon="8.8350253"><ele>743.5</ele><time>2026-04-11T10:51:07.281Z</time></trkpt><trkpt lat="44.5242099" lon="8.8351729"><ele>739.0</ele><time>2026-04-11T10:51:08.282Z</time></trkpt><trkpt lat="44.5243196" lon="8.8353344"><ele>737.6666666666667</ele><time>2026-04-11T10:51:09.281Z</time></trkpt><trkpt lat="44.5244205" lon="8.8354942"><ele>736.3333333333334</ele><time>2026-04-11T10:51:10.281Z</time></trkpt><trkpt lat="44.5245307" lon="8.835648"><ele>735.0</ele><time>2026-04-11T10:51:11.282Z</time></trkpt><trkpt lat="44.5246454" lon="8.835791"><ele>735.0</ele><time>2026-04-11T10:51:12.281Z</time></trkpt><trkpt lat="44.5247446" lon="8.8359362"><ele>735.0</ele><time>2026-04-11T10:51:13.282Z</time></trkpt><trkpt lat="44.5248432" lon="8.8360609"><ele>735.0</ele><time>2026-04-11T10:51:14.281Z</time></trkpt><trkpt lat="44.5249265" lon="8.8361815"><ele>735.0</ele><time>2026-04-11T10:51:15.282Z</time></trkpt><trkpt lat="44.5250036" lon="8.8362879"><ele>731.4</ele><time>2026-04-11T10:51:16.282Z</time></trkpt><trkpt lat="44.5250625" lon="8.8363951"><ele>727.8</ele><time>2026-04-11T10:51:17.281Z</time></trkpt><trkpt lat="44.5250926" lon="8.8365295"><ele>724.2</ele><time>2026-04-11T10:51:18.282Z</time></trkpt><trkpt lat="44.5250714" lon="8.8366793"><ele>720.6</ele><time>2026-04-11T10:51:19.281Z</time></trkpt><trkpt lat="44.5250276" lon="8.8368101"><ele>717.0</ele><time>2026-04-11T10:51:20.281Z</time></trkpt><trkpt lat="44.5249343" lon="8.8369088"><ele>715.5</ele><time>2026-04-11T10:51:21.282Z</time></trkpt><trkpt lat="44.524837" lon="8.8369379"><ele>714.0</ele><time>2026-04-11T10:51:22.281Z</time></trkpt><trkpt lat="44.5247405" lon="8.8369098"><ele>712.5</ele><time>2026-04-11T10:51:23.281Z</time></trkpt><trkpt lat="44.5246348" lon="8.8368308"><ele>711.0</ele><time>2026-04-11T10:51:24.281Z</time></trkpt><trkpt lat="44.5245305" lon="8.8367126"><ele>711.0</ele><time>2026-04-11T10:51:25.281Z</time></trkpt><trkpt lat="44.5244107" lon="8.8365938"><ele>711.0</ele><time>2026-04-11T10:51:26.282Z</time></trkpt><trkpt lat="44.5242763" lon="8.8364893"><ele>711.0</ele><time>2026-04-11T10:51:27.281Z</time></trkpt><trkpt lat="44.5241302" lon="8.8364166"><ele>711.0</ele><time>2026-04-11T10:51:28.282Z</time></trkpt><trkpt lat="44.5239783" lon="8.8363533"><ele>711.0</ele><time>2026-04-11T10:51:29.281Z</time></trkpt><trkpt lat="44.5238255" lon="8.8363027"><ele>711.0</ele><time>2026-04-11T10:51:30.282Z</time></trkpt><trkpt lat="44.5236843" lon="8.8362759"><ele>708.25</ele><time>2026-04-11T10:51:31.281Z</time></trkpt><trkpt lat="44.523545" lon="8.8362397"><ele>705.5</ele><time>2026-04-11T10:51:32.281Z</time></trkpt><trkpt lat="44.523406" lon="8.8362101"><ele>702.75</ele><time>2026-04-11T10:51:33.282Z</time></trkpt><trkpt lat="44.5232754" lon="8.8361737"><ele>700.0</ele><time>2026-04-11T10:51:34.281Z</time></trkpt><trkpt lat="44.5231559" lon="8.8361355"><ele>700.0</ele><time>2026-04-11T10:51:35.282Z</time></trkpt><trkpt lat="44.5230393" lon="8.8361015"><ele>700.0</ele><time>2026-04-11T10:51:36.282Z</time></trkpt><trkpt lat="44.5229326" lon="8.8360895"><ele>700.0</ele><time>2026-04-11T10:51:37.281Z</time></trkpt><trkpt lat="44.5228359" lon="8.8361025"><ele>700.0</ele><time>2026-04-11T10:51:38.282Z</time></trkpt><trkpt lat="44.522754" lon="8.8361629"><ele>700.0</ele><time>2026-04-11T10:51:39.281Z</time></trkpt><trkpt lat="44.522699" lon="8.8362783"><ele>697.8</ele><time>2026-04-11T10:51:40.281Z</time></trkpt><trkpt lat="44.5226646" lon="8.8364014"><ele>695.6</ele><time>2026-04-11T10:51:41.281Z</time></trkpt><trkpt lat="44.5226611" lon="8.8365487"><ele>693.4000000000001</ele><time>2026-04-11T10:51:42.281Z</time></trkpt><trkpt lat="44.5226793" lon="8.8367132"><ele>691.2</ele><time>2026-04-11T10:51:43.281Z</time></trkpt><trkpt lat="44.5226968" lon="8.8368905"><ele>689.0</ele><time>2026-04-11T10:51:44.281Z</time></trkpt><trkpt lat="44.5227169" lon="8.8370669"><ele>687.5</ele><time>2026-04-11T10:51:45.281Z</time></trkpt><trkpt lat="44.5227279" lon="8.8372359"><ele>686.0</ele><time>2026-04-11T10:51:46.281Z</time></trkpt><trkpt lat="44.5227577" lon="8.8373938"><ele>684.5</ele><time>2026-04-11T10:51:47.281Z</time></trkpt><trkpt lat="44.5228104" lon="8.8375465"><ele>683.0</ele><time>2026-04-11T10:51:48.281Z</time></trkpt><trkpt lat="44.5228789" lon="8.8376825"><ele>682.0</ele><time>2026-04-11T10:51:49.282Z</time></trkpt><trkpt lat="44.5229675" lon="8.8377962"><ele>681.0</ele><time>2026-04-11T10:51:50.281Z</time></trkpt><trkpt lat="44.5230692" lon="8.8378889"><ele>680.0</ele><time>2026-04-11T10:51:51.281Z</time></trkpt><trkpt lat="44.5231753" lon="8.8379816"><ele>679.0</ele><time>2026-04-11T10:51:52.281Z</time></trkpt><trkpt lat="44.5232985" lon="8.838079"><ele>679.0</ele><time>2026-04-11T10:51:53.281Z</time></trkpt><trkpt lat="44.5234303" lon="8.8381848"><ele>679.0</ele><time>2026-04-11T10:51:54.281Z</time></trkpt><trkpt lat="44.5235411" lon="8.8382965"><ele>679.0</ele><time>2026-04-11T10:51:55.281Z</time></trkpt><trkpt lat="44.5236349" lon="8.8384154"><ele>679.0</ele><time>2026-04-11T10:51:56.282Z</time></trkpt><trkpt lat="44.5237131" lon="8.8385611"><ele>677.0</ele><time>2026-04-11T10:51:57.281Z</time></trkpt><trkpt lat="44.5237846" lon="8.8387232"><ele>675.0</ele><time>2026-04-11T10:51:58.281Z</time></trkpt><trkpt lat="44.5238533" lon="8.8388917"><ele>673.0</ele><time>2026-04-11T10:51:59.281Z</time></trkpt><trkpt lat="44.5239217" lon="8.839041"><ele>671.0</ele><time>2026-04-11T10:52:00.281Z</time></trkpt><trkpt lat="44.5240161" lon="8.8391693"><ele>671.0</ele><time>2026-04-11T10:52:01.281Z</time></trkpt><trkpt lat="44.5241094" lon="8.8392872"><ele>671.0</ele><time>2026-04-11T10:52:02.281Z</time></trkpt><trkpt lat="44.5242185" lon="8.8393603"><ele>671.0</ele><time>2026-04-11T10:52:03.281Z</time></trkpt><trkpt lat="44.524347" lon="8.839394"><ele>671.0</ele><time>2026-04-11T10:52:04.281Z</time></trkpt><trkpt lat="44.5244806" lon="8.8394035"><ele>666.5</ele><time>2026-04-11T10:52:05.281Z</time></trkpt><trkpt lat="44.5246225" lon="8.8393917"><ele>662.0</ele><time>2026-04-11T10:52:06.281Z</time></trkpt><trkpt lat="44.5247737" lon="8.8393711"><ele>657.5</ele><time>2026-04-11T10:52:07.281Z</time></trkpt><trkpt lat="44.5249253" lon="8.8393376"><ele>653.0</ele><time>2026-04-11T10:52:08.281Z</time></trkpt><trkpt lat="44.525053" lon="8.8393231"><ele>653.0</ele><time>2026-04-11T10:52:09.282Z</time></trkpt><trkpt lat="44.5251599" lon="8.8393424"><ele>653.0</ele><time>2026-04-11T10:52:10.281Z</time></trkpt><trkpt lat="44.5252482" lon="8.8394059"><ele>653.0</ele><time>2026-04-11T10:52:11.282Z</time></trkpt><trkpt lat="44.5253149" lon="8.8395026"><ele>653.0</ele><time>2026-04-11T10:52:12.281Z</time></trkpt><trkpt lat="44.5253674" lon="8.8396318"><ele>653.0</ele><time>2026-04-11T10:52:13.281Z</time></trkpt><trkpt lat="44.5253836" lon="8.839769"><ele>653.0</ele><time>2026-04-11T10:52:14.281Z</time></trkpt><trkpt lat="44.525366" lon="8.839915"><ele>653.0</ele><time>2026-04-11T10:52:15.281Z</time></trkpt><trkpt lat="44.5253105" lon="8.8400468"><ele>653.0</ele><time>2026-04-11T10:52:16.281Z</time></trkpt><trkpt lat="44.5252185" lon="8.840138"><ele>653.0</ele><time>2026-04-11T10:52:17.281Z</time></trkpt><trkpt lat="44.5251051" lon="8.8401805"><ele>653.0</ele><time>2026-04-11T10:52:18.282Z</time></trkpt><trkpt lat="44.5249726" lon="8.8401855"><ele>650.0</ele><time>2026-04-11T10:52:19.281Z</time></trkpt><trkpt lat="44.524819" lon="8.840162"><ele>647.0</ele><time>2026-04-11T10:52:20.282Z</time></trkpt><trkpt lat="44.5246672" lon="8.8401349"><ele>644.0</ele><time>2026-04-11T10:52:21.281Z</time></trkpt><trkpt lat="44.5245142" lon="8.8401276"><ele>644.0</ele><time>2026-04-11T10:52:22.282Z</time></trkpt><trkpt lat="44.5243614" lon="8.840111"><ele>644.0</ele><time>2026-04-11T10:52:23.282Z</time></trkpt><trkpt lat="44.5242222" lon="8.8401081"><ele>644.0</ele><time>2026-04-11T10:52:24.281Z</time></trkpt><trkpt lat="44.5240862" lon="8.8400899"><ele>644.0</ele><time>2026-04-11T10:52:25.282Z</time></trkpt><trkpt lat="44.5239527" lon="8.840063"><ele>644.0</ele><time>2026-04-11T10:52:26.281Z</time></trkpt><trkpt lat="44.5238312" lon="8.8400182"><ele>644.0</ele><time>2026-04-11T10:52:27.281Z</time></trkpt><trkpt lat="44.5237056" lon="8.8399675"><ele>644.0</ele><time>2026-04-11T10:52:28.281Z</time></trkpt><trkpt lat="44.5235818" lon="8.8399004"><ele>644.0</ele><time>2026-04-11T10:52:29.281Z</time></trkpt><trkpt lat="44.5234614" lon="8.8398603"><ele>640.75</ele><time>2026-04-11T10:52:30.281Z</time></trkpt><trkpt lat="44.5233389" lon="8.83985"><ele>637.5</ele><time>2026-04-11T10:52:31.281Z</time></trkpt><trkpt lat="44.523224" lon="8.8398869"><ele>634.25</ele><time>2026-04-11T10:52:32.281Z</time></trkpt><trkpt lat="44.5231129" lon="8.8399665"><ele>631.0</ele><time>2026-04-11T10:52:33.282Z</time></trkpt><trkpt lat="44.5230022" lon="8.8400819"><ele>627.75</ele><time>2026-04-11T10:52:34.282Z</time></trkpt><trkpt lat="44.5228983" lon="8.8402189"><ele>624.5</ele><time>2026-04-11T10:52:35.281Z</time></trkpt><trkpt lat="44.5227958" lon="8.8403395"><ele>621.25</ele><time>2026-04-11T10:52:36.282Z</time></trkpt><trkpt lat="44.5226773" lon="8.8404263"><ele>618.0</ele><time>2026-04-11T10:52:37.281Z</time></trkpt><trkpt lat="44.5225443" lon="8.8404815"><ele>618.0</ele><time>2026-04-11T10:52:38.281Z</time></trkpt><trkpt lat="44.5224014" lon="8.8404919"><ele>618.0</ele><time>2026-04-11T10:52:39.281Z</time></trkpt><trkpt lat="44.5222666" lon="8.8405317"><ele>618.0</ele><time>2026-04-11T10:52:40.281Z</time></trkpt><trkpt lat="44.5221491" lon="8.840623"><ele>618.0</ele><time>2026-04-11T10:52:41.281Z</time></trkpt><trkpt lat="44.5220641" lon="8.840749"><ele>615.75</ele><time>2026-04-11T10:52:42.282Z</time></trkpt><trkpt lat="44.5220048" lon="8.8408971"><ele>613.5</ele><time>2026-04-11T10:52:43.282Z</time></trkpt><trkpt lat="44.5219801" lon="8.8410703"><ele>611.25</ele><time>2026-04-11T10:52:44.281Z</time></trkpt><trkpt lat="44.521969" lon="8.841243"><ele>609.0</ele><time>2026-04-11T10:52:45.281Z</time></trkpt><trkpt lat="44.5219719" lon="8.8414403"><ele>609.0</ele><time>2026-04-11T10:52:46.281Z</time></trkpt><trkpt lat="44.5219689" lon="8.8416225"><ele>609.0</ele><time>2026-04-11T10:52:47.282Z</time></trkpt><trkpt lat="44.5219415" lon="8.8417878"><ele>609.0</ele><time>2026-04-11T10:52:48.282Z</time></trkpt><trkpt lat="44.5218846" lon="8.8419207"><ele>609.0</ele><time>2026-04-11T10:52:49.281Z</time></trkpt><trkpt lat="44.5218064" lon="8.8419878"><ele>609.0</ele><time>2026-04-11T10:52:50.282Z</time></trkpt><trkpt lat="44.5217048" lon="8.8419971"><ele>609.0</ele><time>2026-04-11T10:52:51.282Z</time></trkpt><trkpt lat="44.5216099" lon="8.8419491"><ele>609.0</ele><time>2026-04-11T10:52:52.281Z</time></trkpt><trkpt lat="44.5215105" lon="8.8418439"><ele>609.0</ele><time>2026-04-11T10:52:53.281Z</time></trkpt><trkpt lat="44.521398" lon="8.8417221"><ele>609.0</ele><time>2026-04-11T10:52:54.282Z</time></trkpt><trkpt lat="44.5212811" lon="8.8416118"><ele>609.0</ele><time>2026-04-11T10:52:55.281Z</time></trkpt><trkpt lat="44.5211658" lon="8.8415067"><ele>609.0</ele><time>2026-04-11T10:52:56.282Z</time></trkpt><trkpt lat="44.5210546" lon="8.841403"><ele>609.0</ele><time>2026-04-11T10:52:57.281Z</time></trkpt><trkpt lat="44.5209574" lon="8.8412844"><ele>607.5</ele><time>2026-04-11T10:52:58.281Z</time></trkpt><trkpt lat="44.5208601" lon="8.8411606"><ele>606.0</ele><time>2026-04-11T10:52:59.281Z</time></trkpt><trkpt lat="44.5207702" lon="8.8410041"><ele>604.5</ele><time>2026-04-11T10:53:00.281Z</time></trkpt><trkpt lat="44.5206911" lon="8.8408277"><ele>603.0</ele><time>2026-04-11T10:53:01.281Z</time></trkpt><trkpt lat="44.5206126" lon="8.8406404"><ele>603.0</ele><time>2026-04-11T10:53:02.281Z</time></trkpt><trkpt lat="44.520538" lon="8.8404498"><ele>603.0</ele><time>2026-04-11T10:53:03.281Z</time></trkpt><trkpt lat="44.5204623" lon="8.840283"><ele>603.0</ele><time>2026-04-11T10:53:04.281Z</time></trkpt><trkpt lat="44.5203904" lon="8.8401178"><ele>603.0</ele><time>2026-04-11T10:53:05.282Z</time></trkpt><trkpt lat="44.5203243" lon="8.8399464"><ele>597.5</ele><time>2026-04-11T10:53:06.281Z</time></trkpt><trkpt lat="44.5202557" lon="8.8398008"><ele>592.0</ele><time>2026-04-11T10:53:07.281Z</time></trkpt><trkpt lat="44.5201709" lon="8.8396684"><ele>586.5</ele><time>2026-04-11T10:53:08.281Z</time></trkpt><trkpt lat="44.5200707" lon="8.8395551"><ele>581.0</ele><time>2026-04-11T10:53:09.281Z</time></trkpt><trkpt lat="44.5199607" lon="8.8394844"><ele>581.0</ele><time>2026-04-11T10:53:10.281Z</time></trkpt><trkpt lat="44.5198371" lon="8.8394713"><ele>581.0</ele><time>2026-04-11T10:53:11.281Z</time></trkpt><trkpt lat="44.5197073" lon="8.8394697"><ele>581.0</ele><time>2026-04-11T10:53:12.281Z</time></trkpt><trkpt lat="44.5195855" lon="8.839501"><ele>581.0</ele><time>2026-04-11T10:53:13.28Z</time></trkpt><trkpt lat="44.5194484" lon="8.8395148"><ele>579.0</ele><time>2026-04-11T10:53:14.281Z</time></trkpt><trkpt lat="44.5193036" lon="8.8394927"><ele>577.0</ele><time>2026-04-11T10:53:15.281Z</time></trkpt><trkpt lat="44.5191716" lon="8.8394372"><ele>575.0</ele><time>2026-04-11T10:53:16.28Z</time></trkpt><trkpt lat="44.5190712" lon="8.8393386"><ele>573.0</ele><time>2026-04-11T10:53:17.28Z</time></trkpt><trkpt lat="44.5189984" lon="8.8391984"><ele>573.0</ele><time>2026-04-11T10:53:18.28Z</time></trkpt><trkpt lat="44.5189309" lon="8.8390448"><ele>573.0</ele><time>2026-04-11T10:53:19.28Z</time></trkpt><trkpt lat="44.5188646" lon="8.8388739"><ele>573.0</ele><time>2026-04-11T10:53:20.28Z</time></trkpt><trkpt lat="44.5187904" lon="8.8387034"><ele>573.0</ele><time>2026-04-11T10:53:21.281Z</time></trkpt><trkpt lat="44.518726" lon="8.8385399"><ele>568.6</ele><time>2026-04-11T10:53:22.281Z</time></trkpt><trkpt lat="44.5186805" lon="8.838369"><ele>564.1999999999999</ele><time>2026-04-11T10:53:23.28Z</time></trkpt><trkpt lat="44.5186623" lon="8.8382004"><ele>559.8</ele><time>2026-04-11T10:53:24.28Z</time></trkpt><trkpt lat="44.51865" lon="8.8380681"><ele>555.4</ele><time>2026-04-11T10:53:25.28Z</time></trkpt><trkpt lat="44.5186043" lon="8.8379788"><ele>551.0</ele><time>2026-04-11T10:53:26.28Z</time></trkpt><trkpt lat="44.5185216" lon="8.8379275"><ele>551.0</ele><time>2026-04-11T10:53:27.28Z</time></trkpt><trkpt lat="44.518435" lon="8.8379281"><ele>551.0</ele><time>2026-04-11T10:53:28.28Z</time></trkpt><trkpt lat="44.518365" lon="8.8379733"><ele>551.0</ele><time>2026-04-11T10:53:29.28Z</time></trkpt><trkpt lat="44.5183165" lon="8.8380565"><ele>551.0</ele><time>2026-04-11T10:53:30.28Z</time></trkpt><trkpt lat="44.5182964" lon="8.8381632"><ele>551.0</ele><time>2026-04-11T10:53:31.28Z</time></trkpt><trkpt lat="44.5183266" lon="8.8382842"><ele>551.0</ele><time>2026-04-11T10:53:32.281Z</time></trkpt><trkpt lat="44.5183789" lon="8.8384094"><ele>547.25</ele><time>2026-04-11T10:53:33.281Z</time></trkpt><trkpt lat="44.5184479" lon="8.838547"><ele>543.5</ele><time>2026-04-11T10:53:34.281Z</time></trkpt><trkpt lat="44.5185127" lon="8.8387186"><ele>539.75</ele><time>2026-04-11T10:53:35.28Z</time></trkpt><trkpt lat="44.5185556" lon="8.838939"><ele>536.0</ele><time>2026-04-11T10:53:36.281Z</time></trkpt><trkpt lat="44.5185743" lon="8.8391667"><ele>530.0</ele><time>2026-04-11T10:53:37.281Z</time></trkpt><trkpt lat="44.5186015" lon="8.8393929"><ele>524.0</ele><time>2026-04-11T10:53:38.28Z</time></trkpt><trkpt lat="44.5186398" lon="8.8395955"><ele>518.0</ele><time>2026-04-11T10:53:39.281Z</time></trkpt><trkpt lat="44.5186879" lon="8.8397924"><ele>521.0</ele><time>2026-04-11T10:53:40.28Z</time></trkpt><trkpt lat="44.5187441" lon="8.8399832"><ele>524.0</ele><time>2026-04-11T10:53:41.28Z</time></trkpt><trkpt lat="44.5188166" lon="8.8401561"><ele>527.0</ele><time>2026-04-11T10:53:42.28Z</time></trkpt><trkpt lat="44.5188852" lon="8.8403292"><ele>530.0</ele><time>2026-04-11T10:53:43.281Z</time></trkpt><trkpt lat="44.5189606" lon="8.8404823"><ele>530.0</ele><time>2026-04-11T10:53:44.28Z</time></trkpt><trkpt lat="44.5190289" lon="8.8406177"><ele>530.0</ele><time>2026-04-11T10:53:45.28Z</time></trkpt><trkpt lat="44.5191006" lon="8.8407276"><ele>530.0</ele><time>2026-04-11T10:53:46.281Z</time></trkpt><trkpt lat="44.5191908" lon="8.8407827"><ele>530.0</ele><time>2026-04-11T10:53:47.281Z</time></trkpt><trkpt lat="44.5192771" lon="8.8408026"><ele>530.0</ele><time>2026-04-11T10:53:48.28Z</time></trkpt><trkpt lat="44.5193724" lon="8.8408028"><ele>530.0</ele><time>2026-04-11T10:53:49.28Z</time></trkpt><trkpt lat="44.5194715" lon="8.8408249"><ele>530.0</ele><time>2026-04-11T10:53:50.28Z</time></trkpt><trkpt lat="44.5195706" lon="8.8408757"><ele>530.0</ele><time>2026-04-11T10:53:51.28Z</time></trkpt><trkpt lat="44.5196312" lon="8.8409713"><ele>530.0</ele><time>2026-04-11T10:53:52.281Z</time></trkpt><trkpt lat="44.5196491" lon="8.8411126"><ele>530.0</ele><time>2026-04-11T10:53:53.28Z</time></trkpt><trkpt lat="44.5196089" lon="8.8412518"><ele>523.25</ele><time>2026-04-11T10:53:54.28Z</time></trkpt><trkpt lat="44.5195497" lon="8.8413854"><ele>516.5</ele><time>2026-04-11T10:53:55.28Z</time></trkpt><trkpt lat="44.5194885" lon="8.8415233"><ele>509.75</ele><time>2026-04-11T10:53:56.28Z</time></trkpt><trkpt lat="44.5194569" lon="8.8416711"><ele>503.0</ele><time>2026-04-11T10:53:57.28Z</time></trkpt><trkpt lat="44.5194652" lon="8.8418551"><ele>500.0</ele><time>2026-04-11T10:53:58.28Z</time></trkpt><trkpt lat="44.5194904" lon="8.8420319"><ele>497.0</ele><time>2026-04-11T10:53:59.28Z</time></trkpt><trkpt lat="44.5195163" lon="8.84222"><ele>494.0</ele><time>2026-04-11T10:54:00.28Z</time></trkpt><trkpt lat="44.5195514" lon="8.842418"><ele>491.0</ele><time>2026-04-11T10:54:01.28Z</time></trkpt><trkpt lat="44.5195945" lon="8.8426126"><ele>495.0</ele><time>2026-04-11T10:54:02.281Z</time></trkpt><trkpt lat="44.5196526" lon="8.8427987"><ele>499.0</ele><time>2026-04-11T10:54:03.28Z</time></trkpt><trkpt lat="44.5197156" lon="8.8429767"><ele>503.0</ele><time>2026-04-11T10:54:04.28Z</time></trkpt><trkpt lat="44.5197867" lon="8.8431487"><ele>507.0</ele><time>2026-04-11T10:54:05.28Z</time></trkpt><trkpt lat="44.5198632" lon="8.8433022"><ele>507.0</ele><time>2026-04-11T10:54:06.28Z</time></trkpt><trkpt lat="44.5199595" lon="8.8434301"><ele>507.0</ele><time>2026-04-11T10:54:07.28Z</time></trkpt><trkpt lat="44.5200537" lon="8.8435221"><ele>507.0</ele><time>2026-04-11T10:54:08.28Z</time></trkpt><trkpt lat="44.5201627" lon="8.8436063"><ele>507.0</ele><time>2026-04-11T10:54:09.28Z</time></trkpt><trkpt lat="44.5202754" lon="8.8436826"><ele>505.75</ele><time>2026-04-11T10:54:10.28Z</time></trkpt><trkpt lat="44.5203943" lon="8.8437663"><ele>504.5</ele><time>2026-04-11T10:54:11.281Z</time></trkpt><trkpt lat="44.5205081" lon="8.8438917"><ele>503.25</ele><time>2026-04-11T10:54:12.28Z</time></trkpt><trkpt lat="44.5206087" lon="8.844026"><ele>502.0</ele><time>2026-04-11T10:54:13.28Z</time></trkpt><trkpt lat="44.5207073" lon="8.8441853"><ele>494.6666666666667</ele><time>2026-04-11T10:54:14.281Z</time></trkpt><trkpt lat="44.5207967" lon="8.8443699"><ele>487.33333333333337</ele><time>2026-04-11T10:54:15.281Z</time></trkpt><trkpt lat="44.5208759" lon="8.8445825"><ele>480.0</ele><time>2026-04-11T10:54:16.281Z</time></trkpt><trkpt lat="44.5209676" lon="8.8447714"><ele>480.0</ele><time>2026-04-11T10:54:17.28Z</time></trkpt><trkpt lat="44.5210613" lon="8.8449441"><ele>480.0</ele><time>2026-04-11T10:54:18.28Z</time></trkpt><trkpt lat="44.5211498" lon="8.845109"><ele>480.0</ele><time>2026-04-11T10:54:19.28Z</time></trkpt><trkpt lat="44.5212267" lon="8.8452812"><ele>480.0</ele><time>2026-04-11T10:54:20.28Z</time></trkpt><trkpt lat="44.5212712" lon="8.8454777"><ele>480.75</ele><time>2026-04-11T10:54:21.281Z</time></trkpt><trkpt lat="44.5212798" lon="8.8456841"><ele>481.5</ele><time>2026-04-11T10:54:22.28Z</time></trkpt><trkpt lat="44.5212376" lon="8.845861"><ele>482.25</ele><time>2026-04-11T10:54:23.28Z</time></trkpt><trkpt lat="44.521173" lon="8.8460157"><ele>483.0</ele><time>2026-04-11T10:54:24.28Z</time></trkpt><trkpt lat="44.5210793" lon="8.8461406"><ele>477.5</ele><time>2026-04-11T10:54:25.28Z</time></trkpt><trkpt lat="44.5209917" lon="8.846265"><ele>472.0</ele><time>2026-04-11T10:54:26.281Z</time></trkpt><trkpt lat="44.5209087" lon="8.8463917"><ele>466.5</ele><time>2026-04-11T10:54:27.281Z</time></trkpt><trkpt lat="44.5208438" lon="8.8465371"><ele>461.0</ele><time>2026-04-11T10:54:28.28Z</time></trkpt><trkpt lat="44.5207874" lon="8.8467076"><ele>462.25</ele><time>2026-04-11T10:54:29.281Z</time></trkpt><trkpt lat="44.5207381" lon="8.8468906"><ele>463.5</ele><time>2026-04-11T10:54:30.281Z</time></trkpt><trkpt lat="44.5206913" lon="8.8470713"><ele>464.75</ele><time>2026-04-11T10:54:31.28Z</time></trkpt><trkpt lat="44.5206243" lon="8.8472289"><ele>466.0</ele><time>2026-04-11T10:54:32.28Z</time></trkpt><trkpt lat="44.52053" lon="8.8473523"><ele>466.0</ele><time>2026-04-11T10:54:33.28Z</time></trkpt><trkpt lat="44.5204134" lon="8.8474509"><ele>466.0</ele><time>2026-04-11T10:54:34.28Z</time></trkpt><trkpt lat="44.5202797" lon="8.8475168"><ele>466.0</ele><time>2026-04-11T10:54:35.28Z</time></trkpt><trkpt lat="44.5201452" lon="8.8475704"><ele>466.0</ele><time>2026-04-11T10:54:36.28Z</time></trkpt><trkpt lat="44.5200308" lon="8.8476096"><ele>465.20000000000005</ele><time>2026-04-11T10:54:37.28Z</time></trkpt><trkpt lat="44.5199417" lon="8.8476818"><ele>464.40000000000003</ele><time>2026-04-11T10:54:38.28Z</time></trkpt><trkpt lat="44.5198723" lon="8.8477617"><ele>463.6</ele><time>2026-04-11T10:54:39.28Z</time></trkpt><trkpt lat="44.5198236" lon="8.8478761"><ele>462.8</ele><time>2026-04-11T10:54:40.28Z</time></trkpt><trkpt lat="44.5198039" lon="8.8480066"><ele>462.0</ele><time>2026-04-11T10:54:41.28Z</time></trkpt><trkpt lat="44.5197956" lon="8.8481513"><ele>462.0</ele><time>2026-04-11T10:54:42.281Z</time></trkpt><trkpt lat="44.5197571" lon="8.8483153"><ele>462.0</ele><time>2026-04-11T10:54:43.28Z</time></trkpt><trkpt lat="44.519666" lon="8.84846"><ele>462.0</ele><time>2026-04-11T10:54:44.28Z</time></trkpt><trkpt lat="44.5195593" lon="8.8485949"><ele>462.0</ele><time>2026-04-11T10:54:45.28Z</time></trkpt><trkpt lat="44.5194424" lon="8.8487062"><ele>456.5</ele><time>2026-04-11T10:54:46.281Z</time></trkpt><trkpt lat="44.5193258" lon="8.8488333"><ele>451.0</ele><time>2026-04-11T10:54:47.28Z</time></trkpt><trkpt lat="44.5192134" lon="8.8489699"><ele>445.5</ele><time>2026-04-11T10:54:48.28Z</time></trkpt><trkpt lat="44.5191155" lon="8.8491297"><ele>440.0</ele><time>2026-04-11T10:54:49.28Z</time></trkpt><trkpt lat="44.5190571" lon="8.8492905"><ele>440.75</ele><time>2026-04-11T10:54:50.28Z</time></trkpt><trkpt lat="44.5190152" lon="8.8494617"><ele>441.5</ele><time>2026-04-11T10:54:51.28Z</time></trkpt><trkpt lat="44.5190028" lon="8.8496447"><ele>442.25</ele><time>2026-04-11T10:54:52.28Z</time></trkpt><trkpt lat="44.5190334" lon="8.8498412"><ele>443.0</ele><time>2026-04-11T10:54:53.28Z</time></trkpt><trkpt lat="44.519084" lon="8.8500478"><ele>439.66666666666663</ele><time>2026-04-11T10:54:54.281Z</time></trkpt><trkpt lat="44.5191231" lon="8.8502717"><ele>436.33333333333337</ele><time>2026-04-11T10:54:55.28Z</time></trkpt><trkpt lat="44.5191387" lon="8.8504898"><ele>433.0</ele><time>2026-04-11T10:54:56.281Z</time></trkpt><trkpt lat="44.5191232" lon="8.8507142"><ele>433.0</ele><time>2026-04-11T10:54:57.28Z</time></trkpt><trkpt lat="44.5190906" lon="8.8509332"><ele>433.0</ele><time>2026-04-11T10:54:58.28Z</time></trkpt><trkpt lat="44.51904" lon="8.8511391"><ele>433.0</ele><time>2026-04-11T10:54:59.28Z</time></trkpt><trkpt lat="44.5189816" lon="8.8513328"><ele>432.5</ele><time>2026-04-11T10:55:00.28Z</time></trkpt><trkpt lat="44.5189273" lon="8.8515241"><ele>432.0</ele><time>2026-04-11T10:55:01.28Z</time></trkpt><trkpt lat="44.5188555" lon="8.8517047"><ele>431.5</ele><time>2026-04-11T10:55:02.28Z</time></trkpt><trkpt lat="44.5187916" lon="8.8518746"><ele>431.0</ele><time>2026-04-11T10:55:03.28Z</time></trkpt><trkpt lat="44.5187363" lon="8.8520353"><ele>430.0</ele><time>2026-04-11T10:55:04.281Z</time></trkpt><trkpt lat="44.518724" lon="8.8522237"><ele>429.0</ele><time>2026-04-11T10:55:05.28Z</time></trkpt><trkpt lat="44.5187343" lon="8.8524231"><ele>428.0</ele><time>2026-04-11T10:55:06.281Z</time></trkpt><trkpt lat="44.5187486" lon="8.8526389"><ele>427.0</ele><time>2026-04-11T10:55:07.28Z</time></trkpt><trkpt lat="44.5187535" lon="8.8528868"><ele>427.0</ele><time>2026-04-11T10:55:08.281Z</time></trkpt><trkpt lat="44.5187563" lon="8.8531136"><ele>427.0</ele><time>2026-04-11T10:55:09.281Z</time></trkpt><trkpt lat="44.5187462" lon="8.8533291"><ele>427.0</ele><time>2026-04-11T10:55:10.28Z</time></trkpt><trkpt lat="44.5187181" lon="8.853538"><ele>419.0</ele><time>2026-04-11T10:55:11.28Z</time></trkpt><trkpt lat="44.5186921" lon="8.853723"><ele>411.0</ele><time>2026-04-11T10:55:12.28Z</time></trkpt><trkpt lat="44.5186578" lon="8.8538821"><ele>403.0</ele><time>2026-04-11T10:55:13.28Z</time></trkpt><trkpt lat="44.5185875" lon="8.8540067"><ele>395.0</ele><time>2026-04-11T10:55:14.28Z</time></trkpt><trkpt lat="44.5184869" lon="8.8540709"><ele>395.0</ele><time>2026-04-11T10:55:15.281Z</time></trkpt><trkpt lat="44.5183824" lon="8.8540817"><ele>395.0</ele><time>2026-04-11T10:55:16.28Z</time></trkpt><trkpt lat="44.5182627" lon="8.8540312"><ele>395.0</ele><time>2026-04-11T10:55:17.28Z</time></trkpt><trkpt lat="44.5181487" lon="8.8539328"><ele>395.0</ele><time>2026-04-11T10:55:18.28Z</time></trkpt><trkpt lat="44.5180068" lon="8.8538347"><ele>391.5</ele><time>2026-04-11T10:55:19.28Z</time></trkpt><trkpt lat="44.5178755" lon="8.8537359"><ele>388.0</ele><time>2026-04-11T10:55:20.28Z</time></trkpt><trkpt lat="44.5177422" lon="8.8536455"><ele>384.5</ele><time>2026-04-11T10:55:21.281Z</time></trkpt><trkpt lat="44.5176177" lon="8.8535589"><ele>381.0</ele><time>2026-04-11T10:55:22.281Z</time></trkpt><trkpt lat="44.5175048" lon="8.8534693"><ele>380.6</ele><time>2026-04-11T10:55:23.28Z</time></trkpt><trkpt lat="44.5174075" lon="8.8533648"><ele>380.20000000000005</ele><time>2026-04-11T10:55:24.28Z</time></trkpt><trkpt lat="44.5173262" lon="8.8532343"><ele>379.79999999999995</ele><time>2026-04-11T10:55:25.28Z</time></trkpt><trkpt lat="44.517262" lon="8.8531113"><ele>379.4</ele><time>2026-04-11T10:55:26.281Z</time></trkpt><trkpt lat="44.5172274" lon="8.8530125"><ele>379.0</ele><time>2026-04-11T10:55:27.281Z</time></trkpt><trkpt lat="44.5172204" lon="8.8528954"><ele>379.0</ele><time>2026-04-11T10:55:28.28Z</time></trkpt><trkpt lat="44.5172488" lon="8.8527656"><ele>379.0</ele><time>2026-04-11T10:55:29.281Z</time></trkpt><trkpt lat="44.5172978" lon="8.852628"><ele>379.0</ele><time>2026-04-11T10:55:30.28Z</time></trkpt><trkpt lat="44.5173425" lon="8.8524794"><ele>379.0</ele><time>2026-04-11T10:55:31.28Z</time></trkpt><trkpt lat="44.5173926" lon="8.8523338"><ele>379.0</ele><time>2026-04-11T10:55:32.28Z</time></trkpt><trkpt lat="44.517441" lon="8.8522043"><ele>378.0</ele><time>2026-04-11T10:55:33.28Z</time></trkpt><trkpt lat="44.5174737" lon="8.8520778"><ele>377.0</ele><time>2026-04-11T10:55:34.281Z</time></trkpt><trkpt lat="44.5174757" lon="8.8519594"><ele>376.0</ele><time>2026-04-11T10:55:35.28Z</time></trkpt><trkpt lat="44.5174439" lon="8.8518499"><ele>375.0</ele><time>2026-04-11T10:55:36.281Z</time></trkpt><trkpt lat="44.5173999" lon="8.8517186"><ele>374.0</ele><time>2026-04-11T10:55:37.28Z</time></trkpt><trkpt lat="44.5173429" lon="8.8515752"><ele>373.79999999999995</ele><time>2026-04-11T10:55:38.28Z</time></trkpt><trkpt lat="44.5172816" lon="8.8514247"><ele>373.59999999999997</ele><time>2026-04-11T10:55:39.28Z</time></trkpt><trkpt lat="44.5172199" lon="8.8512941"><ele>373.4</ele><time>2026-04-11T10:55:40.28Z</time></trkpt><trkpt lat="44.5171723" lon="8.8511633"><ele>373.2</ele><time>2026-04-11T10:55:41.28Z</time></trkpt><trkpt lat="44.5171497" lon="8.8510427"><ele>373.0</ele><time>2026-04-11T10:55:42.281Z</time></trkpt><trkpt lat="44.5171535" lon="8.8509127"><ele>372.79999999999995</ele><time>2026-04-11T10:55:43.28Z</time></trkpt><trkpt lat="44.5171717" lon="8.850772"><ele>372.6</ele><time>2026-04-11T10:55:44.28Z</time></trkpt><trkpt lat="44.5171997" lon="8.8506193"><ele>372.4</ele><time>2026-04-11T10:55:45.28Z</time></trkpt><trkpt lat="44.5172336" lon="8.8504666"><ele>372.20000000000005</ele><time>2026-04-11T10:55:46.28Z</time></trkpt><trkpt lat="44.5172778" lon="8.8503305"><ele>372.0</ele><time>2026-04-11T10:55:47.28Z</time></trkpt><trkpt lat="44.5173098" lon="8.8502128"><ele>370.8</ele><time>2026-04-11T10:55:48.28Z</time></trkpt><trkpt lat="44.5172619" lon="8.850047"><ele>369.6</ele><time>2026-04-11T10:55:50.28Z</time></trkpt><trkpt lat="44.51714" lon="8.8500098"><ele>368.40000000000003</ele><time>2026-04-11T10:55:52.281Z</time></trkpt><trkpt lat="44.5170787" lon="8.8500755"><ele>367.20000000000005</ele><time>2026-04-11T10:55:53.28Z</time></trkpt><trkpt lat="44.5170144" lon="8.8501656"><ele>366.0</ele><time>2026-04-11T10:55:54.28Z</time></trkpt><trkpt lat="44.5169476" lon="8.8502765"><ele>361.0</ele><time>2026-04-11T10:55:55.281Z</time></trkpt><trkpt lat="44.5168763" lon="8.8503951"><ele>356.0</ele><time>2026-04-11T10:55:56.28Z</time></trkpt><trkpt lat="44.5167934" lon="8.8504947"><ele>351.0</ele><time>2026-04-11T10:55:57.281Z</time></trkpt><trkpt lat="44.5167168" lon="8.8505709"><ele>346.0</ele><time>2026-04-11T10:55:58.28Z</time></trkpt><trkpt lat="44.5166461" lon="8.8506581"><ele>341.0</ele><time>2026-04-11T10:55:59.28Z</time></trkpt><trkpt lat="44.5166042" lon="8.8507587"><ele>341.0</ele><time>2026-04-11T10:56:00.28Z</time></trkpt><trkpt lat="44.5165836" lon="8.8508794"><ele>341.0</ele><time>2026-04-11T10:56:01.281Z</time></trkpt><trkpt lat="44.5165855" lon="8.8510219"><ele>341.0</ele><time>2026-04-11T10:56:02.281Z</time></trkpt><trkpt lat="44.5165995" lon="8.8511763"><ele>341.0</ele><time>2026-04-11T10:56:03.28Z</time></trkpt><trkpt lat="44.5166053" lon="8.8513091"><ele>341.0</ele><time>2026-04-11T10:56:04.28Z</time></trkpt><trkpt lat="44.5166147" lon="8.8514768"><ele>341.6</ele><time>2026-04-11T10:56:05.281Z</time></trkpt><trkpt lat="44.5166125" lon="8.8516238"><ele>342.20000000000005</ele><time>2026-04-11T10:56:06.28Z</time></trkpt><trkpt lat="44.5166106" lon="8.8517704"><ele>342.79999999999995</ele><time>2026-04-11T10:56:07.28Z</time></trkpt><trkpt lat="44.5165986" lon="8.8518981"><ele>343.4</ele><time>2026-04-11T10:56:08.281Z</time></trkpt><trkpt lat="44.5165646" lon="8.8520068"><ele>344.0</ele><time>2026-04-11T10:56:09.28Z</time></trkpt><trkpt lat="44.5164939" lon="8.8520907"><ele>344.6</ele><time>2026-04-11T10:56:10.28Z</time></trkpt><trkpt lat="44.5164038" lon="8.8521295"><ele>345.2</ele><time>2026-04-11T10:56:11.28Z</time></trkpt><trkpt lat="44.5163192" lon="8.8521378"><ele>345.8</ele><time>2026-04-11T10:56:12.28Z</time></trkpt><trkpt lat="44.5162362" lon="8.8520779"><ele>346.40000000000003</ele><time>2026-04-11T10:56:13.28Z</time></trkpt><trkpt lat="44.5161518" lon="8.8519886"><ele>347.0</ele><time>2026-04-11T10:56:14.28Z</time></trkpt><trkpt lat="44.5160676" lon="8.8519024"><ele>343.8</ele><time>2026-04-11T10:56:15.28Z</time></trkpt><trkpt lat="44.5159865" lon="8.8518167"><ele>340.6</ele><time>2026-04-11T10:56:16.28Z</time></trkpt><trkpt lat="44.5159025" lon="8.8517312"><ele>337.40000000000003</ele><time>2026-04-11T10:56:17.28Z</time></trkpt><trkpt lat="44.5158179" lon="8.8516386"><ele>334.20000000000005</ele><time>2026-04-11T10:56:18.281Z</time></trkpt><trkpt lat="44.5157317" lon="8.8515504"><ele>331.0</ele><time>2026-04-11T10:56:19.28Z</time></trkpt><trkpt lat="44.515645" lon="8.8514787"><ele>330.6</ele><time>2026-04-11T10:56:20.28Z</time></trkpt><trkpt lat="44.5155528" lon="8.851433"><ele>330.20000000000005</ele><time>2026-04-11T10:56:21.28Z</time></trkpt><trkpt lat="44.5154565" lon="8.8514298"><ele>329.79999999999995</ele><time>2026-04-11T10:56:22.28Z</time></trkpt><trkpt lat="44.5153548" lon="8.8514708"><ele>329.4</ele><time>2026-04-11T10:56:23.28Z</time></trkpt><trkpt lat="44.5152522" lon="8.8515089"><ele>329.0</ele><time>2026-04-11T10:56:24.28Z</time></trkpt><trkpt lat="44.5151399" lon="8.8515565"><ele>328.4</ele><time>2026-04-11T10:56:25.28Z</time></trkpt><trkpt lat="44.5150275" lon="8.8515954"><ele>327.79999999999995</ele><time>2026-04-11T10:56:26.28Z</time></trkpt><trkpt lat="44.514917" lon="8.8516363"><ele>327.20000000000005</ele><time>2026-04-11T10:56:27.281Z</time></trkpt><trkpt lat="44.5148191" lon="8.8516754"><ele>326.6</ele><time>2026-04-11T10:56:28.28Z</time></trkpt><trkpt lat="44.5147249" lon="8.8517187"><ele>326.0</ele><time>2026-04-11T10:56:29.28Z</time></trkpt><trkpt lat="44.5146363" lon="8.8517723"><ele>325.1666666666667</ele><time>2026-04-11T10:56:30.281Z</time></trkpt><trkpt lat="44.5145684" lon="8.8518562"><ele>324.33333333333337</ele><time>2026-04-11T10:56:31.281Z</time></trkpt><trkpt lat="44.5145206" lon="8.8519573"><ele>323.5</ele><time>2026-04-11T10:56:32.28Z</time></trkpt><trkpt lat="44.5144999" lon="8.8520768"><ele>322.6666666666667</ele><time>2026-04-11T10:56:33.281Z</time></trkpt><trkpt lat="44.5145111" lon="8.8521964"><ele>321.8333333333333</ele><time>2026-04-11T10:56:34.281Z</time></trkpt><trkpt lat="44.5145552" lon="8.8523015"><ele>321.0</ele><time>2026-04-11T10:56:35.281Z</time></trkpt><trkpt lat="44.5146151" lon="8.8523703"><ele>321.0</ele><time>2026-04-11T10:56:36.281Z</time></trkpt><trkpt lat="44.5146974" lon="8.8523873"><ele>321.0</ele><time>2026-04-11T10:56:37.28Z</time></trkpt><trkpt lat="44.5147813" lon="8.8523623"><ele>321.0</ele><time>2026-04-11T10:56:38.28Z</time></trkpt><trkpt lat="44.5148733" lon="8.8523275"><ele>321.0</ele><time>2026-04-11T10:56:39.28Z</time></trkpt><trkpt lat="44.5149683" lon="8.8522968"><ele>321.0</ele><time>2026-04-11T10:56:40.281Z</time></trkpt><trkpt lat="44.5150642" lon="8.8523268"><ele>321.0</ele><time>2026-04-11T10:56:41.28Z</time></trkpt><trkpt lat="44.515148" lon="8.8524011"><ele>321.0</ele><time>2026-04-11T10:56:42.28Z</time></trkpt><trkpt lat="44.5151947" lon="8.8525021"><ele>321.0</ele><time>2026-04-11T10:56:43.28Z</time></trkpt><trkpt lat="44.51521" lon="8.8526359"><ele>321.0</ele><time>2026-04-11T10:56:44.281Z</time></trkpt><trkpt lat="44.5151826" lon="8.8527516"><ele>321.0</ele><time>2026-04-11T10:56:45.281Z</time></trkpt><trkpt lat="44.5151124" lon="8.8528526"><ele>322.0</ele><time>2026-04-11T10:56:46.281Z</time></trkpt><trkpt lat="44.5150202" lon="8.8529279"><ele>323.0</ele><time>2026-04-11T10:56:47.28Z</time></trkpt><trkpt lat="44.5149132" lon="8.8529697"><ele>324.0</ele><time>2026-04-11T10:56:48.28Z</time></trkpt><trkpt lat="44.5147882" lon="8.8529665"><ele>325.0</ele><time>2026-04-11T10:56:49.281Z</time></trkpt><trkpt lat="44.5146724" lon="8.8529307"><ele>320.0</ele><time>2026-04-11T10:56:50.281Z</time></trkpt><trkpt lat="44.5145625" lon="8.8528447"><ele>315.0</ele><time>2026-04-11T10:56:51.28Z</time></trkpt><trkpt lat="44.5144451" lon="8.8527601"><ele>310.0</ele><time>2026-04-11T10:56:52.28Z</time></trkpt><trkpt lat="44.5143319" lon="8.8526733"><ele>305.0</ele><time>2026-04-11T10:56:53.28Z</time></trkpt><trkpt lat="44.514219" lon="8.8525791"><ele>305.0</ele><time>2026-04-11T10:56:54.281Z</time></trkpt><trkpt lat="44.5141079" lon="8.8524899"><ele>305.0</ele><time>2026-04-11T10:56:55.281Z</time></trkpt><trkpt lat="44.5140068" lon="8.8524188"><ele>305.0</ele><time>2026-04-11T10:56:56.281Z</time></trkpt><trkpt lat="44.5139159" lon="8.8523806"><ele>305.0</ele><time>2026-04-11T10:56:57.28Z</time></trkpt><trkpt lat="44.5138315" lon="8.8523989"><ele>305.0</ele><time>2026-04-11T10:56:58.28Z</time></trkpt><trkpt lat="44.5137715" lon="8.8524784"><ele>305.0</ele><time>2026-04-11T10:56:59.28Z</time></trkpt><trkpt lat="44.5137424" lon="8.8525746"><ele>305.0</ele><time>2026-04-11T10:57:00.281Z</time></trkpt><trkpt lat="44.5137464" lon="8.8527173"><ele>305.0</ele><time>2026-04-11T10:57:01.28Z</time></trkpt><trkpt lat="44.5137525" lon="8.8528517"><ele>305.0</ele><time>2026-04-11T10:57:02.281Z</time></trkpt><trkpt lat="44.5137338" lon="8.8529786"><ele>305.0</ele><time>2026-04-11T10:57:03.28Z</time></trkpt><trkpt lat="44.5136804" lon="8.8530723"><ele>300.83333333333337</ele><time>2026-04-11T10:57:04.28Z</time></trkpt><trkpt lat="44.5135968" lon="8.853102"><ele>296.6666666666667</ele><time>2026-04-11T10:57:05.28Z</time></trkpt><trkpt lat="44.5135199" lon="8.8530792"><ele>292.5</ele><time>2026-04-11T10:57:06.28Z</time></trkpt><trkpt lat="44.5134704" lon="8.8530021"><ele>288.3333333333333</ele><time>2026-04-11T10:57:07.28Z</time></trkpt><trkpt lat="44.513437" lon="8.8528666"><ele>284.16666666666663</ele><time>2026-04-11T10:57:08.28Z</time></trkpt><trkpt lat="44.5134117" lon="8.8527254"><ele>280.0</ele><time>2026-04-11T10:57:09.281Z</time></trkpt><trkpt lat="44.5133856" lon="8.8525657"><ele>279.75</ele><time>2026-04-11T10:57:10.28Z</time></trkpt><trkpt lat="44.513356" lon="8.8524087"><ele>279.5</ele><time>2026-04-11T10:57:11.28Z</time></trkpt><trkpt lat="44.5133173" lon="8.8522562"><ele>279.25</ele><time>2026-04-11T10:57:12.281Z</time></trkpt><trkpt lat="44.5132902" lon="8.852102"><ele>279.0</ele><time>2026-04-11T10:57:13.281Z</time></trkpt><trkpt lat="44.5132807" lon="8.8519335"><ele>279.0</ele><time>2026-04-11T10:57:14.28Z</time></trkpt><trkpt lat="44.5132773" lon="8.8517612"><ele>279.0</ele><time>2026-04-11T10:57:15.28Z</time></trkpt><trkpt lat="44.5132892" lon="8.8515774"><ele>279.0</ele><time>2026-04-11T10:57:16.28Z</time></trkpt><trkpt lat="44.5133096" lon="8.8513904"><ele>279.0</ele><time>2026-04-11T10:57:17.28Z</time></trkpt><trkpt lat="44.5133204" lon="8.8512123"><ele>279.0</ele><time>2026-04-11T10:57:18.28Z</time></trkpt><trkpt lat="44.5133248" lon="8.8510334"><ele>279.0</ele><time>2026-04-11T10:57:19.28Z</time></trkpt><trkpt lat="44.5132945" lon="8.8508574"><ele>279.0</ele><time>2026-04-11T10:57:20.28Z</time></trkpt><trkpt lat="44.5132202" lon="8.8506972"><ele>279.0</ele><time>2026-04-11T10:57:21.28Z</time></trkpt><trkpt lat="44.5131449" lon="8.8505528"><ele>278.75</ele><time>2026-04-11T10:57:22.28Z</time></trkpt><trkpt lat="44.5130865" lon="8.8503952"><ele>278.5</ele><time>2026-04-11T10:57:23.28Z</time></trkpt><trkpt lat="44.5130527" lon="8.8502317"><ele>278.25</ele><time>2026-04-11T10:57:24.28Z</time></trkpt><trkpt lat="44.5130503" lon="8.8500564"><ele>278.0</ele><time>2026-04-11T10:57:25.28Z</time></trkpt><trkpt lat="44.5130674" lon="8.8498829"><ele>278.0</ele><time>2026-04-11T10:57:26.281Z</time></trkpt><trkpt lat="44.5130914" lon="8.8497249"><ele>278.0</ele><time>2026-04-11T10:57:27.281Z</time></trkpt><trkpt lat="44.5131236" lon="8.8495744"><ele>278.0</ele><time>2026-04-11T10:57:28.28Z</time></trkpt><trkpt lat="44.5131679" lon="8.8494292"><ele>278.0</ele><time>2026-04-11T10:57:29.28Z</time></trkpt><trkpt lat="44.5132322" lon="8.849297"><ele>275.8</ele><time>2026-04-11T10:57:30.28Z</time></trkpt><trkpt lat="44.5132993" lon="8.849179"><ele>273.6</ele><time>2026-04-11T10:57:31.28Z</time></trkpt><trkpt lat="44.5133575" lon="8.8490945"><ele>271.4</ele><time>2026-04-11T10:57:32.28Z</time></trkpt><trkpt lat="44.513388" lon="8.8489378"><ele>269.2</ele><time>2026-04-11T10:57:34.28Z</time></trkpt><trkpt lat="44.5133389" lon="8.8487967"><ele>267.0</ele><time>2026-04-11T10:57:36.281Z</time></trkpt><trkpt lat="44.5132085" lon="8.8486993"><ele>267.0</ele><time>2026-04-11T10:57:38.281Z</time></trkpt><trkpt lat="44.5131261" lon="8.8486551"><ele>267.0</ele><time>2026-04-11T10:57:39.281Z</time></trkpt><trkpt lat="44.5130428" lon="8.8486271"><ele>267.0</ele><time>2026-04-11T10:57:40.281Z</time></trkpt><trkpt lat="44.5129508" lon="8.8486314"><ele>267.0</ele><time>2026-04-11T10:57:41.281Z</time></trkpt><trkpt lat="44.5128848" lon="8.8486717"><ele>267.0</ele><time>2026-04-11T10:57:42.28Z</time></trkpt><trkpt lat="44.5127951" lon="8.8487535"><ele>267.0</ele><time>2026-04-11T10:57:44.28Z</time></trkpt><trkpt lat="44.5127412" lon="8.8488209"><ele>263.8</ele><time>2026-04-11T10:57:46.28Z</time></trkpt><trkpt lat="44.5126762" lon="8.8489333"><ele>260.6</ele><time>2026-04-11T10:58:17.28Z</time></trkpt><trkpt lat="44.5126029" lon="8.8490815"><ele>257.40000000000003</ele><time>2026-04-11T10:58:19.28Z</time></trkpt><trkpt lat="44.5125484" lon="8.8492116"><ele>254.20000000000002</ele><time>2026-04-11T10:58:20.28Z</time></trkpt><trkpt lat="44.5125026" lon="8.849351"><ele>251.0</ele><time>2026-04-11T10:58:21.28Z</time></trkpt><trkpt lat="44.5124464" lon="8.8495077"><ele>251.0</ele><time>2026-04-11T10:58:22.28Z</time></trkpt><trkpt lat="44.5124" lon="8.8496839"><ele>251.0</ele><time>2026-04-11T10:58:23.28Z</time></trkpt><trkpt lat="44.512366" lon="8.8498674"><ele>251.0</ele><time>2026-04-11T10:58:24.28Z</time></trkpt><trkpt lat="44.5123346" lon="8.8500301"><ele>251.0</ele><time>2026-04-11T10:58:25.28Z</time></trkpt><trkpt lat="44.5123163" lon="8.8501837"><ele>253.0</ele><time>2026-04-11T10:58:26.281Z</time></trkpt><trkpt lat="44.5123267" lon="8.8503307"><ele>255.0</ele><time>2026-04-11T10:58:27.28Z</time></trkpt><trkpt lat="44.5123526" lon="8.8504863"><ele>257.0</ele><time>2026-04-11T10:58:28.28Z</time></trkpt><trkpt lat="44.5124003" lon="8.8506468"><ele>259.0</ele><time>2026-04-11T10:58:29.281Z</time></trkpt><trkpt lat="44.512464" lon="8.8508086"><ele>259.0</ele><time>2026-04-11T10:58:30.28Z</time></trkpt><trkpt lat="44.5125365" lon="8.8509522"><ele>259.0</ele><time>2026-04-11T10:58:31.28Z</time></trkpt><trkpt lat="44.5126025" lon="8.8510809"><ele>259.0</ele><time>2026-04-11T10:58:32.281Z</time></trkpt><trkpt lat="44.5126575" lon="8.8512227"><ele>259.0</ele><time>2026-04-11T10:58:33.28Z</time></trkpt><trkpt lat="44.5127069" lon="8.8513683"><ele>258.8</ele><time>2026-04-11T10:58:34.28Z</time></trkpt><trkpt lat="44.512742" lon="8.8515211"><ele>258.59999999999997</ele><time>2026-04-11T10:58:35.281Z</time></trkpt><trkpt lat="44.5127544" lon="8.8516754"><ele>258.4</ele><time>2026-04-11T10:58:36.28Z</time></trkpt><trkpt lat="44.512754" lon="8.8518341"><ele>258.2</ele><time>2026-04-11T10:58:37.28Z</time></trkpt><trkpt lat="44.5127409" lon="8.8519886"><ele>258.0</ele><time>2026-04-11T10:58:38.281Z</time></trkpt><trkpt lat="44.5127137" lon="8.8521371"><ele>256.0</ele><time>2026-04-11T10:58:39.28Z</time></trkpt><trkpt lat="44.5126713" lon="8.8522639"><ele>254.0</ele><time>2026-04-11T10:58:40.28Z</time></trkpt><trkpt lat="44.5125954" lon="8.8523624"><ele>252.0</ele><time>2026-04-11T10:58:41.281Z</time></trkpt><trkpt lat="44.5125253" lon="8.8524191"><ele>250.0</ele><time>2026-04-11T10:58:42.28Z</time></trkpt><trkpt lat="44.5124604" lon="8.8524685"><ele>248.0</ele><time>2026-04-11T10:58:43.281Z</time></trkpt><trkpt lat="44.5123938" lon="8.8525762"><ele>247.83333333333334</ele><time>2026-04-11T10:58:45.281Z</time></trkpt><trkpt lat="44.5123699" lon="8.8526732"><ele>247.66666666666669</ele><time>2026-04-11T10:58:46.28Z</time></trkpt><trkpt lat="44.5123689" lon="8.8527938"><ele>247.5</ele><time>2026-04-11T10:58:47.28Z</time></trkpt><trkpt lat="44.5123771" lon="8.8529054"><ele>247.33333333333331</ele><time>2026-04-11T10:58:48.28Z</time></trkpt><trkpt lat="44.5123777" lon="8.8530251"><ele>247.16666666666666</ele><time>2026-04-11T10:58:49.28Z</time></trkpt><trkpt lat="44.5123692" lon="8.8531386"><ele>247.0</ele><time>2026-04-11T10:58:50.28Z</time></trkpt><trkpt lat="44.5123298" lon="8.8532432"><ele>247.0</ele><time>2026-04-11T10:58:51.28Z</time></trkpt><trkpt lat="44.5122738" lon="8.8533504"><ele>247.0</ele><time>2026-04-11T10:58:52.28Z</time></trkpt><trkpt lat="44.5121887" lon="8.853458"><ele>247.0</ele><time>2026-04-11T10:58:53.281Z</time></trkpt><trkpt lat="44.5120934" lon="8.8535726"><ele>247.0</ele><time>2026-04-11T10:58:54.28Z</time></trkpt><trkpt lat="44.5120259" lon="8.8536999"><ele>247.0</ele><time>2026-04-11T10:58:55.28Z</time></trkpt><trkpt lat="44.5119753" lon="8.8538537"><ele>244.5</ele><time>2026-04-11T10:58:56.281Z</time></trkpt><trkpt lat="44.5119291" lon="8.8539995"><ele>242.0</ele><time>2026-04-11T10:58:57.281Z</time></trkpt><trkpt lat="44.5118929" lon="8.8541674"><ele>239.5</ele><time>2026-04-11T10:58:58.281Z</time></trkpt><trkpt lat="44.511866" lon="8.8543318"><ele>237.0</ele><time>2026-04-11T10:58:59.281Z</time></trkpt><trkpt lat="44.5118464" lon="8.8544942"><ele>236.8</ele><time>2026-04-11T10:59:00.28Z</time></trkpt><trkpt lat="44.5118517" lon="8.854644"><ele>236.6</ele><time>2026-04-11T10:59:01.28Z</time></trkpt><trkpt lat="44.5118385" lon="8.8547842"><ele>236.40000000000003</ele><time>2026-04-11T10:59:02.281Z</time></trkpt><trkpt lat="44.5118126" lon="8.8549279"><ele>236.20000000000002</ele><time>2026-04-11T10:59:03.28Z</time></trkpt><trkpt lat="44.5117979" lon="8.8550763"><ele>236.0</ele><time>2026-04-11T10:59:04.28Z</time></trkpt><trkpt lat="44.5117979" lon="8.8552295"><ele>234.4</ele><time>2026-04-11T10:59:05.28Z</time></trkpt><trkpt lat="44.5118139" lon="8.8553626"><ele>232.8</ele><time>2026-04-11T10:59:06.28Z</time></trkpt><trkpt lat="44.511853" lon="8.8554955"><ele>231.20000000000002</ele><time>2026-04-11T10:59:07.281Z</time></trkpt><trkpt lat="44.5118904" lon="8.8556399"><ele>229.60000000000002</ele><time>2026-04-11T10:59:08.28Z</time></trkpt><trkpt lat="44.5119309" lon="8.8557907"><ele>228.0</ele><time>2026-04-11T10:59:09.281Z</time></trkpt><trkpt lat="44.5119737" lon="8.8559245"><ele>227.2</ele><time>2026-04-11T10:59:10.28Z</time></trkpt><trkpt lat="44.511997" lon="8.8560586"><ele>226.4</ele><time>2026-04-11T10:59:11.28Z</time></trkpt><trkpt lat="44.5119757" lon="8.856203"><ele>225.59999999999997</ele><time>2026-04-11T10:59:12.28Z</time></trkpt><trkpt lat="44.5119315" lon="8.8563377"><ele>224.79999999999998</ele><time>2026-04-11T10:59:13.28Z</time></trkpt><trkpt lat="44.5118738" lon="8.8564582"><ele>224.0</ele><time>2026-04-11T10:59:14.28Z</time></trkpt><trkpt lat="44.5117978" lon="8.8565524"><ele>224.00000000000003</ele><time>2026-04-11T10:59:15.28Z</time></trkpt><trkpt lat="44.5117278" lon="8.8566301"><ele>224.0</ele><time>2026-04-11T10:59:16.281Z</time></trkpt><trkpt lat="44.5116636" lon="8.8567016"><ele>224.0</ele><time>2026-04-11T10:59:17.28Z</time></trkpt><trkpt lat="44.511609" lon="8.8567591"><ele>224.0</ele><time>2026-04-11T10:59:18.281Z</time></trkpt><trkpt lat="44.5115572" lon="8.8569025"><ele>224.00000000000003</ele><time>2026-04-11T10:59:20.279Z</time></trkpt><trkpt lat="44.5115513" lon="8.8569964"><ele>224.0</ele><time>2026-04-11T10:59:21.279Z</time></trkpt><trkpt lat="44.5115656" lon="8.8570952"><ele>224.00000000000003</ele><time>2026-04-11T10:59:22.279Z</time></trkpt><trkpt lat="44.5116131" lon="8.8572099"><ele>224.0</ele><time>2026-04-11T10:59:23.279Z</time></trkpt><trkpt lat="44.5116601" lon="8.8573114"><ele>224.0</ele><time>2026-04-11T10:59:24.28Z</time></trkpt><trkpt lat="44.5117181" lon="8.8574064"><ele>224.0</ele><time>2026-04-11T10:59:25.279Z</time></trkpt><trkpt lat="44.51177" lon="8.8575139"><ele>224.00000000000003</ele><time>2026-04-11T10:59:26.279Z</time></trkpt><trkpt lat="44.5118106" lon="8.8576196"><ele>224.0</ele><time>2026-04-11T10:59:27.279Z</time></trkpt><trkpt lat="44.5118311" lon="8.8577226"><ele>224.16666666666669</ele><time>2026-04-11T10:59:28.279Z</time></trkpt><trkpt lat="44.5118468" lon="8.8578296"><ele>224.33333333333334</ele><time>2026-04-11T10:59:29.279Z</time></trkpt><trkpt lat="44.5118422" lon="8.8579308"><ele>224.5</ele><time>2026-04-11T10:59:30.279Z</time></trkpt><trkpt lat="44.5118109" lon="8.858027"><ele>224.66666666666669</ele><time>2026-04-11T10:59:31.279Z</time></trkpt><trkpt lat="44.5117738" lon="8.8581189"><ele>224.83333333333334</ele><time>2026-04-11T10:59:32.28Z</time></trkpt><trkpt lat="44.5117323" lon="8.8582137"><ele>225.0</ele><time>2026-04-11T10:59:33.28Z</time></trkpt><trkpt lat="44.5117032" lon="8.8583188"><ele>225.0</ele><time>2026-04-11T10:59:34.28Z</time></trkpt><trkpt lat="44.5116759" lon="8.8584406"><ele>225.0</ele><time>2026-04-11T10:59:35.279Z</time></trkpt><trkpt lat="44.5116449" lon="8.8585551"><ele>225.0</ele><time>2026-04-11T10:59:36.28Z</time></trkpt><trkpt lat="44.5115879" lon="8.8586495"><ele>225.0</ele><time>2026-04-11T10:59:37.28Z</time></trkpt><trkpt lat="44.5115215" lon="8.8587204"><ele>225.0</ele><time>2026-04-11T10:59:38.28Z</time></trkpt><trkpt lat="44.511448" lon="8.8587583"><ele>225.0</ele><time>2026-04-11T10:59:39.28Z</time></trkpt><trkpt lat="44.5113688" lon="8.8587787"><ele>225.5</ele><time>2026-04-11T10:59:40.279Z</time></trkpt><trkpt lat="44.5112975" lon="8.8588121"><ele>226.0</ele><time>2026-04-11T10:59:41.28Z</time></trkpt><trkpt lat="44.5112404" lon="8.8588804"><ele>226.5</ele><time>2026-04-11T10:59:42.279Z</time></trkpt><trkpt lat="44.511198" lon="8.8589635"><ele>227.0</ele><time>2026-04-11T10:59:43.28Z</time></trkpt><trkpt lat="44.5111818" lon="8.8590742"><ele>227.5</ele><time>2026-04-11T10:59:44.28Z</time></trkpt><trkpt lat="44.5111852" lon="8.8592057"><ele>228.0</ele><time>2026-04-11T10:59:45.28Z</time></trkpt><trkpt lat="44.5112007" lon="8.8593547"><ele>226.8</ele><time>2026-04-11T10:59:46.279Z</time></trkpt><trkpt lat="44.5112096" lon="8.859498"><ele>225.60000000000002</ele><time>2026-04-11T10:59:47.28Z</time></trkpt><trkpt lat="44.5112217" lon="8.8596535"><ele>224.39999999999998</ele><time>2026-04-11T10:59:48.279Z</time></trkpt><trkpt lat="44.5112161" lon="8.8598084"><ele>223.2</ele><time>2026-04-11T10:59:49.279Z</time></trkpt><trkpt lat="44.5111963" lon="8.8599668"><ele>222.0</ele><time>2026-04-11T10:59:50.28Z</time></trkpt><trkpt lat="44.5111431" lon="8.8601172"><ele>222.0</ele><time>2026-04-11T10:59:51.279Z</time></trkpt><trkpt lat="44.5110854" lon="8.8602521"><ele>222.0</ele><time>2026-04-11T10:59:52.279Z</time></trkpt><trkpt lat="44.5110214" lon="8.8603668"><ele>222.0</ele><time>2026-04-11T10:59:53.28Z</time></trkpt><trkpt lat="44.5109435" lon="8.8604588"><ele>222.0</ele><time>2026-04-11T10:59:54.279Z</time></trkpt><trkpt lat="44.5108524" lon="8.8605362"><ele>222.0</ele><time>2026-04-11T10:59:55.279Z</time></trkpt><trkpt lat="44.5107503" lon="8.8605973"><ele>222.0</ele><time>2026-04-11T10:59:56.279Z</time></trkpt><trkpt lat="44.5106654" lon="8.8606792"><ele>222.0</ele><time>2026-04-11T10:59:57.28Z</time></trkpt><trkpt lat="44.5106014" lon="8.8607871"><ele>222.0</ele><time>2026-04-11T10:59:58.28Z</time></trkpt><trkpt lat="44.5105456" lon="8.8609186"><ele>222.0</ele><time>2026-04-11T10:59:59.279Z</time></trkpt><trkpt lat="44.5104813" lon="8.8610555"><ele>222.0</ele><time>2026-04-11T11:00:00.28Z</time></trkpt><trkpt lat="44.5104153" lon="8.8612121"><ele>219.5</ele><time>2026-04-11T11:00:01.28Z</time></trkpt><trkpt lat="44.5103481" lon="8.8613728"><ele>217.0</ele><time>2026-04-11T11:00:02.279Z</time></trkpt><trkpt lat="44.5102857" lon="8.8615361"><ele>214.5</ele><time>2026-04-11T11:00:03.279Z</time></trkpt><trkpt lat="44.5102259" lon="8.861676"><ele>212.0</ele><time>2026-04-11T11:00:04.279Z</time></trkpt><trkpt lat="44.5101708" lon="8.8618147"><ele>211.75</ele><time>2026-04-11T11:00:05.279Z</time></trkpt><trkpt lat="44.5101113" lon="8.8619618"><ele>211.5</ele><time>2026-04-11T11:00:06.279Z</time></trkpt><trkpt lat="44.5100483" lon="8.8621207"><ele>211.25</ele><time>2026-04-11T11:00:07.279Z</time></trkpt><trkpt lat="44.5099867" lon="8.8622815"><ele>211.0</ele><time>2026-04-11T11:00:08.279Z</time></trkpt><trkpt lat="44.5099324" lon="8.8624425"><ele>211.0</ele><time>2026-04-11T11:00:09.279Z</time></trkpt><trkpt lat="44.5098781" lon="8.8625883"><ele>211.0</ele><time>2026-04-11T11:00:10.279Z</time></trkpt><trkpt lat="44.5098144" lon="8.8627284"><ele>211.0</ele><time>2026-04-11T11:00:11.28Z</time></trkpt><trkpt lat="44.5097543" lon="8.8628602"><ele>211.0</ele><time>2026-04-11T11:00:12.279Z</time></trkpt><trkpt lat="44.5096898" lon="8.8629655"><ele>211.0</ele><time>2026-04-11T11:00:13.279Z</time></trkpt><trkpt lat="44.5096336" lon="8.8630704"><ele>208.0</ele><time>2026-04-11T11:00:14.279Z</time></trkpt><trkpt lat="44.5095707" lon="8.8631533"><ele>205.0</ele><time>2026-04-11T11:00:15.28Z</time></trkpt><trkpt lat="44.5094954" lon="8.8632276"><ele>202.0</ele><time>2026-04-11T11:00:16.279Z</time></trkpt><trkpt lat="44.5094227" lon="8.8633144"><ele>199.0</ele><time>2026-04-11T11:00:17.279Z</time></trkpt><trkpt lat="44.5093578" lon="8.8634251"><ele>196.0</ele><time>2026-04-11T11:00:18.279Z</time></trkpt><trkpt lat="44.509307" lon="8.8635502"><ele>195.99999999999997</ele><time>2026-04-11T11:00:19.279Z</time></trkpt><trkpt lat="44.5092361" lon="8.8636464"><ele>196.0</ele><time>2026-04-11T11:00:20.28Z</time></trkpt><trkpt lat="44.5091495" lon="8.8637142"><ele>196.0</ele><time>2026-04-11T11:00:21.279Z</time></trkpt><trkpt lat="44.5090768" lon="8.8637629"><ele>196.0</ele><time>2026-04-11T11:00:22.28Z</time></trkpt><trkpt lat="44.5090127" lon="8.8638066"><ele>195.99999999999997</ele><time>2026-04-11T11:00:23.279Z</time></trkpt><trkpt lat="44.5089489" lon="8.863865"><ele>196.0</ele><time>2026-04-11T11:00:24.28Z</time></trkpt><trkpt lat="44.5088876" lon="8.8639474"><ele>195.99999999999997</ele><time>2026-04-11T11:00:25.279Z</time></trkpt><trkpt lat="44.5088413" lon="8.8640271"><ele>196.0</ele><time>2026-04-11T11:00:26.28Z</time></trkpt><trkpt lat="44.5088103" lon="8.8641381"><ele>196.0</ele><time>2026-04-11T11:00:27.279Z</time></trkpt><trkpt lat="44.5087995" lon="8.8642678"><ele>196.0</ele><time>2026-04-11T11:00:28.279Z</time></trkpt><trkpt lat="44.5087986" lon="8.8644108"><ele>195.99999999999997</ele><time>2026-04-11T11:00:29.279Z</time></trkpt><trkpt lat="44.5088089" lon="8.8645425"><ele>196.0</ele><time>2026-04-11T11:00:30.279Z</time></trkpt><trkpt lat="44.5088364" lon="8.8646933"><ele>195.8</ele><time>2026-04-11T11:00:31.279Z</time></trkpt><trkpt lat="44.508872" lon="8.864824"><ele>195.60000000000002</ele><time>2026-04-11T11:00:32.279Z</time></trkpt><trkpt lat="44.5089096" lon="8.8649598"><ele>195.4</ele><time>2026-04-11T11:00:33.28Z</time></trkpt><trkpt lat="44.5089602" lon="8.8650981"><ele>195.2</ele><time>2026-04-11T11:00:34.28Z</time></trkpt><trkpt lat="44.5090165" lon="8.8652368"><ele>195.0</ele><time>2026-04-11T11:00:35.279Z</time></trkpt><trkpt lat="44.5090673" lon="8.8654042"><ele>192.75</ele><time>2026-04-11T11:00:36.279Z</time></trkpt><trkpt lat="44.5090894" lon="8.8655936"><ele>190.5</ele><time>2026-04-11T11:00:37.279Z</time></trkpt><trkpt lat="44.5091009" lon="8.8657665"><ele>188.25</ele><time>2026-04-11T11:00:38.279Z</time></trkpt><trkpt lat="44.5091098" lon="8.8659344"><ele>186.0</ele><time>2026-04-11T11:00:39.279Z</time></trkpt><trkpt lat="44.509107" lon="8.8661089"><ele>186.4</ele><time>2026-04-11T11:00:40.279Z</time></trkpt><trkpt lat="44.5091042" lon="8.8662807"><ele>186.8</ele><time>2026-04-11T11:00:41.28Z</time></trkpt><trkpt lat="44.5090969" lon="8.8664341"><ele>187.20000000000002</ele><time>2026-04-11T11:00:42.279Z</time></trkpt><trkpt lat="44.509098" lon="8.8665766"><ele>187.60000000000002</ele><time>2026-04-11T11:00:43.279Z</time></trkpt><trkpt lat="44.5091312" lon="8.8667264"><ele>188.0</ele><time>2026-04-11T11:00:44.279Z</time></trkpt><trkpt lat="44.5091728" lon="8.8668933"><ele>188.0</ele><time>2026-04-11T11:00:45.279Z</time></trkpt><trkpt lat="44.5092231" lon="8.8670397"><ele>188.0</ele><time>2026-04-11T11:00:46.279Z</time></trkpt><trkpt lat="44.5092786" lon="8.8671893"><ele>188.0</ele><time>2026-04-11T11:00:47.28Z</time></trkpt><trkpt lat="44.5093285" lon="8.8673278"><ele>188.0</ele><time>2026-04-11T11:00:48.279Z</time></trkpt><trkpt lat="44.509421" lon="8.8674311"><ele>188.0</ele><time>2026-04-11T11:00:49.28Z</time></trkpt><trkpt lat="44.5095359" lon="8.8675239"><ele>188.0</ele><time>2026-04-11T11:00:50.28Z</time></trkpt><trkpt lat="44.5096455" lon="8.8675972"><ele>188.0</ele><time>2026-04-11T11:00:51.28Z</time></trkpt><trkpt lat="44.5097495" lon="8.8676668"><ele>188.0</ele><time>2026-04-11T11:00:52.279Z</time></trkpt><trkpt lat="44.5098576" lon="8.8677584"><ele>185.25</ele><time>2026-04-11T11:00:53.279Z</time></trkpt><trkpt lat="44.5099541" lon="8.8678773"><ele>182.5</ele><time>2026-04-11T11:00:54.28Z</time></trkpt><trkpt lat="44.5100482" lon="8.8680278"><ele>179.75</ele><time>2026-04-11T11:00:55.279Z</time></trkpt><trkpt lat="44.5101348" lon="8.8681864"><ele>177.0</ele><time>2026-04-11T11:00:56.28Z</time></trkpt><trkpt lat="44.5102169" lon="8.8683561"><ele>175.5</ele><time>2026-04-11T11:00:57.279Z</time></trkpt><trkpt lat="44.5102972" lon="8.8685051"><ele>174.0</ele><time>2026-04-11T11:00:58.279Z</time></trkpt><trkpt lat="44.5103763" lon="8.8686483"><ele>172.5</ele><time>2026-04-11T11:00:59.279Z</time></trkpt><trkpt lat="44.510452" lon="8.8687975"><ele>171.0</ele><time>2026-04-11T11:01:00.279Z</time></trkpt><trkpt lat="44.5105267" lon="8.8689716"><ele>171.0</ele><time>2026-04-11T11:01:01.279Z</time></trkpt><trkpt lat="44.5105935" lon="8.8691709"><ele>171.0</ele><time>2026-04-11T11:01:02.279Z</time></trkpt><trkpt lat="44.5106619" lon="8.8693689"><ele>171.0</ele><time>2026-04-11T11:01:03.28Z</time></trkpt><trkpt lat="44.510733" lon="8.8695719"><ele>175.0</ele><time>2026-04-11T11:01:04.28Z</time></trkpt><trkpt lat="44.510815" lon="8.8697752"><ele>179.0</ele><time>2026-04-11T11:01:05.279Z</time></trkpt><trkpt lat="44.5109038" lon="8.8699743"><ele>183.0</ele><time>2026-04-11T11:01:06.279Z</time></trkpt><trkpt lat="44.5109954" lon="8.8701547"><ele>180.0</ele><time>2026-04-11T11:01:07.279Z</time></trkpt><trkpt lat="44.5110892" lon="8.870323"><ele>177.0</ele><time>2026-04-11T11:01:08.28Z</time></trkpt><trkpt lat="44.5111854" lon="8.8704933"><ele>174.0</ele><time>2026-04-11T11:01:09.279Z</time></trkpt><trkpt lat="44.5112695" lon="8.8706507"><ele>171.0</ele><time>2026-04-11T11:01:10.279Z</time></trkpt><trkpt lat="44.5113634" lon="8.8708128"><ele>173.75</ele><time>2026-04-11T11:01:11.279Z</time></trkpt><trkpt lat="44.5114616" lon="8.870966"><ele>176.5</ele><time>2026-04-11T11:01:12.279Z</time></trkpt><trkpt lat="44.5115534" lon="8.8711031"><ele>179.25</ele><time>2026-04-11T11:01:13.279Z</time></trkpt><trkpt lat="44.5116393" lon="8.871237"><ele>182.0</ele><time>2026-04-11T11:01:14.28Z</time></trkpt><trkpt lat="44.5117284" lon="8.8713738"><ele>182.0</ele><time>2026-04-11T11:01:15.28Z</time></trkpt><trkpt lat="44.5118202" lon="8.871504"><ele>182.0</ele><time>2026-04-11T11:01:16.279Z</time></trkpt><trkpt lat="44.5119248" lon="8.8716482"><ele>182.0</ele><time>2026-04-11T11:01:17.279Z</time></trkpt><trkpt lat="44.5120341" lon="8.8717833"><ele>182.0</ele><time>2026-04-11T11:01:18.279Z</time></trkpt><trkpt lat="44.5121335" lon="8.8719089"><ele>179.75</ele><time>2026-04-11T11:01:19.28Z</time></trkpt><trkpt lat="44.5122414" lon="8.8720321"><ele>177.5</ele><time>2026-04-11T11:01:20.279Z</time></trkpt><trkpt lat="44.5123497" lon="8.8721553"><ele>175.25</ele><time>2026-04-11T11:01:21.28Z</time></trkpt><trkpt lat="44.5124567" lon="8.8722819"><ele>173.0</ele><time>2026-04-11T11:01:22.28Z</time></trkpt><trkpt lat="44.5125573" lon="8.8724054"><ele>173.0</ele><time>2026-04-11T11:01:23.279Z</time></trkpt><trkpt lat="44.5126474" lon="8.8725241"><ele>173.0</ele><time>2026-04-11T11:01:24.279Z</time></trkpt><trkpt lat="44.5127541" lon="8.8726369"><ele>173.0</ele><time>2026-04-11T11:01:25.28Z</time></trkpt><trkpt lat="44.5128622" lon="8.8727468"><ele>173.0</ele><time>2026-04-11T11:01:26.28Z</time></trkpt><trkpt lat="44.5129593" lon="8.8728546"><ele>170.25</ele><time>2026-04-11T11:01:27.28Z</time></trkpt><trkpt lat="44.5130571" lon="8.8729405"><ele>167.5</ele><time>2026-04-11T11:01:28.279Z</time></trkpt><trkpt lat="44.5131421" lon="8.8730381"><ele>164.75</ele><time>2026-04-11T11:01:29.279Z</time></trkpt><trkpt lat="44.5132279" lon="8.8731591"><ele>162.0</ele><time>2026-04-11T11:01:30.279Z</time></trkpt><trkpt lat="44.5133079" lon="8.8732774"><ele>162.0</ele><time>2026-04-11T11:01:31.28Z</time></trkpt><trkpt lat="44.5133607" lon="8.8734292"><ele>162.0</ele><time>2026-04-11T11:01:32.279Z</time></trkpt><trkpt lat="44.5133948" lon="8.8735783"><ele>162.0</ele><time>2026-04-11T11:01:33.279Z</time></trkpt><trkpt lat="44.5134317" lon="8.8737233"><ele>162.0</ele><time>2026-04-11T11:01:34.279Z</time></trkpt><trkpt lat="44.5134539" lon="8.8738662"><ele>162.0</ele><time>2026-04-11T11:01:35.279Z</time></trkpt><trkpt lat="44.5134584" lon="8.8739957"><ele>162.0</ele><time>2026-04-11T11:01:36.279Z</time></trkpt><trkpt lat="44.5134502" lon="8.8741293"><ele>162.0</ele><time>2026-04-11T11:01:37.279Z</time></trkpt><trkpt lat="44.5134305" lon="8.8742515"><ele>162.0</ele><time>2026-04-11T11:01:38.279Z</time></trkpt><trkpt lat="44.5133995" lon="8.8743847"><ele>162.0</ele><time>2026-04-11T11:01:39.279Z</time></trkpt><trkpt lat="44.5133663" lon="8.874514"><ele>162.0</ele><time>2026-04-11T11:01:40.279Z</time></trkpt><trkpt lat="44.5133172" lon="8.8746574"><ele>162.0</ele><time>2026-04-11T11:01:41.279Z</time></trkpt><trkpt lat="44.5132702" lon="8.8748332"><ele>162.0</ele><time>2026-04-11T11:01:42.28Z</time></trkpt><trkpt lat="44.5132214" lon="8.8750242"><ele>162.0</ele><time>2026-04-11T11:01:43.279Z</time></trkpt><trkpt lat="44.5132008" lon="8.8752436"><ele>162.0</ele><time>2026-04-11T11:01:44.279Z</time></trkpt><trkpt lat="44.5131907" lon="8.8754557"><ele>160.5</ele><time>2026-04-11T11:01:45.279Z</time></trkpt><trkpt lat="44.5131804" lon="8.8756472"><ele>159.0</ele><time>2026-04-11T11:01:46.279Z</time></trkpt><trkpt lat="44.5131731" lon="8.8758164"><ele>157.5</ele><time>2026-04-11T11:01:47.28Z</time></trkpt><trkpt lat="44.5131578" lon="8.8759781"><ele>156.0</ele><time>2026-04-11T11:01:48.279Z</time></trkpt><trkpt lat="44.5131424" lon="8.8761198"><ele>155.6</ele><time>2026-04-11T11:01:49.279Z</time></trkpt><trkpt lat="44.5131065" lon="8.8762508"><ele>155.2</ele><time>2026-04-11T11:01:50.279Z</time></trkpt><trkpt lat="44.5130645" lon="8.8763776"><ele>154.8</ele><time>2026-04-11T11:01:51.279Z</time></trkpt><trkpt lat="44.5130302" lon="8.8764974"><ele>154.4</ele><time>2026-04-11T11:01:52.279Z</time></trkpt><trkpt lat="44.5129954" lon="8.8766208"><ele>154.0</ele><time>2026-04-11T11:01:53.279Z</time></trkpt><trkpt lat="44.5129666" lon="8.8767388"><ele>153.16666666666669</ele><time>2026-04-11T11:01:54.279Z</time></trkpt><trkpt lat="44.5129312" lon="8.8768494"><ele>152.33333333333334</ele><time>2026-04-11T11:01:55.279Z</time></trkpt><trkpt lat="44.5128971" lon="8.8769567"><ele>151.5</ele><time>2026-04-11T11:01:56.279Z</time></trkpt><trkpt lat="44.5128709" lon="8.8770712"><ele>150.66666666666666</ele><time>2026-04-11T11:01:57.279Z</time></trkpt><trkpt lat="44.51283" lon="8.8771862"><ele>149.83333333333331</ele><time>2026-04-11T11:01:58.28Z</time></trkpt><trkpt lat="44.5128101" lon="8.8773016"><ele>149.0</ele><time>2026-04-11T11:01:59.28Z</time></trkpt><trkpt lat="44.5127886" lon="8.8774192"><ele>150.2</ele><time>2026-04-11T11:02:00.279Z</time></trkpt><trkpt lat="44.5127542" lon="8.8775507"><ele>151.4</ele><time>2026-04-11T11:02:01.279Z</time></trkpt><trkpt lat="44.5127197" lon="8.8776823"><ele>152.6</ele><time>2026-04-11T11:02:02.279Z</time></trkpt><trkpt lat="44.5126839" lon="8.8778016"><ele>153.8</ele><time>2026-04-11T11:02:03.279Z</time></trkpt><trkpt lat="44.5126385" lon="8.8779084"><ele>155.0</ele><time>2026-04-11T11:02:04.279Z</time></trkpt><trkpt lat="44.5125966" lon="8.878022"><ele>155.0</ele><time>2026-04-11T11:02:05.28Z</time></trkpt><trkpt lat="44.5125522" lon="8.8781333"><ele>155.0</ele><time>2026-04-11T11:02:06.28Z</time></trkpt><trkpt lat="44.5125089" lon="8.8782452"><ele>155.0</ele><time>2026-04-11T11:02:07.28Z</time></trkpt><trkpt lat="44.5124555" lon="8.8783523"><ele>155.0</ele><time>2026-04-11T11:02:08.28Z</time></trkpt><trkpt lat="44.5123921" lon="8.8784364"><ele>155.0</ele><time>2026-04-11T11:02:09.279Z</time></trkpt><trkpt lat="44.5123044" lon="8.8784943"><ele>155.0</ele><time>2026-04-11T11:02:10.279Z</time></trkpt><trkpt lat="44.5122015" lon="8.8785651"><ele>155.0</ele><time>2026-04-11T11:02:11.279Z</time></trkpt><trkpt lat="44.5120926" lon="8.8786324"><ele>155.0</ele><time>2026-04-11T11:02:12.28Z</time></trkpt><trkpt lat="44.5119728" lon="8.878715"><ele>155.0</ele><time>2026-04-11T11:02:13.279Z</time></trkpt><trkpt lat="44.5118457" lon="8.8788441"><ele>155.0</ele><time>2026-04-11T11:02:14.28Z</time></trkpt><trkpt lat="44.5117098" lon="8.879016"><ele>155.0</ele><time>2026-04-11T11:02:15.279Z</time></trkpt><trkpt lat="44.5115872" lon="8.8791678"><ele>155.0</ele><time>2026-04-11T11:02:16.279Z</time></trkpt><trkpt lat="44.5114724" lon="8.8793139"><ele>155.5</ele><time>2026-04-11T11:02:17.279Z</time></trkpt><trkpt lat="44.511364" lon="8.8794494"><ele>156.0</ele><time>2026-04-11T11:02:18.279Z</time></trkpt><trkpt lat="44.511269" lon="8.8795978"><ele>156.5</ele><time>2026-04-11T11:02:19.279Z</time></trkpt><trkpt lat="44.5112023" lon="8.8797644"><ele>157.0</ele><time>2026-04-11T11:02:20.279Z</time></trkpt><trkpt lat="44.511178" lon="8.8799257"><ele>155.5</ele><time>2026-04-11T11:02:21.279Z</time></trkpt><trkpt lat="44.5111701" lon="8.8801122"><ele>154.0</ele><time>2026-04-11T11:02:22.28Z</time></trkpt><trkpt lat="44.5111529" lon="8.8803175"><ele>152.5</ele><time>2026-04-11T11:02:23.279Z</time></trkpt><trkpt lat="44.5111218" lon="8.8805294"><ele>151.0</ele><time>2026-04-11T11:02:24.28Z</time></trkpt><trkpt lat="44.5110793" lon="8.8807494"><ele>148.75</ele><time>2026-04-11T11:02:25.279Z</time></trkpt><trkpt lat="44.5110496" lon="8.8809565"><ele>146.5</ele><time>2026-04-11T11:02:26.279Z</time></trkpt><trkpt lat="44.511023" lon="8.8811451"><ele>144.25</ele><time>2026-04-11T11:02:27.279Z</time></trkpt><trkpt lat="44.511014" lon="8.8813244"><ele>142.0</ele><time>2026-04-11T11:02:28.279Z</time></trkpt><trkpt lat="44.5109985" lon="8.8815078"><ele>142.0</ele><time>2026-04-11T11:02:29.279Z</time></trkpt><trkpt lat="44.5109796" lon="8.8816857"><ele>142.0</ele><time>2026-04-11T11:02:30.279Z</time></trkpt><trkpt lat="44.5109555" lon="8.8818517"><ele>142.0</ele><time>2026-04-11T11:02:31.279Z</time></trkpt><trkpt lat="44.5109305" lon="8.8820176"><ele>142.0</ele><time>2026-04-11T11:02:32.28Z</time></trkpt><trkpt lat="44.5108921" lon="8.8821833"><ele>140.79999999999998</ele><time>2026-04-11T11:02:33.279Z</time></trkpt><trkpt lat="44.5108452" lon="8.8823245"><ele>139.6</ele><time>2026-04-11T11:02:34.28Z</time></trkpt><trkpt lat="44.5108013" lon="8.8824677"><ele>138.39999999999998</ele><time>2026-04-11T11:02:35.279Z</time></trkpt><trkpt lat="44.5107556" lon="8.8826046"><ele>137.2</ele><time>2026-04-11T11:02:36.279Z</time></trkpt><trkpt lat="44.5107202" lon="8.8827124"><ele>136.0</ele><time>2026-04-11T11:02:37.28Z</time></trkpt><trkpt lat="44.5106873" lon="8.8827993"><ele>135.66666666666669</ele><time>2026-04-11T11:02:38.279Z</time></trkpt><trkpt lat="44.5106293" lon="8.8828816"><ele>135.33333333333334</ele><time>2026-04-11T11:02:39.28Z</time></trkpt><trkpt lat="44.5105706" lon="8.8829806"><ele>135.0</ele><time>2026-04-11T11:02:40.279Z</time></trkpt><trkpt lat="44.510516" lon="8.8830506"><ele>134.66666666666666</ele><time>2026-04-11T11:02:41.28Z</time></trkpt><trkpt lat="44.5104609" lon="8.883114"><ele>134.33333333333331</ele><time>2026-04-11T11:02:42.28Z</time></trkpt><trkpt lat="44.5103978" lon="8.8832327"><ele>134.0</ele><time>2026-04-11T11:02:44.28Z</time></trkpt><trkpt lat="44.510393" lon="8.883387"><ele>135.33333333333331</ele><time>2026-04-11T11:02:46.28Z</time></trkpt><trkpt lat="44.510415" lon="8.8834738"><ele>136.66666666666666</ele><time>2026-04-11T11:02:47.279Z</time></trkpt><trkpt lat="44.5104386" lon="8.8835835"><ele>138.0</ele><time>2026-04-11T11:02:48.28Z</time></trkpt><trkpt lat="44.5104646" lon="8.8836741"><ele>139.33333333333334</ele><time>2026-04-11T11:02:49.279Z</time></trkpt><trkpt lat="44.5104838" lon="8.8837646"><ele>140.66666666666669</ele><time>2026-04-11T11:02:50.279Z</time></trkpt><trkpt lat="44.5105121" lon="8.8838936"><ele>142.0</ele><time>2026-04-11T11:02:52.279Z</time></trkpt><trkpt lat="44.5105491" lon="8.8839857"><ele>142.0</ele><time>2026-04-11T11:02:55.279Z</time></trkpt><trkpt lat="44.5106012" lon="8.8840404"><ele>142.0</ele><time>2026-04-11T11:02:57.279Z</time></trkpt><trkpt lat="44.5106654" lon="8.8840306"><ele>142.0</ele><time>2026-04-11T11:02:59.279Z</time></trkpt><trkpt lat="44.51078" lon="8.8839594"><ele>142.0</ele><time>2026-04-11T11:03:02.279Z</time></trkpt><trkpt lat="44.5108408" lon="8.8838791"><ele>142.0</ele><time>2026-04-11T11:03:03.28Z</time></trkpt><trkpt lat="44.510913" lon="8.8837898"><ele>142.0</ele><time>2026-04-11T11:03:04.28Z</time></trkpt><trkpt lat="44.5109906" lon="8.8836786"><ele>142.0</ele><time>2026-04-11T11:03:05.279Z</time></trkpt><trkpt lat="44.5110594" lon="8.8835337"><ele>142.0</ele><time>2026-04-11T11:03:06.279Z</time></trkpt><trkpt lat="44.5111304" lon="8.8833824"><ele>142.0</ele><time>2026-04-11T11:03:07.28Z</time></trkpt><trkpt lat="44.5112037" lon="8.8832354"><ele>142.0</ele><time>2026-04-11T11:03:08.28Z</time></trkpt><trkpt lat="44.5112736" lon="8.883088"><ele>141.25</ele><time>2026-04-11T11:03:09.279Z</time></trkpt><trkpt lat="44.5113407" lon="8.8829491"><ele>140.5</ele><time>2026-04-11T11:03:10.279Z</time></trkpt><trkpt lat="44.511413" lon="8.8828164"><ele>139.75</ele><time>2026-04-11T11:03:11.28Z</time></trkpt><trkpt lat="44.5114785" lon="8.8826693"><ele>139.0</ele><time>2026-04-11T11:03:12.279Z</time></trkpt><trkpt lat="44.511553" lon="8.882532"><ele>139.0</ele><time>2026-04-11T11:03:13.279Z</time></trkpt><trkpt lat="44.5116491" lon="8.8824081"><ele>139.0</ele><time>2026-04-11T11:03:14.279Z</time></trkpt><trkpt lat="44.5117534" lon="8.8823047"><ele>139.0</ele><time>2026-04-11T11:03:15.279Z</time></trkpt><trkpt lat="44.5118439" lon="8.8822104"><ele>139.0</ele><time>2026-04-11T11:03:16.279Z</time></trkpt><trkpt lat="44.5119268" lon="8.8821269"><ele>139.0</ele><time>2026-04-11T11:03:17.279Z</time></trkpt><trkpt lat="44.5120266" lon="8.8820891"><ele>139.0</ele><time>2026-04-11T11:03:18.279Z</time></trkpt><trkpt lat="44.5121329" lon="8.8820709"><ele>139.0</ele><time>2026-04-11T11:03:19.28Z</time></trkpt><trkpt lat="44.51226" lon="8.8820803"><ele>139.0</ele><time>2026-04-11T11:03:20.279Z</time></trkpt><trkpt lat="44.5123929" lon="8.8820854"><ele>138.2</ele><time>2026-04-11T11:03:21.279Z</time></trkpt><trkpt lat="44.5125159" lon="8.8820735"><ele>137.4</ele><time>2026-04-11T11:03:22.279Z</time></trkpt><trkpt lat="44.5126127" lon="8.8820237"><ele>136.6</ele><time>2026-04-11T11:03:23.279Z</time></trkpt><trkpt lat="44.5126921" lon="8.8819554"><ele>135.8</ele><time>2026-04-11T11:03:24.28Z</time></trkpt><trkpt lat="44.5127614" lon="8.8818406"><ele>135.0</ele><time>2026-04-11T11:03:25.279Z</time></trkpt><trkpt lat="44.5128246" lon="8.8817161"><ele>135.0</ele><time>2026-04-11T11:03:26.279Z</time></trkpt><trkpt lat="44.5128667" lon="8.8815772"><ele>135.0</ele><time>2026-04-11T11:03:27.279Z</time></trkpt><trkpt lat="44.5128696" lon="8.8814392"><ele>135.0</ele><time>2026-04-11T11:03:28.28Z</time></trkpt><trkpt lat="44.5128653" lon="8.8813283"><ele>135.0</ele><time>2026-04-11T11:03:29.279Z</time></trkpt><trkpt lat="44.5128611" lon="8.881229"><ele>135.0</ele><time>2026-04-11T11:03:30.279Z</time></trkpt><trkpt lat="44.512858" lon="8.8810946"><ele>135.0</ele><time>2026-04-11T11:03:32.279Z</time></trkpt><trkpt lat="44.5128786" lon="8.8809702"><ele>135.0</ele><time>2026-04-11T11:04:24.279Z</time></trkpt><trkpt lat="44.5128881" lon="8.8807911"><ele>135.0</ele><time>2026-04-11T11:04:26.279Z</time></trkpt><trkpt lat="44.5128882" lon="8.8806786"><ele>135.0</ele><time>2026-04-11T11:04:27.279Z</time></trkpt><trkpt lat="44.512907" lon="8.8805615"><ele>135.0</ele><time>2026-04-11T11:04:28.28Z</time></trkpt><trkpt lat="44.5129452" lon="8.8804382"><ele>136.6</ele><time>2026-04-11T11:04:29.28Z</time></trkpt><trkpt lat="44.5129956" lon="8.880334"><ele>138.2</ele><time>2026-04-11T11:04:30.279Z</time></trkpt><trkpt lat="44.5130621" lon="8.8802432"><ele>139.8</ele><time>2026-04-11T11:04:31.279Z</time></trkpt><trkpt lat="44.5131475" lon="8.8801476"><ele>141.4</ele><time>2026-04-11T11:04:32.279Z</time></trkpt><trkpt lat="44.513236" lon="8.8800538"><ele>143.0</ele><time>2026-04-11T11:04:33.279Z</time></trkpt><trkpt lat="44.5133349" lon="8.879971"><ele>143.0</ele><time>2026-04-11T11:04:34.28Z</time></trkpt><trkpt lat="44.5134434" lon="8.8798751"><ele>143.0</ele><time>2026-04-11T11:04:35.279Z</time></trkpt><trkpt lat="44.5135516" lon="8.8797797"><ele>143.0</ele><time>2026-04-11T11:04:36.279Z</time></trkpt><trkpt lat="44.5136691" lon="8.8796938"><ele>143.0</ele><time>2026-04-11T11:04:37.279Z</time></trkpt><trkpt lat="44.5137715" lon="8.8796188"><ele>144.25</ele><time>2026-04-11T11:04:38.279Z</time></trkpt><trkpt lat="44.5138561" lon="8.8795419"><ele>145.5</ele><time>2026-04-11T11:04:39.28Z</time></trkpt><trkpt lat="44.5139255" lon="8.8794094"><ele>146.75</ele><time>2026-04-11T11:04:40.279Z</time></trkpt><trkpt lat="44.5139797" lon="8.8792472"><ele>148.0</ele><time>2026-04-11T11:04:41.28Z</time></trkpt><trkpt lat="44.5140048" lon="8.8790528"><ele>148.0</ele><time>2026-04-11T11:04:42.279Z</time></trkpt><trkpt lat="44.5140249" lon="8.8788435"><ele>148.0</ele><time>2026-04-11T11:04:43.279Z</time></trkpt><trkpt lat="44.5140438" lon="8.878643"><ele>148.0</ele><time>2026-04-11T11:04:44.279Z</time></trkpt><trkpt lat="44.5140706" lon="8.8784687"><ele>148.0</ele><time>2026-04-11T11:04:45.279Z</time></trkpt><trkpt lat="44.5141054" lon="8.8783128"><ele>146.75</ele><time>2026-04-11T11:04:46.279Z</time></trkpt><trkpt lat="44.51416" lon="8.8781607"><ele>145.5</ele><time>2026-04-11T11:04:47.279Z</time></trkpt><trkpt lat="44.5142356" lon="8.8780349"><ele>144.25</ele><time>2026-04-11T11:04:48.279Z</time></trkpt><trkpt lat="44.5143244" lon="8.8779263"><ele>143.0</ele><time>2026-04-11T11:04:49.279Z</time></trkpt><trkpt lat="44.5144308" lon="8.8778229"><ele>143.0</ele><time>2026-04-11T11:04:50.279Z</time></trkpt><trkpt lat="44.5145545" lon="8.8777226"><ele>143.0</ele><time>2026-04-11T11:04:51.28Z</time></trkpt><trkpt lat="44.5146889" lon="8.877641"><ele>143.0</ele><time>2026-04-11T11:04:52.279Z</time></trkpt><trkpt lat="44.5148261" lon="8.8775394"><ele>143.0</ele><time>2026-04-11T11:04:53.28Z</time></trkpt><trkpt lat="44.5149644" lon="8.8774374"><ele>145.66666666666666</ele><time>2026-04-11T11:04:54.28Z</time></trkpt><trkpt lat="44.5151096" lon="8.877342"><ele>148.33333333333334</ele><time>2026-04-11T11:04:55.28Z</time></trkpt><trkpt lat="44.5152473" lon="8.8772426"><ele>151.0</ele><time>2026-04-11T11:04:56.279Z</time></trkpt><trkpt lat="44.5153793" lon="8.8771427"><ele>155.33333333333334</ele><time>2026-04-11T11:04:57.279Z</time></trkpt><trkpt lat="44.5155195" lon="8.877053"><ele>159.66666666666666</ele><time>2026-04-11T11:04:58.279Z</time></trkpt><trkpt lat="44.5156669" lon="8.8769575"><ele>164.0</ele><time>2026-04-11T11:04:59.279Z</time></trkpt><trkpt lat="44.5158011" lon="8.8768847"><ele>164.0</ele><time>2026-04-11T11:05:00.279Z</time></trkpt><trkpt lat="44.515953" lon="8.8768316"><ele>164.0</ele><time>2026-04-11T11:05:01.279Z</time></trkpt><trkpt lat="44.5161112" lon="8.8767815"><ele>164.0</ele><time>2026-04-11T11:05:02.28Z</time></trkpt><trkpt lat="44.5162692" lon="8.876747"><ele>162.33333333333331</ele><time>2026-04-11T11:05:03.28Z</time></trkpt><trkpt lat="44.5164247" lon="8.876698"><ele>160.66666666666666</ele><time>2026-04-11T11:05:04.279Z</time></trkpt><trkpt lat="44.5165619" lon="8.8766386"><ele>159.0</ele><time>2026-04-11T11:05:05.279Z</time></trkpt><trkpt lat="44.5167057" lon="8.8765888"><ele>159.0</ele><time>2026-04-11T11:05:06.279Z</time></trkpt><trkpt lat="44.5168532" lon="8.8765267"><ele>159.0</ele><time>2026-04-11T11:05:07.279Z</time></trkpt><trkpt lat="44.5170071" lon="8.876458"><ele>159.0</ele><time>2026-04-11T11:05:08.279Z</time></trkpt><trkpt lat="44.517148" lon="8.8763615"><ele>162.66666666666666</ele><time>2026-04-11T11:05:09.28Z</time></trkpt><trkpt lat="44.5172911" lon="8.8762688"><ele>166.33333333333331</ele><time>2026-04-11T11:05:10.279Z</time></trkpt><trkpt lat="44.5174297" lon="8.8761644"><ele>170.0</ele><time>2026-04-11T11:05:11.279Z</time></trkpt><trkpt lat="44.5175607" lon="8.8760748"><ele>170.0</ele><time>2026-04-11T11:05:12.279Z</time></trkpt><trkpt lat="44.5176959" lon="8.8760079"><ele>170.0</ele><time>2026-04-11T11:05:13.28Z</time></trkpt><trkpt lat="44.517853" lon="8.875958"><ele>170.0</ele><time>2026-04-11T11:05:14.279Z</time></trkpt><trkpt lat="44.5180037" lon="8.8758876"><ele>165.75</ele><time>2026-04-11T11:05:15.28Z</time></trkpt><trkpt lat="44.5181456" lon="8.8758347"><ele>161.5</ele><time>2026-04-11T11:05:16.279Z</time></trkpt><trkpt lat="44.518274" lon="8.8757895"><ele>157.25</ele><time>2026-04-11T11:05:17.28Z</time></trkpt><trkpt lat="44.5183954" lon="8.8757739"><ele>153.0</ele><time>2026-04-11T11:05:18.279Z</time></trkpt><trkpt lat="44.5185065" lon="8.8757539"><ele>153.0</ele><time>2026-04-11T11:05:19.279Z</time></trkpt><trkpt lat="44.5186168" lon="8.8757512"><ele>153.0</ele><time>2026-04-11T11:05:20.279Z</time></trkpt><trkpt lat="44.5187276" lon="8.87572"><ele>153.0</ele><time>2026-04-11T11:05:21.279Z</time></trkpt><trkpt lat="44.5188472" lon="8.8756569"><ele>153.0</ele><time>2026-04-11T11:05:22.28Z</time></trkpt><trkpt lat="44.5189513" lon="8.8755689"><ele>153.5</ele><time>2026-04-11T11:05:23.279Z</time></trkpt><trkpt lat="44.5190423" lon="8.8754552"><ele>154.0</ele><time>2026-04-11T11:05:24.28Z</time></trkpt><trkpt lat="44.5191166" lon="8.8753116"><ele>154.5</ele><time>2026-04-11T11:05:25.279Z</time></trkpt><trkpt lat="44.5191734" lon="8.8751607"><ele>155.0</ele><time>2026-04-11T11:05:26.279Z</time></trkpt><trkpt lat="44.5192302" lon="8.8749944"><ele>155.0</ele><time>2026-04-11T11:05:27.279Z</time></trkpt><trkpt lat="44.5192727" lon="8.8748038"><ele>155.0</ele><time>2026-04-11T11:05:28.28Z</time></trkpt><trkpt lat="44.5193181" lon="8.874608"><ele>155.0</ele><time>2026-04-11T11:05:29.279Z</time></trkpt><trkpt lat="44.5193581" lon="8.8744116"><ele>155.0</ele><time>2026-04-11T11:05:30.279Z</time></trkpt><trkpt lat="44.5193877" lon="8.8742239"><ele>155.0</ele><time>2026-04-11T11:05:31.28Z</time></trkpt><trkpt lat="44.5194216" lon="8.8740599"><ele>155.0</ele><time>2026-04-11T11:05:32.279Z</time></trkpt><trkpt lat="44.5194626" lon="8.8739239"><ele>155.0</ele><time>2026-04-11T11:05:33.279Z</time></trkpt><trkpt lat="44.5194961" lon="8.8738019"><ele>155.0</ele><time>2026-04-11T11:05:34.279Z</time></trkpt><trkpt lat="44.5195276" lon="8.8736895"><ele>155.0</ele><time>2026-04-11T11:05:35.279Z</time></trkpt><trkpt lat="44.5195687" lon="8.8736092"><ele>155.2</ele><time>2026-04-11T11:05:36.279Z</time></trkpt><trkpt lat="44.5196649" lon="8.8735134"><ele>155.4</ele><time>2026-04-11T11:05:38.279Z</time></trkpt><trkpt lat="44.5197271" lon="8.8734984"><ele>155.6</ele><time>2026-04-11T11:05:39.279Z</time></trkpt><trkpt lat="44.5198098" lon="8.8734949"><ele>155.8</ele><time>2026-04-11T11:05:40.279Z</time></trkpt><trkpt lat="44.519908" lon="8.873503"><ele>156.0</ele><time>2026-04-11T11:05:41.279Z</time></trkpt><trkpt lat="44.5200226" lon="8.8735127"><ele>156.0</ele><time>2026-04-11T11:05:42.28Z</time></trkpt><trkpt lat="44.5201386" lon="8.8735316"><ele>156.0</ele><time>2026-04-11T11:05:43.28Z</time></trkpt><trkpt lat="44.5202508" lon="8.8735434"><ele>156.0</ele><time>2026-04-11T11:05:44.28Z</time></trkpt><trkpt lat="44.5203598" lon="8.8735687"><ele>156.0</ele><time>2026-04-11T11:05:45.279Z</time></trkpt><trkpt lat="44.5204569" lon="8.8736163"><ele>156.0</ele><time>2026-04-11T11:05:46.279Z</time></trkpt><trkpt lat="44.5205315" lon="8.8736831"><ele>157.5</ele><time>2026-04-11T11:05:47.279Z</time></trkpt><trkpt lat="44.5205893" lon="8.8737885"><ele>159.0</ele><time>2026-04-11T11:05:48.28Z</time></trkpt><trkpt lat="44.5206562" lon="8.8739459"><ele>160.5</ele><time>2026-04-11T11:05:49.279Z</time></trkpt><trkpt lat="44.5207332" lon="8.8741275"><ele>162.0</ele><time>2026-04-11T11:05:50.279Z</time></trkpt><trkpt lat="44.520802" lon="8.8743201"><ele>162.5</ele><time>2026-04-11T11:05:51.28Z</time></trkpt><trkpt lat="44.5208565" lon="8.8745101"><ele>163.0</ele><time>2026-04-11T11:05:52.279Z</time></trkpt><trkpt lat="44.5208914" lon="8.8746771"><ele>163.5</ele><time>2026-04-11T11:05:53.279Z</time></trkpt><trkpt lat="44.5209147" lon="8.8748501"><ele>164.0</ele><time>2026-04-11T11:05:54.279Z</time></trkpt><trkpt lat="44.5209573" lon="8.8750151"><ele>167.25</ele><time>2026-04-11T11:05:55.279Z</time></trkpt><trkpt lat="44.5210162" lon="8.8751746"><ele>170.5</ele><time>2026-04-11T11:05:56.278Z</time></trkpt><trkpt lat="44.5210937" lon="8.8753237"><ele>173.75</ele><time>2026-04-11T11:05:57.279Z</time></trkpt><trkpt lat="44.5211662" lon="8.8754703"><ele>177.0</ele><time>2026-04-11T11:05:58.278Z</time></trkpt><trkpt lat="44.521227" lon="8.8756005"><ele>175.0</ele><time>2026-04-11T11:05:59.279Z</time></trkpt><trkpt lat="44.5212865" lon="8.8757244"><ele>173.0</ele><time>2026-04-11T11:06:00.278Z</time></trkpt><trkpt lat="44.5213423" lon="8.8758523"><ele>171.0</ele><time>2026-04-11T11:06:01.278Z</time></trkpt><trkpt lat="44.5214051" lon="8.8759685"><ele>169.0</ele><time>2026-04-11T11:06:02.278Z</time></trkpt><trkpt lat="44.5214725" lon="8.8760652"><ele>167.0</ele><time>2026-04-11T11:06:03.278Z</time></trkpt><trkpt lat="44.5215379" lon="8.8761387"><ele>171.0</ele><time>2026-04-11T11:06:04.279Z</time></trkpt><trkpt lat="44.5216128" lon="8.8761858"><ele>175.0</ele><time>2026-04-11T11:06:05.279Z</time></trkpt><trkpt lat="44.5216835" lon="8.8761841"><ele>179.0</ele><time>2026-04-11T11:06:06.278Z</time></trkpt><trkpt lat="44.5217605" lon="8.8761368"><ele>183.0</ele><time>2026-04-11T11:06:07.278Z</time></trkpt><trkpt lat="44.5218573" lon="8.8760588"><ele>187.0</ele><time>2026-04-11T11:06:08.278Z</time></trkpt><trkpt lat="44.5219477" lon="8.8759458"><ele>185.25</ele><time>2026-04-11T11:06:09.278Z</time></trkpt><trkpt lat="44.5220353" lon="8.8758218"><ele>183.5</ele><time>2026-04-11T11:06:10.278Z</time></trkpt><trkpt lat="44.5221375" lon="8.8756955"><ele>181.75</ele><time>2026-04-11T11:06:11.279Z</time></trkpt><trkpt lat="44.5222357" lon="8.8755316"><ele>180.0</ele><time>2026-04-11T11:06:12.278Z</time></trkpt><trkpt lat="44.5223279" lon="8.8753543"><ele>180.0</ele><time>2026-04-11T11:06:13.278Z</time></trkpt><trkpt lat="44.5224088" lon="8.8751866"><ele>180.0</ele><time>2026-04-11T11:06:14.279Z</time></trkpt><trkpt lat="44.5224911" lon="8.8750237"><ele>180.0</ele><time>2026-04-11T11:06:15.278Z</time></trkpt><trkpt lat="44.5225365" lon="8.8748568"><ele>180.0</ele><time>2026-04-11T11:06:16.278Z</time></trkpt><trkpt lat="44.522552" lon="8.8747082"><ele>180.0</ele><time>2026-04-11T11:06:17.278Z</time></trkpt><trkpt lat="44.5225639" lon="8.8745295"><ele>180.0</ele><time>2026-04-11T11:06:18.278Z</time></trkpt><trkpt lat="44.522569" lon="8.874313"><ele>180.0</ele><time>2026-04-11T11:06:19.278Z</time></trkpt><trkpt lat="44.5225649" lon="8.8740969"><ele>180.0</ele><time>2026-04-11T11:06:20.278Z</time></trkpt><trkpt lat="44.5225537" lon="8.8738916"><ele>180.0</ele><time>2026-04-11T11:06:21.279Z</time></trkpt><trkpt lat="44.5225491" lon="8.8737101"><ele>180.0</ele><time>2026-04-11T11:06:22.278Z</time></trkpt><trkpt lat="44.5225499" lon="8.8735546"><ele>180.0</ele><time>2026-04-11T11:06:23.278Z</time></trkpt><trkpt lat="44.5225553" lon="8.8734052"><ele>180.0</ele><time>2026-04-11T11:06:24.278Z</time></trkpt><trkpt lat="44.5225842" lon="8.8732551"><ele>179.25</ele><time>2026-04-11T11:06:25.278Z</time></trkpt><trkpt lat="44.5226481" lon="8.8731151"><ele>178.5</ele><time>2026-04-11T11:06:26.279Z</time></trkpt><trkpt lat="44.5227385" lon="8.8730188"><ele>177.75</ele><time>2026-04-11T11:06:27.278Z</time></trkpt><trkpt lat="44.5228393" lon="8.8729539"><ele>177.0</ele><time>2026-04-11T11:06:28.279Z</time></trkpt><trkpt lat="44.5229575" lon="8.8729235"><ele>183.25</ele><time>2026-04-11T11:06:29.278Z</time></trkpt><trkpt lat="44.5230884" lon="8.8728888"><ele>189.5</ele><time>2026-04-11T11:06:30.279Z</time></trkpt><trkpt lat="44.5232289" lon="8.8728488"><ele>195.75</ele><time>2026-04-11T11:06:31.278Z</time></trkpt><trkpt lat="44.5233661" lon="8.8728094"><ele>202.0</ele><time>2026-04-11T11:06:32.279Z</time></trkpt><trkpt lat="44.5235044" lon="8.8727693"><ele>202.0</ele><time>2026-04-11T11:06:33.278Z</time></trkpt><trkpt lat="44.5236383" lon="8.8727083"><ele>202.0</ele><time>2026-04-11T11:06:34.278Z</time></trkpt><trkpt lat="44.5237561" lon="8.8726188"><ele>202.0</ele><time>2026-04-11T11:06:35.278Z</time></trkpt><trkpt lat="44.523871" lon="8.8725328"><ele>202.0</ele><time>2026-04-11T11:06:36.278Z</time></trkpt><trkpt lat="44.5239522" lon="8.8724165"><ele>200.75</ele><time>2026-04-11T11:06:37.278Z</time></trkpt><trkpt lat="44.5240375" lon="8.8722562"><ele>199.5</ele><time>2026-04-11T11:06:38.278Z</time></trkpt><trkpt lat="44.5241276" lon="8.8720832"><ele>198.25</ele><time>2026-04-11T11:06:39.278Z</time></trkpt><trkpt lat="44.5242185" lon="8.871919"><ele>197.0</ele><time>2026-04-11T11:06:40.278Z</time></trkpt><trkpt lat="44.5243195" lon="8.8717447"><ele>198.25</ele><time>2026-04-11T11:06:41.278Z</time></trkpt><trkpt lat="44.5244213" lon="8.8715763"><ele>199.5</ele><time>2026-04-11T11:06:42.279Z</time></trkpt><trkpt lat="44.5245072" lon="8.8714185"><ele>200.75</ele><time>2026-04-11T11:06:43.278Z</time></trkpt><trkpt lat="44.5245903" lon="8.871286"><ele>202.0</ele><time>2026-04-11T11:06:44.278Z</time></trkpt><trkpt lat="44.5246668" lon="8.8711937"><ele>202.0</ele><time>2026-04-11T11:06:45.278Z</time></trkpt><trkpt lat="44.5247521" lon="8.8711501"><ele>202.0</ele><time>2026-04-11T11:06:46.278Z</time></trkpt><trkpt lat="44.5248466" lon="8.8711508"><ele>202.0</ele><time>2026-04-11T11:06:47.279Z</time></trkpt><trkpt lat="44.5249569" lon="8.8712149"><ele>202.0</ele><time>2026-04-11T11:06:48.279Z</time></trkpt><trkpt lat="44.5250616" lon="8.8712767"><ele>202.0</ele><time>2026-04-11T11:06:49.278Z</time></trkpt><trkpt lat="44.5251563" lon="8.8713087"><ele>202.0</ele><time>2026-04-11T11:06:50.279Z</time></trkpt><trkpt lat="44.5252501" lon="8.8712931"><ele>202.0</ele><time>2026-04-11T11:06:51.278Z</time></trkpt><trkpt lat="44.5253544" lon="8.8712492"><ele>202.0</ele><time>2026-04-11T11:06:52.278Z</time></trkpt><trkpt lat="44.5254518" lon="8.8711616"><ele>202.0</ele><time>2026-04-11T11:06:53.278Z</time></trkpt><trkpt lat="44.525556" lon="8.8710478"><ele>200.25</ele><time>2026-04-11T11:06:54.278Z</time></trkpt><trkpt lat="44.5256569" lon="8.8709357"><ele>198.5</ele><time>2026-04-11T11:06:55.278Z</time></trkpt><trkpt lat="44.5257497" lon="8.8708163"><ele>196.75</ele><time>2026-04-11T11:06:56.279Z</time></trkpt><trkpt lat="44.5258258" lon="8.870668"><ele>195.0</ele><time>2026-04-11T11:06:57.278Z</time></trkpt><trkpt lat="44.5258924" lon="8.8704814"><ele>195.0</ele><time>2026-04-11T11:06:58.278Z</time></trkpt><trkpt lat="44.5259584" lon="8.8702805"><ele>195.0</ele><time>2026-04-11T11:06:59.278Z</time></trkpt><trkpt lat="44.5260141" lon="8.8700833"><ele>195.0</ele><time>2026-04-11T11:07:00.278Z</time></trkpt><trkpt lat="44.5260792" lon="8.869862"><ele>193.33333333333334</ele><time>2026-04-11T11:07:01.279Z</time></trkpt><trkpt lat="44.5261347" lon="8.869632"><ele>191.66666666666669</ele><time>2026-04-11T11:07:02.278Z</time></trkpt><trkpt lat="44.5261972" lon="8.869405"><ele>190.0</ele><time>2026-04-11T11:07:03.279Z</time></trkpt><trkpt lat="44.5262541" lon="8.8691722"><ele>200.0</ele><time>2026-04-11T11:07:04.278Z</time></trkpt><trkpt lat="44.5262999" lon="8.868955"><ele>210.0</ele><time>2026-04-11T11:07:05.278Z</time></trkpt><trkpt lat="44.526345" lon="8.8687526"><ele>220.0</ele><time>2026-04-11T11:07:06.278Z</time></trkpt><trkpt lat="44.5263868" lon="8.8685555"><ele>216.5</ele><time>2026-04-11T11:07:07.278Z</time></trkpt><trkpt lat="44.5264309" lon="8.8683544"><ele>213.0</ele><time>2026-04-11T11:07:08.278Z</time></trkpt><trkpt lat="44.5264826" lon="8.8681873"><ele>209.5</ele><time>2026-04-11T11:07:09.279Z</time></trkpt><trkpt lat="44.5265255" lon="8.8680302"><ele>206.0</ele><time>2026-04-11T11:07:10.278Z</time></trkpt><trkpt lat="44.5265745" lon="8.8678698"><ele>206.0</ele><time>2026-04-11T11:07:11.278Z</time></trkpt><trkpt lat="44.5266329" lon="8.8677593"><ele>206.0</ele><time>2026-04-11T11:07:12.278Z</time></trkpt><trkpt lat="44.5267213" lon="8.8677057"><ele>206.0</ele><time>2026-04-11T11:07:13.278Z</time></trkpt><trkpt lat="44.5268122" lon="8.8676577"><ele>206.0</ele><time>2026-04-11T11:07:14.278Z</time></trkpt><trkpt lat="44.5269145" lon="8.8676318"><ele>206.0</ele><time>2026-04-11T11:07:15.278Z</time></trkpt><trkpt lat="44.5270146" lon="8.8676159"><ele>205.60000000000002</ele><time>2026-04-11T11:07:16.278Z</time></trkpt><trkpt lat="44.5271086" lon="8.8675914"><ele>205.2</ele><time>2026-04-11T11:07:17.278Z</time></trkpt><trkpt lat="44.5272022" lon="8.8676148"><ele>204.8</ele><time>2026-04-11T11:07:18.278Z</time></trkpt><trkpt lat="44.5272837" lon="8.8676428"><ele>204.39999999999998</ele><time>2026-04-11T11:07:19.279Z</time></trkpt><trkpt lat="44.5273915" lon="8.867681"><ele>204.0</ele><time>2026-04-11T11:07:21.279Z</time></trkpt><trkpt lat="44.5274594" lon="8.8676606"><ele>218.0</ele><time>2026-04-11T11:07:24.278Z</time></trkpt></trkseg></trk></gpx>